<?xml version='1.0' encoding='utf-8'?>
<gpx xmlns="http://www.topografix.com/GPX/1/1" xmlns:xsi="http://www.w3.org/2001/XMLSchema-instance" version="v1.1.5" creator="iTravel Tech Inc. - http://www.itravel-tech.com" xsi:schemaLocation="http://www.topografix.com/GPX/1/1 http://www.topografix.com/GPX/1/1/gpx.xsd http://www.topografix.com/GPX/gpx_overlay/0/3 http://www.topografix.com/GPX/gpx_overlay/0/3/gpx_overlay.xsd http://www.topografix.com/GPX/gpx_modified/0/1 http://www.topografix.com/GPX/gpx_modified/0/1/gpx_modified.xsd">
<trk>
<name>Holux2012/05/02_07:10</name>
<trkseg>
<trkpt lat="43.158951" lon="19.292870">
<ele>829.7</ele>
<time>2012-05-02T04:10:35Z</time>
<desc>lat.=43.158951, lon.=19.292870, Alt.=848.273926m. Speed=0.108000m/h.</desc>
<speed>0.030000</speed>
</trkpt>
<trkpt lat="43.158939" lon="19.294039">
<ele>844.1</ele>
<time>2012-05-02T04:12:45Z</time>
<desc>lat.=43.158939, lon.=19.294039, Alt.=852.914551m. Speed=5.868000m/h.</desc>
<speed>1.630000</speed>
</trkpt>
<trkpt lat="43.158440" lon="19.293936">
<ele>837.6</ele>
<time>2012-05-02T04:12:55Z</time>
<desc>lat.=43.158440, lon.=19.293936, Alt.=849.195801m. Speed=30.204000m/h.</desc>
<speed>8.390000</speed>
</trkpt>
<trkpt lat="43.158085" lon="19.294132">
<ele>830.7</ele>
<time>2012-05-02T04:13:00Z</time>
<desc>lat.=43.158085, lon.=19.294132, Alt.=846.492676m. Speed=33.911999m/h.</desc>
<speed>9.420000</speed>
</trkpt>
<trkpt lat="43.157753" lon="19.294603">
<ele>827.8</ele>
<time>2012-05-02T04:13:05Z</time>
<desc>lat.=43.157753, lon.=19.294603, Alt.=842.508301m. Speed=39.995998m/h.</desc>
<speed>11.110000</speed>
</trkpt>
<trkpt lat="43.157360" lon="19.295813">
<ele>816.3</ele>
<time>2012-05-02T04:13:15Z</time>
<desc>lat.=43.157360, lon.=19.295813, Alt.=833.773926m. Speed=38.051998m/h.</desc>
<speed>10.569999</speed>
</trkpt>
<trkpt lat="43.157001" lon="19.296246">
<ele>814.2</ele>
<time>2012-05-02T04:13:20Z</time>
<desc>lat.=43.157001, lon.=19.296246, Alt.=829.523926m. Speed=39.708000m/h.</desc>
<speed>11.030000</speed>
</trkpt>
<trkpt lat="43.156006" lon="19.296387">
<ele>816.6</ele>
<time>2012-05-02T04:13:30Z</time>
<desc>lat.=43.156006, lon.=19.296387, Alt.=822.195801m. Speed=40.284000m/h.</desc>
<speed>11.190000</speed>
</trkpt>
<trkpt lat="43.153965" lon="19.295488">
<ele>794.2</ele>
<time>2012-05-02T04:13:50Z</time>
<desc>lat.=43.153965, lon.=19.295488, Alt.=802.836426m. Speed=45.647999m/h.</desc>
<speed>12.680000</speed>
</trkpt>
<trkpt lat="43.152920" lon="19.296154">
<ele>786.8</ele>
<time>2012-05-02T04:14:00Z</time>
<desc>lat.=43.152920, lon.=19.296154, Alt.=794.320801m. Speed=45.827999m/h.</desc>
<speed>12.730000</speed>
</trkpt>
<trkpt lat="43.152355" lon="19.296150">
<ele>791.1</ele>
<time>2012-05-02T04:14:05Z</time>
<desc>lat.=43.152355, lon.=19.296150, Alt.=789.273926m. Speed=46.296001m/h.</desc>
<speed>12.860000</speed>
</trkpt>
<trkpt lat="43.151207" lon="19.295984">
<ele>767.1</ele>
<time>2012-05-02T04:14:15Z</time>
<desc>lat.=43.151207, lon.=19.295984, Alt.=780.617676m. Speed=42.551998m/h.</desc>
<speed>11.819999</speed>
</trkpt>
<trkpt lat="43.150715" lon="19.295712">
<ele>712.6</ele>
<time>2012-05-02T04:14:20Z</time>
<desc>lat.=43.150715, lon.=19.295712, Alt.=777.398926m. Speed=41.976002m/h.</desc>
<speed>11.660000</speed>
</trkpt>
<trkpt lat="43.149269" lon="19.293869">
<ele>715.6</ele>
<time>2012-05-02T04:14:40Z</time>
<desc>lat.=43.149269, lon.=19.293869, Alt.=777.117676m. Speed=39.096001m/h.</desc>
<speed>10.860000</speed>
</trkpt>
<trkpt lat="43.148556" lon="19.292133">
<ele>768.8</ele>
<time>2012-05-02T04:14:55Z</time>
<desc>lat.=43.148556, lon.=19.292133, Alt.=780.602051m. Speed=35.928001m/h.</desc>
<speed>9.980000</speed>
</trkpt>
<trkpt lat="43.148872" lon="19.289888">
<ele>784.5</ele>
<time>2012-05-02T04:15:10Z</time>
<desc>lat.=43.148872, lon.=19.289888, Alt.=793.055176m. Speed=47.448002m/h.</desc>
<speed>13.180001</speed>
</trkpt>
<trkpt lat="43.149281" lon="19.289423">
<ele>785.0</ele>
<time>2012-05-02T04:15:15Z</time>
<desc>lat.=43.149281, lon.=19.289423, Alt.=795.570801m. Speed=44.891998m/h.</desc>
<speed>12.470000</speed>
</trkpt>
<trkpt lat="43.150490" lon="19.289665">
<ele>787.5</ele>
<time>2012-05-02T04:15:25Z</time>
<desc>lat.=43.150490, lon.=19.289665, Alt.=801.555176m. Speed=51.228001m/h.</desc>
<speed>14.230000</speed>
</trkpt>
<trkpt lat="43.151131" lon="19.289375">
<ele>798.1</ele>
<time>2012-05-02T04:15:30Z</time>
<desc>lat.=43.151131, lon.=19.289375, Alt.=805.586426m. Speed=57.419998m/h.</desc>
<speed>15.949999</speed>
</trkpt>
<trkpt lat="43.152020" lon="19.287804">
<ele>812.1</ele>
<time>2012-05-02T04:15:40Z</time>
<desc>lat.=43.152020, lon.=19.287804, Alt.=814.273926m. Speed=48.959999m/h.</desc>
<speed>13.600000</speed>
</trkpt>
<trkpt lat="43.151413" lon="19.285219">
<ele>832.5</ele>
<time>2012-05-02T04:15:55Z</time>
<desc>lat.=43.151413, lon.=19.285219, Alt.=827.039551m. Speed=50.723999m/h.</desc>
<speed>14.090000</speed>
</trkpt>
<trkpt lat="43.151779" lon="19.282379">
<ele>849.6</ele>
<time>2012-05-02T04:16:15Z</time>
<desc>lat.=43.151779, lon.=19.282379, Alt.=840.508301m. Speed=43.200001m/h.</desc>
<speed>12.000000</speed>
</trkpt>
<trkpt lat="43.151451" lon="19.280834">
<ele>857.0</ele>
<time>2012-05-02T04:16:25Z</time>
<desc>lat.=43.151451, lon.=19.280834, Alt.=842.445801m. Speed=48.492001m/h.</desc>
<speed>13.470000</speed>
</trkpt>
<trkpt lat="43.151596" lon="19.278210">
<ele>862.5</ele>
<time>2012-05-02T04:16:40Z</time>
<desc>lat.=43.151596, lon.=19.278210, Alt.=846.680176m. Speed=49.608002m/h.</desc>
<speed>13.780000</speed>
</trkpt>
<trkpt lat="43.152138" lon="19.277256">
<ele>843.7</ele>
<time>2012-05-02T04:16:50Z</time>
<desc>lat.=43.152138, lon.=19.277256, Alt.=848.383301m. Speed=19.836000m/h.</desc>
<speed>5.510000</speed>
</trkpt>
<trkpt lat="43.151913" lon="19.277191">
<ele>859.5</ele>
<time>2012-05-02T04:16:55Z</time>
<desc>lat.=43.151913, lon.=19.277191, Alt.=849.023926m. Speed=25.559999m/h.</desc>
<speed>7.100000</speed>
</trkpt>
<trkpt lat="43.151459" lon="19.278063">
<ele>878.3</ele>
<time>2012-05-02T04:17:05Z</time>
<desc>lat.=43.151459, lon.=19.278063, Alt.=855.180176m. Speed=33.588001m/h.</desc>
<speed>9.330000</speed>
</trkpt>
<trkpt lat="43.151070" lon="19.280834">
<ele>893.5</ele>
<time>2012-05-02T04:17:25Z</time>
<desc>lat.=43.151070, lon.=19.280834, Alt.=864.102051m. Speed=41.759998m/h.</desc>
<speed>11.600000</speed>
</trkpt>
<trkpt lat="43.151146" lon="19.282249">
<ele>896.2</ele>
<time>2012-05-02T04:17:35Z</time>
<desc>lat.=43.151146, lon.=19.282249, Alt.=868.977051m. Speed=40.860001m/h.</desc>
<speed>11.350000</speed>
</trkpt>
<trkpt lat="43.150467" lon="19.284500">
<ele>905.1</ele>
<time>2012-05-02T04:17:50Z</time>
<desc>lat.=43.150467, lon.=19.284500, Alt.=878.555176m. Speed=57.096001m/h.</desc>
<speed>15.860000</speed>
</trkpt>
<trkpt lat="43.150410" lon="19.286467">
<ele>912.8</ele>
<time>2012-05-02T04:18:00Z</time>
<desc>lat.=43.150410, lon.=19.286467, Alt.=889.617676m. Speed=54.612000m/h.</desc>
<speed>15.170000</speed>
</trkpt>
<trkpt lat="43.150620" lon="19.287449">
<ele>895.7</ele>
<time>2012-05-02T04:18:10Z</time>
<desc>lat.=43.150620, lon.=19.287449, Alt.=898.195801m. Speed=16.992001m/h.</desc>
<speed>4.720000</speed>
</trkpt>
<trkpt lat="43.150211" lon="19.285772">
<ele>930.4</ele>
<time>2012-05-02T04:18:25Z</time>
<desc>lat.=43.150211, lon.=19.285772, Alt.=907.242676m. Speed=48.060001m/h.</desc>
<speed>13.350000</speed>
</trkpt>
<trkpt lat="43.150085" lon="19.284081">
<ele>940.5</ele>
<time>2012-05-02T04:18:35Z</time>
<desc>lat.=43.150085, lon.=19.284081, Alt.=916.273926m. Speed=47.952000m/h.</desc>
<speed>13.320000</speed>
</trkpt>
<trkpt lat="43.150391" lon="19.282406">
<ele>948.0</ele>
<time>2012-05-02T04:18:45Z</time>
<desc>lat.=43.150391, lon.=19.282406, Alt.=925.508301m. Speed=51.444000m/h.</desc>
<speed>14.290000</speed>
</trkpt>
<trkpt lat="43.150394" lon="19.281473">
<ele>950.3</ele>
<time>2012-05-02T04:18:50Z</time>
<desc>lat.=43.150394, lon.=19.281473, Alt.=930.242676m. Speed=56.880001m/h.</desc>
<speed>15.800000</speed>
</trkpt>
<trkpt lat="43.150021" lon="19.279631">
<ele>962.6</ele>
<time>2012-05-02T04:19:00Z</time>
<desc>lat.=43.150021, lon.=19.279631, Alt.=939.523926m. Speed=53.928001m/h.</desc>
<speed>14.980000</speed>
</trkpt>
<trkpt lat="43.149937" lon="19.277805">
<ele>963.7</ele>
<time>2012-05-02T04:19:10Z</time>
<desc>lat.=43.149937, lon.=19.277805, Alt.=949.008301m. Speed=56.807999m/h.</desc>
<speed>15.780000</speed>
</trkpt>
<trkpt lat="43.150372" lon="19.275867">
<ele>968.6</ele>
<time>2012-05-02T04:19:20Z</time>
<desc>lat.=43.150372, lon.=19.275867, Alt.=960.055176m. Speed=52.848000m/h.</desc>
<speed>14.680000</speed>
</trkpt>
<trkpt lat="43.152157" lon="19.272655">
<ele>980.0</ele>
<time>2012-05-02T04:19:45Z</time>
<desc>lat.=43.152157, lon.=19.272655, Alt.=981.211426m. Speed=48.240002m/h.</desc>
<speed>13.400000</speed>
</trkpt>
<trkpt lat="43.152637" lon="19.272320">
<ele>975.2</ele>
<time>2012-05-02T04:19:50Z</time>
<desc>lat.=43.152637, lon.=19.272320, Alt.=984.711426m. Speed=41.327999m/h.</desc>
<speed>11.480000</speed>
</trkpt>
<trkpt lat="43.153786" lon="19.272167">
<ele>980.1</ele>
<time>2012-05-02T04:20:00Z</time>
<desc>lat.=43.153786, lon.=19.272167, Alt.=992.148926m. Speed=50.616001m/h.</desc>
<speed>14.060000</speed>
</trkpt>
<trkpt lat="43.154392" lon="19.271719">
<ele>988.5</ele>
<time>2012-05-02T04:20:05Z</time>
<desc>lat.=43.154392, lon.=19.271719, Alt.=996.664551m. Speed=55.439999m/h.</desc>
<speed>15.400000</speed>
</trkpt>
<trkpt lat="43.157860" lon="19.268040">
<ele>1021.2</ele>
<time>2012-05-02T04:20:35Z</time>
<desc>lat.=43.157860, lon.=19.268040, Alt.=1025.610352m. Speed=41.868000m/h.</desc>
<speed>11.630000</speed>
</trkpt>
<trkpt lat="43.158478" lon="19.266037">
<ele>1034.3</ele>
<time>2012-05-02T04:20:50Z</time>
<desc>lat.=43.158478, lon.=19.266037, Alt.=1037.735352m. Speed=42.192001m/h.</desc>
<speed>11.720000</speed>
</trkpt>
<trkpt lat="43.158314" lon="19.264639">
<ele>1044.2</ele>
<time>2012-05-02T04:21:00Z</time>
<desc>lat.=43.158314, lon.=19.264639, Alt.=1045.454102m. Speed=42.048000m/h.</desc>
<speed>11.680000</speed>
</trkpt>
<trkpt lat="43.158958" lon="19.263191">
<ele>1059.7</ele>
<time>2012-05-02T04:21:10Z</time>
<desc>lat.=43.158958, lon.=19.263191, Alt.=1055.079102m. Speed=53.675999m/h.</desc>
<speed>14.910000</speed>
</trkpt>
<trkpt lat="43.159470" lon="19.262625">
<ele>1055.6</ele>
<time>2012-05-02T04:21:15Z</time>
<desc>lat.=43.159470, lon.=19.262625, Alt.=1058.454102m. Speed=56.556000m/h.</desc>
<speed>15.710000</speed>
</trkpt>
<trkpt lat="43.160553" lon="19.261885">
<ele>1063.1</ele>
<time>2012-05-02T04:21:25Z</time>
<desc>lat.=43.160553, lon.=19.261885, Alt.=1068.172852m. Speed=28.836000m/h.</desc>
<speed>8.010000</speed>
</trkpt>
<trkpt lat="43.160572" lon="19.261587">
<ele>1070.9</ele>
<time>2012-05-02T04:21:30Z</time>
<desc>lat.=43.160572, lon.=19.261587, Alt.=1069.329102m. Speed=23.903999m/h.</desc>
<speed>6.640000</speed>
</trkpt>
<trkpt lat="43.159840" lon="19.261969">
<ele>1072.8</ele>
<time>2012-05-02T04:21:40Z</time>
<desc>lat.=43.159840, lon.=19.261969, Alt.=1069.860352m. Speed=41.183998m/h.</desc>
<speed>11.439999</speed>
</trkpt>
<trkpt lat="43.158630" lon="19.262096">
<ele>1089.1</ele>
<time>2012-05-02T04:21:50Z</time>
<desc>lat.=43.158630, lon.=19.262096, Alt.=1078.672852m. Speed=49.464001m/h.</desc>
<speed>13.740000</speed>
</trkpt>
<trkpt lat="43.158031" lon="19.262472">
<ele>1088.1</ele>
<time>2012-05-02T04:21:55Z</time>
<desc>lat.=43.158031, lon.=19.262472, Alt.=1083.422852m. Speed=54.251999m/h.</desc>
<speed>15.070000</speed>
</trkpt>
<trkpt lat="43.156887" lon="19.263304">
<ele>1106.8</ele>
<time>2012-05-02T04:22:05Z</time>
<desc>lat.=43.156887, lon.=19.263304, Alt.=1091.172852m. Speed=47.880001m/h.</desc>
<speed>13.300000</speed>
</trkpt>
<trkpt lat="43.156487" lon="19.263931">
<ele>1103.8</ele>
<time>2012-05-02T04:22:10Z</time>
<desc>lat.=43.156487, lon.=19.263931, Alt.=1096.047852m. Speed=49.644001m/h.</desc>
<speed>13.790000</speed>
</trkpt>
<trkpt lat="43.155865" lon="19.264315">
<ele>1111.7</ele>
<time>2012-05-02T04:22:15Z</time>
<desc>lat.=43.155865, lon.=19.264315, Alt.=1100.016602m. Speed=55.835999m/h.</desc>
<speed>15.510000</speed>
</trkpt>
<trkpt lat="43.154697" lon="19.265474">
<ele>1116.6</ele>
<time>2012-05-02T04:22:25Z</time>
<desc>lat.=43.154697, lon.=19.265474, Alt.=1109.204102m. Speed=55.007999m/h.</desc>
<speed>15.280000</speed>
</trkpt>
<trkpt lat="43.153522" lon="19.266230">
<ele>1121.8</ele>
<time>2012-05-02T04:22:35Z</time>
<desc>lat.=43.153522, lon.=19.266230, Alt.=1119.516602m. Speed=51.408001m/h.</desc>
<speed>14.280000</speed>
</trkpt>
<trkpt lat="43.151485" lon="19.266180">
<ele>1138.7</ele>
<time>2012-05-02T04:22:50Z</time>
<desc>lat.=43.151485, lon.=19.266180, Alt.=1137.141602m. Speed=48.419998m/h.</desc>
<speed>13.449999</speed>
</trkpt>
<trkpt lat="43.150940" lon="19.266649">
<ele>1144.7</ele>
<time>2012-05-02T04:22:55Z</time>
<desc>lat.=43.150940, lon.=19.266649, Alt.=1140.360352m. Speed=55.799999m/h.</desc>
<speed>15.500000</speed>
</trkpt>
<trkpt lat="43.149624" lon="19.268892">
<ele>1148.9</ele>
<time>2012-05-02T04:23:10Z</time>
<desc>lat.=43.149624, lon.=19.268892, Alt.=1154.266602m. Speed=60.264000m/h.</desc>
<speed>16.740000</speed>
</trkpt>
<trkpt lat="43.148933" lon="19.269247">
<ele>1150.5</ele>
<time>2012-05-02T04:23:15Z</time>
<desc>lat.=43.148933, lon.=19.269247, Alt.=1158.547852m. Speed=53.028000m/h.</desc>
<speed>14.730000</speed>
</trkpt>
<trkpt lat="43.148338" lon="19.268970">
<ele>1147.0</ele>
<time>2012-05-02T04:23:20Z</time>
<desc>lat.=43.148338, lon.=19.268970, Alt.=1163.079102m. Speed=53.820000m/h.</desc>
<speed>14.950000</speed>
</trkpt>
<trkpt lat="43.147915" lon="19.268379">
<ele>1151.0</ele>
<time>2012-05-02T04:23:25Z</time>
<desc>lat.=43.147915, lon.=19.268379, Alt.=1165.954102m. Speed=39.203999m/h.</desc>
<speed>10.890000</speed>
</trkpt>
<trkpt lat="43.147808" lon="19.267990">
<ele>1160.2</ele>
<time>2012-05-02T04:23:30Z</time>
<desc>lat.=43.147808, lon.=19.267990, Alt.=1167.360352m. Speed=20.232000m/h.</desc>
<speed>5.620000</speed>
</trkpt>
<trkpt lat="43.148067" lon="19.268141">
<ele>1158.0</ele>
<time>2012-05-02T04:23:35Z</time>
<desc>lat.=43.148067, lon.=19.268141, Alt.=1168.391602m. Speed=29.952000m/h.</desc>
<speed>8.320000</speed>
</trkpt>
<trkpt lat="43.148319" lon="19.268620">
<ele>1154.2</ele>
<time>2012-05-02T04:23:40Z</time>
<desc>lat.=43.148319, lon.=19.268620, Alt.=1171.047852m. Speed=36.720001m/h.</desc>
<speed>10.200000</speed>
</trkpt>
<trkpt lat="43.148769" lon="19.268793">
<ele>1159.1</ele>
<time>2012-05-02T04:23:45Z</time>
<desc>lat.=43.148769, lon.=19.268793, Alt.=1173.391602m. Speed=40.824001m/h.</desc>
<speed>11.340000</speed>
</trkpt>
<trkpt lat="43.149654" lon="19.267868">
<ele>1173.3</ele>
<time>2012-05-02T04:23:55Z</time>
<desc>lat.=43.149654, lon.=19.267868, Alt.=1178.641602m. Speed=43.812000m/h.</desc>
<speed>12.170000</speed>
</trkpt>
<trkpt lat="43.149937" lon="19.267183">
<ele>1184.6</ele>
<time>2012-05-02T04:24:00Z</time>
<desc>lat.=43.149937, lon.=19.267183, Alt.=1182.422852m. Speed=50.112000m/h.</desc>
<speed>13.920000</speed>
</trkpt>
<trkpt lat="43.150673" lon="19.263699">
<ele>1196.6</ele>
<time>2012-05-02T04:24:20Z</time>
<desc>lat.=43.150673, lon.=19.263699, Alt.=1198.047852m. Speed=49.212002m/h.</desc>
<speed>13.670001</speed>
</trkpt>
<trkpt lat="43.150368" lon="19.262081">
<ele>1205.3</ele>
<time>2012-05-02T04:24:30Z</time>
<desc>lat.=43.150368, lon.=19.262081, Alt.=1206.829102m. Speed=42.984001m/h.</desc>
<speed>11.940000</speed>
</trkpt>
<trkpt lat="43.150585" lon="19.261473">
<ele>1204.1</ele>
<time>2012-05-02T04:24:35Z</time>
<desc>lat.=43.150585, lon.=19.261473, Alt.=1209.766602m. Speed=43.416000m/h.</desc>
<speed>12.060000</speed>
</trkpt>
<trkpt lat="43.151119" lon="19.261408">
<ele>1208.7</ele>
<time>2012-05-02T04:24:40Z</time>
<desc>lat.=43.151119, lon.=19.261408, Alt.=1214.141602m. Speed=47.340000m/h.</desc>
<speed>13.150000</speed>
</trkpt>
<trkpt lat="43.151676" lon="19.261728">
<ele>1204.5</ele>
<time>2012-05-02T04:24:45Z</time>
<desc>lat.=43.151676, lon.=19.261728, Alt.=1216.610352m. Speed=46.835999m/h.</desc>
<speed>13.010000</speed>
</trkpt>
<trkpt lat="43.152584" lon="19.262913">
<ele>1222.8</ele>
<time>2012-05-02T04:24:55Z</time>
<desc>lat.=43.152584, lon.=19.262913, Alt.=1221.766602m. Speed=51.299999m/h.</desc>
<speed>14.250000</speed>
</trkpt>
<trkpt lat="43.153206" lon="19.262901">
<ele>1231.8</ele>
<time>2012-05-02T04:25:00Z</time>
<desc>lat.=43.153206, lon.=19.262901, Alt.=1224.454102m. Speed=49.248001m/h.</desc>
<speed>13.680000</speed>
</trkpt>
<trkpt lat="43.153587" lon="19.262280">
<ele>1237.3</ele>
<time>2012-05-02T04:25:05Z</time>
<desc>lat.=43.153587, lon.=19.262280, Alt.=1229.297852m. Speed=47.340000m/h.</desc>
<speed>13.150000</speed>
</trkpt>
<trkpt lat="43.153393" lon="19.261646">
<ele>1245.8</ele>
<time>2012-05-02T04:25:10Z</time>
<desc>lat.=43.153393, lon.=19.261646, Alt.=1231.735352m. Speed=43.703999m/h.</desc>
<speed>12.140000</speed>
</trkpt>
<trkpt lat="43.151787" lon="19.260105">
<ele>1244.5</ele>
<time>2012-05-02T04:25:25Z</time>
<desc>lat.=43.151787, lon.=19.260105, Alt.=1242.516602m. Speed=53.063999m/h.</desc>
<speed>14.740000</speed>
</trkpt>
<trkpt lat="43.151112" lon="19.258345">
<ele>1247.5</ele>
<time>2012-05-02T04:25:35Z</time>
<desc>lat.=43.151112, lon.=19.258345, Alt.=1253.110352m. Speed=58.068001m/h.</desc>
<speed>16.130000</speed>
</trkpt>
<trkpt lat="43.149872" lon="19.256714">
<ele>1280.8</ele>
<time>2012-05-02T04:25:50Z</time>
<desc>lat.=43.149872, lon.=19.256714, Alt.=1267.360352m. Speed=16.848000m/h.</desc>
<speed>4.680000</speed>
</trkpt>
<trkpt lat="43.149998" lon="19.256556">
<ele>1278.0</ele>
<time>2012-05-02T04:25:55Z</time>
<desc>lat.=43.149998, lon.=19.256556, Alt.=1268.204102m. Speed=20.556000m/h.</desc>
<speed>5.710000</speed>
</trkpt>
<trkpt lat="43.151524" lon="19.257853">
<ele>1274.9</ele>
<time>2012-05-02T04:26:15Z</time>
<desc>lat.=43.151524, lon.=19.257853, Alt.=1279.704102m. Speed=42.084000m/h.</desc>
<speed>11.690000</speed>
</trkpt>
<trkpt lat="43.152271" lon="19.258787">
<ele>1283.7</ele>
<time>2012-05-02T04:26:25Z</time>
<desc>lat.=43.152271, lon.=19.258787, Alt.=1289.672852m. Speed=41.147999m/h.</desc>
<speed>11.430000</speed>
</trkpt>
<trkpt lat="43.152710" lon="19.258955">
<ele>1284.1</ele>
<time>2012-05-02T04:26:30Z</time>
<desc>lat.=43.152710, lon.=19.258955, Alt.=1293.516602m. Speed=28.296000m/h.</desc>
<speed>7.860000</speed>
</trkpt>
<trkpt lat="43.152859" lon="19.258665">
<ele>1289.6</ele>
<time>2012-05-02T04:26:35Z</time>
<desc>lat.=43.152859, lon.=19.258665, Alt.=1295.672852m. Speed=23.976000m/h.</desc>
<speed>6.660000</speed>
</trkpt>
<trkpt lat="43.152222" lon="19.257963">
<ele>1293.1</ele>
<time>2012-05-02T04:26:45Z</time>
<desc>lat.=43.152222, lon.=19.257963, Alt.=1304.454102m. Speed=41.076000m/h.</desc>
<speed>11.410000</speed>
</trkpt>
<trkpt lat="43.152012" lon="19.257240">
<ele>1299.6</ele>
<time>2012-05-02T04:26:50Z</time>
<desc>lat.=43.152012, lon.=19.257240, Alt.=1309.704102m. Speed=45.936001m/h.</desc>
<speed>12.760000</speed>
</trkpt>
<trkpt lat="43.151634" lon="19.256618">
<ele>1309.8</ele>
<time>2012-05-02T04:26:55Z</time>
<desc>lat.=43.151634, lon.=19.256618, Alt.=1314.829102m. Speed=48.888000m/h.</desc>
<speed>13.580000</speed>
</trkpt>
<trkpt lat="43.151115" lon="19.256218">
<ele>1310.0</ele>
<time>2012-05-02T04:27:00Z</time>
<desc>lat.=43.151115, lon.=19.256218, Alt.=1319.610352m. Speed=44.424000m/h.</desc>
<speed>12.340000</speed>
</trkpt>
<trkpt lat="43.150803" lon="19.255589">
<ele>1309.1</ele>
<time>2012-05-02T04:27:05Z</time>
<desc>lat.=43.150803, lon.=19.255589, Alt.=1324.204102m. Speed=45.863998m/h.</desc>
<speed>12.740000</speed>
</trkpt>
<trkpt lat="43.150742" lon="19.254009">
<ele>1324.5</ele>
<time>2012-05-02T04:27:15Z</time>
<desc>lat.=43.150742, lon.=19.254009, Alt.=1333.954102m. Speed=45.576000m/h.</desc>
<speed>12.660000</speed>
</trkpt>
<trkpt lat="43.150105" lon="19.252657">
<ele>1343.5</ele>
<time>2012-05-02T04:27:25Z</time>
<desc>lat.=43.150105, lon.=19.252657, Alt.=1343.922852m. Speed=47.160000m/h.</desc>
<speed>13.100000</speed>
</trkpt>
<trkpt lat="43.150299" lon="19.250553">
<ele>1340.8</ele>
<time>2012-05-02T04:27:40Z</time>
<desc>lat.=43.150299, lon.=19.250553, Alt.=1343.829102m. Speed=47.231998m/h.</desc>
<speed>13.120000</speed>
</trkpt>
<trkpt lat="43.150036" lon="19.249813">
<ele>1342.9</ele>
<time>2012-05-02T04:27:45Z</time>
<desc>lat.=43.150036, lon.=19.249813, Alt.=1343.922852m. Speed=48.672001m/h.</desc>
<speed>13.520000</speed>
</trkpt>
<trkpt lat="43.148266" lon="19.248323">
<ele>1336.1</ele>
<time>2012-05-02T04:28:05Z</time>
<desc>lat.=43.148266, lon.=19.248323, Alt.=1340.485352m. Speed=40.175999m/h.</desc>
<speed>11.160000</speed>
</trkpt>
<trkpt lat="43.147640" lon="19.247028">
<ele>1333.4</ele>
<time>2012-05-02T04:28:15Z</time>
<desc>lat.=43.147640, lon.=19.247028, Alt.=1339.485352m. Speed=53.820000m/h.</desc>
<speed>14.950000</speed>
</trkpt>
<trkpt lat="43.147564" lon="19.246124">
<ele>1340.2</ele>
<time>2012-05-02T04:28:20Z</time>
<desc>lat.=43.147564, lon.=19.246124, Alt.=1339.141602m. Speed=52.848000m/h.</desc>
<speed>14.680000</speed>
</trkpt>
<trkpt lat="43.147705" lon="19.245218">
<ele>1342.4</ele>
<time>2012-05-02T04:28:25Z</time>
<desc>lat.=43.147705, lon.=19.245218, Alt.=1338.579102m. Speed=55.259998m/h.</desc>
<speed>15.350000</speed>
</trkpt>
<trkpt lat="43.148273" lon="19.243614">
<ele>1355.0</ele>
<time>2012-05-02T04:28:35Z</time>
<desc>lat.=43.148273, lon.=19.243614, Alt.=1339.860352m. Speed=48.924000m/h.</desc>
<speed>13.590000</speed>
</trkpt>
<trkpt lat="43.148254" lon="19.241016">
<ele>1353.7</ele>
<time>2012-05-02T04:28:50Z</time>
<desc>lat.=43.148254, lon.=19.241016, Alt.=1342.579102m. Speed=51.084000m/h.</desc>
<speed>14.190000</speed>
</trkpt>
<trkpt lat="43.147930" lon="19.239372">
<ele>1345.3</ele>
<time>2012-05-02T04:29:00Z</time>
<desc>lat.=43.147930, lon.=19.239372, Alt.=1341.360352m. Speed=54.071999m/h.</desc>
<speed>15.020000</speed>
</trkpt>
<trkpt lat="43.148338" lon="19.237564">
<ele>1333.5</ele>
<time>2012-05-02T04:29:10Z</time>
<desc>lat.=43.148338, lon.=19.237564, Alt.=1336.829102m. Speed=53.099998m/h.</desc>
<speed>14.750000</speed>
</trkpt>
<trkpt lat="43.148380" lon="19.236666">
<ele>1335.1</ele>
<time>2012-05-02T04:29:15Z</time>
<desc>lat.=43.148380, lon.=19.236666, Alt.=1336.141602m. Speed=53.568001m/h.</desc>
<speed>14.880000</speed>
</trkpt>
<trkpt lat="43.148090" lon="19.235846">
<ele>1329.7</ele>
<time>2012-05-02T04:29:20Z</time>
<desc>lat.=43.148090, lon.=19.235846, Alt.=1333.704102m. Speed=54.647999m/h.</desc>
<speed>15.180000</speed>
</trkpt>
<trkpt lat="43.147537" lon="19.235275">
<ele>1326.8</ele>
<time>2012-05-02T04:29:25Z</time>
<desc>lat.=43.147537, lon.=19.235275, Alt.=1330.360352m. Speed=57.888000m/h.</desc>
<speed>16.080000</speed>
</trkpt>
<trkpt lat="43.145367" lon="19.234137">
<ele>1307.3</ele>
<time>2012-05-02T04:29:40Z</time>
<desc>lat.=43.145367, lon.=19.234137, Alt.=1315.360352m. Speed=57.312000m/h.</desc>
<speed>15.920000</speed>
</trkpt>
<trkpt lat="43.144783" lon="19.233561">
<ele>1305.3</ele>
<time>2012-05-02T04:29:45Z</time>
<desc>lat.=43.144783, lon.=19.233561, Alt.=1311.172852m. Speed=58.355999m/h.</desc>
<speed>16.210000</speed>
</trkpt>
<trkpt lat="43.144367" lon="19.232637">
<ele>1301.2</ele>
<time>2012-05-02T04:29:50Z</time>
<desc>lat.=43.144367, lon.=19.232637, Alt.=1307.329102m. Speed=69.120003m/h.</desc>
<speed>19.200001</speed>
</trkpt>
<trkpt lat="43.143375" lon="19.228743">
<ele>1297.6</ele>
<time>2012-05-02T04:30:10Z</time>
<desc>lat.=43.143375, lon.=19.228743, Alt.=1301.672852m. Speed=48.528000m/h.</desc>
<speed>13.480000</speed>
</trkpt>
<trkpt lat="43.143211" lon="19.227095">
<ele>1296.5</ele>
<time>2012-05-02T04:30:20Z</time>
<desc>lat.=43.143211, lon.=19.227095, Alt.=1301.454102m. Speed=54.504002m/h.</desc>
<speed>15.140000</speed>
</trkpt>
<trkpt lat="43.143406" lon="19.226183">
<ele>1297.6</ele>
<time>2012-05-02T04:30:25Z</time>
<desc>lat.=43.143406, lon.=19.226183, Alt.=1302.047852m. Speed=53.855999m/h.</desc>
<speed>14.960000</speed>
</trkpt>
<trkpt lat="43.143791" lon="19.225426">
<ele>1297.8</ele>
<time>2012-05-02T04:30:30Z</time>
<desc>lat.=43.143791, lon.=19.225426, Alt.=1302.922852m. Speed=55.332001m/h.</desc>
<speed>15.370000</speed>
</trkpt>
<trkpt lat="43.144947" lon="19.224047">
<ele>1302.4</ele>
<time>2012-05-02T04:30:40Z</time>
<desc>lat.=43.144947, lon.=19.224047, Alt.=1307.016602m. Speed=60.444000m/h.</desc>
<speed>16.790000</speed>
</trkpt>
<trkpt lat="43.146854" lon="19.222246">
<ele>1302.8</ele>
<time>2012-05-02T04:30:55Z</time>
<desc>lat.=43.146854, lon.=19.222246, Alt.=1303.860352m. Speed=59.723999m/h.</desc>
<speed>16.590000</speed>
</trkpt>
<trkpt lat="43.147556" lon="19.220589">
<ele>1298.2</ele>
<time>2012-05-02T04:31:05Z</time>
<desc>lat.=43.147556, lon.=19.220589, Alt.=1301.610352m. Speed=53.820000m/h.</desc>
<speed>14.950000</speed>
</trkpt>
<trkpt lat="43.149406" lon="19.219086">
<ele>1293.0</ele>
<time>2012-05-02T04:31:20Z</time>
<desc>lat.=43.149406, lon.=19.219086, Alt.=1298.610352m. Speed=60.911999m/h.</desc>
<speed>16.920000</speed>
</trkpt>
<trkpt lat="43.150867" lon="19.216747">
<ele>1297.9</ele>
<time>2012-05-02T04:31:35Z</time>
<desc>lat.=43.150867, lon.=19.216747, Alt.=1302.797852m. Speed=60.731998m/h.</desc>
<speed>16.870000</speed>
</trkpt>
<trkpt lat="43.152813" lon="19.215334">
<ele>1301.2</ele>
<time>2012-05-02T04:31:50Z</time>
<desc>lat.=43.152813, lon.=19.215334, Alt.=1307.891602m. Speed=54.431999m/h.</desc>
<speed>15.120000</speed>
</trkpt>
<trkpt lat="43.154072" lon="19.213184">
<ele>1310.3</ele>
<time>2012-05-02T04:32:05Z</time>
<desc>lat.=43.154072, lon.=19.213184, Alt.=1314.329102m. Speed=46.512001m/h.</desc>
<speed>12.920000</speed>
</trkpt>
<trkpt lat="43.155239" lon="19.212753">
<ele>1307.2</ele>
<time>2012-05-02T04:32:15Z</time>
<desc>lat.=43.155239, lon.=19.212753, Alt.=1309.079102m. Speed=53.928001m/h.</desc>
<speed>14.980000</speed>
</trkpt>
<trkpt lat="43.156590" lon="19.211960">
<ele>1292.6</ele>
<time>2012-05-02T04:32:25Z</time>
<desc>lat.=43.156590, lon.=19.211960, Alt.=1298.704102m. Speed=63.216000m/h.</desc>
<speed>17.560000</speed>
</trkpt>
<trkpt lat="43.157364" lon="19.211765">
<ele>1288.0</ele>
<time>2012-05-02T04:32:30Z</time>
<desc>lat.=43.157364, lon.=19.211765, Alt.=1293.235352m. Speed=57.779999m/h.</desc>
<speed>16.050000</speed>
</trkpt>
<trkpt lat="43.157944" lon="19.211309">
<ele>1291.7</ele>
<time>2012-05-02T04:32:35Z</time>
<desc>lat.=43.157944, lon.=19.211309, Alt.=1290.766602m. Speed=54.576000m/h.</desc>
<speed>15.160000</speed>
</trkpt>
<trkpt lat="43.158859" lon="19.209915">
<ele>1287.5</ele>
<time>2012-05-02T04:32:45Z</time>
<desc>lat.=43.158859, lon.=19.209915, Alt.=1291.110352m. Speed=52.056000m/h.</desc>
<speed>14.460000</speed>
</trkpt>
<trkpt lat="43.159344" lon="19.208141">
<ele>1288.7</ele>
<time>2012-05-02T04:32:55Z</time>
<desc>lat.=43.159344, lon.=19.208141, Alt.=1292.141602m. Speed=56.700001m/h.</desc>
<speed>15.750000</speed>
</trkpt>
<trkpt lat="43.161766" lon="19.201900">
<ele>1291.0</ele>
<time>2012-05-02T04:33:30Z</time>
<desc>lat.=43.161766, lon.=19.201900, Alt.=1292.266602m. Speed=60.228001m/h.</desc>
<speed>16.730000</speed>
</trkpt>
<trkpt lat="43.162701" lon="19.197947">
<ele>1295.4</ele>
<time>2012-05-02T04:33:50Z</time>
<desc>lat.=43.162701, lon.=19.197947, Alt.=1295.360352m. Speed=60.228001m/h.</desc>
<speed>16.730000</speed>
</trkpt>
<trkpt lat="43.163754" lon="19.191181">
<ele>1311.1</ele>
<time>2012-05-02T04:34:20Z</time>
<desc>lat.=43.163754, lon.=19.191181, Alt.=1306.235352m. Speed=58.608002m/h.</desc>
<speed>16.280000</speed>
</trkpt>
<trkpt lat="43.164185" lon="19.189358">
<ele>1309.6</ele>
<time>2012-05-02T04:34:30Z</time>
<desc>lat.=43.164185, lon.=19.189358, Alt.=1314.047852m. Speed=55.944000m/h.</desc>
<speed>15.540000</speed>
</trkpt>
<trkpt lat="43.164318" lon="19.187656">
<ele>1316.8</ele>
<time>2012-05-02T04:34:40Z</time>
<desc>lat.=43.164318, lon.=19.187656, Alt.=1315.766602m. Speed=51.731998m/h.</desc>
<speed>14.370000</speed>
</trkpt>
<trkpt lat="43.164642" lon="19.186844">
<ele>1313.1</ele>
<time>2012-05-02T04:34:45Z</time>
<desc>lat.=43.164642, lon.=19.186844, Alt.=1314.891602m. Speed=56.771999m/h.</desc>
<speed>15.770000</speed>
</trkpt>
<trkpt lat="43.165157" lon="19.184076">
<ele>1311.2</ele>
<time>2012-05-02T04:35:00Z</time>
<desc>lat.=43.165157, lon.=19.184076, Alt.=1312.422852m. Speed=52.416000m/h.</desc>
<speed>14.560000</speed>
</trkpt>
<trkpt lat="43.165638" lon="19.182472">
<ele>1304.5</ele>
<time>2012-05-02T04:35:10Z</time>
<desc>lat.=43.165638, lon.=19.182472, Alt.=1310.672852m. Speed=50.436001m/h.</desc>
<speed>14.010000</speed>
</trkpt>
<trkpt lat="43.164631" lon="19.174986">
<ele>1319.3</ele>
<time>2012-05-02T04:35:50Z</time>
<desc>lat.=43.164631, lon.=19.174986, Alt.=1324.766602m. Speed=52.344002m/h.</desc>
<speed>14.540000</speed>
</trkpt>
<trkpt lat="43.165169" lon="19.167007">
<ele>1331.3</ele>
<time>2012-05-02T04:36:30Z</time>
<desc>lat.=43.165169, lon.=19.167007, Alt.=1336.047852m. Speed=61.776001m/h.</desc>
<speed>17.160000</speed>
</trkpt>
<trkpt lat="43.164780" lon="19.163931">
<ele>1334.8</ele>
<time>2012-05-02T04:36:45Z</time>
<desc>lat.=43.164780, lon.=19.163931, Alt.=1339.079102m. Speed=57.852001m/h.</desc>
<speed>16.070000</speed>
</trkpt>
<trkpt lat="43.164444" lon="19.159290">
<ele>1340.0</ele>
<time>2012-05-02T04:37:10Z</time>
<desc>lat.=43.164444, lon.=19.159290, Alt.=1347.204102m. Speed=54.827999m/h.</desc>
<speed>15.230000</speed>
</trkpt>
<trkpt lat="43.163776" lon="19.155487">
<ele>1347.4</ele>
<time>2012-05-02T04:37:30Z</time>
<desc>lat.=43.163776, lon.=19.155487, Alt.=1353.547852m. Speed=57.203999m/h.</desc>
<speed>15.890000</speed>
</trkpt>
<trkpt lat="43.164009" lon="19.149963">
<ele>1362.4</ele>
<time>2012-05-02T04:38:00Z</time>
<desc>lat.=43.164009, lon.=19.149963, Alt.=1366.797852m. Speed=40.500000m/h.</desc>
<speed>11.250000</speed>
</trkpt>
<trkpt lat="43.163097" lon="19.143570">
<ele>1382.4</ele>
<time>2012-05-02T04:38:40Z</time>
<desc>lat.=43.163097, lon.=19.143570, Alt.=1386.954102m. Speed=50.147999m/h.</desc>
<speed>13.930000</speed>
</trkpt>
<trkpt lat="43.163006" lon="19.139591">
<ele>1405.2</ele>
<time>2012-05-02T04:39:05Z</time>
<desc>lat.=43.163006, lon.=19.139591, Alt.=1405.547852m. Speed=45.396000m/h.</desc>
<speed>12.610000</speed>
</trkpt>
<trkpt lat="43.162483" lon="19.138144">
<ele>1405.8</ele>
<time>2012-05-02T04:39:15Z</time>
<desc>lat.=43.162483, lon.=19.138144, Alt.=1411.204102m. Speed=48.419998m/h.</desc>
<speed>13.449999</speed>
</trkpt>
<trkpt lat="43.161259" lon="19.136663">
<ele>1408.4</ele>
<time>2012-05-02T04:39:30Z</time>
<desc>lat.=43.161259, lon.=19.136663, Alt.=1413.579102m. Speed=38.987999m/h.</desc>
<speed>10.830000</speed>
</trkpt>
<trkpt lat="43.160706" lon="19.135664">
<ele>1406.5</ele>
<time>2012-05-02T04:39:40Z</time>
<desc>lat.=43.160706, lon.=19.135664, Alt.=1413.797852m. Speed=32.976002m/h.</desc>
<speed>9.160000</speed>
</trkpt>
<trkpt lat="43.159790" lon="19.135527">
<ele>1411.7</ele>
<time>2012-05-02T04:39:50Z</time>
<desc>lat.=43.159790, lon.=19.135527, Alt.=1415.985352m. Speed=44.675999m/h.</desc>
<speed>12.410000</speed>
</trkpt>
<trkpt lat="43.158142" lon="19.134514">
<ele>1413.8</ele>
<time>2012-05-02T04:40:05Z</time>
<desc>lat.=43.158142, lon.=19.134514, Alt.=1421.797852m. Speed=47.520000m/h.</desc>
<speed>13.200000</speed>
</trkpt>
<trkpt lat="43.155277" lon="19.131342">
<ele>1433.6</ele>
<time>2012-05-02T04:40:35Z</time>
<desc>lat.=43.155277, lon.=19.131342, Alt.=1435.360352m. Speed=47.195999m/h.</desc>
<speed>13.110000</speed>
</trkpt>
<trkpt lat="43.153534" lon="19.131151">
<ele>1438.3</ele>
<time>2012-05-02T04:40:50Z</time>
<desc>lat.=43.153534, lon.=19.131151, Alt.=1441.204102m. Speed=43.703999m/h.</desc>
<speed>12.140000</speed>
</trkpt>
<trkpt lat="43.152470" lon="19.130543">
<ele>1438.6</ele>
<time>2012-05-02T04:41:00Z</time>
<desc>lat.=43.152470, lon.=19.130543, Alt.=1442.329102m. Speed=48.096001m/h.</desc>
<speed>13.360000</speed>
</trkpt>
<trkpt lat="43.150475" lon="19.126455">
<ele>1458.6</ele>
<time>2012-05-02T04:41:35Z</time>
<desc>lat.=43.150475, lon.=19.126455, Alt.=1455.079102m. Speed=35.316002m/h.</desc>
<speed>9.810001</speed>
</trkpt>
<trkpt lat="43.149647" lon="19.125364">
<ele>1465.3</ele>
<time>2012-05-02T04:41:45Z</time>
<desc>lat.=43.149647, lon.=19.125364, Alt.=1457.922852m. Speed=52.200001m/h.</desc>
<speed>14.500000</speed>
</trkpt>
<trkpt lat="43.147114" lon="19.122786">
<ele>1472.2</ele>
<time>2012-05-02T04:42:10Z</time>
<desc>lat.=43.147114, lon.=19.122786, Alt.=1470.922852m. Speed=51.660000m/h.</desc>
<speed>14.350000</speed>
</trkpt>
<trkpt lat="43.146503" lon="19.122368">
<ele>1469.8</ele>
<time>2012-05-02T04:42:15Z</time>
<desc>lat.=43.146503, lon.=19.122368, Alt.=1472.110352m. Speed=58.860001m/h.</desc>
<speed>16.350000</speed>
</trkpt>
<trkpt lat="43.143200" lon="19.121347">
<ele>1478.4</ele>
<time>2012-05-02T04:42:35Z</time>
<desc>lat.=43.143200, lon.=19.121347, Alt.=1483.172852m. Speed=66.708000m/h.</desc>
<speed>18.530000</speed>
</trkpt>
<trkpt lat="43.141022" lon="19.121162">
<ele>1482.3</ele>
<time>2012-05-02T04:42:50Z</time>
<desc>lat.=43.141022, lon.=19.121162, Alt.=1489.985352m. Speed=52.992001m/h.</desc>
<speed>14.720000</speed>
</trkpt>
<trkpt lat="43.137447" lon="19.121914">
<ele>1465.4</ele>
<time>2012-05-02T04:43:10Z</time>
<desc>lat.=43.137447, lon.=19.121914, Alt.=1473.485352m. Speed=84.024002m/h.</desc>
<speed>23.340001</speed>
</trkpt>
<trkpt lat="43.135326" lon="19.122688">
<ele>1458.2</ele>
<time>2012-05-02T04:43:20Z</time>
<desc>lat.=43.135326, lon.=19.122688, Alt.=1466.454102m. Speed=90.972000m/h.</desc>
<speed>25.270000</speed>
</trkpt>
<trkpt lat="43.131134" lon="19.124336">
<ele>1451.9</ele>
<time>2012-05-02T04:43:40Z</time>
<desc>lat.=43.131134, lon.=19.124336, Alt.=1459.829102m. Speed=85.068001m/h.</desc>
<speed>23.630000</speed>
</trkpt>
<trkpt lat="43.129288" lon="19.125647">
<ele>1449.7</ele>
<time>2012-05-02T04:43:50Z</time>
<desc>lat.=43.129288, lon.=19.125647, Alt.=1456.110352m. Speed=81.036003m/h.</desc>
<speed>22.510001</speed>
</trkpt>
<trkpt lat="43.128307" lon="19.125828">
<ele>1451.8</ele>
<time>2012-05-02T04:43:55Z</time>
<desc>lat.=43.128307, lon.=19.125828, Alt.=1457.797852m. Speed=78.407997m/h.</desc>
<speed>21.779999</speed>
</trkpt>
<trkpt lat="43.125385" lon="19.124674">
<ele>1457.5</ele>
<time>2012-05-02T04:44:10Z</time>
<desc>lat.=43.125385, lon.=19.124674, Alt.=1462.985352m. Speed=80.603996m/h.</desc>
<speed>22.389999</speed>
</trkpt>
<trkpt lat="43.124409" lon="19.124491">
<ele>1457.0</ele>
<time>2012-05-02T04:44:15Z</time>
<desc>lat.=43.124409, lon.=19.124491, Alt.=1463.891602m. Speed=79.991997m/h.</desc>
<speed>22.219999</speed>
</trkpt>
<trkpt lat="43.121613" lon="19.124807">
<ele>1457.4</ele>
<time>2012-05-02T04:44:30Z</time>
<desc>lat.=43.121613, lon.=19.124807, Alt.=1463.047852m. Speed=69.155998m/h.</desc>
<speed>19.210000</speed>
</trkpt>
<trkpt lat="43.120773" lon="19.124470">
<ele>1456.8</ele>
<time>2012-05-02T04:44:35Z</time>
<desc>lat.=43.120773, lon.=19.124470, Alt.=1463.891602m. Speed=72.792000m/h.</desc>
<speed>20.220000</speed>
</trkpt>
<trkpt lat="43.119217" lon="19.122898">
<ele>1455.6</ele>
<time>2012-05-02T04:44:45Z</time>
<desc>lat.=43.119217, lon.=19.122898, Alt.=1465.485352m. Speed=78.804001m/h.</desc>
<speed>21.890000</speed>
</trkpt>
<trkpt lat="43.118340" lon="19.122320">
<ele>1459.5</ele>
<time>2012-05-02T04:44:50Z</time>
<desc>lat.=43.118340, lon.=19.122320, Alt.=1467.985352m. Speed=78.875999m/h.</desc>
<speed>21.910000</speed>
</trkpt>
<trkpt lat="43.117367" lon="19.122076">
<ele>1463.2</ele>
<time>2012-05-02T04:44:55Z</time>
<desc>lat.=43.117367, lon.=19.122076, Alt.=1470.016602m. Speed=80.820000m/h.</desc>
<speed>22.450000</speed>
</trkpt>
<trkpt lat="43.112286" lon="19.122164">
<ele>1470.0</ele>
<time>2012-05-02T04:45:20Z</time>
<desc>lat.=43.112286, lon.=19.122164, Alt.=1476.860352m. Speed=69.767998m/h.</desc>
<speed>19.379999</speed>
</trkpt>
<trkpt lat="43.110641" lon="19.121855">
<ele>1471.1</ele>
<time>2012-05-02T04:45:30Z</time>
<desc>lat.=43.110641, lon.=19.121855, Alt.=1480.110352m. Speed=68.328003m/h.</desc>
<speed>18.980001</speed>
</trkpt>
<trkpt lat="43.103439" lon="19.117382">
<ele>1493.8</ele>
<time>2012-05-02T04:46:10Z</time>
<desc>lat.=43.103439, lon.=19.117382, Alt.=1501.485352m. Speed=87.084000m/h.</desc>
<speed>24.190000</speed>
</trkpt>
<trkpt lat="43.102627" lon="19.116438">
<ele>1498.4</ele>
<time>2012-05-02T04:46:15Z</time>
<desc>lat.=43.102627, lon.=19.116438, Alt.=1505.954102m. Speed=83.916000m/h.</desc>
<speed>23.310000</speed>
</trkpt>
<trkpt lat="43.099663" lon="19.111145">
<ele>1515.9</ele>
<time>2012-05-02T04:46:40Z</time>
<desc>lat.=43.099663, lon.=19.111145, Alt.=1526.329102m. Speed=68.183998m/h.</desc>
<speed>18.939999</speed>
</trkpt>
<trkpt lat="43.098949" lon="19.110550">
<ele>1522.6</ele>
<time>2012-05-02T04:46:45Z</time>
<desc>lat.=43.098949, lon.=19.110550, Alt.=1529.016602m. Speed=66.851997m/h.</desc>
<speed>18.569999</speed>
</trkpt>
<trkpt lat="43.095787" lon="19.110163">
<ele>1524.5</ele>
<time>2012-05-02T04:47:05Z</time>
<desc>lat.=43.095787, lon.=19.110163, Alt.=1528.610352m. Speed=64.295998m/h.</desc>
<speed>17.859999</speed>
</trkpt>
<trkpt lat="43.095009" lon="19.109957">
<ele>1520.4</ele>
<time>2012-05-02T04:47:10Z</time>
<desc>lat.=43.095009, lon.=19.109957, Alt.=1526.610352m. Speed=62.928001m/h.</desc>
<speed>17.480000</speed>
</trkpt>
<trkpt lat="43.094307" lon="19.109497">
<ele>1521.3</ele>
<time>2012-05-02T04:47:15Z</time>
<desc>lat.=43.094307, lon.=19.109497, Alt.=1524.610352m. Speed=63.071999m/h.</desc>
<speed>17.520000</speed>
</trkpt>
<trkpt lat="43.093704" lon="19.108757">
<ele>1521.8</ele>
<time>2012-05-02T04:47:20Z</time>
<desc>lat.=43.093704, lon.=19.108757, Alt.=1522.391602m. Speed=68.183998m/h.</desc>
<speed>18.939999</speed>
</trkpt>
<trkpt lat="43.092705" lon="19.106621">
<ele>1504.5</ele>
<time>2012-05-02T04:47:30Z</time>
<desc>lat.=43.092705, lon.=19.106621, Alt.=1517.110352m. Speed=76.211998m/h.</desc>
<speed>21.169999</speed>
</trkpt>
<trkpt lat="43.092056" lon="19.105652">
<ele>1508.1</ele>
<time>2012-05-02T04:47:35Z</time>
<desc>lat.=43.092056, lon.=19.105652, Alt.=1516.516602m. Speed=77.832001m/h.</desc>
<speed>21.620000</speed>
</trkpt>
<trkpt lat="43.091198" lon="19.105066">
<ele>1505.0</ele>
<time>2012-05-02T04:47:40Z</time>
<desc>lat.=43.091198, lon.=19.105066, Alt.=1516.797852m. Speed=75.239998m/h.</desc>
<speed>20.899999</speed>
</trkpt>
<trkpt lat="43.090279" lon="19.104940">
<ele>1514.2</ele>
<time>2012-05-02T04:47:45Z</time>
<desc>lat.=43.090279, lon.=19.104940, Alt.=1517.047852m. Speed=73.800003m/h.</desc>
<speed>20.500001</speed>
</trkpt>
<trkpt lat="43.088390" lon="19.105125">
<ele>1506.9</ele>
<time>2012-05-02T04:47:55Z</time>
<desc>lat.=43.088390, lon.=19.105125, Alt.=1517.079102m. Speed=72.108002m/h.</desc>
<speed>20.030000</speed>
</trkpt>
<trkpt lat="43.086800" lon="19.104113">
<ele>1506.8</ele>
<time>2012-05-02T04:48:05Z</time>
<desc>lat.=43.086800, lon.=19.104113, Alt.=1516.422852m. Speed=68.832001m/h.</desc>
<speed>19.120000</speed>
</trkpt>
<trkpt lat="43.084248" lon="19.103653">
<ele>1504.3</ele>
<time>2012-05-02T04:48:20Z</time>
<desc>lat.=43.084248, lon.=19.103653, Alt.=1513.454102m. Speed=70.416000m/h.</desc>
<speed>19.560000</speed>
</trkpt>
<trkpt lat="43.083420" lon="19.103155">
<ele>1501.8</ele>
<time>2012-05-02T04:48:25Z</time>
<desc>lat.=43.083420, lon.=19.103155, Alt.=1513.079102m. Speed=71.963997m/h.</desc>
<speed>19.989999</speed>
</trkpt>
<trkpt lat="43.082558" lon="19.102915">
<ele>1507.1</ele>
<time>2012-05-02T04:48:30Z</time>
<desc>lat.=43.082558, lon.=19.102915, Alt.=1514.110352m. Speed=69.084000m/h.</desc>
<speed>19.190000</speed>
</trkpt>
<trkpt lat="43.081699" lon="19.103127">
<ele>1511.1</ele>
<time>2012-05-02T04:48:35Z</time>
<desc>lat.=43.081699, lon.=19.103127, Alt.=1515.079102m. Speed=72.036003m/h.</desc>
<speed>20.010001</speed>
</trkpt>
<trkpt lat="43.080143" lon="19.104551">
<ele>1512.7</ele>
<time>2012-05-02T04:48:45Z</time>
<desc>lat.=43.080143, lon.=19.104551, Alt.=1517.110352m. Speed=73.944000m/h.</desc>
<speed>20.540000</speed>
</trkpt>
<trkpt lat="43.079308" lon="19.105009">
<ele>1512.3</ele>
<time>2012-05-02T04:48:50Z</time>
<desc>lat.=43.079308, lon.=19.105009, Alt.=1518.016602m. Speed=72.323997m/h.</desc>
<speed>20.089999</speed>
</trkpt>
<trkpt lat="43.078476" lon="19.104801">
<ele>1514.4</ele>
<time>2012-05-02T04:48:55Z</time>
<desc>lat.=43.078476, lon.=19.104801, Alt.=1518.672852m. Speed=65.339996m/h.</desc>
<speed>18.149999</speed>
</trkpt>
<trkpt lat="43.077866" lon="19.104103">
<ele>1510.2</ele>
<time>2012-05-02T04:49:00Z</time>
<desc>lat.=43.077866, lon.=19.104103, Alt.=1515.079102m. Speed=64.584000m/h.</desc>
<speed>17.940000</speed>
</trkpt>
<trkpt lat="43.076633" lon="19.101009">
<ele>1486.8</ele>
<time>2012-05-02T04:49:15Z</time>
<desc>lat.=43.076633, lon.=19.101009, Alt.=1495.891602m. Speed=61.956001m/h.</desc>
<speed>17.210000</speed>
</trkpt>
<trkpt lat="43.075977" lon="19.100431">
<ele>1482.7</ele>
<time>2012-05-02T04:49:20Z</time>
<desc>lat.=43.075977, lon.=19.100431, Alt.=1490.235352m. Speed=64.403999m/h.</desc>
<speed>17.890000</speed>
</trkpt>
<trkpt lat="43.075157" lon="19.100361">
<ele>1477.1</ele>
<time>2012-05-02T04:49:25Z</time>
<desc>lat.=43.075157, lon.=19.100361, Alt.=1484.047852m. Speed=67.571999m/h.</desc>
<speed>18.770000</speed>
</trkpt>
<trkpt lat="43.072857" lon="19.102262">
<ele>1458.7</ele>
<time>2012-05-02T04:49:40Z</time>
<desc>lat.=43.072857, lon.=19.102262, Alt.=1464.422852m. Speed=73.475998m/h.</desc>
<speed>20.409999</speed>
</trkpt>
<trkpt lat="43.070122" lon="19.103640">
<ele>1438.9</ele>
<time>2012-05-02T04:49:55Z</time>
<desc>lat.=43.070122, lon.=19.103640, Alt.=1443.797852m. Speed=78.480003m/h.</desc>
<speed>21.800001</speed>
</trkpt>
<trkpt lat="43.069332" lon="19.104286">
<ele>1435.9</ele>
<time>2012-05-02T04:50:00Z</time>
<desc>lat.=43.069332, lon.=19.104286, Alt.=1440.579102m. Speed=72.468002m/h.</desc>
<speed>20.130001</speed>
</trkpt>
<trkpt lat="43.068279" lon="19.106009">
<ele>1435.2</ele>
<time>2012-05-02T04:50:10Z</time>
<desc>lat.=43.068279, lon.=19.106009, Alt.=1438.672852m. Speed=57.779999m/h.</desc>
<speed>16.050000</speed>
</trkpt>
<trkpt lat="43.067688" lon="19.106522">
<ele>1435.4</ele>
<time>2012-05-02T04:50:15Z</time>
<desc>lat.=43.067688, lon.=19.106522, Alt.=1438.016602m. Speed=57.167999m/h.</desc>
<speed>15.880000</speed>
</trkpt>
<trkpt lat="43.064861" lon="19.108168">
<ele>1430.3</ele>
<time>2012-05-02T04:50:35Z</time>
<desc>lat.=43.064861, lon.=19.108168, Alt.=1438.641602m. Speed=62.639999m/h.</desc>
<speed>17.400000</speed>
</trkpt>
<trkpt lat="43.064079" lon="19.108246">
<ele>1426.3</ele>
<time>2012-05-02T04:50:40Z</time>
<desc>lat.=43.064079, lon.=19.108246, Alt.=1439.672852m. Speed=64.944000m/h.</desc>
<speed>18.040000</speed>
</trkpt>
<trkpt lat="43.062462" lon="19.107435">
<ele>1428.2</ele>
<time>2012-05-02T04:50:50Z</time>
<desc>lat.=43.062462, lon.=19.107435, Alt.=1442.704102m. Speed=67.320000m/h.</desc>
<speed>18.700000</speed>
</trkpt>
<trkpt lat="43.060776" lon="19.107140">
<ele>1434.8</ele>
<time>2012-05-02T04:51:00Z</time>
<desc>lat.=43.060776, lon.=19.107140, Alt.=1446.016602m. Speed=68.435997m/h.</desc>
<speed>19.009999</speed>
</trkpt>
<trkpt lat="43.059978" lon="19.106762">
<ele>1440.5</ele>
<time>2012-05-02T04:51:05Z</time>
<desc>lat.=43.059978, lon.=19.106762, Alt.=1450.141602m. Speed=67.139999m/h.</desc>
<speed>18.650000</speed>
</trkpt>
<trkpt lat="43.059330" lon="19.106024">
<ele>1440.0</ele>
<time>2012-05-02T04:51:10Z</time>
<desc>lat.=43.059330, lon.=19.106024, Alt.=1453.704102m. Speed=66.996002m/h.</desc>
<speed>18.610001</speed>
</trkpt>
<trkpt lat="43.058418" lon="19.104107">
<ele>1443.3</ele>
<time>2012-05-02T04:51:20Z</time>
<desc>lat.=43.058418, lon.=19.104107, Alt.=1460.547852m. Speed=63.900002m/h.</desc>
<speed>17.750000</speed>
</trkpt>
<trkpt lat="43.056286" lon="19.102634">
<ele>1459.4</ele>
<time>2012-05-02T04:51:35Z</time>
<desc>lat.=43.056286, lon.=19.102634, Alt.=1468.641602m. Speed=63.467999m/h.</desc>
<speed>17.630000</speed>
</trkpt>
<trkpt lat="43.055683" lon="19.101892">
<ele>1460.4</ele>
<time>2012-05-02T04:51:40Z</time>
<desc>lat.=43.055683, lon.=19.101892, Alt.=1468.954102m. Speed=66.384003m/h.</desc>
<speed>18.440001</speed>
</trkpt>
<trkpt lat="43.055229" lon="19.100935">
<ele>1496.8</ele>
<time>2012-05-02T04:51:45Z</time>
<desc>lat.=43.055229, lon.=19.100935, Alt.=1469.766602m. Speed=66.959999m/h.</desc>
<speed>18.600000</speed>
</trkpt>
<trkpt lat="43.054958" lon="19.099913">
<ele>1552.4</ele>
<time>2012-05-02T04:51:50Z</time>
<desc>lat.=43.054958, lon.=19.099913, Alt.=1470.954102m. Speed=63.936001m/h.</desc>
<speed>17.760000</speed>
</trkpt>
<trkpt lat="43.043365" lon="19.079168">
<ele>1439.9</ele>
<time>2012-05-02T04:53:31Z</time>
<desc>lat.=43.043365, lon.=19.079168, Alt.=1447.079102m. Speed=60.012001m/h.</desc>
<speed>16.670000</speed>
</trkpt>
<trkpt lat="43.041664" lon="19.079330">
<ele>1417.6</ele>
<time>2012-05-02T04:53:41Z</time>
<desc>lat.=43.041664, lon.=19.079330, Alt.=1438.860352m. Speed=69.839996m/h.</desc>
<speed>19.399999</speed>
</trkpt>
<trkpt lat="43.039005" lon="19.080643">
<ele>1406.8</ele>
<time>2012-05-02T04:53:56Z</time>
<desc>lat.=43.039005, lon.=19.080643, Alt.=1415.797852m. Speed=81.431999m/h.</desc>
<speed>22.620000</speed>
</trkpt>
<trkpt lat="43.035831" lon="19.081867">
<ele>1375.5</ele>
<time>2012-05-02T04:54:11Z</time>
<desc>lat.=43.035831, lon.=19.081867, Alt.=1390.110352m. Speed=91.008003m/h.</desc>
<speed>25.280001</speed>
</trkpt>
<trkpt lat="43.034840" lon="19.082520">
<ele>1369.7</ele>
<time>2012-05-02T04:54:16Z</time>
<desc>lat.=43.034840, lon.=19.082520, Alt.=1383.110352m. Speed=86.292000m/h.</desc>
<speed>23.970000</speed>
</trkpt>
<trkpt lat="43.032181" lon="19.085068">
<ele>1342.2</ele>
<time>2012-05-02T04:54:31Z</time>
<desc>lat.=43.032181, lon.=19.085068, Alt.=1360.391602m. Speed=84.024002m/h.</desc>
<speed>23.340001</speed>
</trkpt>
<trkpt lat="43.031441" lon="19.086098">
<ele>1339.3</ele>
<time>2012-05-02T04:54:36Z</time>
<desc>lat.=43.031441, lon.=19.086098, Alt.=1352.985352m. Speed=84.599998m/h.</desc>
<speed>23.500000</speed>
</trkpt>
<trkpt lat="43.030167" lon="19.088449">
<ele>1323.9</ele>
<time>2012-05-02T04:54:46Z</time>
<desc>lat.=43.030167, lon.=19.088449, Alt.=1338.360352m. Speed=84.348000m/h.</desc>
<speed>23.430000</speed>
</trkpt>
<trkpt lat="43.029392" lon="19.089392">
<ele>1321.0</ele>
<time>2012-05-02T04:54:51Z</time>
<desc>lat.=43.029392, lon.=19.089392, Alt.=1332.079102m. Speed=81.575996m/h.</desc>
<speed>22.659999</speed>
</trkpt>
<trkpt lat="43.028473" lon="19.089931">
<ele>1324.8</ele>
<time>2012-05-02T04:54:56Z</time>
<desc>lat.=43.028473, lon.=19.089931, Alt.=1328.485352m. Speed=79.884003m/h.</desc>
<speed>22.190001</speed>
</trkpt>
<trkpt lat="43.027489" lon="19.090075">
<ele>1319.3</ele>
<time>2012-05-02T04:55:01Z</time>
<desc>lat.=43.027489, lon.=19.090075, Alt.=1324.516602m. Speed=78.912003m/h.</desc>
<speed>21.920001</speed>
</trkpt>
<trkpt lat="43.026512" lon="19.089832">
<ele>1322.9</ele>
<time>2012-05-02T04:55:06Z</time>
<desc>lat.=43.026512, lon.=19.089832, Alt.=1320.735352m. Speed=80.279999m/h.</desc>
<speed>22.300000</speed>
</trkpt>
<trkpt lat="43.025558" lon="19.089319">
<ele>1314.0</ele>
<time>2012-05-02T04:55:11Z</time>
<desc>lat.=43.025558, lon.=19.089319, Alt.=1318.829102m. Speed=81.900002m/h.</desc>
<speed>22.750000</speed>
</trkpt>
<trkpt lat="43.018707" lon="19.085344">
<ele>1281.0</ele>
<time>2012-05-02T04:55:46Z</time>
<desc>lat.=43.018707, lon.=19.085344, Alt.=1283.922852m. Speed=60.875999m/h.</desc>
<speed>16.910000</speed>
</trkpt>
<trkpt lat="43.016697" lon="19.083710">
<ele>1283.7</ele>
<time>2012-05-02T04:56:02Z</time>
<desc>lat.=43.016697, lon.=19.083710, Alt.=1273.422852m. Speed=58.355999m/h.</desc>
<speed>16.210000</speed>
</trkpt>
<trkpt lat="43.016041" lon="19.083405">
<ele>1264.9</ele>
<time>2012-05-02T04:56:07Z</time>
<desc>lat.=43.016041, lon.=19.083405, Alt.=1273.641602m. Speed=57.276001m/h.</desc>
<speed>15.910000</speed>
</trkpt>
<trkpt lat="43.014561" lon="19.083452">
<ele>1262.9</ele>
<time>2012-05-02T04:56:17Z</time>
<desc>lat.=43.014561, lon.=19.083452, Alt.=1271.079102m. Speed=57.743999m/h.</desc>
<speed>16.040000</speed>
</trkpt>
<trkpt lat="43.013893" lon="19.083147">
<ele>1276.4</ele>
<time>2012-05-02T04:56:22Z</time>
<desc>lat.=43.013893, lon.=19.083147, Alt.=1268.672852m. Speed=57.779999m/h.</desc>
<speed>16.050000</speed>
</trkpt>
<trkpt lat="43.013428" lon="19.082415">
<ele>1269.7</ele>
<time>2012-05-02T04:56:27Z</time>
<desc>lat.=43.013428, lon.=19.082415, Alt.=1264.672852m. Speed=58.751999m/h.</desc>
<speed>16.320000</speed>
</trkpt>
<trkpt lat="43.013199" lon="19.079336">
<ele>1258.3</ele>
<time>2012-05-02T04:56:42Z</time>
<desc>lat.=43.013199, lon.=19.079336, Alt.=1253.329102m. Speed=62.172001m/h.</desc>
<speed>17.270000</speed>
</trkpt>
<trkpt lat="43.012691" lon="19.077341">
<ele>1250.9</ele>
<time>2012-05-02T04:56:52Z</time>
<desc>lat.=43.012691, lon.=19.077341, Alt.=1249.172852m. Speed=60.660000m/h.</desc>
<speed>16.850000</speed>
</trkpt>
<trkpt lat="43.012280" lon="19.076500">
<ele>1252.1</ele>
<time>2012-05-02T04:56:57Z</time>
<desc>lat.=43.012280, lon.=19.076500, Alt.=1246.641602m. Speed=59.220001m/h.</desc>
<speed>16.450000</speed>
</trkpt>
<trkpt lat="43.011627" lon="19.076065">
<ele>1248.5</ele>
<time>2012-05-02T04:57:02Z</time>
<desc>lat.=43.011627, lon.=19.076065, Alt.=1244.235352m. Speed=57.924000m/h.</desc>
<speed>16.090000</speed>
</trkpt>
<trkpt lat="43.010906" lon="19.076155">
<ele>1235.9</ele>
<time>2012-05-02T04:57:07Z</time>
<desc>lat.=43.010906, lon.=19.076155, Alt.=1241.829102m. Speed=58.284000m/h.</desc>
<speed>16.190000</speed>
</trkpt>
<trkpt lat="43.009590" lon="19.077351">
<ele>1222.4</ele>
<time>2012-05-02T04:57:17Z</time>
<desc>lat.=43.009590, lon.=19.077351, Alt.=1232.016602m. Speed=66.636002m/h.</desc>
<speed>18.510000</speed>
</trkpt>
<trkpt lat="43.008755" lon="19.077709">
<ele>1233.0</ele>
<time>2012-05-02T04:57:22Z</time>
<desc>lat.=43.008755, lon.=19.077709, Alt.=1226.547852m. Speed=74.304001m/h.</desc>
<speed>20.640000</speed>
</trkpt>
<trkpt lat="43.004780" lon="19.078125">
<ele>1202.4</ele>
<time>2012-05-02T04:57:42Z</time>
<desc>lat.=43.004780, lon.=19.078125, Alt.=1204.891602m. Speed=82.223999m/h.</desc>
<speed>22.840000</speed>
</trkpt>
<trkpt lat="43.003761" lon="19.077890">
<ele>1195.6</ele>
<time>2012-05-02T04:57:47Z</time>
<desc>lat.=43.003761, lon.=19.077890, Alt.=1199.391602m. Speed=83.556000m/h.</desc>
<speed>23.210000</speed>
</trkpt>
<trkpt lat="43.000690" lon="19.076653">
<ele>1184.3</ele>
<time>2012-05-02T04:58:02Z</time>
<desc>lat.=43.000690, lon.=19.076653, Alt.=1184.172852m. Speed=85.211998m/h.</desc>
<speed>23.669999</speed>
</trkpt>
<trkpt lat="42.997581" lon="19.076155">
<ele>1167.8</ele>
<time>2012-05-02T04:58:17Z</time>
<desc>lat.=42.997581, lon.=19.076155, Alt.=1166.485352m. Speed=82.907997m/h.</desc>
<speed>23.029999</speed>
</trkpt>
<trkpt lat="42.994637" lon="19.075066">
<ele>1136.6</ele>
<time>2012-05-02T04:58:32Z</time>
<desc>lat.=42.994637, lon.=19.075066, Alt.=1140.422852m. Speed=78.839996m/h.</desc>
<speed>21.899999</speed>
</trkpt>
<trkpt lat="42.993027" lon="19.073912">
<ele>1122.6</ele>
<time>2012-05-02T04:58:42Z</time>
<desc>lat.=42.993027, lon.=19.073912, Alt.=1124.016602m. Speed=68.148003m/h.</desc>
<speed>18.930001</speed>
</trkpt>
<trkpt lat="42.992176" lon="19.073702">
<ele>1113.6</ele>
<time>2012-05-02T04:58:47Z</time>
<desc>lat.=42.992176, lon.=19.073702, Alt.=1116.641602m. Speed=71.856003m/h.</desc>
<speed>19.960001</speed>
</trkpt>
<trkpt lat="42.990326" lon="19.073788">
<ele>1098.8</ele>
<time>2012-05-02T04:58:57Z</time>
<desc>lat.=42.990326, lon.=19.073788, Alt.=1099.922852m. Speed=66.888000m/h.</desc>
<speed>18.580000</speed>
</trkpt>
<trkpt lat="42.989540" lon="19.073565">
<ele>1089.8</ele>
<time>2012-05-02T04:59:02Z</time>
<desc>lat.=42.989540, lon.=19.073565, Alt.=1092.204102m. Speed=64.655998m/h.</desc>
<speed>17.960000</speed>
</trkpt>
<trkpt lat="42.988403" lon="19.071873">
<ele>1076.1</ele>
<time>2012-05-02T04:59:12Z</time>
<desc>lat.=42.988403, lon.=19.071873, Alt.=1076.141602m. Speed=68.832001m/h.</desc>
<speed>19.120000</speed>
</trkpt>
<trkpt lat="42.987625" lon="19.071283">
<ele>1059.2</ele>
<time>2012-05-02T04:59:17Z</time>
<desc>lat.=42.987625, lon.=19.071283, Alt.=1068.454102m. Speed=73.944000m/h.</desc>
<speed>20.540000</speed>
</trkpt>
<trkpt lat="42.986805" lon="19.071037">
<ele>1052.6</ele>
<time>2012-05-02T04:59:22Z</time>
<desc>lat.=42.986805, lon.=19.071037, Alt.=1061.454102m. Speed=58.212002m/h.</desc>
<speed>16.170001</speed>
</trkpt>
<trkpt lat="42.986126" lon="19.071390">
<ele>1055.7</ele>
<time>2012-05-02T04:59:27Z</time>
<desc>lat.=42.986126, lon.=19.071390, Alt.=1056.172852m. Speed=59.903999m/h.</desc>
<speed>16.640000</speed>
</trkpt>
<trkpt lat="42.984970" lon="19.072781">
<ele>1037.9</ele>
<time>2012-05-02T04:59:37Z</time>
<desc>lat.=42.984970, lon.=19.072781, Alt.=1047.454102m. Speed=61.776001m/h.</desc>
<speed>17.160000</speed>
</trkpt>
<trkpt lat="42.983505" lon="19.073586">
<ele>1037.5</ele>
<time>2012-05-02T04:59:47Z</time>
<desc>lat.=42.983505, lon.=19.073586, Alt.=1038.047852m. Speed=64.008003m/h.</desc>
<speed>17.780001</speed>
</trkpt>
<trkpt lat="42.980480" lon="19.075811">
<ele>1009.5</ele>
<time>2012-05-02T05:00:07Z</time>
<desc>lat.=42.980480, lon.=19.075811, Alt.=1012.180176m. Speed=69.947998m/h.</desc>
<speed>19.429999</speed>
</trkpt>
<trkpt lat="42.980007" lon="19.076813">
<ele>1005.3</ele>
<time>2012-05-02T05:00:12Z</time>
<desc>lat.=42.980007, lon.=19.076813, Alt.=1007.758301m. Speed=70.884003m/h.</desc>
<speed>19.690001</speed>
</trkpt>
<trkpt lat="42.979897" lon="19.078007">
<ele>995.6</ele>
<time>2012-05-02T05:00:17Z</time>
<desc>lat.=42.979897, lon.=19.078007, Alt.=1004.305176m. Speed=69.587997m/h.</desc>
<speed>19.329999</speed>
</trkpt>
<trkpt lat="42.980198" lon="19.080225">
<ele>999.9</ele>
<time>2012-05-02T05:00:27Z</time>
<desc>lat.=42.980198, lon.=19.080225, Alt.=995.352051m. Speed=62.820000m/h.</desc>
<speed>17.450000</speed>
</trkpt>
<trkpt lat="42.980148" lon="19.081291">
<ele>991.6</ele>
<time>2012-05-02T05:00:32Z</time>
<desc>lat.=42.980148, lon.=19.081291, Alt.=990.461426m. Speed=65.087997m/h.</desc>
<speed>18.079999</speed>
</trkpt>
<trkpt lat="42.979736" lon="19.082272">
<ele>985.8</ele>
<time>2012-05-02T05:00:37Z</time>
<desc>lat.=42.979736, lon.=19.082272, Alt.=984.586426m. Speed=68.688004m/h.</desc>
<speed>19.080001</speed>
</trkpt>
<trkpt lat="42.978992" lon="19.082918">
<ele>969.5</ele>
<time>2012-05-02T05:00:42Z</time>
<desc>lat.=42.978992, lon.=19.082918, Alt.=978.602051m. Speed=72.540001m/h.</desc>
<speed>20.150000</speed>
</trkpt>
<trkpt lat="42.976578" lon="19.083822">
<ele>956.9</ele>
<time>2012-05-02T05:00:57Z</time>
<desc>lat.=42.976578, lon.=19.083822, Alt.=961.133301m. Speed=58.391998m/h.</desc>
<speed>16.220000</speed>
</trkpt>
<trkpt lat="42.975048" lon="19.083855">
<ele>948.4</ele>
<time>2012-05-02T05:01:07Z</time>
<desc>lat.=42.975048, lon.=19.083855, Alt.=950.898926m. Speed=63.180000m/h.</desc>
<speed>17.550000</speed>
</trkpt>
<trkpt lat="42.973534" lon="19.084686">
<ele>937.3</ele>
<time>2012-05-02T05:01:17Z</time>
<desc>lat.=42.973534, lon.=19.084686, Alt.=940.211426m. Speed=67.428001m/h.</desc>
<speed>18.730000</speed>
</trkpt>
<trkpt lat="42.972797" lon="19.085299">
<ele>936.5</ele>
<time>2012-05-02T05:01:22Z</time>
<desc>lat.=42.972797, lon.=19.085299, Alt.=934.211426m. Speed=69.732002m/h.</desc>
<speed>19.370001</speed>
</trkpt>
<trkpt lat="42.970352" lon="19.086304">
<ele>920.3</ele>
<time>2012-05-02T05:01:37Z</time>
<desc>lat.=42.970352, lon.=19.086304, Alt.=916.805176m. Speed=65.664001m/h.</desc>
<speed>18.240000</speed>
</trkpt>
<trkpt lat="42.967537" lon="19.089144">
<ele>891.5</ele>
<time>2012-05-02T05:01:57Z</time>
<desc>lat.=42.967537, lon.=19.089144, Alt.=892.633301m. Speed=73.835999m/h.</desc>
<speed>20.510000</speed>
</trkpt>
<trkpt lat="42.964897" lon="19.089993">
<ele>875.0</ele>
<time>2012-05-02T05:02:12Z</time>
<desc>lat.=42.964897, lon.=19.089993, Alt.=874.664551m. Speed=66.239998m/h.</desc>
<speed>18.399999</speed>
</trkpt>
<trkpt lat="42.963509" lon="19.091290">
<ele>864.5</ele>
<time>2012-05-02T05:02:22Z</time>
<desc>lat.=42.963509, lon.=19.091290, Alt.=863.617676m. Speed=67.500000m/h.</desc>
<speed>18.750000</speed>
</trkpt>
<trkpt lat="42.962742" lon="19.091616">
<ele>859.2</ele>
<time>2012-05-02T05:02:27Z</time>
<desc>lat.=42.962742, lon.=19.091616, Alt.=858.445801m. Speed=62.279999m/h.</desc>
<speed>17.300000</speed>
</trkpt>
<trkpt lat="42.961555" lon="19.093037">
<ele>851.8</ele>
<time>2012-05-02T05:02:37Z</time>
<desc>lat.=42.961555, lon.=19.093037, Alt.=849.961426m. Speed=63.144001m/h.</desc>
<speed>17.540000</speed>
</trkpt>
<trkpt lat="42.960098" lon="19.093363">
<ele>847.0</ele>
<time>2012-05-02T05:02:47Z</time>
<desc>lat.=42.960098, lon.=19.093363, Alt.=846.523926m. Speed=53.675999m/h.</desc>
<speed>14.910000</speed>
</trkpt>
<trkpt lat="42.957691" lon="19.095051">
<ele>829.5</ele>
<time>2012-05-02T05:03:12Z</time>
<desc>lat.=42.957691, lon.=19.095051, Alt.=835.977051m. Speed=23.580000m/h.</desc>
<speed>6.550000</speed>
</trkpt>
<trkpt lat="42.957703" lon="19.096384">
<ele>829.3</ele>
<time>2012-05-02T05:03:27Z</time>
<desc>lat.=42.957703, lon.=19.096384, Alt.=832.727051m. Speed=15.264000m/h.</desc>
<speed>4.240000</speed>
</trkpt>
<trkpt lat="42.957588" lon="19.096539">
<ele>829.8</ele>
<time>2012-05-02T05:03:32Z</time>
<desc>lat.=42.957588, lon.=19.096539, Alt.=832.430176m. Speed=16.596001m/h.</desc>
<speed>4.610000</speed>
</trkpt>
<trkpt lat="42.957371" lon="19.096617">
<ele>839.3</ele>
<time>2012-05-02T05:03:37Z</time>
<desc>lat.=42.957371, lon.=19.096617, Alt.=831.852051m. Speed=17.964001m/h.</desc>
<speed>4.990000</speed>
</trkpt>
<trkpt lat="42.957031" lon="19.096069">
<ele>836.8</ele>
<time>2012-05-02T05:03:47Z</time>
<desc>lat.=42.957031, lon.=19.096069, Alt.=829.445801m. Speed=26.424000m/h.</desc>
<speed>7.340000</speed>
</trkpt>
<trkpt lat="42.956684" lon="19.096045">
<ele>833.0</ele>
<time>2012-05-02T05:03:52Z</time>
<desc>lat.=42.956684, lon.=19.096045, Alt.=828.211426m. Speed=32.868000m/h.</desc>
<speed>9.130000</speed>
</trkpt>
<trkpt lat="42.955097" lon="19.097446">
<ele>837.5</ele>
<time>2012-05-02T05:04:07Z</time>
<desc>lat.=42.955097, lon.=19.097446, Alt.=830.836426m. Speed=58.751999m/h.</desc>
<speed>16.320000</speed>
</trkpt>
<trkpt lat="42.953922" lon="19.098021">
<ele>848.0</ele>
<time>2012-05-02T05:04:17Z</time>
<desc>lat.=42.953922, lon.=19.098021, Alt.=836.305176m. Speed=39.132000m/h.</desc>
<speed>10.870000</speed>
</trkpt>
<trkpt lat="42.953117" lon="19.098011">
<ele>845.7</ele>
<time>2012-05-02T05:04:27Z</time>
<desc>lat.=42.953117, lon.=19.098011, Alt.=842.164551m. Speed=31.968000m/h.</desc>
<speed>8.880000</speed>
</trkpt>
<trkpt lat="42.952164" lon="19.098888">
<ele>854.0</ele>
<time>2012-05-02T05:04:42Z</time>
<desc>lat.=42.952164, lon.=19.098888, Alt.=847.773926m. Speed=29.952000m/h.</desc>
<speed>8.320000</speed>
</trkpt>
<trkpt lat="42.950405" lon="19.099962">
<ele>851.0</ele>
<time>2012-05-02T05:05:02Z</time>
<desc>lat.=42.950405, lon.=19.099962, Alt.=843.648926m. Speed=32.004002m/h.</desc>
<speed>8.890000</speed>
</trkpt>
<trkpt lat="42.950039" lon="19.099861">
<ele>860.6</ele>
<time>2012-05-02T05:05:07Z</time>
<desc>lat.=42.950039, lon.=19.099861, Alt.=842.898926m. Speed=27.323999m/h.</desc>
<speed>7.590000</speed>
</trkpt>
<trkpt lat="42.949825" lon="19.099543">
<ele>859.6</ele>
<time>2012-05-02T05:05:12Z</time>
<desc>lat.=42.949825, lon.=19.099543, Alt.=842.789551m. Speed=27.108000m/h.</desc>
<speed>7.530000</speed>
</trkpt>
<trkpt lat="42.950031" lon="19.099171">
<ele>846.7</ele>
<time>2012-05-02T05:05:17Z</time>
<desc>lat.=42.950031, lon.=19.099171, Alt.=844.430176m. Speed=31.104000m/h.</desc>
<speed>8.640000</speed>
</trkpt>
<trkpt lat="42.950466" lon="19.099110">
<ele>840.1</ele>
<time>2012-05-02T05:05:22Z</time>
<desc>lat.=42.950466, lon.=19.099110, Alt.=846.633301m. Speed=37.296001m/h.</desc>
<speed>10.360000</speed>
</trkpt>
<trkpt lat="42.951595" lon="19.097931">
<ele>852.3</ele>
<time>2012-05-02T05:05:37Z</time>
<desc>lat.=42.951595, lon.=19.097931, Alt.=855.883301m. Speed=36.827999m/h.</desc>
<speed>10.230000</speed>
</trkpt>
<trkpt lat="42.951870" lon="19.096643">
<ele>872.9</ele>
<time>2012-05-02T05:05:47Z</time>
<desc>lat.=42.951870, lon.=19.096643, Alt.=862.695801m. Speed=40.391998m/h.</desc>
<speed>11.220000</speed>
</trkpt>
<trkpt lat="42.952461" lon="19.095604">
<ele>873.7</ele>
<time>2012-05-02T05:05:57Z</time>
<desc>lat.=42.952461, lon.=19.095604, Alt.=869.414551m. Speed=31.643999m/h.</desc>
<speed>8.790000</speed>
</trkpt>
<trkpt lat="42.952171" lon="19.094213">
<ele>885.5</ele>
<time>2012-05-02T05:06:12Z</time>
<desc>lat.=42.952171, lon.=19.094213, Alt.=877.320801m. Speed=20.844000m/h.</desc>
<speed>5.790000</speed>
</trkpt>
<trkpt lat="42.951962" lon="19.094290">
<ele>897.5</ele>
<time>2012-05-02T05:06:17Z</time>
<desc>lat.=42.951962, lon.=19.094290, Alt.=879.508301m. Speed=24.372000m/h.</desc>
<speed>6.770000</speed>
</trkpt>
<trkpt lat="42.951942" lon="19.095369">
<ele>896.1</ele>
<time>2012-05-02T05:06:27Z</time>
<desc>lat.=42.951942, lon.=19.095369, Alt.=885.695801m. Speed=33.911999m/h.</desc>
<speed>9.420000</speed>
</trkpt>
<trkpt lat="42.951576" lon="19.095793">
<ele>894.5</ele>
<time>2012-05-02T05:06:32Z</time>
<desc>lat.=42.951576, lon.=19.095793, Alt.=888.555176m. Speed=39.060001m/h.</desc>
<speed>10.850000</speed>
</trkpt>
<trkpt lat="42.951172" lon="19.095947">
<ele>896.4</ele>
<time>2012-05-02T05:06:37Z</time>
<desc>lat.=42.951172, lon.=19.095947, Alt.=890.742676m. Speed=30.024000m/h.</desc>
<speed>8.340000</speed>
</trkpt>
<trkpt lat="42.950752" lon="19.096861">
<ele>909.8</ele>
<time>2012-05-02T05:06:47Z</time>
<desc>lat.=42.950752, lon.=19.096861, Alt.=895.680176m. Speed=33.515999m/h.</desc>
<speed>9.310000</speed>
</trkpt>
<trkpt lat="42.948563" lon="19.097214">
<ele>925.7</ele>
<time>2012-05-02T05:07:07Z</time>
<desc>lat.=42.948563, lon.=19.097214, Alt.=904.773926m. Speed=41.220001m/h.</desc>
<speed>11.450000</speed>
</trkpt>
<trkpt lat="42.948235" lon="19.097666">
<ele>934.7</ele>
<time>2012-05-02T05:07:12Z</time>
<desc>lat.=42.948235, lon.=19.097666, Alt.=907.414551m. Speed=38.987999m/h.</desc>
<speed>10.830000</speed>
</trkpt>
<trkpt lat="42.948097" lon="19.098322">
<ele>927.7</ele>
<time>2012-05-02T05:07:17Z</time>
<desc>lat.=42.948097, lon.=19.098322, Alt.=910.617676m. Speed=37.655998m/h.</desc>
<speed>10.460000</speed>
</trkpt>
<trkpt lat="42.947426" lon="19.099152">
<ele>930.4</ele>
<time>2012-05-02T05:07:27Z</time>
<desc>lat.=42.947426, lon.=19.099152, Alt.=919.258301m. Speed=28.584000m/h.</desc>
<speed>7.940000</speed>
</trkpt>
<trkpt lat="42.947315" lon="19.099958">
<ele>935.3</ele>
<time>2012-05-02T05:07:37Z</time>
<desc>lat.=42.947315, lon.=19.099958, Alt.=923.539551m. Speed=14.436000m/h.</desc>
<speed>4.010000</speed>
</trkpt>
<trkpt lat="42.947208" lon="19.099886">
<ele>938.3</ele>
<time>2012-05-02T05:07:42Z</time>
<desc>lat.=42.947208, lon.=19.099886, Alt.=924.336426m. Speed=13.500000m/h.</desc>
<speed>3.750000</speed>
</trkpt>
<trkpt lat="42.947262" lon="19.098740">
<ele>937.6</ele>
<time>2012-05-02T05:07:52Z</time>
<desc>lat.=42.947262, lon.=19.098740, Alt.=928.789551m. Speed=38.771999m/h.</desc>
<speed>10.770000</speed>
</trkpt>
<trkpt lat="42.947483" lon="19.097469">
<ele>946.5</ele>
<time>2012-05-02T05:08:02Z</time>
<desc>lat.=42.947483, lon.=19.097469, Alt.=936.055176m. Speed=42.408001m/h.</desc>
<speed>11.780000</speed>
</trkpt>
<trkpt lat="42.948185" lon="19.095940">
<ele>961.6</ele>
<time>2012-05-02T05:08:12Z</time>
<desc>lat.=42.948185, lon.=19.095940, Alt.=944.742676m. Speed=52.956001m/h.</desc>
<speed>14.710000</speed>
</trkpt>
<trkpt lat="42.948635" lon="19.095379">
<ele>954.8</ele>
<time>2012-05-02T05:08:17Z</time>
<desc>lat.=42.948635, lon.=19.095379, Alt.=948.961426m. Speed=42.299999m/h.</desc>
<speed>11.750000</speed>
</trkpt>
<trkpt lat="42.949444" lon="19.095165">
<ele>959.5</ele>
<time>2012-05-02T05:08:27Z</time>
<desc>lat.=42.949444, lon.=19.095165, Alt.=954.695801m. Speed=27.900000m/h.</desc>
<speed>7.750000</speed>
</trkpt>
<trkpt lat="42.949505" lon="19.094902">
<ele>959.4</ele>
<time>2012-05-02T05:08:32Z</time>
<desc>lat.=42.949505, lon.=19.094902, Alt.=956.617676m. Speed=17.424000m/h.</desc>
<speed>4.840000</speed>
</trkpt>
<trkpt lat="42.948559" lon="19.094839">
<ele>966.7</ele>
<time>2012-05-02T05:08:47Z</time>
<desc>lat.=42.948559, lon.=19.094839, Alt.=963.102051m. Speed=35.639999m/h.</desc>
<speed>9.900000</speed>
</trkpt>
<trkpt lat="42.947647" lon="19.095522">
<ele>982.9</ele>
<time>2012-05-02T05:09:02Z</time>
<desc>lat.=42.947647, lon.=19.095522, Alt.=968.992676m. Speed=13.356000m/h.</desc>
<speed>3.710000</speed>
</trkpt>
<trkpt lat="42.948349" lon="19.094501">
<ele>979.9</ele>
<time>2012-05-02T05:09:17Z</time>
<desc>lat.=42.948349, lon.=19.094501, Alt.=973.961426m. Speed=37.296001m/h.</desc>
<speed>10.360000</speed>
</trkpt>
<trkpt lat="42.949043" lon="19.093891">
<ele>983.8</ele>
<time>2012-05-02T05:09:27Z</time>
<desc>lat.=42.949043, lon.=19.093891, Alt.=980.367676m. Speed=29.483999m/h.</desc>
<speed>8.190000</speed>
</trkpt>
<trkpt lat="42.949135" lon="19.093386">
<ele>990.5</ele>
<time>2012-05-02T05:09:32Z</time>
<desc>lat.=42.949135, lon.=19.093386, Alt.=982.289551m. Speed=29.052000m/h.</desc>
<speed>8.070000</speed>
</trkpt>
<trkpt lat="42.949490" lon="19.092873">
<ele>987.3</ele>
<time>2012-05-02T05:09:42Z</time>
<desc>lat.=42.949490, lon.=19.092873, Alt.=986.305176m. Speed=20.952000m/h.</desc>
<speed>5.820000</speed>
</trkpt>
<trkpt lat="42.946785" lon="19.094805">
<ele>1004.1</ele>
<time>2012-05-02T05:10:17Z</time>
<desc>lat.=42.946785, lon.=19.094805, Alt.=1003.117676m. Speed=14.400000m/h.</desc>
<speed>4.000000</speed>
</trkpt>
<trkpt lat="42.947094" lon="19.094097">
<ele>1006.2</ele>
<time>2012-05-02T05:10:27Z</time>
<desc>lat.=42.947094, lon.=19.094097, Alt.=1005.836426m. Speed=32.796001m/h.</desc>
<speed>9.110000</speed>
</trkpt>
<trkpt lat="42.947922" lon="19.093180">
<ele>1011.7</ele>
<time>2012-05-02T05:10:37Z</time>
<desc>lat.=42.947922, lon.=19.093180, Alt.=1012.055176m. Speed=47.700001m/h.</desc>
<speed>13.250000</speed>
</trkpt>
<trkpt lat="42.948597" lon="19.091816">
<ele>1024.9</ele>
<time>2012-05-02T05:10:47Z</time>
<desc>lat.=42.948597, lon.=19.091816, Alt.=1018.414551m. Speed=32.616001m/h.</desc>
<speed>9.060000</speed>
</trkpt>
<trkpt lat="42.948853" lon="19.091675">
<ele>1021.5</ele>
<time>2012-05-02T05:10:52Z</time>
<desc>lat.=42.948853, lon.=19.091675, Alt.=1020.352051m. Speed=15.480000m/h.</desc>
<speed>4.300000</speed>
</trkpt>
<trkpt lat="42.948681" lon="19.091516">
<ele>1028.4</ele>
<time>2012-05-02T05:10:57Z</time>
<desc>lat.=42.948681, lon.=19.091516, Alt.=1021.242676m. Speed=26.747999m/h.</desc>
<speed>7.430000</speed>
</trkpt>
<trkpt lat="42.948322" lon="19.091751">
<ele>1033.0</ele>
<time>2012-05-02T05:11:02Z</time>
<desc>lat.=42.948322, lon.=19.091751, Alt.=1023.961426m. Speed=36.108002m/h.</desc>
<speed>10.030000</speed>
</trkpt>
<trkpt lat="42.947563" lon="19.092579">
<ele>1031.1</ele>
<time>2012-05-02T05:11:12Z</time>
<desc>lat.=42.947563, lon.=19.092579, Alt.=1030.235352m. Speed=38.448002m/h.</desc>
<speed>10.680001</speed>
</trkpt>
<trkpt lat="42.946140" lon="19.092863">
<ele>1043.3</ele>
<time>2012-05-02T05:11:27Z</time>
<desc>lat.=42.946140, lon.=19.092863, Alt.=1035.735352m. Speed=29.124001m/h.</desc>
<speed>8.090000</speed>
</trkpt>
<trkpt lat="42.945919" lon="19.093245">
<ele>1042.1</ele>
<time>2012-05-02T05:11:32Z</time>
<desc>lat.=42.945919, lon.=19.093245, Alt.=1038.047852m. Speed=19.548000m/h.</desc>
<speed>5.430000</speed>
</trkpt>
<trkpt lat="42.945827" lon="19.093121">
<ele>1046.6</ele>
<time>2012-05-02T05:11:37Z</time>
<desc>lat.=42.945827, lon.=19.093121, Alt.=1040.047852m. Speed=18.180000m/h.</desc>
<speed>5.050000</speed>
</trkpt>
<trkpt lat="42.946228" lon="19.092405">
<ele>1052.6</ele>
<time>2012-05-02T05:11:47Z</time>
<desc>lat.=42.946228, lon.=19.092405, Alt.=1044.735352m. Speed=29.879999m/h.</desc>
<speed>8.300000</speed>
</trkpt>
<trkpt lat="42.947044" lon="19.092003">
<ele>1053.7</ele>
<time>2012-05-02T05:11:57Z</time>
<desc>lat.=42.947044, lon.=19.092003, Alt.=1050.047852m. Speed=38.268002m/h.</desc>
<speed>10.630000</speed>
</trkpt>
<trkpt lat="42.947960" lon="19.090502">
<ele>1060.8</ele>
<time>2012-05-02T05:12:12Z</time>
<desc>lat.=42.947960, lon.=19.090502, Alt.=1059.110352m. Speed=39.023998m/h.</desc>
<speed>10.840000</speed>
</trkpt>
<trkpt lat="42.948750" lon="19.089947">
<ele>1066.7</ele>
<time>2012-05-02T05:12:22Z</time>
<desc>lat.=42.948750, lon.=19.089947, Alt.=1064.797852m. Speed=33.551998m/h.</desc>
<speed>9.319999</speed>
</trkpt>
<trkpt lat="42.948898" lon="19.089401">
<ele>1069.3</ele>
<time>2012-05-02T05:12:27Z</time>
<desc>lat.=42.948898, lon.=19.089401, Alt.=1067.485352m. Speed=32.616001m/h.</desc>
<speed>9.060000</speed>
</trkpt>
<trkpt lat="42.950401" lon="19.089361">
<ele>1074.8</ele>
<time>2012-05-02T05:12:42Z</time>
<desc>lat.=42.950401, lon.=19.089361, Alt.=1077.047852m. Speed=33.660000m/h.</desc>
<speed>9.350000</speed>
</trkpt>
<trkpt lat="42.950634" lon="19.088907">
<ele>1077.0</ele>
<time>2012-05-02T05:12:47Z</time>
<desc>lat.=42.950634, lon.=19.088907, Alt.=1079.079102m. Speed=33.084000m/h.</desc>
<speed>9.190000</speed>
</trkpt>
<trkpt lat="42.950035" lon="19.086506">
<ele>1084.2</ele>
<time>2012-05-02T05:13:07Z</time>
<desc>lat.=42.950035, lon.=19.086506, Alt.=1082.922852m. Speed=36.324001m/h.</desc>
<speed>10.090000</speed>
</trkpt>
<trkpt lat="42.949837" lon="19.085999">
<ele>1084.8</ele>
<time>2012-05-02T05:13:12Z</time>
<desc>lat.=42.949837, lon.=19.085999, Alt.=1082.704102m. Speed=32.868000m/h.</desc>
<speed>9.130000</speed>
</trkpt>
<trkpt lat="42.949467" lon="19.085802">
<ele>1089.3</ele>
<time>2012-05-02T05:13:17Z</time>
<desc>lat.=42.949467, lon.=19.085802, Alt.=1081.141602m. Speed=29.375999m/h.</desc>
<speed>8.160000</speed>
</trkpt>
<trkpt lat="42.949055" lon="19.081892">
<ele>1084.9</ele>
<time>2012-05-02T05:13:47Z</time>
<desc>lat.=42.949055, lon.=19.081892, Alt.=1081.329102m. Speed=28.944000m/h.</desc>
<speed>8.040000</speed>
</trkpt>
<trkpt lat="42.948093" lon="19.080618">
<ele>1084.9</ele>
<time>2012-05-02T05:14:02Z</time>
<desc>lat.=42.948093, lon.=19.080618, Alt.=1080.797852m. Speed=41.256001m/h.</desc>
<speed>11.460000</speed>
</trkpt>
<trkpt lat="42.947388" lon="19.078842">
<ele>1083.0</ele>
<time>2012-05-02T05:14:17Z</time>
<desc>lat.=42.947388, lon.=19.078842, Alt.=1079.704102m. Speed=28.511999m/h.</desc>
<speed>7.920000</speed>
</trkpt>
<trkpt lat="42.946671" lon="19.078342">
<ele>1082.6</ele>
<time>2012-05-02T05:14:27Z</time>
<desc>lat.=42.946671, lon.=19.078342, Alt.=1074.329102m. Speed=37.296001m/h.</desc>
<speed>10.360000</speed>
</trkpt>
<trkpt lat="42.946480" lon="19.077185">
<ele>1072.2</ele>
<time>2012-05-02T05:14:37Z</time>
<desc>lat.=42.946480, lon.=19.077185, Alt.=1070.766602m. Speed=34.091999m/h.</desc>
<speed>9.470000</speed>
</trkpt>
<trkpt lat="42.946121" lon="19.077019">
<ele>1069.5</ele>
<time>2012-05-02T05:14:42Z</time>
<desc>lat.=42.946121, lon.=19.077019, Alt.=1069.922852m. Speed=32.183998m/h.</desc>
<speed>8.939999</speed>
</trkpt>
<trkpt lat="42.945751" lon="19.077139">
<ele>1072.5</ele>
<time>2012-05-02T05:14:47Z</time>
<desc>lat.=42.945751, lon.=19.077139, Alt.=1068.860352m. Speed=30.096001m/h.</desc>
<speed>8.360000</speed>
</trkpt>
<trkpt lat="42.945492" lon="19.076748">
<ele>1068.0</ele>
<time>2012-05-02T05:14:52Z</time>
<desc>lat.=42.945492, lon.=19.076748, Alt.=1068.110352m. Speed=34.307999m/h.</desc>
<speed>9.530000</speed>
</trkpt>
<trkpt lat="42.945805" lon="19.074856">
<ele>1063.6</ele>
<time>2012-05-02T05:15:07Z</time>
<desc>lat.=42.945805, lon.=19.074856, Alt.=1065.516602m. Speed=40.571999m/h.</desc>
<speed>11.270000</speed>
</trkpt>
<trkpt lat="42.945797" lon="19.074144">
<ele>1056.9</ele>
<time>2012-05-02T05:15:12Z</time>
<desc>lat.=42.945797, lon.=19.074144, Alt.=1063.079102m. Speed=44.136002m/h.</desc>
<speed>12.260000</speed>
</trkpt>
<trkpt lat="42.945484" lon="19.073532">
<ele>1054.4</ele>
<time>2012-05-02T05:15:17Z</time>
<desc>lat.=42.945484, lon.=19.073532, Alt.=1060.141602m. Speed=40.860001m/h.</desc>
<speed>11.350000</speed>
</trkpt>
<trkpt lat="42.944515" lon="19.073099">
<ele>1047.5</ele>
<time>2012-05-02T05:15:27Z</time>
<desc>lat.=42.944515, lon.=19.073099, Alt.=1053.735352m. Speed=37.476002m/h.</desc>
<speed>10.410000</speed>
</trkpt>
<trkpt lat="42.944111" lon="19.073158">
<ele>1048.2</ele>
<time>2012-05-02T05:15:32Z</time>
<desc>lat.=42.944111, lon.=19.073158, Alt.=1050.766602m. Speed=33.695999m/h.</desc>
<speed>9.360000</speed>
</trkpt>
<trkpt lat="42.943768" lon="19.073509">
<ele>1045.8</ele>
<time>2012-05-02T05:15:37Z</time>
<desc>lat.=42.943768, lon.=19.073509, Alt.=1048.579102m. Speed=32.723999m/h.</desc>
<speed>9.090000</speed>
</trkpt>
<trkpt lat="42.943363" lon="19.073412">
<ele>1041.1</ele>
<time>2012-05-02T05:15:42Z</time>
<desc>lat.=42.943363, lon.=19.073412, Alt.=1046.079102m. Speed=35.028000m/h.</desc>
<speed>9.730000</speed>
</trkpt>
<trkpt lat="42.942341" lon="19.071951">
<ele>1033.7</ele>
<time>2012-05-02T05:15:57Z</time>
<desc>lat.=42.942341, lon.=19.071951, Alt.=1039.047852m. Speed=38.124001m/h.</desc>
<speed>10.590000</speed>
</trkpt>
<trkpt lat="42.941891" lon="19.071703">
<ele>1031.5</ele>
<time>2012-05-02T05:16:02Z</time>
<desc>lat.=42.941891, lon.=19.071703, Alt.=1037.141602m. Speed=39.779999m/h.</desc>
<speed>11.050000</speed>
</trkpt>
<trkpt lat="42.938351" lon="19.071808">
<ele>1036.5</ele>
<time>2012-05-02T05:16:32Z</time>
<desc>lat.=42.938351, lon.=19.071808, Alt.=1037.672852m. Speed=34.200001m/h.</desc>
<speed>9.500000</speed>
</trkpt>
<trkpt lat="42.934120" lon="19.069788">
<ele>1038.7</ele>
<time>2012-05-02T05:17:07Z</time>
<desc>lat.=42.934120, lon.=19.069788, Alt.=1037.891602m. Speed=42.264000m/h.</desc>
<speed>11.740000</speed>
</trkpt>
<trkpt lat="42.933037" lon="19.070196">
<ele>1042.5</ele>
<time>2012-05-02T05:17:17Z</time>
<desc>lat.=42.933037, lon.=19.070196, Alt.=1042.172852m. Speed=48.599998m/h.</desc>
<speed>13.500000</speed>
</trkpt>
<trkpt lat="42.931381" lon="19.070282">
<ele>1048.4</ele>
<time>2012-05-02T05:17:32Z</time>
<desc>lat.=42.931381, lon.=19.070282, Alt.=1050.797852m. Speed=40.428001m/h.</desc>
<speed>11.230000</speed>
</trkpt>
<trkpt lat="42.930458" lon="19.069958">
<ele>1052.3</ele>
<time>2012-05-02T05:17:42Z</time>
<desc>lat.=42.930458, lon.=19.069958, Alt.=1056.891602m. Speed=35.568001m/h.</desc>
<speed>9.880000</speed>
</trkpt>
<trkpt lat="42.930153" lon="19.069580">
<ele>1060.0</ele>
<time>2012-05-02T05:17:47Z</time>
<desc>lat.=42.930153, lon.=19.069580, Alt.=1059.922852m. Speed=27.468000m/h.</desc>
<speed>7.630000</speed>
</trkpt>
<trkpt lat="42.929848" lon="19.069635">
<ele>1066.4</ele>
<time>2012-05-02T05:17:52Z</time>
<desc>lat.=42.929848, lon.=19.069635, Alt.=1061.954102m. Speed=28.584000m/h.</desc>
<speed>7.940000</speed>
</trkpt>
<trkpt lat="42.928467" lon="19.070747">
<ele>1077.6</ele>
<time>2012-05-02T05:18:07Z</time>
<desc>lat.=42.928467, lon.=19.070747, Alt.=1071.297852m. Speed=45.936001m/h.</desc>
<speed>12.760000</speed>
</trkpt>
<trkpt lat="42.926979" lon="19.071255">
<ele>1090.3</ele>
<time>2012-05-02T05:18:22Z</time>
<desc>lat.=42.926979, lon.=19.071255, Alt.=1079.391602m. Speed=30.816000m/h.</desc>
<speed>8.560000</speed>
</trkpt>
<trkpt lat="42.926498" lon="19.072170">
<ele>1105.5</ele>
<time>2012-05-02T05:18:32Z</time>
<desc>lat.=42.926498, lon.=19.072170, Alt.=1083.454102m. Speed=36.900002m/h.</desc>
<speed>10.250000</speed>
</trkpt>
<trkpt lat="42.926380" lon="19.072853">
<ele>1094.2</ele>
<time>2012-05-02T05:18:37Z</time>
<desc>lat.=42.926380, lon.=19.072853, Alt.=1086.266602m. Speed=40.967999m/h.</desc>
<speed>11.380000</speed>
</trkpt>
<trkpt lat="42.925987" lon="19.073303">
<ele>1096.7</ele>
<time>2012-05-02T05:18:42Z</time>
<desc>lat.=42.925987, lon.=19.073303, Alt.=1088.579102m. Speed=43.992001m/h.</desc>
<speed>12.220000</speed>
</trkpt>
<trkpt lat="42.925484" lon="19.073505">
<ele>1117.3</ele>
<time>2012-05-02T05:18:47Z</time>
<desc>lat.=42.925484, lon.=19.073505, Alt.=1090.641602m. Speed=38.952000m/h.</desc>
<speed>10.820000</speed>
</trkpt>
<trkpt lat="42.925083" lon="19.074850">
<ele>1114.8</ele>
<time>2012-05-02T05:18:57Z</time>
<desc>lat.=42.925083, lon.=19.074850, Alt.=1096.922852m. Speed=38.880001m/h.</desc>
<speed>10.800000</speed>
</trkpt>
<trkpt lat="42.924221" lon="19.076700">
<ele>1134.7</ele>
<time>2012-05-02T05:19:12Z</time>
<desc>lat.=42.924221, lon.=19.076700, Alt.=1105.016602m. Speed=42.731998m/h.</desc>
<speed>11.870000</speed>
</trkpt>
<trkpt lat="42.924263" lon="19.078096">
<ele>1136.1</ele>
<time>2012-05-02T05:19:22Z</time>
<desc>lat.=42.924263, lon.=19.078096, Alt.=1113.547852m. Speed=44.243999m/h.</desc>
<speed>12.290000</speed>
</trkpt>
<trkpt lat="42.923752" lon="19.080254">
<ele>1136.5</ele>
<time>2012-05-02T05:19:37Z</time>
<desc>lat.=42.923752, lon.=19.080254, Alt.=1123.047852m. Speed=38.484001m/h.</desc>
<speed>10.690000</speed>
</trkpt>
<trkpt lat="42.922428" lon="19.081776">
<ele>1131.6</ele>
<time>2012-05-02T05:19:52Z</time>
<desc>lat.=42.922428, lon.=19.081776, Alt.=1132.079102m. Speed=46.296001m/h.</desc>
<speed>12.860000</speed>
</trkpt>
<trkpt lat="42.921204" lon="19.082006">
<ele>1151.0</ele>
<time>2012-05-02T05:20:02Z</time>
<desc>lat.=42.921204, lon.=19.082006, Alt.=1138.766602m. Speed=50.723999m/h.</desc>
<speed>14.090000</speed>
</trkpt>
<trkpt lat="42.920124" lon="19.082796">
<ele>1160.8</ele>
<time>2012-05-02T05:20:12Z</time>
<desc>lat.=42.920124, lon.=19.082796, Alt.=1144.079102m. Speed=42.335999m/h.</desc>
<speed>11.760000</speed>
</trkpt>
<trkpt lat="42.919254" lon="19.084990">
<ele>1167.3</ele>
<time>2012-05-02T05:20:27Z</time>
<desc>lat.=42.919254, lon.=19.084990, Alt.=1153.172852m. Speed=51.984001m/h.</desc>
<speed>14.440000</speed>
</trkpt>
<trkpt lat="42.918488" lon="19.086443">
<ele>1168.6</ele>
<time>2012-05-02T05:20:37Z</time>
<desc>lat.=42.918488, lon.=19.086443, Alt.=1162.329102m. Speed=46.655998m/h.</desc>
<speed>12.960000</speed>
</trkpt>
<trkpt lat="42.918358" lon="19.087145">
<ele>1170.1</ele>
<time>2012-05-02T05:20:42Z</time>
<desc>lat.=42.918358, lon.=19.087145, Alt.=1165.704102m. Speed=41.868000m/h.</desc>
<speed>11.630000</speed>
</trkpt>
<trkpt lat="42.917774" lon="19.088129">
<ele>1176.1</ele>
<time>2012-05-02T05:20:52Z</time>
<desc>lat.=42.917774, lon.=19.088129, Alt.=1170.516602m. Speed=37.584000m/h.</desc>
<speed>10.440000</speed>
</trkpt>
<trkpt lat="42.917606" lon="19.088787">
<ele>1179.7</ele>
<time>2012-05-02T05:20:57Z</time>
<desc>lat.=42.917606, lon.=19.088787, Alt.=1173.922852m. Speed=44.855999m/h.</desc>
<speed>12.460000</speed>
</trkpt>
<trkpt lat="42.917210" lon="19.089354">
<ele>1183.6</ele>
<time>2012-05-02T05:21:02Z</time>
<desc>lat.=42.917210, lon.=19.089354, Alt.=1175.735352m. Speed=46.007999m/h.</desc>
<speed>12.780000</speed>
</trkpt>
<trkpt lat="42.916718" lon="19.089622">
<ele>1186.0</ele>
<time>2012-05-02T05:21:07Z</time>
<desc>lat.=42.916718, lon.=19.089622, Alt.=1178.454102m. Speed=34.919998m/h.</desc>
<speed>9.699999</speed>
</trkpt>
<trkpt lat="42.916447" lon="19.090057">
<ele>1186.3</ele>
<time>2012-05-02T05:21:12Z</time>
<desc>lat.=42.916447, lon.=19.090057, Alt.=1181.297852m. Speed=37.259998m/h.</desc>
<speed>10.350000</speed>
</trkpt>
<trkpt lat="42.916313" lon="19.090685">
<ele>1188.4</ele>
<time>2012-05-02T05:21:17Z</time>
<desc>lat.=42.916313, lon.=19.090685, Alt.=1185.329102m. Speed=35.891998m/h.</desc>
<speed>9.970000</speed>
</trkpt>
<trkpt lat="42.915913" lon="19.090818">
<ele>1190.1</ele>
<time>2012-05-02T05:21:22Z</time>
<desc>lat.=42.915913, lon.=19.090818, Alt.=1187.485352m. Speed=37.872002m/h.</desc>
<speed>10.520000</speed>
</trkpt>
<trkpt lat="42.913391" lon="19.090170">
<ele>1202.1</ele>
<time>2012-05-02T05:21:42Z</time>
<desc>lat.=42.913391, lon.=19.090170, Alt.=1198.016602m. Speed=56.231998m/h.</desc>
<speed>15.620000</speed>
</trkpt>
<trkpt lat="42.912663" lon="19.090250">
<ele>1205.8</ele>
<time>2012-05-02T05:21:47Z</time>
<desc>lat.=42.912663, lon.=19.090250, Alt.=1200.422852m. Speed=57.779999m/h.</desc>
<speed>16.050000</speed>
</trkpt>
<trkpt lat="42.911007" lon="19.090956">
<ele>1218.4</ele>
<time>2012-05-02T05:22:02Z</time>
<desc>lat.=42.911007, lon.=19.090956, Alt.=1208.641602m. Speed=31.320000m/h.</desc>
<speed>8.700000</speed>
</trkpt>
<trkpt lat="42.910717" lon="19.090647">
<ele>1221.6</ele>
<time>2012-05-02T05:22:07Z</time>
<desc>lat.=42.910717, lon.=19.090647, Alt.=1211.172852m. Speed=34.596001m/h.</desc>
<speed>9.610000</speed>
</trkpt>
<trkpt lat="42.910564" lon="19.090069">
<ele>1223.4</ele>
<time>2012-05-02T05:22:12Z</time>
<desc>lat.=42.910564, lon.=19.090069, Alt.=1215.016602m. Speed=33.515999m/h.</desc>
<speed>9.310000</speed>
</trkpt>
<trkpt lat="42.909222" lon="19.090221">
<ele>1233.1</ele>
<time>2012-05-02T05:22:27Z</time>
<desc>lat.=42.909222, lon.=19.090221, Alt.=1224.110352m. Speed=41.327999m/h.</desc>
<speed>11.480000</speed>
</trkpt>
<trkpt lat="42.908508" lon="19.089472">
<ele>1238.8</ele>
<time>2012-05-02T05:22:37Z</time>
<desc>lat.=42.908508, lon.=19.089472, Alt.=1230.110352m. Speed=35.820000m/h.</desc>
<speed>9.950000</speed>
</trkpt>
<trkpt lat="42.907059" lon="19.089329">
<ele>1252.1</ele>
<time>2012-05-02T05:22:52Z</time>
<desc>lat.=42.907059, lon.=19.089329, Alt.=1240.329102m. Speed=33.264000m/h.</desc>
<speed>9.240000</speed>
</trkpt>
<trkpt lat="42.906960" lon="19.088865">
<ele>1259.7</ele>
<time>2012-05-02T05:22:57Z</time>
<desc>lat.=42.906960, lon.=19.088865, Alt.=1243.297852m. Speed=32.076000m/h.</desc>
<speed>8.910000</speed>
</trkpt>
<trkpt lat="42.907089" lon="19.088354">
<ele>1260.7</ele>
<time>2012-05-02T05:23:02Z</time>
<desc>lat.=42.907089, lon.=19.088354, Alt.=1246.172852m. Speed=29.412001m/h.</desc>
<speed>8.170000</speed>
</trkpt>
<trkpt lat="42.906826" lon="19.087969">
<ele>1262.0</ele>
<time>2012-05-02T05:23:07Z</time>
<desc>lat.=42.906826, lon.=19.087969, Alt.=1247.735352m. Speed=36.396000m/h.</desc>
<speed>10.110000</speed>
</trkpt>
<trkpt lat="42.906002" lon="19.088005">
<ele>1269.1</ele>
<time>2012-05-02T05:23:17Z</time>
<desc>lat.=42.906002, lon.=19.088005, Alt.=1252.360352m. Speed=34.236000m/h.</desc>
<speed>9.510000</speed>
</trkpt>
<trkpt lat="42.905632" lon="19.087820">
<ele>1266.2</ele>
<time>2012-05-02T05:23:22Z</time>
<desc>lat.=42.905632, lon.=19.087820, Alt.=1254.172852m. Speed=31.247999m/h.</desc>
<speed>8.680000</speed>
</trkpt>
<trkpt lat="42.905083" lon="19.088257">
<ele>1276.9</ele>
<time>2012-05-02T05:23:32Z</time>
<desc>lat.=42.905083, lon.=19.088257, Alt.=1257.235352m. Speed=18.756001m/h.</desc>
<speed>5.210000</speed>
</trkpt>
<trkpt lat="42.905075" lon="19.088507">
<ele>1280.9</ele>
<time>2012-05-02T05:23:37Z</time>
<desc>lat.=42.905075, lon.=19.088507, Alt.=1258.610352m. Speed=22.068001m/h.</desc>
<speed>6.130000</speed>
</trkpt>
<trkpt lat="42.905743" lon="19.088285">
<ele>1271.9</ele>
<time>2012-05-02T05:23:47Z</time>
<desc>lat.=42.905743, lon.=19.088285, Alt.=1263.079102m. Speed=25.128000m/h.</desc>
<speed>6.980000</speed>
</trkpt>
<trkpt lat="42.906242" lon="19.088852">
<ele>1278.9</ele>
<time>2012-05-02T05:23:57Z</time>
<desc>lat.=42.906242, lon.=19.088852, Alt.=1271.579102m. Speed=20.556000m/h.</desc>
<speed>5.710000</speed>
</trkpt>
<trkpt lat="42.905746" lon="19.090105">
<ele>1296.5</ele>
<time>2012-05-02T05:24:12Z</time>
<desc>lat.=42.905746, lon.=19.090105, Alt.=1278.641602m. Speed=39.636002m/h.</desc>
<speed>11.010000</speed>
</trkpt>
<trkpt lat="42.905807" lon="19.090855">
<ele>1295.3</ele>
<time>2012-05-02T05:24:17Z</time>
<desc>lat.=42.905807, lon.=19.090855, Alt.=1280.954102m. Speed=49.644001m/h.</desc>
<speed>13.790000</speed>
</trkpt>
<trkpt lat="42.906036" lon="19.091537">
<ele>1298.2</ele>
<time>2012-05-02T05:24:22Z</time>
<desc>lat.=42.906036, lon.=19.091537, Alt.=1284.954102m. Speed=39.312000m/h.</desc>
<speed>10.920000</speed>
</trkpt>
<trkpt lat="42.906464" lon="19.091850">
<ele>1298.7</ele>
<time>2012-05-02T05:24:27Z</time>
<desc>lat.=42.906464, lon.=19.091850, Alt.=1289.547852m. Speed=35.495998m/h.</desc>
<speed>9.860000</speed>
</trkpt>
<trkpt lat="42.906578" lon="19.092299">
<ele>1303.7</ele>
<time>2012-05-02T05:24:32Z</time>
<desc>lat.=42.906578, lon.=19.092299, Alt.=1291.860352m. Speed=14.868000m/h.</desc>
<speed>4.130000</speed>
</trkpt>
<trkpt lat="42.906181" lon="19.091909">
<ele>1305.7</ele>
<time>2012-05-02T05:24:42Z</time>
<desc>lat.=42.906181, lon.=19.091909, Alt.=1292.235352m. Speed=32.688000m/h.</desc>
<speed>9.080000</speed>
</trkpt>
<trkpt lat="42.905743" lon="19.091892">
<ele>1313.5</ele>
<time>2012-05-02T05:24:47Z</time>
<desc>lat.=42.905743, lon.=19.091892, Alt.=1293.485352m. Speed=33.695999m/h.</desc>
<speed>9.360000</speed>
</trkpt>
<trkpt lat="42.905415" lon="19.091513">
<ele>1314.0</ele>
<time>2012-05-02T05:24:52Z</time>
<desc>lat.=42.905415, lon.=19.091513, Alt.=1293.547852m. Speed=41.832001m/h.</desc>
<speed>11.620000</speed>
</trkpt>
<trkpt lat="42.904861" lon="19.090265">
<ele>1319.0</ele>
<time>2012-05-02T05:25:02Z</time>
<desc>lat.=42.904861, lon.=19.090265, Alt.=1301.985352m. Speed=37.476002m/h.</desc>
<speed>10.410000</speed>
</trkpt>
<trkpt lat="42.903973" lon="19.089750">
<ele>1323.9</ele>
<time>2012-05-02T05:25:12Z</time>
<desc>lat.=42.903973, lon.=19.089750, Alt.=1306.016602m. Speed=39.060001m/h.</desc>
<speed>10.850000</speed>
</trkpt>
<trkpt lat="42.903507" lon="19.090012">
<ele>1320.2</ele>
<time>2012-05-02T05:25:17Z</time>
<desc>lat.=42.903507, lon.=19.090012, Alt.=1308.422852m. Speed=37.007999m/h.</desc>
<speed>10.280000</speed>
</trkpt>
<trkpt lat="42.903313" lon="19.091116">
<ele>1332.8</ele>
<time>2012-05-02T05:25:27Z</time>
<desc>lat.=42.903313, lon.=19.091116, Alt.=1313.704102m. Speed=33.408001m/h.</desc>
<speed>9.280000</speed>
</trkpt>
<trkpt lat="42.902920" lon="19.091297">
<ele>1341.0</ele>
<time>2012-05-02T05:25:32Z</time>
<desc>lat.=42.902920, lon.=19.091297, Alt.=1315.547852m. Speed=39.383999m/h.</desc>
<speed>10.940000</speed>
</trkpt>
<trkpt lat="42.902435" lon="19.091181">
<ele>1337.7</ele>
<time>2012-05-02T05:25:37Z</time>
<desc>lat.=42.902435, lon.=19.091181, Alt.=1317.829102m. Speed=38.411999m/h.</desc>
<speed>10.670000</speed>
</trkpt>
<trkpt lat="42.902035" lon="19.091442">
<ele>1339.3</ele>
<time>2012-05-02T05:25:42Z</time>
<desc>lat.=42.902035, lon.=19.091442, Alt.=1321.391602m. Speed=30.600000m/h.</desc>
<speed>8.500000</speed>
</trkpt>
<trkpt lat="42.900932" lon="19.091248">
<ele>1354.7</ele>
<time>2012-05-02T05:25:57Z</time>
<desc>lat.=42.900932, lon.=19.091248, Alt.=1325.922852m. Speed=28.080000m/h.</desc>
<speed>7.800000</speed>
</trkpt>
<trkpt lat="42.900520" lon="19.090036">
<ele>1357.9</ele>
<time>2012-05-02T05:26:07Z</time>
<desc>lat.=42.900520, lon.=19.090036, Alt.=1328.329102m. Speed=41.832001m/h.</desc>
<speed>11.620000</speed>
</trkpt>
<trkpt lat="42.900612" lon="19.088839">
<ele>1358.3</ele>
<time>2012-05-02T05:26:17Z</time>
<desc>lat.=42.900612, lon.=19.088839, Alt.=1333.704102m. Speed=21.924000m/h.</desc>
<speed>6.090000</speed>
</trkpt>
<trkpt lat="42.900520" lon="19.088629">
<ele>1367.5</ele>
<time>2012-05-02T05:26:22Z</time>
<desc>lat.=42.900520, lon.=19.088629, Alt.=1337.266602m. Speed=17.532000m/h.</desc>
<speed>4.870000</speed>
</trkpt>
<trkpt lat="42.899998" lon="19.091827">
<ele>1372.9</ele>
<time>2012-05-02T05:26:47Z</time>
<desc>lat.=42.899998, lon.=19.091827, Alt.=1352.922852m. Speed=39.743999m/h.</desc>
<speed>11.040000</speed>
</trkpt>
<trkpt lat="42.900715" lon="19.092844">
<ele>1376.0</ele>
<time>2012-05-02T05:26:57Z</time>
<desc>lat.=42.900715, lon.=19.092844, Alt.=1364.235352m. Speed=40.320000m/h.</desc>
<speed>11.200000</speed>
</trkpt>
<trkpt lat="42.900867" lon="19.093267">
<ele>1381.0</ele>
<time>2012-05-02T05:27:02Z</time>
<desc>lat.=42.900867, lon.=19.093267, Alt.=1367.954102m. Speed=16.056000m/h.</desc>
<speed>4.460000</speed>
</trkpt>
<trkpt lat="42.900738" lon="19.093538">
<ele>1389.0</ele>
<time>2012-05-02T05:27:12Z</time>
<desc>lat.=42.900738, lon.=19.093538, Alt.=1370.047852m. Speed=16.344000m/h.</desc>
<speed>4.540000</speed>
</trkpt>
<trkpt lat="42.900253" lon="19.092793">
<ele>1399.4</ele>
<time>2012-05-02T05:27:22Z</time>
<desc>lat.=42.900253, lon.=19.092793, Alt.=1372.047852m. Speed=40.787998m/h.</desc>
<speed>11.329999</speed>
</trkpt>
<trkpt lat="42.899757" lon="19.092415">
<ele>1386.4</ele>
<time>2012-05-02T05:27:27Z</time>
<desc>lat.=42.899757, lon.=19.092415, Alt.=1374.047852m. Speed=46.584000m/h.</desc>
<speed>12.940000</speed>
</trkpt>
<trkpt lat="42.899414" lon="19.091719">
<ele>1395.3</ele>
<time>2012-05-02T05:27:32Z</time>
<desc>lat.=42.899414, lon.=19.091719, Alt.=1375.922852m. Speed=51.984001m/h.</desc>
<speed>14.440000</speed>
</trkpt>
<trkpt lat="42.899502" lon="19.089808">
<ele>1402.6</ele>
<time>2012-05-02T05:27:42Z</time>
<desc>lat.=42.899502, lon.=19.089808, Alt.=1388.672852m. Speed=55.619999m/h.</desc>
<speed>15.450000</speed>
</trkpt>
<trkpt lat="42.899273" lon="19.087826">
<ele>1410.0</ele>
<time>2012-05-02T05:27:52Z</time>
<desc>lat.=42.899273, lon.=19.087826, Alt.=1403.516602m. Speed=55.403999m/h.</desc>
<speed>15.390000</speed>
</trkpt>
<trkpt lat="42.899403" lon="19.084923">
<ele>1429.9</ele>
<time>2012-05-02T05:28:07Z</time>
<desc>lat.=42.899403, lon.=19.084923, Alt.=1422.047852m. Speed=60.444000m/h.</desc>
<speed>16.790000</speed>
</trkpt>
<trkpt lat="42.899052" lon="19.082951">
<ele>1437.0</ele>
<time>2012-05-02T05:28:17Z</time>
<desc>lat.=42.899052, lon.=19.082951, Alt.=1434.297852m. Speed=59.076000m/h.</desc>
<speed>16.410000</speed>
</trkpt>
<trkpt lat="42.898655" lon="19.082094">
<ele>1446.4</ele>
<time>2012-05-02T05:28:22Z</time>
<desc>lat.=42.898655, lon.=19.082094, Alt.=1439.891602m. Speed=59.147999m/h.</desc>
<speed>16.430000</speed>
</trkpt>
<trkpt lat="42.897594" lon="19.080830">
<ele>1451.6</ele>
<time>2012-05-02T05:28:32Z</time>
<desc>lat.=42.897594, lon.=19.080830, Alt.=1448.204102m. Speed=50.256001m/h.</desc>
<speed>13.960000</speed>
</trkpt>
<trkpt lat="42.894863" lon="19.079325">
<ele>1457.2</ele>
<time>2012-05-02T05:28:57Z</time>
<desc>lat.=42.894863, lon.=19.079325, Alt.=1451.360352m. Speed=52.560001m/h.</desc>
<speed>14.600000</speed>
</trkpt>
<trkpt lat="42.894047" lon="19.077974">
<ele>1468.2</ele>
<time>2012-05-02T05:29:07Z</time>
<desc>lat.=42.894047, lon.=19.077974, Alt.=1455.454102m. Speed=48.096001m/h.</desc>
<speed>13.360000</speed>
</trkpt>
<trkpt lat="42.893703" lon="19.076342">
<ele>1456.2</ele>
<time>2012-05-02T05:29:17Z</time>
<desc>lat.=42.893703, lon.=19.076342, Alt.=1454.797852m. Speed=53.964001m/h.</desc>
<speed>14.990000</speed>
</trkpt>
<trkpt lat="42.893967" lon="19.074490">
<ele>1441.6</ele>
<time>2012-05-02T05:29:27Z</time>
<desc>lat.=42.893967, lon.=19.074490, Alt.=1443.704102m. Speed=59.723999m/h.</desc>
<speed>16.590000</speed>
</trkpt>
<trkpt lat="42.894745" lon="19.072592">
<ele>1435.4</ele>
<time>2012-05-02T05:29:37Z</time>
<desc>lat.=42.894745, lon.=19.072592, Alt.=1436.735352m. Speed=68.940002m/h.</desc>
<speed>19.150001</speed>
</trkpt>
<trkpt lat="42.895023" lon="19.071451">
<ele>1427.3</ele>
<time>2012-05-02T05:29:42Z</time>
<desc>lat.=42.895023, lon.=19.071451, Alt.=1432.329102m. Speed=74.375999m/h.</desc>
<speed>20.660000</speed>
</trkpt>
<trkpt lat="42.894909" lon="19.067802">
<ele>1435.4</ele>
<time>2012-05-02T05:29:57Z</time>
<desc>lat.=42.894909, lon.=19.067802, Alt.=1430.579102m. Speed=58.104000m/h.</desc>
<speed>16.140000</speed>
</trkpt>
<trkpt lat="42.895023" lon="19.066891">
<ele>1425.0</ele>
<time>2012-05-02T05:30:02Z</time>
<desc>lat.=42.895023, lon.=19.066891, Alt.=1430.204102m. Speed=52.883999m/h.</desc>
<speed>14.690000</speed>
</trkpt>
<trkpt lat="42.895370" lon="19.066078">
<ele>1422.5</ele>
<time>2012-05-02T05:30:07Z</time>
<desc>lat.=42.895370, lon.=19.066078, Alt.=1429.266602m. Speed=59.616001m/h.</desc>
<speed>16.560000</speed>
</trkpt>
<trkpt lat="42.897461" lon="19.063814">
<ele>1428.8</ele>
<time>2012-05-02T05:30:27Z</time>
<desc>lat.=42.897461, lon.=19.063814, Alt.=1421.672852m. Speed=51.372002m/h.</desc>
<speed>14.270000</speed>
</trkpt>
<trkpt lat="42.898109" lon="19.063692">
<ele>1430.9</ele>
<time>2012-05-02T05:30:32Z</time>
<desc>lat.=42.898109, lon.=19.063692, Alt.=1419.422852m. Speed=55.764000m/h.</desc>
<speed>15.490000</speed>
</trkpt>
<trkpt lat="42.899498" lon="19.063871">
<ele>1416.7</ele>
<time>2012-05-02T05:30:42Z</time>
<desc>lat.=42.899498, lon.=19.063871, Alt.=1417.454102m. Speed=55.368000m/h.</desc>
<speed>15.380000</speed>
</trkpt>
<trkpt lat="42.900806" lon="19.062948">
<ele>1421.1</ele>
<time>2012-05-02T05:30:52Z</time>
<desc>lat.=42.900806, lon.=19.062948, Alt.=1416.079102m. Speed=58.284000m/h.</desc>
<speed>16.190000</speed>
</trkpt>
<trkpt lat="42.901348" lon="19.062275">
<ele>1407.8</ele>
<time>2012-05-02T05:30:57Z</time>
<desc>lat.=42.901348, lon.=19.062275, Alt.=1414.985352m. Speed=59.688000m/h.</desc>
<speed>16.580000</speed>
</trkpt>
<trkpt lat="42.901676" lon="19.061392">
<ele>1408.8</ele>
<time>2012-05-02T05:31:02Z</time>
<desc>lat.=42.901676, lon.=19.061392, Alt.=1413.985352m. Speed=58.608002m/h.</desc>
<speed>16.280000</speed>
</trkpt>
<trkpt lat="42.901760" lon="19.060354">
<ele>1406.0</ele>
<time>2012-05-02T05:31:07Z</time>
<desc>lat.=42.901760, lon.=19.060354, Alt.=1412.547852m. Speed=60.551998m/h.</desc>
<speed>16.819999</speed>
</trkpt>
<trkpt lat="42.901863" lon="19.054207">
<ele>1387.9</ele>
<time>2012-05-02T05:31:32Z</time>
<desc>lat.=42.901863, lon.=19.054207, Alt.=1395.547852m. Speed=73.295998m/h.</desc>
<speed>20.359999</speed>
</trkpt>
<trkpt lat="42.901207" lon="19.051817">
<ele>1385.0</ele>
<time>2012-05-02T05:31:42Z</time>
<desc>lat.=42.901207, lon.=19.051817, Alt.=1387.704102m. Speed=75.059998m/h.</desc>
<speed>20.849999</speed>
</trkpt>
<trkpt lat="42.901043" lon="19.049276">
<ele>1380.3</ele>
<time>2012-05-02T05:31:52Z</time>
<desc>lat.=42.901043, lon.=19.049276, Alt.=1380.235352m. Speed=74.484001m/h.</desc>
<speed>20.690000</speed>
</trkpt>
<trkpt lat="42.900726" lon="19.048090">
<ele>1374.1</ele>
<time>2012-05-02T05:31:57Z</time>
<desc>lat.=42.900726, lon.=19.048090, Alt.=1376.672852m. Speed=74.627998m/h.</desc>
<speed>20.730000</speed>
</trkpt>
<trkpt lat="42.899727" lon="19.045923">
<ele>1366.6</ele>
<time>2012-05-02T05:32:07Z</time>
<desc>lat.=42.899727, lon.=19.045923, Alt.=1370.766602m. Speed=74.987999m/h.</desc>
<speed>20.830000</speed>
</trkpt>
<trkpt lat="42.898945" lon="19.043615">
<ele>1367.0</ele>
<time>2012-05-02T05:32:17Z</time>
<desc>lat.=42.898945, lon.=19.043615, Alt.=1366.985352m. Speed=72.431999m/h.</desc>
<speed>20.120000</speed>
</trkpt>
<trkpt lat="42.898300" lon="19.042768">
<ele>1365.0</ele>
<time>2012-05-02T05:32:22Z</time>
<desc>lat.=42.898300, lon.=19.042768, Alt.=1363.422852m. Speed=71.676003m/h.</desc>
<speed>19.910001</speed>
</trkpt>
<trkpt lat="42.896858" lon="19.041437">
<ele>1354.8</ele>
<time>2012-05-02T05:32:32Z</time>
<desc>lat.=42.896858, lon.=19.041437, Alt.=1354.172852m. Speed=67.680000m/h.</desc>
<speed>18.800000</speed>
</trkpt>
<trkpt lat="42.896378" lon="19.040499">
<ele>1343.2</ele>
<time>2012-05-02T05:32:37Z</time>
<desc>lat.=42.896378, lon.=19.040499, Alt.=1349.641602m. Speed=68.112000m/h.</desc>
<speed>18.920000</speed>
</trkpt>
<trkpt lat="42.896198" lon="19.039360">
<ele>1335.4</ele>
<time>2012-05-02T05:32:42Z</time>
<desc>lat.=42.896198, lon.=19.039360, Alt.=1344.672852m. Speed=69.264000m/h.</desc>
<speed>19.240000</speed>
</trkpt>
<trkpt lat="42.896366" lon="19.038202">
<ele>1336.8</ele>
<time>2012-05-02T05:32:47Z</time>
<desc>lat.=42.896366, lon.=19.038202, Alt.=1338.672852m. Speed=70.092003m/h.</desc>
<speed>19.470001</speed>
</trkpt>
<trkpt lat="42.896835" lon="19.037193">
<ele>1334.8</ele>
<time>2012-05-02T05:32:52Z</time>
<desc>lat.=42.896835, lon.=19.037193, Alt.=1334.422852m. Speed=67.428001m/h.</desc>
<speed>18.730000</speed>
</trkpt>
<trkpt lat="42.897495" lon="19.036570">
<ele>1335.0</ele>
<time>2012-05-02T05:32:57Z</time>
<desc>lat.=42.897495, lon.=19.036570, Alt.=1330.860352m. Speed=64.188004m/h.</desc>
<speed>17.830001</speed>
</trkpt>
<trkpt lat="42.898983" lon="19.035734">
<ele>1332.8</ele>
<time>2012-05-02T05:33:07Z</time>
<desc>lat.=42.898983, lon.=19.035734, Alt.=1322.391602m. Speed=63.827999m/h.</desc>
<speed>17.730000</speed>
</trkpt>
<trkpt lat="42.899536" lon="19.034941">
<ele>1314.8</ele>
<time>2012-05-02T05:33:12Z</time>
<desc>lat.=42.899536, lon.=19.034941, Alt.=1316.985352m. Speed=65.015999m/h.</desc>
<speed>18.060000</speed>
</trkpt>
<trkpt lat="42.899933" lon="19.032961">
<ele>1307.1</ele>
<time>2012-05-02T05:33:22Z</time>
<desc>lat.=42.899933, lon.=19.032961, Alt.=1310.266602m. Speed=53.964001m/h.</desc>
<speed>14.990000</speed>
</trkpt>
<trkpt lat="42.900517" lon="19.031240">
<ele>1303.9</ele>
<time>2012-05-02T05:33:32Z</time>
<desc>lat.=42.900517, lon.=19.031240, Alt.=1307.641602m. Speed=58.896000m/h.</desc>
<speed>16.360000</speed>
</trkpt>
<trkpt lat="42.900467" lon="19.030127">
<ele>1299.5</ele>
<time>2012-05-02T05:33:37Z</time>
<desc>lat.=42.900467, lon.=19.030127, Alt.=1305.047852m. Speed=69.515999m/h.</desc>
<speed>19.310000</speed>
</trkpt>
<trkpt lat="42.899681" lon="19.026155">
<ele>1290.5</ele>
<time>2012-05-02T05:33:52Z</time>
<desc>lat.=42.899681, lon.=19.026155, Alt.=1294.141602m. Speed=77.795998m/h.</desc>
<speed>21.609999</speed>
</trkpt>
<trkpt lat="42.899570" lon="19.024942">
<ele>1288.7</ele>
<time>2012-05-02T05:33:57Z</time>
<desc>lat.=42.899570, lon.=19.024942, Alt.=1289.610352m. Speed=67.751999m/h.</desc>
<speed>18.820000</speed>
</trkpt>
<trkpt lat="42.899715" lon="19.023802">
<ele>1278.9</ele>
<time>2012-05-02T05:34:02Z</time>
<desc>lat.=42.899715, lon.=19.023802, Alt.=1282.454102m. Speed=70.884003m/h.</desc>
<speed>19.690001</speed>
</trkpt>
<trkpt lat="42.900093" lon="19.022669">
<ele>1271.0</ele>
<time>2012-05-02T05:34:07Z</time>
<desc>lat.=42.900093, lon.=19.022669, Alt.=1274.329102m. Speed=75.636002m/h.</desc>
<speed>21.010000</speed>
</trkpt>
<trkpt lat="42.900715" lon="19.021719">
<ele>1265.8</ele>
<time>2012-05-02T05:34:12Z</time>
<desc>lat.=42.900715, lon.=19.021719, Alt.=1265.985352m. Speed=72.503998m/h.</desc>
<speed>20.139999</speed>
</trkpt>
<trkpt lat="42.902222" lon="19.020332">
<ele>1247.8</ele>
<time>2012-05-02T05:34:22Z</time>
<desc>lat.=42.902222, lon.=19.020332, Alt.=1250.797852m. Speed=72.720001m/h.</desc>
<speed>20.200000</speed>
</trkpt>
<trkpt lat="42.903172" lon="19.018330">
<ele>1232.9</ele>
<time>2012-05-02T05:34:32Z</time>
<desc>lat.=42.903172, lon.=19.018330, Alt.=1236.266602m. Speed=70.056000m/h.</desc>
<speed>19.460000</speed>
</trkpt>
<trkpt lat="42.904312" lon="19.016506">
<ele>1219.2</ele>
<time>2012-05-02T05:34:42Z</time>
<desc>lat.=42.904312, lon.=19.016506, Alt.=1220.516602m. Speed=63.900002m/h.</desc>
<speed>17.750000</speed>
</trkpt>
<trkpt lat="42.904636" lon="19.015480">
<ele>1210.6</ele>
<time>2012-05-02T05:34:47Z</time>
<desc>lat.=42.904636, lon.=19.015480, Alt.=1213.735352m. Speed=68.220001m/h.</desc>
<speed>18.950000</speed>
</trkpt>
<trkpt lat="42.904621" lon="19.014297">
<ele>1202.0</ele>
<time>2012-05-02T05:34:52Z</time>
<desc>lat.=42.904621, lon.=19.014297, Alt.=1208.110352m. Speed=69.875999m/h.</desc>
<speed>19.410000</speed>
</trkpt>
<trkpt lat="42.904243" lon="19.013235">
<ele>1203.4</ele>
<time>2012-05-02T05:34:57Z</time>
<desc>lat.=42.904243, lon.=19.013235, Alt.=1204.985352m. Speed=68.220001m/h.</desc>
<speed>18.950000</speed>
</trkpt>
<trkpt lat="42.902264" lon="19.010885">
<ele>1189.7</ele>
<time>2012-05-02T05:35:12Z</time>
<desc>lat.=42.902264, lon.=19.010885, Alt.=1194.110352m. Speed=68.543999m/h.</desc>
<speed>19.040000</speed>
</trkpt>
<trkpt lat="42.901817" lon="19.009920">
<ele>1184.4</ele>
<time>2012-05-02T05:35:17Z</time>
<desc>lat.=42.901817, lon.=19.009920, Alt.=1191.266602m. Speed=66.276001m/h.</desc>
<speed>18.410000</speed>
</trkpt>
<trkpt lat="42.901737" lon="19.008793">
<ele>1181.5</ele>
<time>2012-05-02T05:35:22Z</time>
<desc>lat.=42.901737, lon.=19.008793, Alt.=1186.235352m. Speed=67.428001m/h.</desc>
<speed>18.730000</speed>
</trkpt>
<trkpt lat="42.901852" lon="19.007730">
<ele>1175.4</ele>
<time>2012-05-02T05:35:27Z</time>
<desc>lat.=42.901852, lon.=19.007730, Alt.=1180.422852m. Speed=57.060001m/h.</desc>
<speed>15.850000</speed>
</trkpt>
<trkpt lat="42.901722" lon="19.006777">
<ele>1171.7</ele>
<time>2012-05-02T05:35:32Z</time>
<desc>lat.=42.901722, lon.=19.006777, Alt.=1175.454102m. Speed=59.112000m/h.</desc>
<speed>16.420000</speed>
</trkpt>
<trkpt lat="42.900631" lon="19.005264">
<ele>1158.8</ele>
<time>2012-05-02T05:35:42Z</time>
<desc>lat.=42.900631, lon.=19.005264, Alt.=1165.204102m. Speed=65.844002m/h.</desc>
<speed>18.290000</speed>
</trkpt>
<trkpt lat="42.899948" lon="19.003128">
<ele>1143.3</ele>
<time>2012-05-02T05:35:52Z</time>
<desc>lat.=42.899948, lon.=19.003128, Alt.=1155.204102m. Speed=71.748001m/h.</desc>
<speed>19.930000</speed>
</trkpt>
<trkpt lat="42.899113" lon="19.001163">
<ele>1127.4</ele>
<time>2012-05-02T05:36:02Z</time>
<desc>lat.=42.899113, lon.=19.001163, Alt.=1145.922852m. Speed=63.324001m/h.</desc>
<speed>17.590000</speed>
</trkpt>
<trkpt lat="42.899025" lon="19.000101">
<ele>1126.7</ele>
<time>2012-05-02T05:36:07Z</time>
<desc>lat.=42.899025, lon.=19.000101, Alt.=1139.704102m. Speed=63.360001m/h.</desc>
<speed>17.600000</speed>
</trkpt>
<trkpt lat="42.900047" lon="18.996088">
<ele>1111.0</ele>
<time>2012-05-02T05:36:27Z</time>
<desc>lat.=42.900047, lon.=18.996088, Alt.=1118.891602m. Speed=63.216000m/h.</desc>
<speed>17.560000</speed>
</trkpt>
<trkpt lat="42.900787" lon="18.994196">
<ele>1097.8</ele>
<time>2012-05-02T05:36:37Z</time>
<desc>lat.=42.900787, lon.=18.994196, Alt.=1108.985352m. Speed=64.043999m/h.</desc>
<speed>17.790000</speed>
</trkpt>
<trkpt lat="42.900890" lon="18.993116">
<ele>1094.4</ele>
<time>2012-05-02T05:36:42Z</time>
<desc>lat.=42.900890, lon.=18.993116, Alt.=1103.516602m. Speed=61.883999m/h.</desc>
<speed>17.190000</speed>
</trkpt>
<trkpt lat="42.901581" lon="18.991365">
<ele>1083.1</ele>
<time>2012-05-02T05:36:52Z</time>
<desc>lat.=42.901581, lon.=18.991365, Alt.=1093.266602m. Speed=54.431999m/h.</desc>
<speed>15.120000</speed>
</trkpt>
<trkpt lat="42.901524" lon="18.990425">
<ele>1075.8</ele>
<time>2012-05-02T05:36:57Z</time>
<desc>lat.=42.901524, lon.=18.990425, Alt.=1087.797852m. Speed=58.680000m/h.</desc>
<speed>16.300000</speed>
</trkpt>
<trkpt lat="42.901192" lon="18.989536">
<ele>1072.7</ele>
<time>2012-05-02T05:37:02Z</time>
<desc>lat.=42.901192, lon.=18.989536, Alt.=1082.891602m. Speed=54.360001m/h.</desc>
<speed>15.100000</speed>
</trkpt>
<trkpt lat="42.901119" lon="18.988607">
<ele>1072.2</ele>
<time>2012-05-02T05:37:07Z</time>
<desc>lat.=42.901119, lon.=18.988607, Alt.=1078.235352m. Speed=55.799999m/h.</desc>
<speed>15.500000</speed>
</trkpt>
<trkpt lat="42.901512" lon="18.987825">
<ele>1063.1</ele>
<time>2012-05-02T05:37:12Z</time>
<desc>lat.=42.901512, lon.=18.987825, Alt.=1072.204102m. Speed=58.931999m/h.</desc>
<speed>16.370000</speed>
</trkpt>
<trkpt lat="42.902588" lon="18.986586">
<ele>1054.6</ele>
<time>2012-05-02T05:37:22Z</time>
<desc>lat.=42.902588, lon.=18.986586, Alt.=1065.516602m. Speed=53.352001m/h.</desc>
<speed>14.820000</speed>
</trkpt>
<trkpt lat="42.902672" lon="18.985653">
<ele>1049.0</ele>
<time>2012-05-02T05:37:27Z</time>
<desc>lat.=42.902672, lon.=18.985653, Alt.=1061.079102m. Speed=56.484001m/h.</desc>
<speed>15.690000</speed>
</trkpt>
<trkpt lat="42.902550" lon="18.984663">
<ele>1043.3</ele>
<time>2012-05-02T05:37:32Z</time>
<desc>lat.=42.902550, lon.=18.984663, Alt.=1055.610352m. Speed=59.652000m/h.</desc>
<speed>16.570000</speed>
</trkpt>
<trkpt lat="42.903084" lon="18.982647">
<ele>1034.4</ele>
<time>2012-05-02T05:37:42Z</time>
<desc>lat.=42.903084, lon.=18.982647, Alt.=1043.766602m. Speed=64.620003m/h.</desc>
<speed>17.950001</speed>
</trkpt>
<trkpt lat="42.903149" lon="18.981529">
<ele>1028.6</ele>
<time>2012-05-02T05:37:47Z</time>
<desc>lat.=42.903149, lon.=18.981529, Alt.=1038.016602m. Speed=66.708000m/h.</desc>
<speed>18.530000</speed>
</trkpt>
<trkpt lat="42.902893" lon="18.979231">
<ele>1018.6</ele>
<time>2012-05-02T05:37:57Z</time>
<desc>lat.=42.902893, lon.=18.979231, Alt.=1024.735352m. Speed=69.624001m/h.</desc>
<speed>19.340000</speed>
</trkpt>
<trkpt lat="42.903431" lon="18.976933">
<ele>1010.4</ele>
<time>2012-05-02T05:38:07Z</time>
<desc>lat.=42.903431, lon.=18.976933, Alt.=1013.805176m. Speed=71.171997m/h.</desc>
<speed>19.769999</speed>
</trkpt>
<trkpt lat="42.903633" lon="18.973145">
<ele>992.1</ele>
<time>2012-05-02T05:38:22Z</time>
<desc>lat.=42.903633, lon.=18.973145, Alt.=992.633301m. Speed=78.335999m/h.</desc>
<speed>21.760000</speed>
</trkpt>
<trkpt lat="42.904205" lon="18.970690">
<ele>972.5</ele>
<time>2012-05-02T05:38:32Z</time>
<desc>lat.=42.904205, lon.=18.970690, Alt.=979.242676m. Speed=69.767998m/h.</desc>
<speed>19.379999</speed>
</trkpt>
<trkpt lat="42.904125" lon="18.969561">
<ele>964.5</ele>
<time>2012-05-02T05:38:37Z</time>
<desc>lat.=42.904125, lon.=18.969561, Alt.=972.664551m. Speed=65.807999m/h.</desc>
<speed>18.280000</speed>
</trkpt>
<trkpt lat="42.902618" lon="18.964855">
<ele>940.5</ele>
<time>2012-05-02T05:38:57Z</time>
<desc>lat.=42.902618, lon.=18.964855, Alt.=945.914551m. Speed=82.008003m/h.</desc>
<speed>22.780001</speed>
</trkpt>
<trkpt lat="42.902420" lon="18.961012">
<ele>937.3</ele>
<time>2012-05-02T05:39:12Z</time>
<desc>lat.=42.902420, lon.=18.961012, Alt.=941.227051m. Speed=56.160000m/h.</desc>
<speed>15.600000</speed>
</trkpt>
<trkpt lat="42.902054" lon="18.960293">
<ele>934.7</ele>
<time>2012-05-02T05:39:17Z</time>
<desc>lat.=42.902054, lon.=18.960293, Alt.=941.180176m. Speed=50.472000m/h.</desc>
<speed>14.020000</speed>
</trkpt>
<trkpt lat="42.901310" lon="18.959997">
<ele>932.2</ele>
<time>2012-05-02T05:39:27Z</time>
<desc>lat.=42.901310, lon.=18.959997, Alt.=938.414551m. Speed=15.120000m/h.</desc>
<speed>4.200000</speed>
</trkpt>
<trkpt lat="42.900463" lon="18.961916">
<ele>928.5</ele>
<time>2012-05-02T05:39:42Z</time>
<desc>lat.=42.900463, lon.=18.961916, Alt.=926.820801m. Speed=61.307999m/h.</desc>
<speed>17.030000</speed>
</trkpt>
<trkpt lat="42.899189" lon="18.963297">
<ele>913.0</ele>
<time>2012-05-02T05:39:52Z</time>
<desc>lat.=42.899189, lon.=18.963297, Alt.=916.570801m. Speed=66.564003m/h.</desc>
<speed>18.490001</speed>
</trkpt>
<trkpt lat="42.898430" lon="18.963732">
<ele>910.9</ele>
<time>2012-05-02T05:39:57Z</time>
<desc>lat.=42.898430, lon.=18.963732, Alt.=911.758301m. Speed=61.992001m/h.</desc>
<speed>17.220000</speed>
</trkpt>
<trkpt lat="42.896946" lon="18.964024">
<ele>911.2</ele>
<time>2012-05-02T05:40:07Z</time>
<desc>lat.=42.896946, lon.=18.964024, Alt.=907.305176m. Speed=58.824001m/h.</desc>
<speed>16.340000</speed>
</trkpt>
<trkpt lat="42.895409" lon="18.963598">
<ele>903.2</ele>
<time>2012-05-02T05:40:17Z</time>
<desc>lat.=42.895409, lon.=18.963598, Alt.=900.555176m. Speed=73.944000m/h.</desc>
<speed>20.540000</speed>
</trkpt>
<trkpt lat="42.892338" lon="18.962172">
<ele>897.5</ele>
<time>2012-05-02T05:40:32Z</time>
<desc>lat.=42.892338, lon.=18.962172, Alt.=896.523926m. Speed=89.171997m/h.</desc>
<speed>24.769999</speed>
</trkpt>
<trkpt lat="42.889343" lon="18.961340">
<ele>903.3</ele>
<time>2012-05-02T05:40:47Z</time>
<desc>lat.=42.889343, lon.=18.961340, Alt.=902.961426m. Speed=72.792000m/h.</desc>
<speed>20.220000</speed>
</trkpt>
<trkpt lat="42.888577" lon="18.960802">
<ele>901.0</ele>
<time>2012-05-02T05:40:52Z</time>
<desc>lat.=42.888577, lon.=18.960802, Alt.=906.008301m. Speed=66.671997m/h.</desc>
<speed>18.519999</speed>
</trkpt>
<trkpt lat="42.888134" lon="18.959948">
<ele>904.8</ele>
<time>2012-05-02T05:40:57Z</time>
<desc>lat.=42.888134, lon.=18.959948, Alt.=908.414551m. Speed=57.672001m/h.</desc>
<speed>16.020000</speed>
</trkpt>
<trkpt lat="42.887859" lon="18.956844">
<ele>897.5</ele>
<time>2012-05-02T05:41:12Z</time>
<desc>lat.=42.887859, lon.=18.956844, Alt.=905.289551m. Speed=69.444000m/h.</desc>
<speed>19.290000</speed>
</trkpt>
<trkpt lat="42.886238" lon="18.953562">
<ele>877.5</ele>
<time>2012-05-02T05:41:27Z</time>
<desc>lat.=42.886238, lon.=18.953562, Alt.=886.945801m. Speed=69.552002m/h.</desc>
<speed>19.320001</speed>
</trkpt>
<trkpt lat="42.885975" lon="18.952391">
<ele>870.3</ele>
<time>2012-05-02T05:41:32Z</time>
<desc>lat.=42.885975, lon.=18.952391, Alt.=879.695801m. Speed=72.755997m/h.</desc>
<speed>20.209999</speed>
</trkpt>
<trkpt lat="42.885536" lon="18.951317">
<ele>862.4</ele>
<time>2012-05-02T05:41:37Z</time>
<desc>lat.=42.885536, lon.=18.951317, Alt.=873.758301m. Speed=73.584000m/h.</desc>
<speed>20.440000</speed>
</trkpt>
<trkpt lat="42.881481" lon="18.946123">
<ele>825.4</ele>
<time>2012-05-02T05:42:07Z</time>
<desc>lat.=42.881481, lon.=18.946123, Alt.=835.102051m. Speed=64.188004m/h.</desc>
<speed>17.830001</speed>
</trkpt>
<trkpt lat="42.880901" lon="18.943851">
<ele>818.1</ele>
<time>2012-05-02T05:42:17Z</time>
<desc>lat.=42.880901, lon.=18.943851, Alt.=826.852051m. Speed=73.692001m/h.</desc>
<speed>20.470000</speed>
</trkpt>
<trkpt lat="42.880478" lon="18.942774">
<ele>820.8</ele>
<time>2012-05-02T05:42:22Z</time>
<desc>lat.=42.880478, lon.=18.942774, Alt.=825.914551m. Speed=70.127998m/h.</desc>
<speed>19.480000</speed>
</trkpt>
<trkpt lat="42.878319" lon="18.940416">
<ele>810.3</ele>
<time>2012-05-02T05:42:37Z</time>
<desc>lat.=42.878319, lon.=18.940416, Alt.=820.367676m. Speed=76.860001m/h.</desc>
<speed>21.350000</speed>
</trkpt>
<trkpt lat="42.873703" lon="18.937872">
<ele>777.6</ele>
<time>2012-05-02T05:43:02Z</time>
<desc>lat.=42.873703, lon.=18.937872, Alt.=786.820801m. Speed=77.508003m/h.</desc>
<speed>21.530001</speed>
</trkpt>
<trkpt lat="42.872887" lon="18.937140">
<ele>772.3</ele>
<time>2012-05-02T05:43:07Z</time>
<desc>lat.=42.872887, lon.=18.937140, Alt.=781.727051m. Speed=77.867996m/h.</desc>
<speed>21.629999</speed>
</trkpt>
<trkpt lat="42.871094" lon="18.936153">
<ele>757.8</ele>
<time>2012-05-02T05:43:17Z</time>
<desc>lat.=42.871094, lon.=18.936153, Alt.=767.445801m. Speed=76.643997m/h.</desc>
<speed>21.289999</speed>
</trkpt>
<trkpt lat="42.867668" lon="18.933439">
<ele>746.6</ele>
<time>2012-05-02T05:43:37Z</time>
<desc>lat.=42.867668, lon.=18.933439, Alt.=744.008301m. Speed=81.216003m/h.</desc>
<speed>22.560001</speed>
</trkpt>
<trkpt lat="42.866722" lon="18.933043">
<ele>739.5</ele>
<time>2012-05-02T05:43:42Z</time>
<desc>lat.=42.866722, lon.=18.933043, Alt.=740.148926m. Speed=79.307999m/h.</desc>
<speed>22.030000</speed>
</trkpt>
<trkpt lat="42.865746" lon="18.933134">
<ele>735.0</ele>
<time>2012-05-02T05:43:47Z</time>
<desc>lat.=42.865746, lon.=18.933134, Alt.=738.398926m. Speed=77.543999m/h.</desc>
<speed>21.540000</speed>
</trkpt>
<trkpt lat="42.863277" lon="18.934446">
<ele>733.0</ele>
<time>2012-05-02T05:44:02Z</time>
<desc>lat.=42.863277, lon.=18.934446, Alt.=726.945801m. Speed=40.320000m/h.</desc>
<speed>11.200000</speed>
</trkpt>
<trkpt lat="42.863033" lon="18.935024">
<ele>728.3</ele>
<time>2012-05-02T05:44:07Z</time>
<desc>lat.=42.863033, lon.=18.935024, Alt.=726.945801m. Speed=43.776001m/h.</desc>
<speed>12.160000</speed>
</trkpt>
<trkpt lat="42.863125" lon="18.936687">
<ele>725.0</ele>
<time>2012-05-02T05:44:17Z</time>
<desc>lat.=42.863125, lon.=18.936687, Alt.=724.539551m. Speed=48.599998m/h.</desc>
<speed>13.500000</speed>
</trkpt>
<trkpt lat="42.863014" lon="18.937525">
<ele>719.1</ele>
<time>2012-05-02T05:44:22Z</time>
<desc>lat.=42.863014, lon.=18.937525, Alt.=720.602051m. Speed=51.372002m/h.</desc>
<speed>14.270000</speed>
</trkpt>
<trkpt lat="42.862690" lon="18.938313">
<ele>714.4</ele>
<time>2012-05-02T05:44:27Z</time>
<desc>lat.=42.862690, lon.=18.938313, Alt.=714.898926m. Speed=55.872002m/h.</desc>
<speed>15.520000</speed>
</trkpt>
<trkpt lat="42.862141" lon="18.938934">
<ele>713.2</ele>
<time>2012-05-02T05:44:32Z</time>
<desc>lat.=42.862141, lon.=18.938934, Alt.=707.117676m. Speed=60.048000m/h.</desc>
<speed>16.680000</speed>
</trkpt>
<trkpt lat="42.861450" lon="18.939255">
<ele>706.2</ele>
<time>2012-05-02T05:44:37Z</time>
<desc>lat.=42.861450, lon.=18.939255, Alt.=700.867676m. Speed=56.124001m/h.</desc>
<speed>15.590000</speed>
</trkpt>
<trkpt lat="42.860039" lon="18.939478">
<ele>694.3</ele>
<time>2012-05-02T05:44:47Z</time>
<desc>lat.=42.860039, lon.=18.939478, Alt.=689.352051m. Speed=60.408001m/h.</desc>
<speed>16.780000</speed>
</trkpt>
<trkpt lat="42.859379" lon="18.940027">
<ele>684.9</ele>
<time>2012-05-02T05:44:52Z</time>
<desc>lat.=42.859379, lon.=18.940027, Alt.=683.211426m. Speed=64.440002m/h.</desc>
<speed>17.900001</speed>
</trkpt>
<trkpt lat="42.858227" lon="18.942766">
<ele>669.4</ele>
<time>2012-05-02T05:45:07Z</time>
<desc>lat.=42.858227, lon.=18.942766, Alt.=666.039551m. Speed=51.444000m/h.</desc>
<speed>14.290000</speed>
</trkpt>
<trkpt lat="42.857746" lon="18.943176">
<ele>669.2</ele>
<time>2012-05-02T05:45:12Z</time>
<desc>lat.=42.857746, lon.=18.943176, Alt.=663.273926m. Speed=41.580002m/h.</desc>
<speed>11.550001</speed>
</trkpt>
<trkpt lat="42.856800" lon="18.942837">
<ele>666.7</ele>
<time>2012-05-02T05:45:22Z</time>
<desc>lat.=42.856800, lon.=18.942837, Alt.=659.711426m. Speed=30.708000m/h.</desc>
<speed>8.530000</speed>
</trkpt>
<trkpt lat="42.856171" lon="18.943493">
<ele>661.6</ele>
<time>2012-05-02T05:45:32Z</time>
<desc>lat.=42.856171, lon.=18.943493, Alt.=655.086426m. Speed=35.388000m/h.</desc>
<speed>9.830000</speed>
</trkpt>
<trkpt lat="42.855728" lon="18.943607">
<ele>656.8</ele>
<time>2012-05-02T05:45:37Z</time>
<desc>lat.=42.855728, lon.=18.943607, Alt.=652.008301m. Speed=40.355999m/h.</desc>
<speed>11.210000</speed>
</trkpt>
<trkpt lat="42.854103" lon="18.942909">
<ele>650.7</ele>
<time>2012-05-02T05:45:52Z</time>
<desc>lat.=42.854103, lon.=18.942909, Alt.=643.773926m. Speed=42.731998m/h.</desc>
<speed>11.870000</speed>
</trkpt>
<trkpt lat="42.853722" lon="18.942432">
<ele>650.9</ele>
<time>2012-05-02T05:45:57Z</time>
<desc>lat.=42.853722, lon.=18.942432, Alt.=643.086426m. Speed=40.212002m/h.</desc>
<speed>11.170001</speed>
</trkpt>
<trkpt lat="42.853550" lon="18.940861">
<ele>650.5</ele>
<time>2012-05-02T05:46:07Z</time>
<desc>lat.=42.853550, lon.=18.940861, Alt.=643.227051m. Speed=52.271999m/h.</desc>
<speed>14.520000</speed>
</trkpt>
<trkpt lat="42.853325" lon="18.940031">
<ele>650.8</ele>
<time>2012-05-02T05:46:12Z</time>
<desc>lat.=42.853325, lon.=18.940031, Alt.=643.820801m. Speed=48.995998m/h.</desc>
<speed>13.610000</speed>
</trkpt>
<trkpt lat="42.852947" lon="18.939409">
<ele>652.1</ele>
<time>2012-05-02T05:46:17Z</time>
<desc>lat.=42.852947, lon.=18.939409, Alt.=644.820801m. Speed=46.619999m/h.</desc>
<speed>12.950000</speed>
</trkpt>
<trkpt lat="42.851398" lon="18.938435">
<ele>655.8</ele>
<time>2012-05-02T05:46:32Z</time>
<desc>lat.=42.851398, lon.=18.938435, Alt.=649.336426m. Speed=41.507999m/h.</desc>
<speed>11.530000</speed>
</trkpt>
<trkpt lat="42.850311" lon="18.936588">
<ele>653.3</ele>
<time>2012-05-02T05:46:47Z</time>
<desc>lat.=42.850311, lon.=18.936588, Alt.=648.930176m. Speed=52.380001m/h.</desc>
<speed>14.550000</speed>
</trkpt>
<trkpt lat="42.849213" lon="18.935444">
<ele>651.0</ele>
<time>2012-05-02T05:46:57Z</time>
<desc>lat.=42.849213, lon.=18.935444, Alt.=647.570801m. Speed=57.959999m/h.</desc>
<speed>16.100000</speed>
</trkpt>
<trkpt lat="42.847321" lon="18.934273">
<ele>648.6</ele>
<time>2012-05-02T05:47:12Z</time>
<desc>lat.=42.847321, lon.=18.934273, Alt.=644.539551m. Speed=54.756001m/h.</desc>
<speed>15.210000</speed>
</trkpt>
<trkpt lat="42.843483" lon="18.929031">
<ele>643.2</ele>
<time>2012-05-02T05:47:47Z</time>
<desc>lat.=42.843483, lon.=18.929031, Alt.=638.336426m. Speed=65.519997m/h.</desc>
<speed>18.199999</speed>
</trkpt>
<trkpt lat="42.839771" lon="18.925247">
<ele>634.5</ele>
<time>2012-05-02T05:48:17Z</time>
<desc>lat.=42.839771, lon.=18.925247, Alt.=631.930176m. Speed=63.180000m/h.</desc>
<speed>17.550000</speed>
</trkpt>
<trkpt lat="42.835526" lon="18.922060">
<ele>631.6</ele>
<time>2012-05-02T05:48:47Z</time>
<desc>lat.=42.835526, lon.=18.922060, Alt.=628.039551m. Speed=59.688000m/h.</desc>
<speed>16.580000</speed>
</trkpt>
<trkpt lat="42.832806" lon="18.920504">
<ele>631.7</ele>
<time>2012-05-02T05:49:07Z</time>
<desc>lat.=42.832806, lon.=18.920504, Alt.=627.227051m. Speed=59.004002m/h.</desc>
<speed>16.390000</speed>
</trkpt>
<trkpt lat="42.830627" lon="18.919596">
<ele>627.0</ele>
<time>2012-05-02T05:49:22Z</time>
<desc>lat.=42.830627, lon.=18.919596, Alt.=624.586426m. Speed=60.911999m/h.</desc>
<speed>16.920000</speed>
</trkpt>
<trkpt lat="42.823547" lon="18.915449">
<ele>624.5</ele>
<time>2012-05-02T05:50:12Z</time>
<desc>lat.=42.823547, lon.=18.915449, Alt.=623.180176m. Speed=46.764000m/h.</desc>
<speed>12.990000</speed>
</trkpt>
<trkpt lat="42.823017" lon="18.915651">
<ele>623.1</ele>
<time>2012-05-02T05:50:17Z</time>
<desc>lat.=42.823017, lon.=18.915651, Alt.=622.977051m. Speed=44.099998m/h.</desc>
<speed>12.250000</speed>
</trkpt>
<trkpt lat="42.813503" lon="18.923620">
<ele>619.0</ele>
<time>2012-05-02T05:51:22Z</time>
<desc>lat.=42.813503, lon.=18.923620, Alt.=618.445801m. Speed=71.279999m/h.</desc>
<speed>19.800000</speed>
</trkpt>
<trkpt lat="42.811405" lon="18.925907">
<ele>618.5</ele>
<time>2012-05-02T05:51:42Z</time>
<desc>lat.=42.811405, lon.=18.925907, Alt.=618.680176m. Speed=32.688000m/h.</desc>
<speed>9.080000</speed>
</trkpt>
<trkpt lat="42.810375" lon="18.925819">
<ele>619.6</ele>
<time>2012-05-02T05:51:57Z</time>
<desc>lat.=42.810375, lon.=18.925819, Alt.=619.039551m. Speed=25.056000m/h.</desc>
<speed>6.960000</speed>
</trkpt>
<trkpt lat="42.809971" lon="18.926983">
<ele>619.1</ele>
<time>2012-05-02T05:52:07Z</time>
<desc>lat.=42.809971, lon.=18.926983, Alt.=619.148926m. Speed=51.660000m/h.</desc>
<speed>14.350000</speed>
</trkpt>
<trkpt lat="42.808102" lon="18.929390">
<ele>620.0</ele>
<time>2012-05-02T05:52:22Z</time>
<desc>lat.=42.808102, lon.=18.929390, Alt.=620.320801m. Speed=73.692001m/h.</desc>
<speed>20.470000</speed>
</trkpt>
<trkpt lat="42.807060" lon="18.931252">
<ele>620.0</ele>
<time>2012-05-02T05:52:32Z</time>
<desc>lat.=42.807060, lon.=18.931252, Alt.=621.336426m. Speed=62.279999m/h.</desc>
<speed>17.300000</speed>
</trkpt>
<trkpt lat="42.806503" lon="18.931946">
<ele>621.5</ele>
<time>2012-05-02T05:52:37Z</time>
<desc>lat.=42.806503, lon.=18.931946, Alt.=622.055176m. Speed=62.675999m/h.</desc>
<speed>17.410000</speed>
</trkpt>
<trkpt lat="42.805122" lon="18.932981">
<ele>620.3</ele>
<time>2012-05-02T05:52:47Z</time>
<desc>lat.=42.805122, lon.=18.932981, Alt.=622.430176m. Speed=63.647999m/h.</desc>
<speed>17.680000</speed>
</trkpt>
<trkpt lat="42.802189" lon="18.934643">
<ele>620.2</ele>
<time>2012-05-02T05:53:07Z</time>
<desc>lat.=42.802189, lon.=18.934643, Alt.=621.883301m. Speed=62.352001m/h.</desc>
<speed>17.320000</speed>
</trkpt>
<trkpt lat="42.797897" lon="18.935595">
<ele>619.1</ele>
<time>2012-05-02T05:53:32Z</time>
<desc>lat.=42.797897, lon.=18.935595, Alt.=620.445801m. Speed=67.283997m/h.</desc>
<speed>18.689999</speed>
</trkpt>
<trkpt lat="42.796265" lon="18.935768">
<ele>620.3</ele>
<time>2012-05-02T05:53:42Z</time>
<desc>lat.=42.796265, lon.=18.935768, Alt.=622.039551m. Speed=60.192001m/h.</desc>
<speed>16.720000</speed>
</trkpt>
<trkpt lat="42.794888" lon="18.935417">
<ele>619.8</ele>
<time>2012-05-02T05:53:52Z</time>
<desc>lat.=42.794888, lon.=18.935417, Alt.=622.758301m. Speed=52.956001m/h.</desc>
<speed>14.710000</speed>
</trkpt>
<trkpt lat="42.793770" lon="18.934456">
<ele>621.4</ele>
<time>2012-05-02T05:57:02Z</time>
<desc>lat.=42.793770, lon.=18.934456, Alt.=622.695801m. Speed=14.616000m/h.</desc>
<speed>4.060000</speed>
</trkpt>
<trkpt lat="42.792770" lon="18.932934">
<ele>620.0</ele>
<time>2012-05-02T05:57:22Z</time>
<desc>lat.=42.792770, lon.=18.932934, Alt.=620.883301m. Speed=38.051998m/h.</desc>
<speed>10.569999</speed>
</trkpt>
<trkpt lat="42.792614" lon="18.932293">
<ele>621.7</ele>
<time>2012-05-02T05:57:27Z</time>
<desc>lat.=42.792614, lon.=18.932293, Alt.=621.711426m. Speed=38.771999m/h.</desc>
<speed>10.770000</speed>
</trkpt>
<trkpt lat="42.792892" lon="18.930582">
<ele>621.9</ele>
<time>2012-05-02T05:57:37Z</time>
<desc>lat.=42.792892, lon.=18.930582, Alt.=622.195801m. Speed=61.344002m/h.</desc>
<speed>17.040000</speed>
</trkpt>
<trkpt lat="42.793427" lon="18.928650">
<ele>621.7</ele>
<time>2012-05-02T05:57:47Z</time>
<desc>lat.=42.793427, lon.=18.928650, Alt.=623.352051m. Speed=58.716000m/h.</desc>
<speed>16.310000</speed>
</trkpt>
<trkpt lat="42.794529" lon="18.925611">
<ele>620.7</ele>
<time>2012-05-02T05:58:07Z</time>
<desc>lat.=42.794529, lon.=18.925611, Alt.=624.305176m. Speed=41.903999m/h.</desc>
<speed>11.640000</speed>
</trkpt>
<trkpt lat="42.794579" lon="18.925055">
<ele>620.9</ele>
<time>2012-05-02T05:58:12Z</time>
<desc>lat.=42.794579, lon.=18.925055, Alt.=624.648926m. Speed=23.903999m/h.</desc>
<speed>6.640000</speed>
</trkpt>
<trkpt lat="42.793686" lon="18.924406">
<ele>620.7</ele>
<time>2012-05-02T05:58:32Z</time>
<desc>lat.=42.793686, lon.=18.924406, Alt.=626.852051m. Speed=16.308001m/h.</desc>
<speed>4.530000</speed>
</trkpt>
<trkpt lat="42.790295" lon="18.927868">
<ele>620.9</ele>
<time>2012-05-02T05:59:07Z</time>
<desc>lat.=42.790295, lon.=18.927868, Alt.=626.992676m. Speed=53.855999m/h.</desc>
<speed>14.960000</speed>
</trkpt>
<trkpt lat="42.789692" lon="18.928219">
<ele>626.6</ele>
<time>2012-05-02T05:59:12Z</time>
<desc>lat.=42.789692, lon.=18.928219, Alt.=626.836426m. Speed=50.327999m/h.</desc>
<speed>13.980000</speed>
</trkpt>
<trkpt lat="42.788555" lon="18.928385">
<ele>622.2</ele>
<time>2012-05-02T05:59:22Z</time>
<desc>lat.=42.788555, lon.=18.928385, Alt.=626.742676m. Speed=38.987999m/h.</desc>
<speed>10.830000</speed>
</trkpt>
<trkpt lat="42.784679" lon="18.928223">
<ele>624.6</ele>
<time>2012-05-02T05:59:47Z</time>
<desc>lat.=42.784679, lon.=18.928223, Alt.=630.102051m. Speed=59.256001m/h.</desc>
<speed>16.460000</speed>
</trkpt>
<trkpt lat="42.783241" lon="18.928576">
<ele>634.4</ele>
<time>2012-05-02T06:00:02Z</time>
<desc>lat.=42.783241, lon.=18.928576, Alt.=635.789551m. Speed=35.063999m/h.</desc>
<speed>9.740000</speed>
</trkpt>
<trkpt lat="42.782375" lon="18.929455">
<ele>641.9</ele>
<time>2012-05-02T06:00:12Z</time>
<desc>lat.=42.782375, lon.=18.929455, Alt.=640.289551m. Speed=48.383999m/h.</desc>
<speed>13.440000</speed>
</trkpt>
<trkpt lat="42.782017" lon="18.930162">
<ele>641.7</ele>
<time>2012-05-02T06:00:17Z</time>
<desc>lat.=42.782017, lon.=18.930162, Alt.=641.352051m. Speed=52.271999m/h.</desc>
<speed>14.520000</speed>
</trkpt>
<trkpt lat="42.781311" lon="18.932838">
<ele>639.7</ele>
<time>2012-05-02T06:00:32Z</time>
<desc>lat.=42.781311, lon.=18.932838, Alt.=639.852051m. Speed=54.360001m/h.</desc>
<speed>15.100000</speed>
</trkpt>
<trkpt lat="42.780972" lon="18.933601">
<ele>637.3</ele>
<time>2012-05-02T06:00:37Z</time>
<desc>lat.=42.780972, lon.=18.933601, Alt.=639.461426m. Speed=51.299999m/h.</desc>
<speed>14.250000</speed>
</trkpt>
<trkpt lat="42.780354" lon="18.934387">
<ele>635.3</ele>
<time>2012-05-02T06:00:52Z</time>
<desc>lat.=42.780354, lon.=18.934387, Alt.=638.508301m. Speed=0.036000m/h.</desc>
<speed>0.010000</speed>
</trkpt>
<trkpt lat="42.781055" lon="18.933493">
<ele>637.2</ele>
<time>2012-05-02T06:02:17Z</time>
<desc>lat.=42.781055, lon.=18.933493, Alt.=639.836426m. Speed=50.363998m/h.</desc>
<speed>13.990000</speed>
</trkpt>
<trkpt lat="42.781960" lon="18.930511">
<ele>639.0</ele>
<time>2012-05-02T06:02:32Z</time>
<desc>lat.=42.781960, lon.=18.930511, Alt.=638.805176m. Speed=60.624001m/h.</desc>
<speed>16.840000</speed>
</trkpt>
<trkpt lat="42.782757" lon="18.929028">
<ele>641.8</ele>
<time>2012-05-02T06:02:42Z</time>
<desc>lat.=42.782757, lon.=18.929028, Alt.=636.930176m. Speed=47.015999m/h.</desc>
<speed>13.060000</speed>
</trkpt>
<trkpt lat="42.783886" lon="18.928389">
<ele>626.8</ele>
<time>2012-05-02T06:02:52Z</time>
<desc>lat.=42.783886, lon.=18.928389, Alt.=632.992676m. Speed=47.664001m/h.</desc>
<speed>13.240000</speed>
</trkpt>
<trkpt lat="42.784370" lon="18.928352">
<ele>623.1</ele>
<time>2012-05-02T06:02:57Z</time>
<desc>lat.=42.784370, lon.=18.928352, Alt.=631.227051m. Speed=30.059999m/h.</desc>
<speed>8.350000</speed>
</trkpt>
<trkpt lat="42.784584" lon="18.928692">
<ele>623.1</ele>
<time>2012-05-02T06:03:02Z</time>
<desc>lat.=42.784584, lon.=18.928692, Alt.=629.414551m. Speed=27.936001m/h.</desc>
<speed>7.760000</speed>
</trkpt>
<trkpt lat="42.784389" lon="18.929119">
<ele>622.4</ele>
<time>2012-05-02T06:03:07Z</time>
<desc>lat.=42.784389, lon.=18.929119, Alt.=627.977051m. Speed=29.375999m/h.</desc>
<speed>8.160000</speed>
</trkpt>
<trkpt lat="42.784054" lon="18.929186">
<ele>623.1</ele>
<time>2012-05-02T06:03:12Z</time>
<desc>lat.=42.784054, lon.=18.929186, Alt.=627.336426m. Speed=21.636000m/h.</desc>
<speed>6.010000</speed>
</trkpt>
<trkpt lat="42.783722" lon="18.927217">
<ele>624.3</ele>
<time>2012-05-02T06:03:27Z</time>
<desc>lat.=42.783722, lon.=18.927217, Alt.=625.633301m. Speed=57.383999m/h.</desc>
<speed>15.940000</speed>
</trkpt>
<trkpt lat="42.783142" lon="18.925556">
<ele>621.6</ele>
<time>2012-05-02T06:03:37Z</time>
<desc>lat.=42.783142, lon.=18.925556, Alt.=624.836426m. Speed=51.048000m/h.</desc>
<speed>14.180000</speed>
</trkpt>
<trkpt lat="42.782276" lon="18.924164">
<ele>620.3</ele>
<time>2012-05-02T06:03:47Z</time>
<desc>lat.=42.782276, lon.=18.924164, Alt.=622.320801m. Speed=54.396000m/h.</desc>
<speed>15.110000</speed>
</trkpt>
<trkpt lat="42.781216" lon="18.923103">
<ele>614.8</ele>
<time>2012-05-02T06:03:57Z</time>
<desc>lat.=42.781216, lon.=18.923103, Alt.=621.039551m. Speed=50.112000m/h.</desc>
<speed>13.920000</speed>
</trkpt>
<trkpt lat="42.780579" lon="18.921846">
<ele>610.8</ele>
<time>2012-05-02T06:04:07Z</time>
<desc>lat.=42.780579, lon.=18.921846, Alt.=621.852051m. Speed=42.695999m/h.</desc>
<speed>11.860000</speed>
</trkpt>
<trkpt lat="42.780533" lon="18.915804">
<ele>618.3</ele>
<time>2012-05-02T06:04:42Z</time>
<desc>lat.=42.780533, lon.=18.915804, Alt.=622.602051m. Speed=57.599998m/h.</desc>
<speed>16.000000</speed>
</trkpt>
<trkpt lat="42.779942" lon="18.907949">
<ele>616.1</ele>
<time>2012-05-02T06:05:22Z</time>
<desc>lat.=42.779942, lon.=18.907949, Alt.=620.805176m. Speed=55.799999m/h.</desc>
<speed>15.500000</speed>
</trkpt>
<trkpt lat="42.779232" lon="18.905272">
<ele>615.1</ele>
<time>2012-05-02T06:05:37Z</time>
<desc>lat.=42.779232, lon.=18.905272, Alt.=620.742676m. Speed=58.284000m/h.</desc>
<speed>16.190000</speed>
</trkpt>
<trkpt lat="42.776768" lon="18.899588">
<ele>623.1</ele>
<time>2012-05-02T06:06:12Z</time>
<desc>lat.=42.776768, lon.=18.899588, Alt.=624.992676m. Speed=46.764000m/h.</desc>
<speed>12.990000</speed>
</trkpt>
<trkpt lat="42.776428" lon="18.898190">
<ele>623.9</ele>
<time>2012-05-02T06:06:22Z</time>
<desc>lat.=42.776428, lon.=18.898190, Alt.=628.523926m. Speed=40.535999m/h.</desc>
<speed>11.260000</speed>
</trkpt>
<trkpt lat="42.776413" lon="18.896671">
<ele>630.4</ele>
<time>2012-05-02T06:06:32Z</time>
<desc>lat.=42.776413, lon.=18.896671, Alt.=632.680176m. Speed=49.824001m/h.</desc>
<speed>13.840000</speed>
</trkpt>
<trkpt lat="42.776848" lon="18.891109">
<ele>642.7</ele>
<time>2012-05-02T06:07:02Z</time>
<desc>lat.=42.776848, lon.=18.891109, Alt.=644.711426m. Speed=60.948002m/h.</desc>
<speed>16.930001</speed>
</trkpt>
<trkpt lat="42.778183" lon="18.886618">
<ele>643.2</ele>
<time>2012-05-02T06:07:27Z</time>
<desc>lat.=42.778183, lon.=18.886618, Alt.=648.320801m. Speed=59.939999m/h.</desc>
<speed>16.650000</speed>
</trkpt>
<trkpt lat="42.778206" lon="18.882637">
<ele>651.7</ele>
<time>2012-05-02T06:07:47Z</time>
<desc>lat.=42.778206, lon.=18.882637, Alt.=650.711426m. Speed=57.383999m/h.</desc>
<speed>15.940000</speed>
</trkpt>
<trkpt lat="42.778435" lon="18.880606">
<ele>643.1</ele>
<time>2012-05-02T06:07:57Z</time>
<desc>lat.=42.778435, lon.=18.880606, Alt.=649.320801m. Speed=63.720001m/h.</desc>
<speed>17.700000</speed>
</trkpt>
<trkpt lat="42.780216" lon="18.876417">
<ele>636.3</ele>
<time>2012-05-02T06:08:17Z</time>
<desc>lat.=42.780216, lon.=18.876417, Alt.=642.930176m. Speed=83.124001m/h.</desc>
<speed>23.090000</speed>
</trkpt>
<trkpt lat="42.780968" lon="18.872349">
<ele>638.5</ele>
<time>2012-05-02T06:08:32Z</time>
<desc>lat.=42.780968, lon.=18.872349, Alt.=644.102051m. Speed=76.968002m/h.</desc>
<speed>21.380001</speed>
</trkpt>
<trkpt lat="42.782387" lon="18.867695">
<ele>637.6</ele>
<time>2012-05-02T06:08:52Z</time>
<desc>lat.=42.782387, lon.=18.867695, Alt.=643.273926m. Speed=67.751999m/h.</desc>
<speed>18.820000</speed>
</trkpt>
<trkpt lat="42.782623" lon="18.866621">
<ele>636.7</ele>
<time>2012-05-02T06:08:57Z</time>
<desc>lat.=42.782623, lon.=18.866621, Alt.=642.133301m. Speed=65.484001m/h.</desc>
<speed>18.190000</speed>
</trkpt>
<trkpt lat="42.782673" lon="18.865530">
<ele>636.9</ele>
<time>2012-05-02T06:09:02Z</time>
<desc>lat.=42.782673, lon.=18.865530, Alt.=643.117676m. Speed=64.223999m/h.</desc>
<speed>17.840000</speed>
</trkpt>
<trkpt lat="42.782024" lon="18.863478">
<ele>642.3</ele>
<time>2012-05-02T06:09:12Z</time>
<desc>lat.=42.782024, lon.=18.863478, Alt.=649.867676m. Speed=67.823997m/h.</desc>
<speed>18.839999</speed>
</trkpt>
<trkpt lat="42.780243" lon="18.861048">
<ele>648.3</ele>
<time>2012-05-02T06:09:27Z</time>
<desc>lat.=42.780243, lon.=18.861048, Alt.=660.852051m. Speed=63.647999m/h.</desc>
<speed>17.680000</speed>
</trkpt>
<trkpt lat="42.779480" lon="18.859108">
<ele>656.6</ele>
<time>2012-05-02T06:09:37Z</time>
<desc>lat.=42.779480, lon.=18.859108, Alt.=665.133301m. Speed=63.576000m/h.</desc>
<speed>17.660000</speed>
</trkpt>
<trkpt lat="42.778336" lon="18.857653">
<ele>661.2</ele>
<time>2012-05-02T06:09:47Z</time>
<desc>lat.=42.778336, lon.=18.857653, Alt.=668.164551m. Speed=58.212002m/h.</desc>
<speed>16.170001</speed>
</trkpt>
<trkpt lat="42.778095" lon="18.856724">
<ele>661.1</ele>
<time>2012-05-02T06:09:52Z</time>
<desc>lat.=42.778095, lon.=18.856724, Alt.=669.305176m. Speed=61.020000m/h.</desc>
<speed>16.950000</speed>
</trkpt>
<trkpt lat="42.778000" lon="18.852310">
<ele>677.6</ele>
<time>2012-05-02T06:10:12Z</time>
<desc>lat.=42.778000, lon.=18.852310, Alt.=675.992676m. Speed=61.056000m/h.</desc>
<speed>16.960000</speed>
</trkpt>
<trkpt lat="42.777409" lon="18.850161">
<ele>672.3</ele>
<time>2012-05-02T06:10:27Z</time>
<desc>lat.=42.777409, lon.=18.850161, Alt.=682.555176m. Speed=16.379999m/h.</desc>
<speed>4.550000</speed>
</trkpt>
<trkpt lat="42.776424" lon="18.848698">
<ele>681.1</ele>
<time>2012-05-02T06:14:52Z</time>
<desc>lat.=42.776424, lon.=18.848698, Alt.=690.492676m. Speed=52.560001m/h.</desc>
<speed>14.600000</speed>
</trkpt>
<trkpt lat="42.773109" lon="18.844782">
<ele>699.1</ele>
<time>2012-05-02T06:15:22Z</time>
<desc>lat.=42.773109, lon.=18.844782, Alt.=707.633301m. Speed=51.731998m/h.</desc>
<speed>14.370000</speed>
</trkpt>
<trkpt lat="42.772800" lon="18.843987">
<ele>696.2</ele>
<time>2012-05-02T06:15:27Z</time>
<desc>lat.=42.772800, lon.=18.843987, Alt.=708.867676m. Speed=54.504002m/h.</desc>
<speed>15.140000</speed>
</trkpt>
<trkpt lat="42.772705" lon="18.841978">
<ele>701.1</ele>
<time>2012-05-02T06:15:37Z</time>
<desc>lat.=42.772705, lon.=18.841978, Alt.=711.883301m. Speed=59.112000m/h.</desc>
<speed>16.420000</speed>
</trkpt>
<trkpt lat="42.771511" lon="18.839340">
<ele>710.8</ele>
<time>2012-05-02T06:15:52Z</time>
<desc>lat.=42.771511, lon.=18.839340, Alt.=721.023926m. Speed=61.344002m/h.</desc>
<speed>17.040000</speed>
</trkpt>
<trkpt lat="42.771248" lon="18.837414">
<ele>725.2</ele>
<time>2012-05-02T06:16:02Z</time>
<desc>lat.=42.771248, lon.=18.837414, Alt.=731.477051m. Speed=53.388000m/h.</desc>
<speed>14.830000</speed>
</trkpt>
<trkpt lat="42.770943" lon="18.836674">
<ele>728.0</ele>
<time>2012-05-02T06:16:07Z</time>
<desc>lat.=42.770943, lon.=18.836674, Alt.=736.414551m. Speed=51.155998m/h.</desc>
<speed>14.210000</speed>
</trkpt>
<trkpt lat="42.769897" lon="18.835499">
<ele>737.5</ele>
<time>2012-05-02T06:16:17Z</time>
<desc>lat.=42.769897, lon.=18.835499, Alt.=744.820801m. Speed=54.287998m/h.</desc>
<speed>15.079999</speed>
</trkpt>
<trkpt lat="42.769569" lon="18.834715">
<ele>737.8</ele>
<time>2012-05-02T06:16:22Z</time>
<desc>lat.=42.769569, lon.=18.834715, Alt.=749.008301m. Speed=56.051998m/h.</desc>
<speed>15.569999</speed>
</trkpt>
<trkpt lat="42.769726" lon="18.833803">
<ele>747.8</ele>
<time>2012-05-02T06:16:27Z</time>
<desc>lat.=42.769726, lon.=18.833803, Alt.=753.992676m. Speed=57.023998m/h.</desc>
<speed>15.840000</speed>
</trkpt>
<trkpt lat="42.770142" lon="18.833008">
<ele>751.2</ele>
<time>2012-05-02T06:16:32Z</time>
<desc>lat.=42.770142, lon.=18.833008, Alt.=758.867676m. Speed=54.647999m/h.</desc>
<speed>15.180000</speed>
</trkpt>
<trkpt lat="42.770306" lon="18.832150">
<ele>761.0</ele>
<time>2012-05-02T06:16:37Z</time>
<desc>lat.=42.770306, lon.=18.832150, Alt.=763.836426m. Speed=54.108002m/h.</desc>
<speed>15.030000</speed>
</trkpt>
<trkpt lat="42.770035" lon="18.831261">
<ele>761.1</ele>
<time>2012-05-02T06:16:42Z</time>
<desc>lat.=42.770035, lon.=18.831261, Alt.=768.742676m. Speed=60.444000m/h.</desc>
<speed>16.790000</speed>
</trkpt>
<trkpt lat="42.768795" lon="18.830103">
<ele>770.2</ele>
<time>2012-05-02T06:16:52Z</time>
<desc>lat.=42.768795, lon.=18.830103, Alt.=778.461426m. Speed=57.312000m/h.</desc>
<speed>15.920000</speed>
</trkpt>
<trkpt lat="42.766556" lon="18.829300">
<ele>781.4</ele>
<time>2012-05-02T06:17:07Z</time>
<desc>lat.=42.766556, lon.=18.829300, Alt.=787.664551m. Speed=55.188000m/h.</desc>
<speed>15.330000</speed>
</trkpt>
<trkpt lat="42.764439" lon="18.828188">
<ele>788.8</ele>
<time>2012-05-02T06:17:22Z</time>
<desc>lat.=42.764439, lon.=18.828188, Alt.=797.195801m. Speed=66.528000m/h.</desc>
<speed>18.480000</speed>
</trkpt>
<trkpt lat="42.763817" lon="18.827555">
<ele>797.6</ele>
<time>2012-05-02T06:17:27Z</time>
<desc>lat.=42.763817, lon.=18.827555, Alt.=801.383301m. Speed=59.796001m/h.</desc>
<speed>16.610000</speed>
</trkpt>
<trkpt lat="42.763367" lon="18.826775">
<ele>794.8</ele>
<time>2012-05-02T06:17:32Z</time>
<desc>lat.=42.763367, lon.=18.826775, Alt.=806.023926m. Speed=55.655998m/h.</desc>
<speed>15.460000</speed>
</trkpt>
<trkpt lat="42.762241" lon="18.825880">
<ele>803.4</ele>
<time>2012-05-02T06:17:42Z</time>
<desc>lat.=42.762241, lon.=18.825880, Alt.=814.820801m. Speed=50.004002m/h.</desc>
<speed>13.890000</speed>
</trkpt>
<trkpt lat="42.761127" lon="18.824770">
<ele>807.3</ele>
<time>2012-05-02T06:17:52Z</time>
<desc>lat.=42.761127, lon.=18.824770, Alt.=819.680176m. Speed=55.007999m/h.</desc>
<speed>15.280000</speed>
</trkpt>
<trkpt lat="42.760651" lon="18.824053">
<ele>812.7</ele>
<time>2012-05-02T06:17:57Z</time>
<desc>lat.=42.760651, lon.=18.824053, Alt.=823.883301m. Speed=55.728001m/h.</desc>
<speed>15.480000</speed>
</trkpt>
<trkpt lat="42.758911" lon="18.822424">
<ele>833.7</ele>
<time>2012-05-02T06:18:12Z</time>
<desc>lat.=42.758911, lon.=18.822424, Alt.=837.820801m. Speed=65.879997m/h.</desc>
<speed>18.299999</speed>
</trkpt>
<trkpt lat="42.755898" lon="18.820566">
<ele>846.3</ele>
<time>2012-05-02T06:18:32Z</time>
<desc>lat.=42.755898, lon.=18.820566, Alt.=852.055176m. Speed=59.976002m/h.</desc>
<speed>16.660000</speed>
</trkpt>
<trkpt lat="42.754967" lon="18.819147">
<ele>853.4</ele>
<time>2012-05-02T06:18:42Z</time>
<desc>lat.=42.754967, lon.=18.819147, Alt.=857.148926m. Speed=48.492001m/h.</desc>
<speed>13.470000</speed>
</trkpt>
<trkpt lat="42.754616" lon="18.817432">
<ele>851.4</ele>
<time>2012-05-02T06:18:52Z</time>
<desc>lat.=42.754616, lon.=18.817432, Alt.=857.977051m. Speed=56.340000m/h.</desc>
<speed>15.650000</speed>
</trkpt>
<trkpt lat="42.753628" lon="18.815016">
<ele>849.5</ele>
<time>2012-05-02T06:19:07Z</time>
<desc>lat.=42.753628, lon.=18.815016, Alt.=857.477051m. Speed=49.248001m/h.</desc>
<speed>13.680000</speed>
</trkpt>
<trkpt lat="42.752594" lon="18.814133">
<ele>849.5</ele>
<time>2012-05-02T06:19:17Z</time>
<desc>lat.=42.752594, lon.=18.814133, Alt.=856.758301m. Speed=45.180000m/h.</desc>
<speed>12.550000</speed>
</trkpt>
<trkpt lat="42.752403" lon="18.813404">
<ele>844.3</ele>
<time>2012-05-02T06:19:22Z</time>
<desc>lat.=42.752403, lon.=18.813404, Alt.=856.523926m. Speed=54.251999m/h.</desc>
<speed>15.070000</speed>
</trkpt>
<trkpt lat="42.752323" lon="18.811247">
<ele>843.0</ele>
<time>2012-05-02T06:19:32Z</time>
<desc>lat.=42.752323, lon.=18.811247, Alt.=857.789551m. Speed=61.812000m/h.</desc>
<speed>17.170000</speed>
</trkpt>
<trkpt lat="42.752567" lon="18.810291">
<ele>844.7</ele>
<time>2012-05-02T06:19:37Z</time>
<desc>lat.=42.752567, lon.=18.810291, Alt.=858.367676m. Speed=58.931999m/h.</desc>
<speed>16.370000</speed>
</trkpt>
<trkpt lat="42.752987" lon="18.809454">
<ele>844.7</ele>
<time>2012-05-02T06:19:42Z</time>
<desc>lat.=42.752987, lon.=18.809454, Alt.=858.273926m. Speed=58.680000m/h.</desc>
<speed>16.300000</speed>
</trkpt>
<trkpt lat="42.753384" lon="18.805674">
<ele>844.9</ele>
<time>2012-05-02T06:20:02Z</time>
<desc>lat.=42.753384, lon.=18.805674, Alt.=859.945801m. Speed=46.872002m/h.</desc>
<speed>13.020000</speed>
</trkpt>
<trkpt lat="42.752136" lon="18.803879">
<ele>854.4</ele>
<time>2012-05-02T06:20:17Z</time>
<desc>lat.=42.752136, lon.=18.803879, Alt.=866.102051m. Speed=56.484001m/h.</desc>
<speed>15.690000</speed>
</trkpt>
<trkpt lat="42.751545" lon="18.803322">
<ele>858.6</ele>
<time>2012-05-02T06:20:22Z</time>
<desc>lat.=42.751545, lon.=18.803322, Alt.=869.586426m. Speed=58.500000m/h.</desc>
<speed>16.250000</speed>
</trkpt>
<trkpt lat="42.751129" lon="18.802505">
<ele>863.2</ele>
<time>2012-05-02T06:20:27Z</time>
<desc>lat.=42.751129, lon.=18.802505, Alt.=872.023926m. Speed=57.528000m/h.</desc>
<speed>15.980000</speed>
</trkpt>
<trkpt lat="42.751038" lon="18.801550">
<ele>861.7</ele>
<time>2012-05-02T06:20:32Z</time>
<desc>lat.=42.751038, lon.=18.801550, Alt.=869.945801m. Speed=61.523998m/h.</desc>
<speed>17.090000</speed>
</trkpt>
<trkpt lat="42.751465" lon="18.799475">
<ele>857.8</ele>
<time>2012-05-02T06:20:42Z</time>
<desc>lat.=42.751465, lon.=18.799475, Alt.=864.727051m. Speed=59.292000m/h.</desc>
<speed>16.470000</speed>
</trkpt>
<trkpt lat="42.751465" lon="18.798523">
<ele>858.9</ele>
<time>2012-05-02T06:20:47Z</time>
<desc>lat.=42.751465, lon.=18.798523, Alt.=864.023926m. Speed=57.888000m/h.</desc>
<speed>16.080000</speed>
</trkpt>
<trkpt lat="42.751938" lon="18.795479">
<ele>856.8</ele>
<time>2012-05-02T06:21:02Z</time>
<desc>lat.=42.751938, lon.=18.795479, Alt.=863.258301m. Speed=63.035999m/h.</desc>
<speed>17.510000</speed>
</trkpt>
<trkpt lat="42.751751" lon="18.793158">
<ele>851.8</ele>
<time>2012-05-02T06:21:12Z</time>
<desc>lat.=42.751751, lon.=18.793158, Alt.=861.820801m. Speed=72.288002m/h.</desc>
<speed>20.080001</speed>
</trkpt>
<trkpt lat="42.751846" lon="18.790726">
<ele>850.8</ele>
<time>2012-05-02T06:21:22Z</time>
<desc>lat.=42.751846, lon.=18.790726, Alt.=858.789551m. Speed=73.295998m/h.</desc>
<speed>20.359999</speed>
</trkpt>
<trkpt lat="42.751213" lon="18.788160">
<ele>843.3</ele>
<time>2012-05-02T06:21:32Z</time>
<desc>lat.=42.751213, lon.=18.788160, Alt.=852.430176m. Speed=77.795998m/h.</desc>
<speed>21.609999</speed>
</trkpt>
<trkpt lat="42.750862" lon="18.786976">
<ele>840.5</ele>
<time>2012-05-02T06:21:37Z</time>
<desc>lat.=42.750862, lon.=18.786976, Alt.=850.477051m. Speed=73.835999m/h.</desc>
<speed>20.510000</speed>
</trkpt>
<trkpt lat="42.750225" lon="18.786098">
<ele>839.5</ele>
<time>2012-05-02T06:21:42Z</time>
<desc>lat.=42.750225, lon.=18.786098, Alt.=848.070801m. Speed=72.828003m/h.</desc>
<speed>20.230001</speed>
</trkpt>
<trkpt lat="42.748558" lon="18.785151">
<ele>841.9</ele>
<time>2012-05-02T06:21:52Z</time>
<desc>lat.=42.748558, lon.=18.785151, Alt.=843.961426m. Speed=64.835999m/h.</desc>
<speed>18.010000</speed>
</trkpt>
<trkpt lat="42.746590" lon="18.781399">
<ele>835.2</ele>
<time>2012-05-02T06:22:12Z</time>
<desc>lat.=42.746590, lon.=18.781399, Alt.=841.773926m. Speed=66.456001m/h.</desc>
<speed>18.460000</speed>
</trkpt>
<trkpt lat="42.744751" lon="18.779800">
<ele>840.3</ele>
<time>2012-05-02T06:22:27Z</time>
<desc>lat.=42.744751, lon.=18.779800, Alt.=839.039551m. Speed=52.848000m/h.</desc>
<speed>14.680000</speed>
</trkpt>
<trkpt lat="42.744373" lon="18.779022">
<ele>837.8</ele>
<time>2012-05-02T06:22:32Z</time>
<desc>lat.=42.744373, lon.=18.779022, Alt.=838.305176m. Speed=55.476002m/h.</desc>
<speed>15.410000</speed>
</trkpt>
<trkpt lat="42.743229" lon="18.777748">
<ele>830.4</ele>
<time>2012-05-02T06:22:42Z</time>
<desc>lat.=42.743229, lon.=18.777748, Alt.=834.914551m. Speed=68.363998m/h.</desc>
<speed>18.990000</speed>
</trkpt>
<trkpt lat="42.742691" lon="18.776846">
<ele>827.7</ele>
<time>2012-05-02T06:22:47Z</time>
<desc>lat.=42.742691, lon.=18.776846, Alt.=830.711426m. Speed=69.732002m/h.</desc>
<speed>19.370001</speed>
</trkpt>
<trkpt lat="42.741810" lon="18.773397">
<ele>812.5</ele>
<time>2012-05-02T06:23:02Z</time>
<desc>lat.=42.741810, lon.=18.773397, Alt.=817.133301m. Speed=70.379997m/h.</desc>
<speed>19.549999</speed>
</trkpt>
<trkpt lat="42.741405" lon="18.770071">
<ele>802.5</ele>
<time>2012-05-02T06:23:17Z</time>
<desc>lat.=42.741405, lon.=18.770071, Alt.=804.805176m. Speed=67.031998m/h.</desc>
<speed>18.619999</speed>
</trkpt>
<trkpt lat="42.741016" lon="18.769041">
<ele>796.8</ele>
<time>2012-05-02T06:23:22Z</time>
<desc>lat.=42.741016, lon.=18.769041, Alt.=800.148926m. Speed=68.220001m/h.</desc>
<speed>18.950000</speed>
</trkpt>
<trkpt lat="42.739265" lon="18.766594">
<ele>790.0</ele>
<time>2012-05-02T06:23:37Z</time>
<desc>lat.=42.739265, lon.=18.766594, Alt.=797.258301m. Speed=64.692001m/h.</desc>
<speed>17.970000</speed>
</trkpt>
<trkpt lat="42.738178" lon="18.761463">
<ele>794.1</ele>
<time>2012-05-02T06:23:57Z</time>
<desc>lat.=42.738178, lon.=18.761463, Alt.=802.352051m. Speed=75.599998m/h.</desc>
<speed>21.000000</speed>
</trkpt>
<trkpt lat="42.738106" lon="18.760242">
<ele>793.8</ele>
<time>2012-05-02T06:24:02Z</time>
<desc>lat.=42.738106, lon.=18.760242, Alt.=803.102051m. Speed=74.916000m/h.</desc>
<speed>20.810000</speed>
</trkpt>
<trkpt lat="42.738312" lon="18.759018">
<ele>794.7</ele>
<time>2012-05-02T06:24:07Z</time>
<desc>lat.=42.738312, lon.=18.759018, Alt.=802.461426m. Speed=72.648003m/h.</desc>
<speed>20.180001</speed>
</trkpt>
<trkpt lat="42.739143" lon="18.756918">
<ele>793.9</ele>
<time>2012-05-02T06:24:17Z</time>
<desc>lat.=42.739143, lon.=18.756918, Alt.=804.133301m. Speed=65.699997m/h.</desc>
<speed>18.249999</speed>
</trkpt>
<trkpt lat="42.739208" lon="18.754778">
<ele>798.4</ele>
<time>2012-05-02T06:24:27Z</time>
<desc>lat.=42.739208, lon.=18.754778, Alt.=806.977051m. Speed=62.028000m/h.</desc>
<speed>17.230000</speed>
</trkpt>
<trkpt lat="42.739567" lon="18.753809">
<ele>797.6</ele>
<time>2012-05-02T06:24:32Z</time>
<desc>lat.=42.739567, lon.=18.753809, Alt.=806.617676m. Speed=67.283997m/h.</desc>
<speed>18.689999</speed>
</trkpt>
<trkpt lat="42.741367" lon="18.751080">
<ele>798.6</ele>
<time>2012-05-02T06:24:52Z</time>
<desc>lat.=42.741367, lon.=18.751080, Alt.=808.555176m. Speed=55.764000m/h.</desc>
<speed>15.490000</speed>
</trkpt>
<trkpt lat="42.743275" lon="18.749710">
<ele>799.7</ele>
<time>2012-05-02T06:25:07Z</time>
<desc>lat.=42.743275, lon.=18.749710, Alt.=809.727051m. Speed=52.883999m/h.</desc>
<speed>14.690000</speed>
</trkpt>
<trkpt lat="42.743706" lon="18.749027">
<ele>797.5</ele>
<time>2012-05-02T06:25:12Z</time>
<desc>lat.=42.743706, lon.=18.749027, Alt.=809.930176m. Speed=55.116001m/h.</desc>
<speed>15.310000</speed>
</trkpt>
<trkpt lat="42.744286" lon="18.747145">
<ele>796.0</ele>
<time>2012-05-02T06:25:22Z</time>
<desc>lat.=42.744286, lon.=18.747145, Alt.=809.664551m. Speed=64.980003m/h.</desc>
<speed>18.050001</speed>
</trkpt>
<trkpt lat="42.744778" lon="18.746189">
<ele>797.7</ele>
<time>2012-05-02T06:25:27Z</time>
<desc>lat.=42.744778, lon.=18.746189, Alt.=809.086426m. Speed=75.384003m/h.</desc>
<speed>20.940001</speed>
</trkpt>
<trkpt lat="42.746231" lon="18.744371">
<ele>796.7</ele>
<time>2012-05-02T06:25:37Z</time>
<desc>lat.=42.746231, lon.=18.744371, Alt.=808.539551m. Speed=76.356003m/h.</desc>
<speed>21.210001</speed>
</trkpt>
<trkpt lat="42.746647" lon="18.743170">
<ele>795.5</ele>
<time>2012-05-02T06:25:42Z</time>
<desc>lat.=42.746647, lon.=18.743170, Alt.=808.289551m. Speed=79.524002m/h.</desc>
<speed>22.090001</speed>
</trkpt>
<trkpt lat="42.746712" lon="18.741837">
<ele>792.2</ele>
<time>2012-05-02T06:25:47Z</time>
<desc>lat.=42.746712, lon.=18.741837, Alt.=807.242676m. Speed=79.524002m/h.</desc>
<speed>22.090001</speed>
</trkpt>
<trkpt lat="42.746426" lon="18.739017">
<ele>787.2</ele>
<time>2012-05-02T06:25:57Z</time>
<desc>lat.=42.746426, lon.=18.739017, Alt.=800.805176m. Speed=89.136002m/h.</desc>
<speed>24.760000</speed>
</trkpt>
<trkpt lat="42.746315" lon="18.736063">
<ele>786.2</ele>
<time>2012-05-02T06:26:07Z</time>
<desc>lat.=42.746315, lon.=18.736063, Alt.=797.211426m. Speed=84.311996m/h.</desc>
<speed>23.419999</speed>
</trkpt>
<trkpt lat="42.745113" lon="18.732281">
<ele>788.6</ele>
<time>2012-05-02T06:26:22Z</time>
<desc>lat.=42.745113, lon.=18.732281, Alt.=796.320801m. Speed=69.120003m/h.</desc>
<speed>19.200001</speed>
</trkpt>
<trkpt lat="42.745358" lon="18.731213">
<ele>791.8</ele>
<time>2012-05-02T06:26:27Z</time>
<desc>lat.=42.745358, lon.=18.731213, Alt.=797.805176m. Speed=67.716003m/h.</desc>
<speed>18.810001</speed>
</trkpt>
<trkpt lat="42.745842" lon="18.730278">
<ele>795.2</ele>
<time>2012-05-02T06:26:32Z</time>
<desc>lat.=42.745842, lon.=18.730278, Alt.=800.414551m. Speed=63.720001m/h.</desc>
<speed>17.700000</speed>
</trkpt>
<trkpt lat="42.745975" lon="18.729254">
<ele>798.9</ele>
<time>2012-05-02T06:26:37Z</time>
<desc>lat.=42.745975, lon.=18.729254, Alt.=802.805176m. Speed=64.152000m/h.</desc>
<speed>17.820000</speed>
</trkpt>
<trkpt lat="42.745461" lon="18.727013">
<ele>798.7</ele>
<time>2012-05-02T06:26:47Z</time>
<desc>lat.=42.745461, lon.=18.727013, Alt.=805.195801m. Speed=67.356003m/h.</desc>
<speed>18.710001</speed>
</trkpt>
<trkpt lat="42.745480" lon="18.725794">
<ele>798.0</ele>
<time>2012-05-02T06:26:52Z</time>
<desc>lat.=42.745480, lon.=18.725794, Alt.=807.211426m. Speed=77.003998m/h.</desc>
<speed>21.389999</speed>
</trkpt>
<trkpt lat="42.745701" lon="18.724503">
<ele>806.7</ele>
<time>2012-05-02T06:26:57Z</time>
<desc>lat.=42.745701, lon.=18.724503, Alt.=809.164551m. Speed=75.671997m/h.</desc>
<speed>21.019999</speed>
</trkpt>
<trkpt lat="42.745598" lon="18.723282">
<ele>805.2</ele>
<time>2012-05-02T06:27:02Z</time>
<desc>lat.=42.745598, lon.=18.723282, Alt.=810.211426m. Speed=72.216003m/h.</desc>
<speed>20.060001</speed>
</trkpt>
<trkpt lat="42.744625" lon="18.721115">
<ele>804.9</ele>
<time>2012-05-02T06:27:12Z</time>
<desc>lat.=42.744625, lon.=18.721115, Alt.=811.383301m. Speed=69.587997m/h.</desc>
<speed>19.329999</speed>
</trkpt>
<trkpt lat="42.744469" lon="18.719999">
<ele>803.7</ele>
<time>2012-05-02T06:27:17Z</time>
<desc>lat.=42.744469, lon.=18.719999, Alt.=811.523926m. Speed=66.419998m/h.</desc>
<speed>18.449999</speed>
</trkpt>
<trkpt lat="42.744560" lon="18.717655">
<ele>804.4</ele>
<time>2012-05-02T06:27:27Z</time>
<desc>lat.=42.744560, lon.=18.717655, Alt.=813.898926m. Speed=77.040001m/h.</desc>
<speed>21.400000</speed>
</trkpt>
<trkpt lat="42.744457" lon="18.716322">
<ele>804.1</ele>
<time>2012-05-02T06:27:32Z</time>
<desc>lat.=42.744457, lon.=18.716322, Alt.=814.648926m. Speed=77.832001m/h.</desc>
<speed>21.620000</speed>
</trkpt>
<trkpt lat="42.744949" lon="18.712124">
<ele>805.5</ele>
<time>2012-05-02T06:27:47Z</time>
<desc>lat.=42.744949, lon.=18.712124, Alt.=815.664551m. Speed=81.900002m/h.</desc>
<speed>22.750000</speed>
</trkpt>
<trkpt lat="42.744766" lon="18.709612">
<ele>808.9</ele>
<time>2012-05-02T06:27:57Z</time>
<desc>lat.=42.744766, lon.=18.709612, Alt.=815.070801m. Speed=67.211998m/h.</desc>
<speed>18.669999</speed>
</trkpt>
<trkpt lat="42.744854" lon="18.708536">
<ele>810.3</ele>
<time>2012-05-02T06:28:02Z</time>
<desc>lat.=42.744854, lon.=18.708536, Alt.=815.242676m. Speed=60.551998m/h.</desc>
<speed>16.819999</speed>
</trkpt>
<trkpt lat="42.746632" lon="18.701632">
<ele>808.8</ele>
<time>2012-05-02T06:28:37Z</time>
<desc>lat.=42.746632, lon.=18.701632, Alt.=817.133301m. Speed=76.391998m/h.</desc>
<speed>21.220000</speed>
</trkpt>
<trkpt lat="42.746883" lon="18.698862">
<ele>808.2</ele>
<time>2012-05-02T06:28:47Z</time>
<desc>lat.=42.746883, lon.=18.698862, Alt.=817.680176m. Speed=83.556000m/h.</desc>
<speed>23.210000</speed>
</trkpt>
<trkpt lat="42.747173" lon="18.697533">
<ele>809.3</ele>
<time>2012-05-02T06:28:52Z</time>
<desc>lat.=42.747173, lon.=18.697533, Alt.=816.992676m. Speed=80.136002m/h.</desc>
<speed>22.260000</speed>
</trkpt>
<trkpt lat="42.748875" lon="18.693876">
<ele>802.9</ele>
<time>2012-05-02T06:29:07Z</time>
<desc>lat.=42.748875, lon.=18.693876, Alt.=809.492676m. Speed=91.584000m/h.</desc>
<speed>25.440000</speed>
</trkpt>
<trkpt lat="42.749542" lon="18.690937">
<ele>797.3</ele>
<time>2012-05-02T06:29:17Z</time>
<desc>lat.=42.749542, lon.=18.690937, Alt.=807.570801m. Speed=86.183998m/h.</desc>
<speed>23.939999</speed>
</trkpt>
<trkpt lat="42.750061" lon="18.689598">
<ele>800.6</ele>
<time>2012-05-02T06:29:22Z</time>
<desc>lat.=42.750061, lon.=18.689598, Alt.=810.039551m. Speed=90.143997m/h.</desc>
<speed>25.039999</speed>
</trkpt>
<trkpt lat="42.752262" lon="18.686113">
<ele>803.7</ele>
<time>2012-05-02T06:29:37Z</time>
<desc>lat.=42.752262, lon.=18.686113, Alt.=814.086426m. Speed=91.367996m/h.</desc>
<speed>25.379999</speed>
</trkpt>
<trkpt lat="42.752796" lon="18.684696">
<ele>805.7</ele>
<time>2012-05-02T06:29:42Z</time>
<desc>lat.=42.752796, lon.=18.684696, Alt.=814.773926m. Speed=96.695999m/h.</desc>
<speed>26.860000</speed>
</trkpt>
<trkpt lat="42.753128" lon="18.683086">
<ele>805.9</ele>
<time>2012-05-02T06:29:47Z</time>
<desc>lat.=42.753128, lon.=18.683086, Alt.=815.305176m. Speed=99.648003m/h.</desc>
<speed>27.680001</speed>
</trkpt>
<trkpt lat="42.753300" lon="18.679773">
<ele>803.8</ele>
<time>2012-05-02T06:29:57Z</time>
<desc>lat.=42.753300, lon.=18.679773, Alt.=813.633301m. Speed=94.751999m/h.</desc>
<speed>26.320000</speed>
</trkpt>
<trkpt lat="42.753574" lon="18.678152">
<ele>803.7</ele>
<time>2012-05-02T06:30:02Z</time>
<desc>lat.=42.753574, lon.=18.678152, Alt.=812.586426m. Speed=98.603996m/h.</desc>
<speed>27.389999</speed>
</trkpt>
<trkpt lat="42.754559" lon="18.675049">
<ele>807.5</ele>
<time>2012-05-02T06:30:12Z</time>
<desc>lat.=42.754559, lon.=18.675049, Alt.=817.445801m. Speed=95.832001m/h.</desc>
<speed>26.620000</speed>
</trkpt>
<trkpt lat="42.754692" lon="18.673471">
<ele>814.7</ele>
<time>2012-05-02T06:30:17Z</time>
<desc>lat.=42.754692, lon.=18.673471, Alt.=824.227051m. Speed=94.356003m/h.</desc>
<speed>26.210001</speed>
</trkpt>
<trkpt lat="42.754444" lon="18.670265">
<ele>829.4</ele>
<time>2012-05-02T06:30:27Z</time>
<desc>lat.=42.754444, lon.=18.670265, Alt.=835.398926m. Speed=94.068001m/h.</desc>
<speed>26.130000</speed>
</trkpt>
<trkpt lat="42.754677" lon="18.667173">
<ele>839.4</ele>
<time>2012-05-02T06:30:37Z</time>
<desc>lat.=42.754677, lon.=18.667173, Alt.=844.758301m. Speed=86.363998m/h.</desc>
<speed>23.990000</speed>
</trkpt>
<trkpt lat="42.754364" lon="18.665827">
<ele>840.3</ele>
<time>2012-05-02T06:30:42Z</time>
<desc>lat.=42.754364, lon.=18.665827, Alt.=846.633301m. Speed=84.528000m/h.</desc>
<speed>23.480000</speed>
</trkpt>
<trkpt lat="42.753704" lon="18.664658">
<ele>838.0</ele>
<time>2012-05-02T06:30:47Z</time>
<desc>lat.=42.753704, lon.=18.664658, Alt.=846.195801m. Speed=86.688004m/h.</desc>
<speed>24.080001</speed>
</trkpt>
<trkpt lat="42.753201" lon="18.663342">
<ele>838.5</ele>
<time>2012-05-02T06:30:52Z</time>
<desc>lat.=42.753201, lon.=18.663342, Alt.=845.992676m. Speed=89.891998m/h.</desc>
<speed>24.970000</speed>
</trkpt>
<trkpt lat="42.752892" lon="18.661880">
<ele>847.3</ele>
<time>2012-05-02T06:30:57Z</time>
<desc>lat.=42.752892, lon.=18.661880, Alt.=847.227051m. Speed=87.407997m/h.</desc>
<speed>24.279999</speed>
</trkpt>
<trkpt lat="42.751320" lon="18.657923">
<ele>850.2</ele>
<time>2012-05-02T06:31:12Z</time>
<desc>lat.=42.751320, lon.=18.657923, Alt.=850.133301m. Speed=83.987999m/h.</desc>
<speed>23.330000</speed>
</trkpt>
<trkpt lat="42.750942" lon="18.655313">
<ele>844.3</ele>
<time>2012-05-02T06:31:22Z</time>
<desc>lat.=42.750942, lon.=18.655313, Alt.=855.352051m. Speed=75.491997m/h.</desc>
<speed>20.969999</speed>
</trkpt>
<trkpt lat="42.751221" lon="18.650743">
<ele>841.1</ele>
<time>2012-05-02T06:31:42Z</time>
<desc>lat.=42.751221, lon.=18.650743, Alt.=856.008301m. Speed=67.608002m/h.</desc>
<speed>18.780000</speed>
</trkpt>
<trkpt lat="42.750980" lon="18.649237">
<ele>843.1</ele>
<time>2012-05-02T06:31:52Z</time>
<desc>lat.=42.750980, lon.=18.649237, Alt.=850.148926m. Speed=28.224001m/h.</desc>
<speed>7.840000</speed>
</trkpt>
<trkpt lat="42.750530" lon="18.648003">
<ele>841.3</ele>
<time>2012-05-02T06:32:02Z</time>
<desc>lat.=42.750530, lon.=18.648003, Alt.=844.820801m. Speed=63.071999m/h.</desc>
<speed>17.520000</speed>
</trkpt>
<trkpt lat="42.749977" lon="18.647020">
<ele>833.5</ele>
<time>2012-05-02T06:32:07Z</time>
<desc>lat.=42.749977, lon.=18.647020, Alt.=842.133301m. Speed=76.211998m/h.</desc>
<speed>21.169999</speed>
</trkpt>
<trkpt lat="42.749214" lon="18.646194">
<ele>828.2</ele>
<time>2012-05-02T06:32:12Z</time>
<desc>lat.=42.749214, lon.=18.646194, Alt.=839.773926m. Speed=76.283997m/h.</desc>
<speed>21.189999</speed>
</trkpt>
<trkpt lat="42.745392" lon="18.642660">
<ele>828.4</ele>
<time>2012-05-02T06:32:37Z</time>
<desc>lat.=42.745392, lon.=18.642660, Alt.=837.414551m. Speed=74.772003m/h.</desc>
<speed>20.770001</speed>
</trkpt>
<trkpt lat="42.744801" lon="18.641600">
<ele>823.1</ele>
<time>2012-05-02T06:32:42Z</time>
<desc>lat.=42.744801, lon.=18.641600, Alt.=833.320801m. Speed=82.727997m/h.</desc>
<speed>22.979999</speed>
</trkpt>
<trkpt lat="42.744362" lon="18.640251">
<ele>818.5</ele>
<time>2012-05-02T06:32:47Z</time>
<desc>lat.=42.744362, lon.=18.640251, Alt.=830.961426m. Speed=91.764000m/h.</desc>
<speed>25.490000</speed>
</trkpt>
<trkpt lat="42.743881" lon="18.637304">
<ele>826.6</ele>
<time>2012-05-02T06:32:57Z</time>
<desc>lat.=42.743881, lon.=18.637304, Alt.=835.898926m. Speed=83.232002m/h.</desc>
<speed>23.120001</speed>
</trkpt>
<trkpt lat="42.743393" lon="18.636028">
<ele>831.7</ele>
<time>2012-05-02T06:33:02Z</time>
<desc>lat.=42.743393, lon.=18.636028, Alt.=839.242676m. Speed=87.804001m/h.</desc>
<speed>24.390000</speed>
</trkpt>
<trkpt lat="42.740128" lon="18.631735">
<ele>841.4</ele>
<time>2012-05-02T06:33:22Z</time>
<desc>lat.=42.740128, lon.=18.631735, Alt.=849.023926m. Speed=81.648003m/h.</desc>
<speed>22.680001</speed>
</trkpt>
<trkpt lat="42.739513" lon="18.630585">
<ele>835.1</ele>
<time>2012-05-02T06:33:27Z</time>
<desc>lat.=42.739513, lon.=18.630585, Alt.=847.102051m. Speed=87.660004m/h.</desc>
<speed>24.350001</speed>
</trkpt>
<trkpt lat="42.739204" lon="18.629173">
<ele>832.3</ele>
<time>2012-05-02T06:33:32Z</time>
<desc>lat.=42.739204, lon.=18.629173, Alt.=844.148926m. Speed=88.956001m/h.</desc>
<speed>24.710000</speed>
</trkpt>
<trkpt lat="42.739189" lon="18.627691">
<ele>835.7</ele>
<time>2012-05-02T06:33:37Z</time>
<desc>lat.=42.739189, lon.=18.627691, Alt.=843.945801m. Speed=86.867996m/h.</desc>
<speed>24.129999</speed>
</trkpt>
<trkpt lat="42.740330" lon="18.623287">
<ele>839.0</ele>
<time>2012-05-02T06:33:52Z</time>
<desc>lat.=42.740330, lon.=18.623287, Alt.=850.570801m. Speed=87.407997m/h.</desc>
<speed>24.279999</speed>
</trkpt>
<trkpt lat="42.740498" lon="18.621910">
<ele>849.4</ele>
<time>2012-05-02T06:33:57Z</time>
<desc>lat.=42.740498, lon.=18.621910, Alt.=856.648926m. Speed=79.019997m/h.</desc>
<speed>21.949999</speed>
</trkpt>
<trkpt lat="42.740368" lon="18.620575">
<ele>858.5</ele>
<time>2012-05-02T06:34:02Z</time>
<desc>lat.=42.740368, lon.=18.620575, Alt.=862.805176m. Speed=80.459999m/h.</desc>
<speed>22.350000</speed>
</trkpt>
<trkpt lat="42.739632" lon="18.617996">
<ele>865.6</ele>
<time>2012-05-02T06:34:12Z</time>
<desc>lat.=42.739632, lon.=18.617996, Alt.=873.492676m. Speed=81.288002m/h.</desc>
<speed>22.580001</speed>
</trkpt>
<trkpt lat="42.739445" lon="18.616665">
<ele>871.2</ele>
<time>2012-05-02T06:34:17Z</time>
<desc>lat.=42.739445, lon.=18.616665, Alt.=876.914551m. Speed=80.136002m/h.</desc>
<speed>22.260000</speed>
</trkpt>
<trkpt lat="42.739708" lon="18.613823">
<ele>877.2</ele>
<time>2012-05-02T06:34:27Z</time>
<desc>lat.=42.739708, lon.=18.613823, Alt.=881.570801m. Speed=89.316002m/h.</desc>
<speed>24.810001</speed>
</trkpt>
<trkpt lat="42.739681" lon="18.612274">
<ele>875.3</ele>
<time>2012-05-02T06:34:32Z</time>
<desc>lat.=42.739681, lon.=18.612274, Alt.=882.383301m. Speed=91.835999m/h.</desc>
<speed>25.510000</speed>
</trkpt>
<trkpt lat="42.739323" lon="18.610846">
<ele>873.3</ele>
<time>2012-05-02T06:34:37Z</time>
<desc>lat.=42.739323, lon.=18.610846, Alt.=883.195801m. Speed=87.732002m/h.</desc>
<speed>24.370001</speed>
</trkpt>
<trkpt lat="42.737919" lon="18.608551">
<ele>877.8</ele>
<time>2012-05-02T06:34:47Z</time>
<desc>lat.=42.737919, lon.=18.608551, Alt.=886.508301m. Speed=83.160004m/h.</desc>
<speed>23.100001</speed>
</trkpt>
<trkpt lat="42.737053" lon="18.605934">
<ele>883.0</ele>
<time>2012-05-02T06:34:57Z</time>
<desc>lat.=42.737053, lon.=18.605934, Alt.=892.148926m. Speed=80.928001m/h.</desc>
<speed>22.480000</speed>
</trkpt>
<trkpt lat="42.735527" lon="18.604057">
<ele>888.0</ele>
<time>2012-05-02T06:35:07Z</time>
<desc>lat.=42.735527, lon.=18.604057, Alt.=894.305176m. Speed=81.648003m/h.</desc>
<speed>22.680001</speed>
</trkpt>
<trkpt lat="42.734322" lon="18.602175">
<ele>886.8</ele>
<time>2012-05-02T06:35:17Z</time>
<desc>lat.=42.734322, lon.=18.602175, Alt.=892.164551m. Speed=59.723999m/h.</desc>
<speed>16.590000</speed>
</trkpt>
<trkpt lat="42.733784" lon="18.601692">
<ele>887.3</ele>
<time>2012-05-02T06:35:22Z</time>
<desc>lat.=42.733784, lon.=18.601692, Alt.=891.914551m. Speed=46.223999m/h.</desc>
<speed>12.840000</speed>
</trkpt>
<trkpt lat="42.733391" lon="18.601522">
<ele>884.6</ele>
<time>2012-05-02T06:35:27Z</time>
<desc>lat.=42.733391, lon.=18.601522, Alt.=892.336426m. Speed=24.191999m/h.</desc>
<speed>6.720000</speed>
</trkpt>
<trkpt lat="42.732933" lon="18.602486">
<ele>889.5</ele>
<time>2012-05-02T06:35:37Z</time>
<desc>lat.=42.732933, lon.=18.602486, Alt.=889.711426m. Speed=47.484001m/h.</desc>
<speed>13.190000</speed>
</trkpt>
<trkpt lat="42.732376" lon="18.603132">
<ele>890.5</ele>
<time>2012-05-02T06:35:42Z</time>
<desc>lat.=42.732376, lon.=18.603132, Alt.=894.695801m. Speed=65.699997m/h.</desc>
<speed>18.249999</speed>
</trkpt>
<trkpt lat="42.730042" lon="18.604126">
<ele>891.2</ele>
<time>2012-05-02T06:35:57Z</time>
<desc>lat.=42.730042, lon.=18.604126, Alt.=896.664551m. Speed=64.115997m/h.</desc>
<speed>17.809999</speed>
</trkpt>
<trkpt lat="42.729336" lon="18.604637">
<ele>886.8</ele>
<time>2012-05-02T06:36:02Z</time>
<desc>lat.=42.729336, lon.=18.604637, Alt.=897.070801m. Speed=66.024002m/h.</desc>
<speed>18.340001</speed>
</trkpt>
<trkpt lat="42.728706" lon="18.605488">
<ele>887.9</ele>
<time>2012-05-02T06:36:07Z</time>
<desc>lat.=42.728706, lon.=18.605488, Alt.=897.586426m. Speed=75.959999m/h.</desc>
<speed>21.100000</speed>
</trkpt>
<trkpt lat="42.727898" lon="18.606194">
<ele>890.8</ele>
<time>2012-05-02T06:36:12Z</time>
<desc>lat.=42.727898, lon.=18.606194, Alt.=902.039551m. Speed=77.903999m/h.</desc>
<speed>21.640000</speed>
</trkpt>
<trkpt lat="42.726933" lon="18.606323">
<ele>900.6</ele>
<time>2012-05-02T06:36:17Z</time>
<desc>lat.=42.726933, lon.=18.606323, Alt.=908.555176m. Speed=77.723999m/h.</desc>
<speed>21.590000</speed>
</trkpt>
<trkpt lat="42.725185" lon="18.605757">
<ele>918.6</ele>
<time>2012-05-02T06:36:27Z</time>
<desc>lat.=42.725185, lon.=18.605757, Alt.=920.164551m. Speed=63.683998m/h.</desc>
<speed>17.689999</speed>
</trkpt>
<trkpt lat="42.723999" lon="18.604265">
<ele>929.1</ele>
<time>2012-05-02T06:36:37Z</time>
<desc>lat.=42.723999, lon.=18.604265, Alt.=932.773926m. Speed=65.987999m/h.</desc>
<speed>18.330000</speed>
</trkpt>
<trkpt lat="42.723194" lon="18.604073">
<ele>932.5</ele>
<time>2012-05-02T06:36:42Z</time>
<desc>lat.=42.723194, lon.=18.604073, Alt.=938.070801m. Speed=65.987999m/h.</desc>
<speed>18.330000</speed>
</trkpt>
<trkpt lat="42.722443" lon="18.604559">
<ele>937.4</ele>
<time>2012-05-02T06:36:47Z</time>
<desc>lat.=42.722443, lon.=18.604559, Alt.=945.586426m. Speed=67.211998m/h.</desc>
<speed>18.669999</speed>
</trkpt>
<trkpt lat="42.721245" lon="18.605999">
<ele>947.1</ele>
<time>2012-05-02T06:36:57Z</time>
<desc>lat.=42.721245, lon.=18.605999, Alt.=955.555176m. Speed=61.560001m/h.</desc>
<speed>17.100000</speed>
</trkpt>
<trkpt lat="42.720520" lon="18.606014">
<ele>957.9</ele>
<time>2012-05-02T06:37:02Z</time>
<desc>lat.=42.720520, lon.=18.606014, Alt.=960.930176m. Speed=58.391998m/h.</desc>
<speed>16.220000</speed>
</trkpt>
<trkpt lat="42.719826" lon="18.605583">
<ele>963.7</ele>
<time>2012-05-02T06:37:07Z</time>
<desc>lat.=42.719826, lon.=18.605583, Alt.=967.320801m. Speed=61.812000m/h.</desc>
<speed>17.170000</speed>
</trkpt>
<trkpt lat="42.719063" lon="18.605450">
<ele>964.9</ele>
<time>2012-05-02T06:37:12Z</time>
<desc>lat.=42.719063, lon.=18.605450, Alt.=972.258301m. Speed=62.532001m/h.</desc>
<speed>17.370000</speed>
</trkpt>
<trkpt lat="42.717552" lon="18.606476">
<ele>984.6</ele>
<time>2012-05-02T06:37:22Z</time>
<desc>lat.=42.717552, lon.=18.606476, Alt.=984.164551m. Speed=69.695999m/h.</desc>
<speed>19.360000</speed>
</trkpt>
<trkpt lat="42.716679" lon="18.606361">
<ele>987.4</ele>
<time>2012-05-02T06:37:27Z</time>
<desc>lat.=42.716679, lon.=18.606361, Alt.=989.945801m. Speed=69.372002m/h.</desc>
<speed>19.270000</speed>
</trkpt>
<trkpt lat="42.715847" lon="18.606493">
<ele>989.7</ele>
<time>2012-05-02T06:37:32Z</time>
<desc>lat.=42.715847, lon.=18.606493, Alt.=996.102051m. Speed=69.587997m/h.</desc>
<speed>19.329999</speed>
</trkpt>
<trkpt lat="42.715084" lon="18.607012">
<ele>994.4</ele>
<time>2012-05-02T06:37:37Z</time>
<desc>lat.=42.715084, lon.=18.607012, Alt.=1001.852051m. Speed=66.851997m/h.</desc>
<speed>18.569999</speed>
</trkpt>
<trkpt lat="42.712467" lon="18.607145">
<ele>1005.2</ele>
<time>2012-05-02T06:37:52Z</time>
<desc>lat.=42.712467, lon.=18.607145, Alt.=1013.070801m. Speed=69.552002m/h.</desc>
<speed>19.320001</speed>
</trkpt>
<trkpt lat="42.711636" lon="18.607504">
<ele>1007.7</ele>
<time>2012-05-02T06:37:57Z</time>
<desc>lat.=42.711636, lon.=18.607504, Alt.=1014.883301m. Speed=72.143997m/h.</desc>
<speed>20.039999</speed>
</trkpt>
<trkpt lat="42.708389" lon="18.609787">
<ele>1014.9</ele>
<time>2012-05-02T06:38:17Z</time>
<desc>lat.=42.708389, lon.=18.609787, Alt.=1021.711426m. Speed=69.695999m/h.</desc>
<speed>19.360000</speed>
</trkpt>
<trkpt lat="42.705643" lon="18.613504">
<ele>1010.8</ele>
<time>2012-05-02T06:38:37Z</time>
<desc>lat.=42.705643, lon.=18.613504, Alt.=1017.586426m. Speed=81.071999m/h.</desc>
<speed>22.520000</speed>
</trkpt>
<trkpt lat="42.704632" lon="18.615860">
<ele>1004.2</ele>
<time>2012-05-02T06:38:47Z</time>
<desc>lat.=42.704632, lon.=18.615860, Alt.=1016.195801m. Speed=88.739998m/h.</desc>
<speed>24.649999</speed>
</trkpt>
<trkpt lat="42.702587" lon="18.619652">
<ele>1002.5</ele>
<time>2012-05-02T06:39:02Z</time>
<desc>lat.=42.702587, lon.=18.619652, Alt.=1007.133301m. Speed=85.968002m/h.</desc>
<speed>23.880001</speed>
</trkpt>
<trkpt lat="42.701710" lon="18.622297">
<ele>998.8</ele>
<time>2012-05-02T06:39:12Z</time>
<desc>lat.=42.701710, lon.=18.622297, Alt.=1006.742676m. Speed=89.711998m/h.</desc>
<speed>24.919999</speed>
</trkpt>
<trkpt lat="42.700138" lon="18.626141">
<ele>1009.3</ele>
<time>2012-05-02T06:39:27Z</time>
<desc>lat.=42.700138, lon.=18.626141, Alt.=1011.320801m. Speed=66.239998m/h.</desc>
<speed>18.399999</speed>
</trkpt>
<trkpt lat="42.699619" lon="18.626898">
<ele>1008.5</ele>
<time>2012-05-02T06:39:32Z</time>
<desc>lat.=42.699619, lon.=18.626898, Alt.=1013.492676m. Speed=58.644001m/h.</desc>
<speed>16.290000</speed>
</trkpt>
<trkpt lat="42.698338" lon="18.627728">
<ele>1004.0</ele>
<time>2012-05-02T06:39:42Z</time>
<desc>lat.=42.698338, lon.=18.627728, Alt.=1012.898926m. Speed=64.655998m/h.</desc>
<speed>17.960000</speed>
</trkpt>
<trkpt lat="42.697239" lon="18.629375">
<ele>1007.8</ele>
<time>2012-05-02T06:39:52Z</time>
<desc>lat.=42.697239, lon.=18.629375, Alt.=1010.992676m. Speed=62.855999m/h.</desc>
<speed>17.460000</speed>
</trkpt>
<trkpt lat="42.696918" lon="18.631216">
<ele>1008.8</ele>
<time>2012-05-02T06:40:02Z</time>
<desc>lat.=42.696918, lon.=18.631216, Alt.=1011.523926m. Speed=52.883999m/h.</desc>
<speed>14.690000</speed>
</trkpt>
<trkpt lat="42.696579" lon="18.632030">
<ele>1006.2</ele>
<time>2012-05-02T06:40:07Z</time>
<desc>lat.=42.696579, lon.=18.632030, Alt.=1011.336426m. Speed=60.048000m/h.</desc>
<speed>16.680000</speed>
</trkpt>
<trkpt lat="42.695095" lon="18.634750">
<ele>1006.0</ele>
<time>2012-05-02T06:40:22Z</time>
<desc>lat.=42.695095, lon.=18.634750, Alt.=1003.273926m. Speed=69.192001m/h.</desc>
<speed>19.220000</speed>
</trkpt>
<trkpt lat="42.694431" lon="18.635548">
<ele>993.5</ele>
<time>2012-05-02T06:40:27Z</time>
<desc>lat.=42.694431, lon.=18.635548, Alt.=999.492676m. Speed=70.596001m/h.</desc>
<speed>19.610000</speed>
</trkpt>
<trkpt lat="42.692802" lon="18.636646">
<ele>983.1</ele>
<time>2012-05-02T06:40:37Z</time>
<desc>lat.=42.692802, lon.=18.636646, Alt.=991.695801m. Speed=73.115997m/h.</desc>
<speed>20.309999</speed>
</trkpt>
<trkpt lat="42.690979" lon="18.636917">
<ele>982.3</ele>
<time>2012-05-02T06:40:47Z</time>
<desc>lat.=42.690979, lon.=18.636917, Alt.=984.195801m. Speed=72.251999m/h.</desc>
<speed>20.070000</speed>
</trkpt>
<trkpt lat="42.690075" lon="18.636715">
<ele>976.6</ele>
<time>2012-05-02T06:40:52Z</time>
<desc>lat.=42.690075, lon.=18.636715, Alt.=982.664551m. Speed=76.320000m/h.</desc>
<speed>21.200000</speed>
</trkpt>
<trkpt lat="42.685127" lon="18.634056">
<ele>993.0</ele>
<time>2012-05-02T06:41:17Z</time>
<desc>lat.=42.685127, lon.=18.634056, Alt.=991.289551m. Speed=73.223999m/h.</desc>
<speed>20.340000</speed>
</trkpt>
<trkpt lat="42.684269" lon="18.633814">
<ele>992.2</ele>
<time>2012-05-02T06:41:22Z</time>
<desc>lat.=42.684269, lon.=18.633814, Alt.=990.539551m. Speed=70.776001m/h.</desc>
<speed>19.660000</speed>
</trkpt>
<trkpt lat="42.683331" lon="18.633865">
<ele>976.9</ele>
<time>2012-05-02T06:41:27Z</time>
<desc>lat.=42.683331, lon.=18.633865, Alt.=987.648926m. Speed=78.984001m/h.</desc>
<speed>21.940000</speed>
</trkpt>
<trkpt lat="42.682358" lon="18.634228">
<ele>973.9</ele>
<time>2012-05-02T06:41:32Z</time>
<desc>lat.=42.682358, lon.=18.634228, Alt.=982.305176m. Speed=81.036003m/h.</desc>
<speed>22.510001</speed>
</trkpt>
<trkpt lat="42.681465" lon="18.634907">
<ele>970.2</ele>
<time>2012-05-02T06:41:37Z</time>
<desc>lat.=42.681465, lon.=18.634907, Alt.=977.008301m. Speed=82.764000m/h.</desc>
<speed>22.990000</speed>
</trkpt>
<trkpt lat="42.680706" lon="18.635897">
<ele>964.1</ele>
<time>2012-05-02T06:41:42Z</time>
<desc>lat.=42.680706, lon.=18.635897, Alt.=971.383301m. Speed=85.139999m/h.</desc>
<speed>23.650000</speed>
</trkpt>
<trkpt lat="42.678291" lon="18.640945">
<ele>937.7</ele>
<time>2012-05-02T06:42:02Z</time>
<desc>lat.=42.678291, lon.=18.640945, Alt.=942.680176m. Speed=89.820000m/h.</desc>
<speed>24.950000</speed>
</trkpt>
<trkpt lat="42.674744" lon="18.645060">
<ele>904.0</ele>
<time>2012-05-02T06:42:22Z</time>
<desc>lat.=42.674744, lon.=18.645060, Alt.=907.992676m. Speed=91.764000m/h.</desc>
<speed>25.490000</speed>
</trkpt>
<trkpt lat="42.672722" lon="18.646317">
<ele>881.0</ele>
<time>2012-05-02T06:42:32Z</time>
<desc>lat.=42.672722, lon.=18.646317, Alt.=890.164551m. Speed=86.580002m/h.</desc>
<speed>24.050001</speed>
</trkpt>
<trkpt lat="42.671814" lon="18.647104">
<ele>871.4</ele>
<time>2012-05-02T06:42:37Z</time>
<desc>lat.=42.671814, lon.=18.647104, Alt.=881.477051m. Speed=83.699997m/h.</desc>
<speed>23.249999</speed>
</trkpt>
<trkpt lat="42.671104" lon="18.648146">
<ele>864.3</ele>
<time>2012-05-02T06:42:42Z</time>
<desc>lat.=42.671104, lon.=18.648146, Alt.=873.227051m. Speed=83.664001m/h.</desc>
<speed>23.240000</speed>
</trkpt>
<trkpt lat="42.669312" lon="18.651506">
<ele>852.7</ele>
<time>2012-05-02T06:42:57Z</time>
<desc>lat.=42.669312, lon.=18.651506, Alt.=859.305176m. Speed=79.199997m/h.</desc>
<speed>21.999999</speed>
</trkpt>
<trkpt lat="42.668877" lon="18.652752">
<ele>856.0</ele>
<time>2012-05-02T06:43:02Z</time>
<desc>lat.=42.668877, lon.=18.652752, Alt.=859.742676m. Speed=84.528000m/h.</desc>
<speed>23.480000</speed>
</trkpt>
<trkpt lat="42.667915" lon="18.656940">
<ele>866.1</ele>
<time>2012-05-02T06:43:17Z</time>
<desc>lat.=42.667915, lon.=18.656940, Alt.=864.398926m. Speed=91.367996m/h.</desc>
<speed>25.379999</speed>
</trkpt>
<trkpt lat="42.667370" lon="18.658352">
<ele>863.7</ele>
<time>2012-05-02T06:43:22Z</time>
<desc>lat.=42.667370, lon.=18.658352, Alt.=862.727051m. Speed=96.624001m/h.</desc>
<speed>26.840000</speed>
</trkpt>
<trkpt lat="42.664219" lon="18.663263">
<ele>818.5</ele>
<time>2012-05-02T06:43:42Z</time>
<desc>lat.=42.664219, lon.=18.663263, Alt.=826.633301m. Speed=97.559998m/h.</desc>
<speed>27.099999</speed>
</trkpt>
<trkpt lat="42.663303" lon="18.664373">
<ele>815.4</ele>
<time>2012-05-02T06:43:47Z</time>
<desc>lat.=42.663303, lon.=18.664373, Alt.=815.789551m. Speed=97.596001m/h.</desc>
<speed>27.110000</speed>
</trkpt>
<trkpt lat="42.662247" lon="18.665247">
<ele>807.4</ele>
<time>2012-05-02T06:43:52Z</time>
<desc>lat.=42.662247, lon.=18.665247, Alt.=805.086426m. Speed=98.711998m/h.</desc>
<speed>27.419999</speed>
</trkpt>
<trkpt lat="42.658718" lon="18.666794">
<ele>773.0</ele>
<time>2012-05-02T06:44:07Z</time>
<desc>lat.=42.658718, lon.=18.666794, Alt.=773.008301m. Speed=92.556000m/h.</desc>
<speed>25.710000</speed>
</trkpt>
<trkpt lat="42.657707" lon="18.667570">
<ele>754.5</ele>
<time>2012-05-02T06:44:12Z</time>
<desc>lat.=42.657707, lon.=18.667570, Alt.=763.445801m. Speed=94.428001m/h.</desc>
<speed>26.230000</speed>
</trkpt>
<trkpt lat="42.656860" lon="18.668709">
<ele>739.8</ele>
<time>2012-05-02T06:44:17Z</time>
<desc>lat.=42.656860, lon.=18.668709, Alt.=753.195801m. Speed=96.515999m/h.</desc>
<speed>26.810000</speed>
</trkpt>
<trkpt lat="42.656254" lon="18.670099">
<ele>729.1</ele>
<time>2012-05-02T06:44:22Z</time>
<desc>lat.=42.656254, lon.=18.670099, Alt.=743.805176m. Speed=95.580002m/h.</desc>
<speed>26.550001</speed>
</trkpt>
<trkpt lat="42.655495" lon="18.673210">
<ele>710.1</ele>
<time>2012-05-02T06:44:32Z</time>
<desc>lat.=42.655495, lon.=18.673210, Alt.=723.664551m. Speed=94.788002m/h.</desc>
<speed>26.330001</speed>
</trkpt>
<trkpt lat="42.654907" lon="18.674658">
<ele>696.7</ele>
<time>2012-05-02T06:44:37Z</time>
<desc>lat.=42.654907, lon.=18.674658, Alt.=714.273926m. Speed=98.568001m/h.</desc>
<speed>27.380000</speed>
</trkpt>
<trkpt lat="42.654106" lon="18.675947">
<ele>692.8</ele>
<time>2012-05-02T06:44:42Z</time>
<desc>lat.=42.654106, lon.=18.675947, Alt.=707.102051m. Speed=99.288002m/h.</desc>
<speed>27.580001</speed>
</trkpt>
<trkpt lat="42.653149" lon="18.676977">
<ele>691.3</ele>
<time>2012-05-02T06:44:47Z</time>
<desc>lat.=42.653149, lon.=18.676977, Alt.=703.633301m. Speed=96.300003m/h.</desc>
<speed>26.750001</speed>
</trkpt>
<trkpt lat="42.652081" lon="18.677711">
<ele>690.8</ele>
<time>2012-05-02T06:44:52Z</time>
<desc>lat.=42.652081, lon.=18.677711, Alt.=702.961426m. Speed=95.363998m/h.</desc>
<speed>26.490000</speed>
</trkpt>
<trkpt lat="42.647736" lon="18.679375">
<ele>689.9</ele>
<time>2012-05-02T06:45:12Z</time>
<desc>lat.=42.647736, lon.=18.679375, Alt.=700.648926m. Speed=70.416000m/h.</desc>
<speed>19.560000</speed>
</trkpt>
<trkpt lat="42.647011" lon="18.679806">
<ele>690.2</ele>
<time>2012-05-02T06:45:17Z</time>
<desc>lat.=42.647011, lon.=18.679806, Alt.=700.867676m. Speed=61.307999m/h.</desc>
<speed>17.030000</speed>
</trkpt>
<trkpt lat="42.644840" lon="18.682993">
<ele>690.2</ele>
<time>2012-05-02T06:45:37Z</time>
<desc>lat.=42.644840, lon.=18.682993, Alt.=700.727051m. Speed=69.624001m/h.</desc>
<speed>19.340000</speed>
</trkpt>
<trkpt lat="42.644073" lon="18.683569">
<ele>688.8</ele>
<time>2012-05-02T06:45:42Z</time>
<desc>lat.=42.644073, lon.=18.683569, Alt.=701.180176m. Speed=69.839996m/h.</desc>
<speed>19.399999</speed>
</trkpt>
<trkpt lat="42.643204" lon="18.683737">
<ele>690.5</ele>
<time>2012-05-02T06:45:47Z</time>
<desc>lat.=42.643204, lon.=18.683737, Alt.=700.664551m. Speed=72.468002m/h.</desc>
<speed>20.130001</speed>
</trkpt>
<trkpt lat="42.641403" lon="18.683453">
<ele>692.9</ele>
<time>2012-05-02T06:45:57Z</time>
<desc>lat.=42.641403, lon.=18.683453, Alt.=699.836426m. Speed=72.612000m/h.</desc>
<speed>20.170000</speed>
</trkpt>
<trkpt lat="42.639614" lon="18.684053">
<ele>686.6</ele>
<time>2012-05-02T06:46:07Z</time>
<desc>lat.=42.639614, lon.=18.684053, Alt.=699.320801m. Speed=74.952003m/h.</desc>
<speed>20.820001</speed>
</trkpt>
<trkpt lat="42.638634" lon="18.684187">
<ele>690.9</ele>
<time>2012-05-02T06:46:12Z</time>
<desc>lat.=42.638634, lon.=18.684187, Alt.=698.680176m. Speed=80.136002m/h.</desc>
<speed>22.260000</speed>
</trkpt>
<trkpt lat="42.637665" lon="18.683893">
<ele>691.2</ele>
<time>2012-05-02T06:46:17Z</time>
<desc>lat.=42.637665, lon.=18.683893, Alt.=698.008301m. Speed=77.940002m/h.</desc>
<speed>21.650001</speed>
</trkpt>
<trkpt lat="42.635086" lon="18.681313">
<ele>684.2</ele>
<time>2012-05-02T06:46:32Z</time>
<desc>lat.=42.635086, lon.=18.681313, Alt.=692.852051m. Speed=88.344002m/h.</desc>
<speed>24.540000</speed>
</trkpt>
<trkpt lat="42.634068" lon="18.680754">
<ele>677.7</ele>
<time>2012-05-02T06:46:37Z</time>
<desc>lat.=42.634068, lon.=18.680754, Alt.=689.539551m. Speed=87.227997m/h.</desc>
<speed>24.229999</speed>
</trkpt>
<trkpt lat="42.632984" lon="18.680593">
<ele>668.2</ele>
<time>2012-05-02T06:46:42Z</time>
<desc>lat.=42.632984, lon.=18.680593, Alt.=684.852051m. Speed=87.300003m/h.</desc>
<speed>24.250001</speed>
</trkpt>
<trkpt lat="42.631901" lon="18.680834">
<ele>673.7</ele>
<time>2012-05-02T06:46:47Z</time>
<desc>lat.=42.631901, lon.=18.680834, Alt.=679.555176m. Speed=87.732002m/h.</desc>
<speed>24.370001</speed>
</trkpt>
<trkpt lat="42.629818" lon="18.681881">
<ele>651.8</ele>
<time>2012-05-02T06:46:57Z</time>
<desc>lat.=42.629818, lon.=18.681881, Alt.=668.273926m. Speed=86.220001m/h.</desc>
<speed>23.950000</speed>
</trkpt>
<trkpt lat="42.628773" lon="18.681984">
<ele>650.4</ele>
<time>2012-05-02T06:47:02Z</time>
<desc>lat.=42.628773, lon.=18.681984, Alt.=660.836426m. Speed=81.863998m/h.</desc>
<speed>22.740000</speed>
</trkpt>
<trkpt lat="42.626789" lon="18.681013">
<ele>652.4</ele>
<time>2012-05-02T06:47:12Z</time>
<desc>lat.=42.626789, lon.=18.681013, Alt.=646.602051m. Speed=87.335999m/h.</desc>
<speed>24.260000</speed>
</trkpt>
<trkpt lat="42.625702" lon="18.680786">
<ele>625.6</ele>
<time>2012-05-02T06:47:17Z</time>
<desc>lat.=42.625702, lon.=18.680786, Alt.=638.258301m. Speed=89.963997m/h.</desc>
<speed>24.989999</speed>
</trkpt>
<trkpt lat="42.620987" lon="18.681471">
<ele>611.8</ele>
<time>2012-05-02T06:47:37Z</time>
<desc>lat.=42.620987, lon.=18.681471, Alt.=622.586426m. Speed=90.612000m/h.</desc>
<speed>25.170000</speed>
</trkpt>
<trkpt lat="42.615303" lon="18.681810">
<ele>616.4</ele>
<time>2012-05-02T06:48:02Z</time>
<desc>lat.=42.615303, lon.=18.681810, Alt.=623.430176m. Speed=92.375999m/h.</desc>
<speed>25.660000</speed>
</trkpt>
<trkpt lat="42.614159" lon="18.682079">
<ele>615.6</ele>
<time>2012-05-02T06:48:07Z</time>
<desc>lat.=42.614159, lon.=18.682079, Alt.=623.492676m. Speed=93.384003m/h.</desc>
<speed>25.940001</speed>
</trkpt>
<trkpt lat="42.611885" lon="18.683043">
<ele>615.6</ele>
<time>2012-05-02T06:48:17Z</time>
<desc>lat.=42.611885, lon.=18.683043, Alt.=623.461426m. Speed=96.660004m/h.</desc>
<speed>26.850001</speed>
</trkpt>
<trkpt lat="42.605423" lon="18.687777">
<ele>616.8</ele>
<time>2012-05-02T06:48:47Z</time>
<desc>lat.=42.605423, lon.=18.687777, Alt.=625.055176m. Speed=97.199997m/h.</desc>
<speed>26.999999</speed>
</trkpt>
<trkpt lat="42.603233" lon="18.689037">
<ele>617.0</ele>
<time>2012-05-02T06:48:57Z</time>
<desc>lat.=42.603233, lon.=18.689037, Alt.=625.383301m. Speed=93.744003m/h.</desc>
<speed>26.040001</speed>
</trkpt>
<trkpt lat="42.599869" lon="18.690142">
<ele>619.3</ele>
<time>2012-05-02T06:49:12Z</time>
<desc>lat.=42.599869, lon.=18.690142, Alt.=627.945801m. Speed=92.556000m/h.</desc>
<speed>25.710000</speed>
</trkpt>
<trkpt lat="42.597553" lon="18.690372">
<ele>620.5</ele>
<time>2012-05-02T06:49:22Z</time>
<desc>lat.=42.597553, lon.=18.690372, Alt.=629.539551m. Speed=93.456001m/h.</desc>
<speed>25.960000</speed>
</trkpt>
<trkpt lat="42.595211" lon="18.690203">
<ele>622.2</ele>
<time>2012-05-02T06:49:32Z</time>
<desc>lat.=42.595211, lon.=18.690203, Alt.=630.180176m. Speed=94.176003m/h.</desc>
<speed>26.160001</speed>
</trkpt>
<trkpt lat="42.592892" lon="18.689606">
<ele>624.2</ele>
<time>2012-05-02T06:49:42Z</time>
<desc>lat.=42.592892, lon.=18.689606, Alt.=632.164551m. Speed=93.708000m/h.</desc>
<speed>26.030000</speed>
</trkpt>
<trkpt lat="42.590660" lon="18.688631">
<ele>626.6</ele>
<time>2012-05-02T06:49:52Z</time>
<desc>lat.=42.590660, lon.=18.688631, Alt.=634.336426m. Speed=93.167999m/h.</desc>
<speed>25.880000</speed>
</trkpt>
<trkpt lat="42.587391" lon="18.686806">
<ele>626.2</ele>
<time>2012-05-02T06:50:07Z</time>
<desc>lat.=42.587391, lon.=18.686806, Alt.=634.008301m. Speed=96.407997m/h.</desc>
<speed>26.779999</speed>
</trkpt>
<trkpt lat="42.586231" lon="18.686399">
<ele>624.8</ele>
<time>2012-05-02T06:50:12Z</time>
<desc>lat.=42.586231, lon.=18.686399, Alt.=632.180176m. Speed=95.112000m/h.</desc>
<speed>26.420000</speed>
</trkpt>
<trkpt lat="42.585033" lon="18.686272">
<ele>623.0</ele>
<time>2012-05-02T06:50:17Z</time>
<desc>lat.=42.585033, lon.=18.686272, Alt.=629.727051m. Speed=98.316002m/h.</desc>
<speed>27.310001</speed>
</trkpt>
<trkpt lat="42.581482" lon="18.687050">
<ele>614.2</ele>
<time>2012-05-02T06:50:32Z</time>
<desc>lat.=42.581482, lon.=18.687050, Alt.=620.023926m. Speed=91.115997m/h.</desc>
<speed>25.309999</speed>
</trkpt>
<trkpt lat="42.579128" lon="18.686924">
<ele>610.9</ele>
<time>2012-05-02T06:50:42Z</time>
<desc>lat.=42.579128, lon.=18.686924, Alt.=615.758301m. Speed=96.804001m/h.</desc>
<speed>26.890000</speed>
</trkpt>
<trkpt lat="42.576870" lon="18.687067">
<ele>617.1</ele>
<time>2012-05-02T06:50:52Z</time>
<desc>lat.=42.576870, lon.=18.687067, Alt.=623.289551m. Speed=82.727997m/h.</desc>
<speed>22.979999</speed>
</trkpt>
<trkpt lat="42.574974" lon="18.686518">
<ele>631.1</ele>
<time>2012-05-02T06:51:02Z</time>
<desc>lat.=42.574974, lon.=18.686518, Alt.=634.508301m. Speed=72.900002m/h.</desc>
<speed>20.250000</speed>
</trkpt>
<trkpt lat="42.574074" lon="18.686642">
<ele>643.2</ele>
<time>2012-05-02T06:51:07Z</time>
<desc>lat.=42.574074, lon.=18.686642, Alt.=639.852051m. Speed=74.664001m/h.</desc>
<speed>20.740000</speed>
</trkpt>
<trkpt lat="42.573299" lon="18.687237">
<ele>643.4</ele>
<time>2012-05-02T06:51:12Z</time>
<desc>lat.=42.573299, lon.=18.687237, Alt.=644.664551m. Speed=68.075996m/h.</desc>
<speed>18.909999</speed>
</trkpt>
<trkpt lat="42.572010" lon="18.688660">
<ele>653.2</ele>
<time>2012-05-02T06:51:22Z</time>
<desc>lat.=42.572010, lon.=18.688660, Alt.=653.898926m. Speed=66.564003m/h.</desc>
<speed>18.490001</speed>
</trkpt>
<trkpt lat="42.570370" lon="18.689215">
<ele>660.7</ele>
<time>2012-05-02T06:51:32Z</time>
<desc>lat.=42.570370, lon.=18.689215, Alt.=659.492676m. Speed=71.639999m/h.</desc>
<speed>19.900000</speed>
</trkpt>
<trkpt lat="42.569557" lon="18.689804">
<ele>651.5</ele>
<time>2012-05-02T06:51:37Z</time>
<desc>lat.=42.569557, lon.=18.689804, Alt.=660.445801m. Speed=75.528000m/h.</desc>
<speed>20.980000</speed>
</trkpt>
<trkpt lat="42.568840" lon="18.690710">
<ele>666.7</ele>
<time>2012-05-02T06:51:42Z</time>
<desc>lat.=42.568840, lon.=18.690710, Alt.=661.445801m. Speed=80.351997m/h.</desc>
<speed>22.319999</speed>
</trkpt>
<trkpt lat="42.567951" lon="18.692884">
<ele>696.5</ele>
<time>2012-05-02T06:51:52Z</time>
<desc>lat.=42.567951, lon.=18.692884, Alt.=662.742676m. Speed=64.260002m/h.</desc>
<speed>17.850001</speed>
</trkpt>
<trkpt lat="42.565945" lon="18.695465">
<ele>671.1</ele>
<time>2012-05-02T06:52:08Z</time>
<desc>lat.=42.565945, lon.=18.695465, Alt.=663.820801m. Speed=69.480003m/h.</desc>
<speed>19.300001</speed>
</trkpt>
<trkpt lat="42.565174" lon="18.697556">
<ele>657.8</ele>
<time>2012-05-02T06:52:18Z</time>
<desc>lat.=42.565174, lon.=18.697556, Alt.=664.805176m. Speed=68.867996m/h.</desc>
<speed>19.129999</speed>
</trkpt>
<trkpt lat="42.564636" lon="18.698372">
<ele>653.5</ele>
<time>2012-05-02T06:52:23Z</time>
<desc>lat.=42.564636, lon.=18.698372, Alt.=665.289551m. Speed=64.080002m/h.</desc>
<speed>17.800001</speed>
</trkpt>
<trkpt lat="42.564350" lon="18.699318">
<ele>662.7</ele>
<time>2012-05-02T06:52:28Z</time>
<desc>lat.=42.564350, lon.=18.699318, Alt.=666.664551m. Speed=59.652000m/h.</desc>
<speed>16.570000</speed>
</trkpt>
<trkpt lat="42.564453" lon="18.700356">
<ele>670.0</ele>
<time>2012-05-02T06:52:33Z</time>
<desc>lat.=42.564453, lon.=18.700356, Alt.=669.195801m. Speed=61.992001m/h.</desc>
<speed>17.220000</speed>
</trkpt>
<trkpt lat="42.564976" lon="18.701105">
<ele>655.9</ele>
<time>2012-05-02T06:52:38Z</time>
<desc>lat.=42.564976, lon.=18.701105, Alt.=668.898926m. Speed=61.200001m/h.</desc>
<speed>17.000000</speed>
</trkpt>
<trkpt lat="42.566498" lon="18.701830">
<ele>654.7</ele>
<time>2012-05-02T06:52:48Z</time>
<desc>lat.=42.566498, lon.=18.701830, Alt.=671.398926m. Speed=62.748001m/h.</desc>
<speed>17.430000</speed>
</trkpt>
<trkpt lat="42.566856" lon="18.702753">
<ele>662.1</ele>
<time>2012-05-02T06:52:53Z</time>
<desc>lat.=42.566856, lon.=18.702753, Alt.=673.492676m. Speed=65.052002m/h.</desc>
<speed>18.070001</speed>
</trkpt>
<trkpt lat="42.566200" lon="18.706112">
<ele>668.7</ele>
<time>2012-05-02T06:53:08Z</time>
<desc>lat.=42.566200, lon.=18.706112, Alt.=679.117676m. Speed=69.335999m/h.</desc>
<speed>19.260000</speed>
</trkpt>
<trkpt lat="42.565845" lon="18.707218">
<ele>683.0</ele>
<time>2012-05-02T06:53:13Z</time>
<desc>lat.=42.565845, lon.=18.707218, Alt.=684.477051m. Speed=73.980003m/h.</desc>
<speed>20.550001</speed>
</trkpt>
<trkpt lat="42.565220" lon="18.708166">
<ele>683.5</ele>
<time>2012-05-02T06:53:18Z</time>
<desc>lat.=42.565220, lon.=18.708166, Alt.=688.773926m. Speed=77.543999m/h.</desc>
<speed>21.540000</speed>
</trkpt>
<trkpt lat="42.564323" lon="18.708826">
<ele>685.1</ele>
<time>2012-05-02T06:53:23Z</time>
<desc>lat.=42.564323, lon.=18.708826, Alt.=691.305176m. Speed=82.835999m/h.</desc>
<speed>23.010000</speed>
</trkpt>
<trkpt lat="42.563274" lon="18.709042">
<ele>691.7</ele>
<time>2012-05-02T06:53:28Z</time>
<desc>lat.=42.563274, lon.=18.709042, Alt.=691.352051m. Speed=86.040001m/h.</desc>
<speed>23.900000</speed>
</trkpt>
<trkpt lat="42.558846" lon="18.709234">
<ele>678.6</ele>
<time>2012-05-02T06:53:48Z</time>
<desc>lat.=42.558846, lon.=18.709234, Alt.=690.320801m. Speed=89.820000m/h.</desc>
<speed>24.950000</speed>
</trkpt>
<trkpt lat="42.557796" lon="18.709513">
<ele>675.9</ele>
<time>2012-05-02T06:53:53Z</time>
<desc>lat.=42.557796, lon.=18.709513, Alt.=691.023926m. Speed=82.764000m/h.</desc>
<speed>22.990000</speed>
</trkpt>
<trkpt lat="42.556877" lon="18.710161">
<ele>681.1</ele>
<time>2012-05-02T06:53:58Z</time>
<desc>lat.=42.556877, lon.=18.710161, Alt.=691.508301m. Speed=83.375999m/h.</desc>
<speed>23.160000</speed>
</trkpt>
<trkpt lat="42.555340" lon="18.712069">
<ele>686.2</ele>
<time>2012-05-02T06:54:08Z</time>
<desc>lat.=42.555340, lon.=18.712069, Alt.=692.883301m. Speed=83.375999m/h.</desc>
<speed>23.160000</speed>
</trkpt>
<trkpt lat="42.554390" lon="18.712711">
<ele>686.5</ele>
<time>2012-05-02T06:54:13Z</time>
<desc>lat.=42.554390, lon.=18.712711, Alt.=693.336426m. Speed=86.292000m/h.</desc>
<speed>23.970000</speed>
</trkpt>
<trkpt lat="42.552261" lon="18.713230">
<ele>688.6</ele>
<time>2012-05-02T06:54:23Z</time>
<desc>lat.=42.552261, lon.=18.713230, Alt.=694.367676m. Speed=85.931999m/h.</desc>
<speed>23.870000</speed>
</trkpt>
<trkpt lat="42.551292" lon="18.713697">
<ele>686.4</ele>
<time>2012-05-02T06:54:28Z</time>
<desc>lat.=42.551292, lon.=18.713697, Alt.=694.695801m. Speed=77.832001m/h.</desc>
<speed>21.620000</speed>
</trkpt>
<trkpt lat="42.550377" lon="18.713812">
<ele>691.5</ele>
<time>2012-05-02T06:54:33Z</time>
<desc>lat.=42.550377, lon.=18.713812, Alt.=694.508301m. Speed=71.748001m/h.</desc>
<speed>19.930000</speed>
</trkpt>
<trkpt lat="42.549530" lon="18.713524">
<ele>694.0</ele>
<time>2012-05-02T06:54:38Z</time>
<desc>lat.=42.549530, lon.=18.713524, Alt.=691.898926m. Speed=69.552002m/h.</desc>
<speed>19.320001</speed>
</trkpt>
<trkpt lat="42.548798" lon="18.712872">
<ele>695.6</ele>
<time>2012-05-02T06:54:43Z</time>
<desc>lat.=42.548798, lon.=18.712872, Alt.=687.586426m. Speed=73.655998m/h.</desc>
<speed>20.460000</speed>
</trkpt>
<trkpt lat="42.548042" lon="18.712101">
<ele>699.3</ele>
<time>2012-05-02T06:54:48Z</time>
<desc>lat.=42.548042, lon.=18.712101, Alt.=685.383301m. Speed=74.627998m/h.</desc>
<speed>20.730000</speed>
</trkpt>
<trkpt lat="42.547386" lon="18.711113">
<ele>659.4</ele>
<time>2012-05-02T06:54:53Z</time>
<desc>lat.=42.547386, lon.=18.711113, Alt.=682.398926m. Speed=80.208000m/h.</desc>
<speed>22.280000</speed>
</trkpt>
<trkpt lat="42.546547" lon="18.710350">
<ele>655.6</ele>
<time>2012-05-02T06:54:58Z</time>
<desc>lat.=42.546547, lon.=18.710350, Alt.=674.336426m. Speed=76.536003m/h.</desc>
<speed>21.260001</speed>
</trkpt>
<trkpt lat="42.546021" lon="18.709278">
<ele>653.1</ele>
<time>2012-05-02T06:55:03Z</time>
<desc>lat.=42.546021, lon.=18.709278, Alt.=665.430176m. Speed=77.867996m/h.</desc>
<speed>21.629999</speed>
</trkpt>
<trkpt lat="42.545765" lon="18.708014">
<ele>638.9</ele>
<time>2012-05-02T06:55:08Z</time>
<desc>lat.=42.545765, lon.=18.708014, Alt.=656.977051m. Speed=73.403999m/h.</desc>
<speed>20.390000</speed>
</trkpt>
<trkpt lat="42.544895" lon="18.705795">
<ele>627.1</ele>
<time>2012-05-02T06:55:18Z</time>
<desc>lat.=42.544895, lon.=18.705795, Alt.=640.164551m. Speed=76.211998m/h.</desc>
<speed>21.169999</speed>
</trkpt>
<trkpt lat="42.544724" lon="18.704500">
<ele>617.2</ele>
<time>2012-05-02T06:55:23Z</time>
<desc>lat.=42.544724, lon.=18.704500, Alt.=632.164551m. Speed=77.508003m/h.</desc>
<speed>21.530001</speed>
</trkpt>
<trkpt lat="42.544346" lon="18.703281">
<ele>611.4</ele>
<time>2012-05-02T06:55:28Z</time>
<desc>lat.=42.544346, lon.=18.703281, Alt.=624.336426m. Speed=80.459999m/h.</desc>
<speed>22.350000</speed>
</trkpt>
<trkpt lat="42.543579" lon="18.702374">
<ele>602.8</ele>
<time>2012-05-02T06:55:33Z</time>
<desc>lat.=42.543579, lon.=18.702374, Alt.=616.039551m. Speed=84.419998m/h.</desc>
<speed>23.449999</speed>
</trkpt>
<trkpt lat="42.541676" lon="18.701353">
<ele>601.7</ele>
<time>2012-05-02T06:55:43Z</time>
<desc>lat.=42.541676, lon.=18.701353, Alt.=603.398926m. Speed=74.736000m/h.</desc>
<speed>20.760000</speed>
</trkpt>
<trkpt lat="42.541054" lon="18.700487">
<ele>638.8</ele>
<time>2012-05-02T06:55:48Z</time>
<desc>lat.=42.541054, lon.=18.700487, Alt.=598.320801m. Speed=72.503998m/h.</desc>
<speed>20.139999</speed>
</trkpt>
<trkpt lat="42.540745" lon="18.697554">
<ele>589.0</ele>
<time>2012-05-02T06:56:04Z</time>
<desc>lat.=42.540745, lon.=18.697554, Alt.=605.055176m. Speed=51.299999m/h.</desc>
<speed>14.250000</speed>
</trkpt>
<trkpt lat="42.540890" lon="18.696775">
<ele>584.1</ele>
<time>2012-05-02T06:56:09Z</time>
<desc>lat.=42.540890, lon.=18.696775, Alt.=594.633301m. Speed=51.911999m/h.</desc>
<speed>14.420000</speed>
</trkpt>
<trkpt lat="42.541561" lon="18.695124">
<ele>571.8</ele>
<time>2012-05-02T06:56:19Z</time>
<desc>lat.=42.541561, lon.=18.695124, Alt.=588.414551m. Speed=58.104000m/h.</desc>
<speed>16.140000</speed>
</trkpt>
<trkpt lat="42.541637" lon="18.694168">
<ele>568.2</ele>
<time>2012-05-02T06:56:24Z</time>
<desc>lat.=42.541637, lon.=18.694168, Alt.=585.992676m. Speed=56.987999m/h.</desc>
<speed>15.830000</speed>
</trkpt>
<trkpt lat="42.541447" lon="18.693239">
<ele>571.3</ele>
<time>2012-05-02T06:56:29Z</time>
<desc>lat.=42.541447, lon.=18.693239, Alt.=585.367676m. Speed=59.147999m/h.</desc>
<speed>16.430000</speed>
</trkpt>
<trkpt lat="42.540569" lon="18.691504">
<ele>576.4</ele>
<time>2012-05-02T06:56:39Z</time>
<desc>lat.=42.540569, lon.=18.691504, Alt.=585.867676m. Speed=66.671997m/h.</desc>
<speed>18.519999</speed>
</trkpt>
<trkpt lat="42.540215" lon="18.690468">
<ele>576.7</ele>
<time>2012-05-02T06:56:44Z</time>
<desc>lat.=42.540215, lon.=18.690468, Alt.=586.758301m. Speed=65.267998m/h.</desc>
<speed>18.129999</speed>
</trkpt>
<trkpt lat="42.539604" lon="18.689753">
<ele>576.1</ele>
<time>2012-05-02T06:56:49Z</time>
<desc>lat.=42.539604, lon.=18.689753, Alt.=586.133301m. Speed=65.375999m/h.</desc>
<speed>18.160000</speed>
</trkpt>
<trkpt lat="42.537926" lon="18.689260">
<ele>575.9</ele>
<time>2012-05-02T06:56:59Z</time>
<desc>lat.=42.537926, lon.=18.689260, Alt.=583.992676m. Speed=68.652000m/h.</desc>
<speed>19.070000</speed>
</trkpt>
<trkpt lat="42.537231" lon="18.688595">
<ele>579.1</ele>
<time>2012-05-02T06:57:04Z</time>
<desc>lat.=42.537231, lon.=18.688595, Alt.=579.945801m. Speed=67.211998m/h.</desc>
<speed>18.669999</speed>
</trkpt>
<trkpt lat="42.536846" lon="18.687616">
<ele>574.9</ele>
<time>2012-05-02T06:57:09Z</time>
<desc>lat.=42.536846, lon.=18.687616, Alt.=574.430176m. Speed=65.087997m/h.</desc>
<speed>18.079999</speed>
</trkpt>
<trkpt lat="42.536808" lon="18.686571">
<ele>562.4</ele>
<time>2012-05-02T06:57:14Z</time>
<desc>lat.=42.536808, lon.=18.686571, Alt.=568.977051m. Speed=59.147999m/h.</desc>
<speed>16.430000</speed>
</trkpt>
<trkpt lat="42.537891" lon="18.682964">
<ele>555.5</ele>
<time>2012-05-02T06:57:34Z</time>
<desc>lat.=42.537891, lon.=18.682964, Alt.=564.617676m. Speed=54.683998m/h.</desc>
<speed>15.189999</speed>
</trkpt>
<trkpt lat="42.538185" lon="18.680260">
<ele>547.3</ele>
<time>2012-05-02T06:57:49Z</time>
<desc>lat.=42.538185, lon.=18.680260, Alt.=561.445801m. Speed=56.591999m/h.</desc>
<speed>15.720000</speed>
</trkpt>
<trkpt lat="42.538738" lon="18.677589">
<ele>543.4</ele>
<time>2012-05-02T06:58:04Z</time>
<desc>lat.=42.538738, lon.=18.677589, Alt.=553.852051m. Speed=49.824001m/h.</desc>
<speed>13.840000</speed>
</trkpt>
<trkpt lat="42.538612" lon="18.676756">
<ele>539.1</ele>
<time>2012-05-02T06:58:09Z</time>
<desc>lat.=42.538612, lon.=18.676756, Alt.=550.602051m. Speed=52.452000m/h.</desc>
<speed>14.570000</speed>
</trkpt>
<trkpt lat="42.538139" lon="18.676125">
<ele>535.3</ele>
<time>2012-05-02T06:58:14Z</time>
<desc>lat.=42.538139, lon.=18.676125, Alt.=546.305176m. Speed=54.324001m/h.</desc>
<speed>15.090000</speed>
</trkpt>
<trkpt lat="42.537457" lon="18.675983">
<ele>532.6</ele>
<time>2012-05-02T06:58:19Z</time>
<desc>lat.=42.537457, lon.=18.675983, Alt.=541.836426m. Speed=56.160000m/h.</desc>
<speed>15.600000</speed>
</trkpt>
<trkpt lat="42.536831" lon="18.676437">
<ele>528.3</ele>
<time>2012-05-02T06:58:24Z</time>
<desc>lat.=42.536831, lon.=18.676437, Alt.=537.430176m. Speed=57.492001m/h.</desc>
<speed>15.970000</speed>
</trkpt>
<trkpt lat="42.536541" lon="18.677338">
<ele>532.1</ele>
<time>2012-05-02T06:58:29Z</time>
<desc>lat.=42.536541, lon.=18.677338, Alt.=532.789551m. Speed=58.355999m/h.</desc>
<speed>16.210000</speed>
</trkpt>
<trkpt lat="42.536293" lon="18.679340">
<ele>513.0</ele>
<time>2012-05-02T06:58:39Z</time>
<desc>lat.=42.536293, lon.=18.679340, Alt.=521.102051m. Speed=60.840000m/h.</desc>
<speed>16.900000</speed>
</trkpt>
<trkpt lat="42.535526" lon="18.681049">
<ele>510.2</ele>
<time>2012-05-02T06:58:49Z</time>
<desc>lat.=42.535526, lon.=18.681049, Alt.=512.305176m. Speed=59.436001m/h.</desc>
<speed>16.510000</speed>
</trkpt>
<trkpt lat="42.535091" lon="18.684145">
<ele>489.0</ele>
<time>2012-05-02T06:59:04Z</time>
<desc>lat.=42.535091, lon.=18.684145, Alt.=494.371338m. Speed=61.596001m/h.</desc>
<speed>17.110000</speed>
</trkpt>
<trkpt lat="42.534649" lon="18.685022">
<ele>475.9</ele>
<time>2012-05-02T06:59:09Z</time>
<desc>lat.=42.534649, lon.=18.685022, Alt.=491.652588m. Speed=63.863998m/h.</desc>
<speed>17.740000</speed>
</trkpt>
<trkpt lat="42.534008" lon="18.685619">
<ele>472.9</ele>
<time>2012-05-02T06:59:14Z</time>
<desc>lat.=42.534008, lon.=18.685619, Alt.=486.863525m. Speed=64.440002m/h.</desc>
<speed>17.900001</speed>
</trkpt>
<trkpt lat="42.532455" lon="18.685926">
<ele>458.9</ele>
<time>2012-05-02T06:59:24Z</time>
<desc>lat.=42.532455, lon.=18.685926, Alt.=475.863525m. Speed=60.948002m/h.</desc>
<speed>16.930001</speed>
</trkpt>
<trkpt lat="42.530968" lon="18.686491">
<ele>450.0</ele>
<time>2012-05-02T06:59:34Z</time>
<desc>lat.=42.530968, lon.=18.686491, Alt.=462.972900m. Speed=58.644001m/h.</desc>
<speed>16.290000</speed>
</trkpt>
<trkpt lat="42.530254" lon="18.686422">
<ele>438.2</ele>
<time>2012-05-02T06:59:39Z</time>
<desc>lat.=42.530254, lon.=18.686422, Alt.=456.543213m. Speed=56.268002m/h.</desc>
<speed>15.630000</speed>
</trkpt>
<trkpt lat="42.527264" lon="18.685472">
<ele>418.9</ele>
<time>2012-05-02T06:59:59Z</time>
<desc>lat.=42.527264, lon.=18.685472, Alt.=430.527588m. Speed=64.188004m/h.</desc>
<speed>17.830001</speed>
</trkpt>
<trkpt lat="42.525780" lon="18.684805">
<ele>412.5</ele>
<time>2012-05-02T07:00:09Z</time>
<desc>lat.=42.525780, lon.=18.684805, Alt.=417.566650m. Speed=61.236000m/h.</desc>
<speed>17.010000</speed>
</trkpt>
<trkpt lat="42.523441" lon="18.685308">
<ele>390.9</ele>
<time>2012-05-02T07:00:24Z</time>
<desc>lat.=42.523441, lon.=18.685308, Alt.=400.254150m. Speed=56.664001m/h.</desc>
<speed>15.740000</speed>
</trkpt>
<trkpt lat="42.522758" lon="18.685352">
<ele>386.4</ele>
<time>2012-05-02T07:00:29Z</time>
<desc>lat.=42.522758, lon.=18.685352, Alt.=394.105713m. Speed=54.216000m/h.</desc>
<speed>15.060000</speed>
</trkpt>
<trkpt lat="42.522133" lon="18.685049">
<ele>371.1</ele>
<time>2012-05-02T07:00:34Z</time>
<desc>lat.=42.522133, lon.=18.685049, Alt.=388.886963m. Speed=53.891998m/h.</desc>
<speed>14.970000</speed>
</trkpt>
<trkpt lat="42.521664" lon="18.684387">
<ele>369.8</ele>
<time>2012-05-02T07:00:39Z</time>
<desc>lat.=42.521664, lon.=18.684387, Alt.=383.621338m. Speed=54.792000m/h.</desc>
<speed>15.220000</speed>
</trkpt>
<trkpt lat="42.521061" lon="18.682831">
<ele>365.1</ele>
<time>2012-05-02T07:00:49Z</time>
<desc>lat.=42.521061, lon.=18.682831, Alt.=374.105713m. Speed=49.104000m/h.</desc>
<speed>13.640000</speed>
</trkpt>
<trkpt lat="42.519962" lon="18.681868">
<ele>364.7</ele>
<time>2012-05-02T07:00:59Z</time>
<desc>lat.=42.519962, lon.=18.681868, Alt.=363.496338m. Speed=54.972000m/h.</desc>
<speed>15.270000</speed>
</trkpt>
<trkpt lat="42.519733" lon="18.680988">
<ele>351.3</ele>
<time>2012-05-02T07:01:04Z</time>
<desc>lat.=42.519733, lon.=18.680988, Alt.=357.941650m. Speed=56.987999m/h.</desc>
<speed>15.830000</speed>
</trkpt>
<trkpt lat="42.519886" lon="18.679062">
<ele>343.1</ele>
<time>2012-05-02T07:01:14Z</time>
<desc>lat.=42.519886, lon.=18.679062, Alt.=347.152588m. Speed=56.375999m/h.</desc>
<speed>15.660000</speed>
</trkpt>
<trkpt lat="42.519646" lon="18.678154">
<ele>334.6</ele>
<time>2012-05-02T07:01:19Z</time>
<desc>lat.=42.519646, lon.=18.678154, Alt.=341.605713m. Speed=58.068001m/h.</desc>
<speed>16.130000</speed>
</trkpt>
<trkpt lat="42.519154" lon="18.677408">
<ele>327.8</ele>
<time>2012-05-02T07:01:24Z</time>
<desc>lat.=42.519154, lon.=18.677408, Alt.=335.824463m. Speed=60.192001m/h.</desc>
<speed>16.720000</speed>
</trkpt>
<trkpt lat="42.517941" lon="18.675970">
<ele>321.1</ele>
<time>2012-05-02T07:01:34Z</time>
<desc>lat.=42.517941, lon.=18.675970, Alt.=322.918213m. Speed=67.103996m/h.</desc>
<speed>18.639999</speed>
</trkpt>
<trkpt lat="42.515491" lon="18.674601">
<ele>304.9</ele>
<time>2012-05-02T07:01:49Z</time>
<desc>lat.=42.515491, lon.=18.674601, Alt.=304.457275m. Speed=68.940002m/h.</desc>
<speed>19.150001</speed>
</trkpt>
<trkpt lat="42.513905" lon="18.674269">
<ele>294.4</ele>
<time>2012-05-02T07:01:59Z</time>
<desc>lat.=42.513905, lon.=18.674269, Alt.=296.301025m. Speed=60.299999m/h.</desc>
<speed>16.750000</speed>
</trkpt>
<trkpt lat="42.512020" lon="18.672592">
<ele>300.8</ele>
<time>2012-05-02T07:02:14Z</time>
<desc>lat.=42.512020, lon.=18.672592, Alt.=288.308838m. Speed=61.992001m/h.</desc>
<speed>17.220000</speed>
</trkpt>
<trkpt lat="42.511456" lon="18.671879">
<ele>332.2</ele>
<time>2012-05-02T07:02:19Z</time>
<desc>lat.=42.511456, lon.=18.671879, Alt.=287.191650m. Speed=64.008003m/h.</desc>
<speed>17.780001</speed>
</trkpt>
<trkpt lat="42.510345" lon="18.668560">
<ele>281.0</ele>
<time>2012-05-02T07:02:40Z</time>
<desc>lat.=42.510345, lon.=18.668560, Alt.=266.722900m. Speed=50.363998m/h.</desc>
<speed>13.990000</speed>
</trkpt>
<trkpt lat="42.509670" lon="18.665918">
<ele>255.8</ele>
<time>2012-05-02T07:02:55Z</time>
<desc>lat.=42.509670, lon.=18.665918, Alt.=258.004150m. Speed=51.624001m/h.</desc>
<speed>14.340000</speed>
</trkpt>
<trkpt lat="42.509178" lon="18.665358">
<ele>257.6</ele>
<time>2012-05-02T07:03:00Z</time>
<desc>lat.=42.509178, lon.=18.665358, Alt.=252.017700m. Speed=52.812000m/h.</desc>
<speed>14.670000</speed>
</trkpt>
<trkpt lat="42.507912" lon="18.664627">
<ele>267.1</ele>
<time>2012-05-02T07:03:10Z</time>
<desc>lat.=42.507912, lon.=18.664627, Alt.=247.072388m. Speed=55.692001m/h.</desc>
<speed>15.470000</speed>
</trkpt>
<trkpt lat="42.506195" lon="18.662329">
<ele>232.8</ele>
<time>2012-05-02T07:03:29Z</time>
<desc>lat.=42.506195, lon.=18.662329, Alt.=235.416138m. Speed=51.480000m/h.</desc>
<speed>14.300000</speed>
</trkpt>
<trkpt lat="42.503525" lon="18.660027">
<ele>211.3</ele>
<time>2012-05-02T07:03:53Z</time>
<desc>lat.=42.503525, lon.=18.660027, Alt.=239.041138m. Speed=52.848000m/h.</desc>
<speed>14.680000</speed>
</trkpt>
<trkpt lat="42.503147" lon="18.659328">
<ele>226.8</ele>
<time>2012-05-02T07:03:58Z</time>
<desc>lat.=42.503147, lon.=18.659328, Alt.=238.705200m. Speed=50.292000m/h.</desc>
<speed>13.970000</speed>
</trkpt>
<trkpt lat="42.502117" lon="18.656368">
<ele>193.3</ele>
<time>2012-05-02T07:04:15Z</time>
<desc>lat.=42.502117, lon.=18.656368, Alt.=221.127075m. Speed=53.784000m/h.</desc>
<speed>14.940000</speed>
</trkpt>
<trkpt lat="42.500523" lon="18.654478">
<ele>178.8</ele>
<time>2012-05-02T07:04:30Z</time>
<desc>lat.=42.500523, lon.=18.654478, Alt.=182.365356m. Speed=62.459999m/h.</desc>
<speed>17.350000</speed>
</trkpt>
<trkpt lat="42.499577" lon="18.652821">
<ele>163.3</ele>
<time>2012-05-02T07:04:40Z</time>
<desc>lat.=42.499577, lon.=18.652821, Alt.=175.420044m. Speed=57.599998m/h.</desc>
<speed>16.000000</speed>
</trkpt>
<trkpt lat="42.498386" lon="18.651751">
<ele>159.7</ele>
<time>2012-05-02T07:04:50Z</time>
<desc>lat.=42.498386, lon.=18.651751, Alt.=166.181763m. Speed=69.335999m/h.</desc>
<speed>19.260000</speed>
</trkpt>
<trkpt lat="42.496456" lon="18.649521">
<ele>146.2</ele>
<time>2012-05-02T07:05:05Z</time>
<desc>lat.=42.496456, lon.=18.649521, Alt.=153.302856m. Speed=60.804001m/h.</desc>
<speed>16.890000</speed>
</trkpt>
<trkpt lat="42.495289" lon="18.648743">
<ele>134.5</ele>
<time>2012-05-02T07:05:15Z</time>
<desc>lat.=42.495289, lon.=18.648743, Alt.=141.982544m. Speed=50.112000m/h.</desc>
<speed>13.920000</speed>
</trkpt>
<trkpt lat="42.494019" lon="18.646608">
<ele>114.4</ele>
<time>2012-05-02T07:05:30Z</time>
<desc>lat.=42.494019, lon.=18.646608, Alt.=126.112366m. Speed=56.124001m/h.</desc>
<speed>15.590000</speed>
</trkpt>
<trkpt lat="42.492016" lon="18.645388">
<ele>103.3</ele>
<time>2012-05-02T07:05:45Z</time>
<desc>lat.=42.492016, lon.=18.645388, Alt.=110.682678m. Speed=54.647999m/h.</desc>
<speed>15.180000</speed>
</trkpt>
<trkpt lat="42.491592" lon="18.644653">
<ele>95.6</ele>
<time>2012-05-02T07:05:50Z</time>
<desc>lat.=42.491592, lon.=18.644653, Alt.=106.469788m. Speed=57.096001m/h.</desc>
<speed>15.860000</speed>
</trkpt>
<trkpt lat="42.491016" lon="18.643063">
<ele>89.3</ele>
<time>2012-05-02T07:06:00Z</time>
<desc>lat.=42.491016, lon.=18.643063, Alt.=98.475647m. Speed=48.995998m/h.</desc>
<speed>13.610000</speed>
</trkpt>
<trkpt lat="42.490192" lon="18.641945">
<ele>85.3</ele>
<time>2012-05-02T07:06:15Z</time>
<desc>lat.=42.490192, lon.=18.641945, Alt.=92.772522m. Speed=19.584000m/h.</desc>
<speed>5.440000</speed>
</trkpt>
<trkpt lat="42.489994" lon="18.642096">
<ele>82.4</ele>
<time>2012-05-02T07:06:20Z</time>
<desc>lat.=42.489994, lon.=18.642096, Alt.=92.288147m. Speed=25.056000m/h.</desc>
<speed>6.960000</speed>
</trkpt>
<trkpt lat="42.490948" lon="18.643906">
<ele>72.4</ele>
<time>2012-05-02T07:06:35Z</time>
<desc>lat.=42.490948, lon.=18.643906, Alt.=83.262756m. Speed=49.355999m/h.</desc>
<speed>13.710000</speed>
</trkpt>
<trkpt lat="42.490898" lon="18.646378">
<ele>60.1</ele>
<time>2012-05-02T07:06:50Z</time>
<desc>lat.=42.490898, lon.=18.646378, Alt.=71.141663m. Speed=48.708000m/h.</desc>
<speed>13.530000</speed>
</trkpt>
<trkpt lat="42.491196" lon="18.647099">
<ele>60.6</ele>
<time>2012-05-02T07:06:55Z</time>
<desc>lat.=42.491196, lon.=18.647099, Alt.=67.194397m. Speed=47.484001m/h.</desc>
<speed>13.190000</speed>
</trkpt>
<trkpt lat="42.492203" lon="18.647877">
<ele>48.7</ele>
<time>2012-05-02T07:07:05Z</time>
<desc>lat.=42.492203, lon.=18.647877, Alt.=59.717316m. Speed=45.540001m/h.</desc>
<speed>12.650000</speed>
</trkpt>
<trkpt lat="42.494007" lon="18.650297">
<ele>30.4</ele>
<time>2012-05-02T07:07:20Z</time>
<desc>lat.=42.494007, lon.=18.650297, Alt.=39.902863m. Speed=74.772003m/h.</desc>
<speed>20.770001</speed>
</trkpt>
<trkpt lat="42.495007" lon="18.652182">
<ele>8.6</ele>
<time>2012-05-02T07:07:30Z</time>
<desc>lat.=42.495007, lon.=18.652182, Alt.=26.315689m. Speed=60.084000m/h.</desc>
<speed>16.690000</speed>
</trkpt>
<trkpt lat="42.495625" lon="18.654644">
<ele>0.5</ele>
<time>2012-05-02T07:07:50Z</time>
<desc>lat.=42.495625, lon.=18.654644, Alt.=12.310432m. Speed=21.275999m/h.</desc>
<speed>5.910000</speed>
</trkpt>
<trkpt lat="42.495335" lon="18.654369">
<ele>0.5</ele>
<time>2012-05-02T07:07:55Z</time>
<desc>lat.=42.495335, lon.=18.654369, Alt.=12.534065m. Speed=32.183998m/h.</desc>
<speed>8.939999</speed>
</trkpt>
<trkpt lat="42.494740" lon="18.652187">
<ele>1.9</ele>
<time>2012-05-02T07:08:10Z</time>
<desc>lat.=42.494740, lon.=18.652187, Alt.=13.369514m. Speed=47.736000m/h.</desc>
<speed>13.260000</speed>
</trkpt>
<trkpt lat="42.494335" lon="18.651703">
<ele>5.2</ele>
<time>2012-05-02T07:08:15Z</time>
<desc>lat.=42.494335, lon.=18.651703, Alt.=13.870491m. Speed=41.543999m/h.</desc>
<speed>11.540000</speed>
</trkpt>
<trkpt lat="42.493820" lon="18.651766">
<ele>5.1</ele>
<time>2012-05-02T07:08:20Z</time>
<desc>lat.=42.493820, lon.=18.651766, Alt.=13.598274m. Speed=40.320000m/h.</desc>
<speed>11.200000</speed>
</trkpt>
<trkpt lat="42.493343" lon="18.651564">
<ele>2.1</ele>
<time>2012-05-02T07:08:25Z</time>
<desc>lat.=42.493343, lon.=18.651564, Alt.=13.333870m. Speed=43.307999m/h.</desc>
<speed>12.030000</speed>
</trkpt>
<trkpt lat="42.491898" lon="18.650137">
<ele>2.6</ele>
<time>2012-05-02T07:08:40Z</time>
<desc>lat.=42.491898, lon.=18.650137, Alt.=12.752815m. Speed=41.004002m/h.</desc>
<speed>11.390000</speed>
</trkpt>
<trkpt lat="42.490879" lon="18.650190">
<ele>2.8</ele>
<time>2012-05-02T07:08:50Z</time>
<desc>lat.=42.490879, lon.=18.650190, Alt.=13.731819m. Speed=44.352001m/h.</desc>
<speed>12.320000</speed>
</trkpt>
<trkpt lat="42.489994" lon="18.649162">
<ele>2.3</ele>
<time>2012-05-02T07:09:00Z</time>
<desc>lat.=42.489994, lon.=18.649162, Alt.=14.538948m. Speed=47.484001m/h.</desc>
<speed>13.190000</speed>
</trkpt>
<trkpt lat="42.489456" lon="18.648947">
<ele>2.4</ele>
<time>2012-05-02T07:09:05Z</time>
<desc>lat.=42.489456, lon.=18.648947, Alt.=14.067757m. Speed=45.647999m/h.</desc>
<speed>12.680000</speed>
</trkpt>
<trkpt lat="42.488960" lon="18.649315">
<ele>3.2</ele>
<time>2012-05-02T07:09:10Z</time>
<desc>lat.=42.488960, lon.=18.649315, Alt.=13.942757m. Speed=46.116001m/h.</desc>
<speed>12.810000</speed>
</trkpt>
<trkpt lat="42.488213" lon="18.650700">
<ele>5.0</ele>
<time>2012-05-02T07:09:20Z</time>
<desc>lat.=42.488213, lon.=18.650700, Alt.=12.541389m. Speed=55.908001m/h.</desc>
<speed>15.530000</speed>
</trkpt>
<trkpt lat="42.487148" lon="18.651741">
<ele>3.5</ele>
<time>2012-05-02T07:09:45Z</time>
<desc>lat.=42.487148, lon.=18.651741, Alt.=13.175423m. Speed=19.620001m/h.</desc>
<speed>5.450000</speed>
</trkpt>
<trkpt lat="42.486984" lon="18.652077">
<ele>7.0</ele>
<time>2012-05-02T07:09:50Z</time>
<desc>lat.=42.486984, lon.=18.652077, Alt.=13.699837m. Speed=24.587999m/h.</desc>
<speed>6.830000</speed>
</trkpt>
<trkpt lat="42.487103" lon="18.654245">
<ele>12.5</ele>
<time>2012-05-02T07:10:10Z</time>
<desc>lat.=42.487103, lon.=18.654245, Alt.=15.311409m. Speed=34.380001m/h.</desc>
<speed>9.550000</speed>
</trkpt>
<trkpt lat="42.486885" lon="18.656841">
<ele>25.4</ele>
<time>2012-05-02T07:10:25Z</time>
<desc>lat.=42.486885, lon.=18.656841, Alt.=15.735481m. Speed=55.223999m/h.</desc>
<speed>15.340000</speed>
</trkpt>
<trkpt lat="42.487106" lon="18.658604">
<ele>12.1</ele>
<time>2012-05-02T07:10:35Z</time>
<desc>lat.=42.487106, lon.=18.658604, Alt.=15.037727m. Speed=50.256001m/h.</desc>
<speed>13.960000</speed>
</trkpt>
<trkpt lat="42.486881" lon="18.659435">
<ele>18.9</ele>
<time>2012-05-02T07:10:40Z</time>
<desc>lat.=42.486881, lon.=18.659435, Alt.=15.331184m. Speed=52.596001m/h.</desc>
<speed>14.610000</speed>
</trkpt>
<trkpt lat="42.487217" lon="18.661110">
<ele>7.9</ele>
<time>2012-05-02T07:10:50Z</time>
<desc>lat.=42.487217, lon.=18.661110, Alt.=15.060432m. Speed=52.200001m/h.</desc>
<speed>14.500000</speed>
</trkpt>
<trkpt lat="42.487232" lon="18.662024">
<ele>7.6</ele>
<time>2012-05-02T07:10:55Z</time>
<desc>lat.=42.487232, lon.=18.662024, Alt.=14.917610m. Speed=55.692001m/h.</desc>
<speed>15.470000</speed>
</trkpt>
<trkpt lat="42.486362" lon="18.665428">
<ele>7.2</ele>
<time>2012-05-02T07:11:15Z</time>
<desc>lat.=42.486362, lon.=18.665428, Alt.=12.528694m. Speed=43.848000m/h.</desc>
<speed>12.180000</speed>
</trkpt>
<trkpt lat="42.486465" lon="18.666819">
<ele>3.9</ele>
<time>2012-05-02T07:11:25Z</time>
<desc>lat.=42.486465, lon.=18.666819, Alt.=12.377571m. Speed=45.071999m/h.</desc>
<speed>12.520000</speed>
</trkpt>
<trkpt lat="42.486313" lon="18.667576">
<ele>3.9</ele>
<time>2012-05-02T07:11:30Z</time>
<desc>lat.=42.486313, lon.=18.667576, Alt.=12.763313m. Speed=48.456001m/h.</desc>
<speed>13.460000</speed>
</trkpt>
<trkpt lat="42.485603" lon="18.668892">
<ele>4.8</ele>
<time>2012-05-02T07:11:40Z</time>
<desc>lat.=42.485603, lon.=18.668892, Alt.=12.308968m. Speed=53.243999m/h.</desc>
<speed>14.790000</speed>
</trkpt>
<trkpt lat="42.484669" lon="18.671350">
<ele>6.2</ele>
<time>2012-05-02T07:11:55Z</time>
<desc>lat.=42.484669, lon.=18.671350, Alt.=11.756233m. Speed=58.896000m/h.</desc>
<speed>16.360000</speed>
</trkpt>
<trkpt lat="42.484501" lon="18.673323">
<ele>6.3</ele>
<time>2012-05-02T07:12:05Z</time>
<desc>lat.=42.484501, lon.=18.673323, Alt.=12.260384m. Speed=55.368000m/h.</desc>
<speed>15.380000</speed>
</trkpt>
<trkpt lat="42.484295" lon="18.674185">
<ele>5.0</ele>
<time>2012-05-02T07:12:10Z</time>
<desc>lat.=42.484295, lon.=18.674185, Alt.=13.412971m. Speed=54.287998m/h.</desc>
<speed>15.079999</speed>
</trkpt>
<trkpt lat="42.483498" lon="18.675718">
<ele>10.7</ele>
<time>2012-05-02T07:12:20Z</time>
<desc>lat.=42.483498, lon.=18.675718, Alt.=15.656868m. Speed=53.639999m/h.</desc>
<speed>14.900000</speed>
</trkpt>
<trkpt lat="42.482609" lon="18.678305">
<ele>6.1</ele>
<time>2012-05-02T07:12:35Z</time>
<desc>lat.=42.482609, lon.=18.678305, Alt.=15.733772m. Speed=63.827999m/h.</desc>
<speed>17.730000</speed>
</trkpt>
<trkpt lat="42.479950" lon="18.684866">
<ele>4.9</ele>
<time>2012-05-02T07:13:10Z</time>
<desc>lat.=42.479950, lon.=18.684866, Alt.=19.756607m. Speed=63.647999m/h.</desc>
<speed>17.680000</speed>
</trkpt>
<trkpt lat="42.479523" lon="18.685740">
<ele>6.0</ele>
<time>2012-05-02T07:13:15Z</time>
<desc>lat.=42.479523, lon.=18.685740, Alt.=19.787857m. Speed=53.388000m/h.</desc>
<speed>14.830000</speed>
</trkpt>
<trkpt lat="42.479008" lon="18.686308">
<ele>8.6</ele>
<time>2012-05-02T07:13:20Z</time>
<desc>lat.=42.479008, lon.=18.686308, Alt.=18.998795m. Speed=41.868000m/h.</desc>
<speed>11.630000</speed>
</trkpt>
<trkpt lat="42.478531" lon="18.686338">
<ele>3.1</ele>
<time>2012-05-02T07:13:25Z</time>
<desc>lat.=42.478531, lon.=18.686338, Alt.=18.762466m. Speed=35.136002m/h.</desc>
<speed>9.760000</speed>
</trkpt>
<trkpt lat="42.477150" lon="18.684055">
<ele>5.3</ele>
<time>2012-05-02T07:13:45Z</time>
<desc>lat.=42.477150, lon.=18.684055, Alt.=18.741470m. Speed=52.992001m/h.</desc>
<speed>14.720000</speed>
</trkpt>
<trkpt lat="42.476101" lon="18.683765">
<ele>4.4</ele>
<time>2012-05-02T07:13:55Z</time>
<desc>lat.=42.476101, lon.=18.683765, Alt.=15.654915m. Speed=36.720001m/h.</desc>
<speed>10.200000</speed>
</trkpt>
<trkpt lat="42.474834" lon="18.682470">
<ele>0.8</ele>
<time>2012-05-02T07:14:10Z</time>
<desc>lat.=42.474834, lon.=18.682470, Alt.=9.651253m. Speed=47.340000m/h.</desc>
<speed>13.150000</speed>
</trkpt>
<trkpt lat="42.473537" lon="18.680807">
<ele>0.0</ele>
<time>2012-05-02T07:14:25Z</time>
<desc>lat.=42.473537, lon.=18.680807, Alt.=9.146614m. Speed=48.167999m/h.</desc>
<speed>13.380000</speed>
</trkpt>
<trkpt lat="42.472961" lon="18.680536">
<ele>1.7</ele>
<time>2012-05-02T07:14:30Z</time>
<desc>lat.=42.472961, lon.=18.680536, Alt.=8.962532m. Speed=48.743999m/h.</desc>
<speed>13.540000</speed>
</trkpt>
<trkpt lat="42.471821" lon="18.680525">
<ele>1.2</ele>
<time>2012-05-02T07:14:40Z</time>
<desc>lat.=42.471821, lon.=18.680525, Alt.=8.754768m. Speed=45.324001m/h.</desc>
<speed>12.590000</speed>
</trkpt>
<trkpt lat="42.471298" lon="18.680296">
<ele>0.4</ele>
<time>2012-05-02T07:14:45Z</time>
<desc>lat.=42.471298, lon.=18.680296, Alt.=8.650276m. Speed=43.776001m/h.</desc>
<speed>12.160000</speed>
</trkpt>
<trkpt lat="42.470970" lon="18.679680">
<ele>0.0</ele>
<time>2012-05-02T07:14:50Z</time>
<desc>lat.=42.470970, lon.=18.679680, Alt.=9.769905m. Speed=47.195999m/h.</desc>
<speed>13.110000</speed>
</trkpt>
<trkpt lat="42.470604" lon="18.678135">
<ele>2.3</ele>
<time>2012-05-02T07:15:00Z</time>
<desc>lat.=42.470604, lon.=18.678135, Alt.=11.119514m. Speed=47.664001m/h.</desc>
<speed>13.240000</speed>
</trkpt>
<trkpt lat="42.470215" lon="18.677574">
<ele>1.8</ele>
<time>2012-05-02T07:15:05Z</time>
<desc>lat.=42.470215, lon.=18.677574, Alt.=10.280159m. Speed=47.268002m/h.</desc>
<speed>13.130000</speed>
</trkpt>
<trkpt lat="42.469193" lon="18.676710">
<ele>0.8</ele>
<time>2012-05-02T07:15:15Z</time>
<desc>lat.=42.469193, lon.=18.676710, Alt.=8.238655m. Speed=47.088001m/h.</desc>
<speed>13.080000</speed>
</trkpt>
<trkpt lat="42.468456" lon="18.675543">
<ele>0.8</ele>
<time>2012-05-02T07:15:25Z</time>
<desc>lat.=42.468456, lon.=18.675543, Alt.=7.112003m. Speed=45.324001m/h.</desc>
<speed>12.590000</speed>
</trkpt>
<trkpt lat="42.467484" lon="18.675344">
<ele>1.2</ele>
<time>2012-05-02T07:15:35Z</time>
<desc>lat.=42.467484, lon.=18.675344, Alt.=8.080208m. Speed=35.279999m/h.</desc>
<speed>9.800000</speed>
</trkpt>
<trkpt lat="42.466446" lon="18.673565">
<ele>1.7</ele>
<time>2012-05-02T07:16:00Z</time>
<desc>lat.=42.466446, lon.=18.673565, Alt.=7.399601m. Speed=33.768002m/h.</desc>
<speed>9.380000</speed>
</trkpt>
<trkpt lat="42.466076" lon="18.673265">
<ele>1.9</ele>
<time>2012-05-02T07:16:05Z</time>
<desc>lat.=42.466076, lon.=18.673265, Alt.=7.743473m. Speed=33.048000m/h.</desc>
<speed>9.180000</speed>
</trkpt>
<trkpt lat="42.463612" lon="18.673306">
<ele>2.8</ele>
<time>2012-05-02T07:16:30Z</time>
<desc>lat.=42.463612, lon.=18.673306, Alt.=11.183235m. Speed=43.091999m/h.</desc>
<speed>11.970000</speed>
</trkpt>
<trkpt lat="42.462448" lon="18.672890">
<ele>1.3</ele>
<time>2012-05-02T07:16:40Z</time>
<desc>lat.=42.462448, lon.=18.672890, Alt.=9.863167m. Speed=51.840000m/h.</desc>
<speed>14.400000</speed>
</trkpt>
<trkpt lat="42.461830" lon="18.673176">
<ele>1.2</ele>
<time>2012-05-02T07:16:45Z</time>
<desc>lat.=42.461830, lon.=18.673176, Alt.=9.052132m. Speed=53.891998m/h.</desc>
<speed>14.970000</speed>
</trkpt>
<trkpt lat="42.461311" lon="18.673737">
<ele>3.3</ele>
<time>2012-05-02T07:16:50Z</time>
<desc>lat.=42.461311, lon.=18.673737, Alt.=8.960579m. Speed=51.155998m/h.</desc>
<speed>14.210000</speed>
</trkpt>
<trkpt lat="42.460728" lon="18.675100">
<ele>1.8</ele>
<time>2012-05-02T07:17:00Z</time>
<desc>lat.=42.460728, lon.=18.675100, Alt.=9.293098m. Speed=41.976002m/h.</desc>
<speed>11.660000</speed>
</trkpt>
<trkpt lat="42.460281" lon="18.675461">
<ele>2.6</ele>
<time>2012-05-02T07:17:05Z</time>
<desc>lat.=42.460281, lon.=18.675461, Alt.=9.068001m. Speed=42.192001m/h.</desc>
<speed>11.720000</speed>
</trkpt>
<trkpt lat="42.459789" lon="18.675407">
<ele>0.9</ele>
<time>2012-05-02T07:17:10Z</time>
<desc>lat.=42.459789, lon.=18.675407, Alt.=8.438606m. Speed=38.520000m/h.</desc>
<speed>10.700000</speed>
</trkpt>
<trkpt lat="42.459515" lon="18.674868">
<ele>1.9</ele>
<time>2012-05-02T07:17:15Z</time>
<desc>lat.=42.459515, lon.=18.674868, Alt.=8.868050m. Speed=41.507999m/h.</desc>
<speed>11.530000</speed>
</trkpt>
<trkpt lat="42.459450" lon="18.672235">
<ele>3.9</ele>
<time>2012-05-02T07:17:30Z</time>
<desc>lat.=42.459450, lon.=18.672235, Alt.=8.897102m. Speed=57.132000m/h.</desc>
<speed>15.870000</speed>
</trkpt>
<trkpt lat="42.459255" lon="18.671288">
<ele>1.2</ele>
<time>2012-05-02T07:17:35Z</time>
<desc>lat.=42.459255, lon.=18.671288, Alt.=9.732796m. Speed=57.816002m/h.</desc>
<speed>16.060001</speed>
</trkpt>
<trkpt lat="42.458931" lon="18.670424">
<ele>3.7</ele>
<time>2012-05-02T07:17:40Z</time>
<desc>lat.=42.458931, lon.=18.670424, Alt.=9.490608m. Speed=56.556000m/h.</desc>
<speed>15.710000</speed>
</trkpt>
<trkpt lat="42.457645" lon="18.668182">
<ele>3.0</ele>
<time>2012-05-02T07:17:55Z</time>
<desc>lat.=42.457645, lon.=18.668182, Alt.=10.999153m. Speed=51.731998m/h.</desc>
<speed>14.370000</speed>
</trkpt>
<trkpt lat="42.457443" lon="18.663750">
<ele>7.7</ele>
<time>2012-05-02T07:18:20Z</time>
<desc>lat.=42.457443, lon.=18.663750, Alt.=17.595963m. Speed=30.636000m/h.</desc>
<speed>8.510000</speed>
</trkpt>
<trkpt lat="42.457024" lon="18.661325">
<ele>8.8</ele>
<time>2012-05-02T07:18:40Z</time>
<desc>lat.=42.457024, lon.=18.661325, Alt.=19.705338m. Speed=45.863998m/h.</desc>
<speed>12.740000</speed>
</trkpt>
<trkpt lat="42.455135" lon="18.655844">
<ele>9.5</ele>
<time>2012-05-02T07:19:20Z</time>
<desc>lat.=42.455135, lon.=18.655844, Alt.=21.963150m. Speed=43.380001m/h.</desc>
<speed>12.050000</speed>
</trkpt>
<trkpt lat="42.454285" lon="18.654057">
<ele>13.7</ele>
<time>2012-05-02T07:19:35Z</time>
<desc>lat.=42.454285, lon.=18.654057, Alt.=21.869400m. Speed=42.084000m/h.</desc>
<speed>11.690000</speed>
</trkpt>
<trkpt lat="42.452526" lon="18.651056">
<ele>9.9</ele>
<time>2012-05-02T07:20:00Z</time>
<desc>lat.=42.452526, lon.=18.651056, Alt.=21.588638m. Speed=44.748001m/h.</desc>
<speed>12.430000</speed>
</trkpt>
<trkpt lat="42.450481" lon="18.647980">
<ele>5.7</ele>
<time>2012-05-02T07:20:25Z</time>
<desc>lat.=42.450481, lon.=18.647980, Alt.=18.050064m. Speed=48.924000m/h.</desc>
<speed>13.590000</speed>
</trkpt>
<trkpt lat="42.448975" lon="18.644375">
<ele>8.2</ele>
<time>2012-05-02T07:20:50Z</time>
<desc>lat.=42.448975, lon.=18.644375, Alt.=14.958870m. Speed=48.060001m/h.</desc>
<speed>13.350000</speed>
</trkpt>
<trkpt lat="42.448097" lon="18.643251">
<ele>11.2</ele>
<time>2012-05-02T07:21:00Z</time>
<desc>lat.=42.448097, lon.=18.643251, Alt.=16.893326m. Speed=47.987999m/h.</desc>
<speed>13.330000</speed>
</trkpt>
<trkpt lat="42.446541" lon="18.641932">
<ele>13.3</ele>
<time>2012-05-02T07:21:15Z</time>
<desc>lat.=42.446541, lon.=18.641932, Alt.=18.374771m. Speed=48.456001m/h.</desc>
<speed>13.460000</speed>
</trkpt>
<trkpt lat="42.444046" lon="18.637224">
<ele>18.7</ele>
<time>2012-05-02T07:21:50Z</time>
<desc>lat.=42.444046, lon.=18.637224, Alt.=24.998306m. Speed=47.771999m/h.</desc>
<speed>13.270000</speed>
</trkpt>
<trkpt lat="42.443737" lon="18.635597">
<ele>13.2</ele>
<time>2012-05-02T07:22:00Z</time>
<desc>lat.=42.443737, lon.=18.635597, Alt.=25.106705m. Speed=54.108002m/h.</desc>
<speed>15.030000</speed>
</trkpt>
<trkpt lat="42.443321" lon="18.628246">
<ele>13.5</ele>
<time>2012-05-02T07:22:40Z</time>
<desc>lat.=42.443321, lon.=18.628246, Alt.=26.124771m. Speed=45.647999m/h.</desc>
<speed>12.680000</speed>
</trkpt>
<trkpt lat="42.443092" lon="18.627453">
<ele>13.2</ele>
<time>2012-05-02T07:22:45Z</time>
<desc>lat.=42.443092, lon.=18.627453, Alt.=26.849380m. Speed=52.812000m/h.</desc>
<speed>14.670000</speed>
</trkpt>
<trkpt lat="42.441940" lon="18.625397">
<ele>18.3</ele>
<time>2012-05-02T07:23:00Z</time>
<desc>lat.=42.441940, lon.=18.625397, Alt.=26.636490m. Speed=46.728001m/h.</desc>
<speed>12.980000</speed>
</trkpt>
<trkpt lat="42.441349" lon="18.623075">
<ele>20.3</ele>
<time>2012-05-02T07:23:20Z</time>
<desc>lat.=42.441349, lon.=18.623075, Alt.=29.847916m. Speed=42.840000m/h.</desc>
<speed>11.900000</speed>
</trkpt>
<trkpt lat="42.440731" lon="18.621881">
<ele>20.5</ele>
<time>2012-05-02T07:23:30Z</time>
<desc>lat.=42.440731, lon.=18.621881, Alt.=30.385025m. Speed=45.647999m/h.</desc>
<speed>12.680000</speed>
</trkpt>
<trkpt lat="42.440292" lon="18.620310">
<ele>21.6</ele>
<time>2012-05-02T07:23:40Z</time>
<desc>lat.=42.440292, lon.=18.620310, Alt.=32.087433m. Speed=49.355999m/h.</desc>
<speed>13.710000</speed>
</trkpt>
<trkpt lat="42.440170" lon="18.618637">
<ele>22.3</ele>
<time>2012-05-02T07:23:50Z</time>
<desc>lat.=42.440170, lon.=18.618637, Alt.=31.617447m. Speed=50.652000m/h.</desc>
<speed>14.070000</speed>
</trkpt>
<trkpt lat="42.440441" lon="18.616079">
<ele>23.2</ele>
<time>2012-05-02T07:24:05Z</time>
<desc>lat.=42.440441, lon.=18.616079, Alt.=32.775909m. Speed=49.535999m/h.</desc>
<speed>13.760000</speed>
</trkpt>
<trkpt lat="42.440147" lon="18.615330">
<ele>23.7</ele>
<time>2012-05-02T07:24:10Z</time>
<desc>lat.=42.440147, lon.=18.615330, Alt.=33.378448m. Speed=52.056000m/h.</desc>
<speed>14.460000</speed>
</trkpt>
<trkpt lat="42.439705" lon="18.614723">
<ele>21.1</ele>
<time>2012-05-02T07:24:15Z</time>
<desc>lat.=42.439705, lon.=18.614723, Alt.=33.223175m. Speed=48.096001m/h.</desc>
<speed>13.360000</speed>
</trkpt>
<trkpt lat="42.439449" lon="18.613937">
<ele>24.2</ele>
<time>2012-05-02T07:24:20Z</time>
<desc>lat.=42.439449, lon.=18.613937, Alt.=32.901886m. Speed=53.784000m/h.</desc>
<speed>14.940000</speed>
</trkpt>
<trkpt lat="42.439259" lon="18.612999">
<ele>23.2</ele>
<time>2012-05-02T07:24:25Z</time>
<desc>lat.=42.439259, lon.=18.612999, Alt.=33.195831m. Speed=58.967999m/h.</desc>
<speed>16.380000</speed>
</trkpt>
<trkpt lat="42.439209" lon="18.610964">
<ele>27.1</ele>
<time>2012-05-02T07:24:35Z</time>
<desc>lat.=42.439209, lon.=18.610964, Alt.=35.541534m. Speed=56.015999m/h.</desc>
<speed>15.560000</speed>
</trkpt>
<trkpt lat="42.438984" lon="18.610149">
<ele>28.4</ele>
<time>2012-05-02T07:24:40Z</time>
<desc>lat.=42.438984, lon.=18.610149, Alt.=37.727081m. Speed=50.327999m/h.</desc>
<speed>13.980000</speed>
</trkpt>
<trkpt lat="42.438454" lon="18.609732">
<ele>29.1</ele>
<time>2012-05-02T07:24:45Z</time>
<desc>lat.=42.438454, lon.=18.609732, Alt.=38.250519m. Speed=49.139999m/h.</desc>
<speed>13.650000</speed>
</trkpt>
<trkpt lat="42.437874" lon="18.609558">
<ele>30.4</ele>
<time>2012-05-02T07:24:50Z</time>
<desc>lat.=42.437874, lon.=18.609558, Alt.=38.773956m. Speed=46.764000m/h.</desc>
<speed>12.990000</speed>
</trkpt>
<trkpt lat="42.437397" lon="18.609108">
<ele>32.0</ele>
<time>2012-05-02T07:24:55Z</time>
<desc>lat.=42.437397, lon.=18.609108, Alt.=39.466339m. Speed=47.520000m/h.</desc>
<speed>13.200000</speed>
</trkpt>
<trkpt lat="42.437267" lon="18.608349">
<ele>31.7</ele>
<time>2012-05-02T07:25:00Z</time>
<desc>lat.=42.437267, lon.=18.608349, Alt.=39.711456m. Speed=46.872002m/h.</desc>
<speed>13.020000</speed>
</trkpt>
<trkpt lat="42.437469" lon="18.607662">
<ele>31.7</ele>
<time>2012-05-02T07:25:05Z</time>
<desc>lat.=42.437469, lon.=18.607662, Alt.=40.652863m. Speed=42.911999m/h.</desc>
<speed>11.920000</speed>
</trkpt>
<trkpt lat="42.438431" lon="18.606586">
<ele>34.6</ele>
<time>2012-05-02T07:25:30Z</time>
<desc>lat.=42.438431, lon.=18.606586, Alt.=44.213409m. Speed=45.180000m/h.</desc>
<speed>12.550000</speed>
</trkpt>
<trkpt lat="42.438637" lon="18.605844">
<ele>30.5</ele>
<time>2012-05-02T07:25:35Z</time>
<desc>lat.=42.438637, lon.=18.605844, Alt.=44.491730m. Speed=48.240002m/h.</desc>
<speed>13.400000</speed>
</trkpt>
<trkpt lat="42.438232" lon="18.603472">
<ele>34.7</ele>
<time>2012-05-02T07:25:50Z</time>
<desc>lat.=42.438232, lon.=18.603472, Alt.=46.810089m. Speed=50.868000m/h.</desc>
<speed>14.130000</speed>
</trkpt>
<trkpt lat="42.437943" lon="18.598097">
<ele>26.9</ele>
<time>2012-05-02T07:26:20Z</time>
<desc>lat.=42.437943, lon.=18.598097, Alt.=41.609894m. Speed=48.383999m/h.</desc>
<speed>13.440000</speed>
</trkpt>
<trkpt lat="42.438477" lon="18.596785">
<ele>31.0</ele>
<time>2012-05-02T07:26:30Z</time>
<desc>lat.=42.438477, lon.=18.596785, Alt.=39.556183m. Speed=50.507999m/h.</desc>
<speed>14.030000</speed>
</trkpt>
<trkpt lat="42.438641" lon="18.595890">
<ele>29.7</ele>
<time>2012-05-02T07:26:35Z</time>
<desc>lat.=42.438641, lon.=18.595890, Alt.=38.742706m. Speed=56.375999m/h.</desc>
<speed>15.660000</speed>
</trkpt>
<trkpt lat="42.438381" lon="18.593958">
<ele>26.3</ele>
<time>2012-05-02T07:26:45Z</time>
<desc>lat.=42.438381, lon.=18.593958, Alt.=38.563019m. Speed=56.015999m/h.</desc>
<speed>15.560000</speed>
</trkpt>
<trkpt lat="42.438534" lon="18.593016">
<ele>26.4</ele>
<time>2012-05-02T07:26:50Z</time>
<desc>lat.=42.438534, lon.=18.593016, Alt.=36.660675m. Speed=61.091999m/h.</desc>
<speed>16.970000</speed>
</trkpt>
<trkpt lat="42.439507" lon="18.590033">
<ele>23.3</ele>
<time>2012-05-02T07:27:05Z</time>
<desc>lat.=42.439507, lon.=18.590033, Alt.=31.483658m. Speed=57.563999m/h.</desc>
<speed>15.990000</speed>
</trkpt>
<trkpt lat="42.439453" lon="18.588356">
<ele>22.6</ele>
<time>2012-05-02T07:27:15Z</time>
<desc>lat.=42.439453, lon.=18.588356, Alt.=28.650650m. Speed=44.316002m/h.</desc>
<speed>12.310001</speed>
</trkpt>
<trkpt lat="42.439659" lon="18.587688">
<ele>22.2</ele>
<time>2012-05-02T07:27:20Z</time>
<desc>lat.=42.439659, lon.=18.587688, Alt.=27.562759m. Speed=45.360001m/h.</desc>
<speed>12.600000</speed>
</trkpt>
<trkpt lat="42.440083" lon="18.587135">
<ele>18.4</ele>
<time>2012-05-02T07:27:25Z</time>
<desc>lat.=42.440083, lon.=18.587135, Alt.=27.961197m. Speed=48.383999m/h.</desc>
<speed>13.440000</speed>
</trkpt>
<trkpt lat="42.440495" lon="18.585556">
<ele>19.1</ele>
<time>2012-05-02T07:27:35Z</time>
<desc>lat.=42.440495, lon.=18.585556, Alt.=26.153091m. Speed=46.619999m/h.</desc>
<speed>12.950000</speed>
</trkpt>
<trkpt lat="42.440807" lon="18.584938">
<ele>17.3</ele>
<time>2012-05-02T07:27:40Z</time>
<desc>lat.=42.440807, lon.=18.584938, Alt.=26.867935m. Speed=41.796001m/h.</desc>
<speed>11.610000</speed>
</trkpt>
<trkpt lat="42.441261" lon="18.584600">
<ele>18.5</ele>
<time>2012-05-02T07:27:45Z</time>
<desc>lat.=42.441261, lon.=18.584600, Alt.=25.547134m. Speed=45.900002m/h.</desc>
<speed>12.750000</speed>
</trkpt>
<trkpt lat="42.442638" lon="18.584181">
<ele>17.1</ele>
<time>2012-05-02T07:27:55Z</time>
<desc>lat.=42.442638, lon.=18.584181, Alt.=25.030045m. Speed=56.268002m/h.</desc>
<speed>15.630000</speed>
</trkpt>
<trkpt lat="42.443188" lon="18.583670">
<ele>19.9</ele>
<time>2012-05-02T07:28:00Z</time>
<desc>lat.=42.443188, lon.=18.583670, Alt.=24.106705m. Speed=54.108002m/h.</desc>
<speed>15.030000</speed>
</trkpt>
<trkpt lat="42.443478" lon="18.582829">
<ele>13.1</ele>
<time>2012-05-02T07:28:05Z</time>
<desc>lat.=42.443478, lon.=18.582829, Alt.=23.051529m. Speed=57.419998m/h.</desc>
<speed>15.949999</speed>
</trkpt>
<trkpt lat="42.443645" lon="18.580751">
<ele>9.7</ele>
<time>2012-05-02T07:28:15Z</time>
<desc>lat.=42.443645, lon.=18.580751, Alt.=20.837173m. Speed=63.324001m/h.</desc>
<speed>17.590000</speed>
</trkpt>
<trkpt lat="42.443863" lon="18.579739">
<ele>10.6</ele>
<time>2012-05-02T07:28:20Z</time>
<desc>lat.=42.443863, lon.=18.579739, Alt.=20.070084m. Speed=61.452000m/h.</desc>
<speed>17.070000</speed>
</trkpt>
<trkpt lat="42.444775" lon="18.578138">
<ele>9.1</ele>
<time>2012-05-02T07:28:30Z</time>
<desc>lat.=42.444775, lon.=18.578138, Alt.=17.795670m. Speed=56.375999m/h.</desc>
<speed>15.660000</speed>
</trkpt>
<trkpt lat="42.446594" lon="18.576668">
<ele>5.7</ele>
<time>2012-05-02T07:28:45Z</time>
<desc>lat.=42.446594, lon.=18.576668, Alt.=12.589485m. Speed=55.007999m/h.</desc>
<speed>15.280000</speed>
</trkpt>
<trkpt lat="42.449081" lon="18.574106">
<ele>3.3</ele>
<time>2012-05-02T07:29:15Z</time>
<desc>lat.=42.449081, lon.=18.574106, Alt.=12.607063m. Speed=35.639999m/h.</desc>
<speed>9.900000</speed>
</trkpt>
<trkpt lat="42.450432" lon="18.573349">
<ele>3.0</ele>
<time>2012-05-02T07:29:30Z</time>
<desc>lat.=42.450432, lon.=18.573349, Alt.=12.504768m. Speed=26.028000m/h.</desc>
<speed>7.230000</speed>
</trkpt>
<trkpt lat="42.450996" lon="18.572828">
<ele>2.2</ele>
<time>2012-05-02T07:29:40Z</time>
<desc>lat.=42.450996, lon.=18.572828, Alt.=12.634895m. Speed=30.996000m/h.</desc>
<speed>8.610000</speed>
</trkpt>
<trkpt lat="42.451591" lon="18.571945">
<ele>6.2</ele>
<time>2012-05-02T07:29:50Z</time>
<desc>lat.=42.451591, lon.=18.571945, Alt.=12.550423m. Speed=41.327999m/h.</desc>
<speed>11.480000</speed>
</trkpt>
<trkpt lat="42.452168" lon="18.570663">
<ele>14.1</ele>
<time>2012-05-02T07:30:00Z</time>
<desc>lat.=42.452168, lon.=18.570663, Alt.=10.871223m. Speed=45.576000m/h.</desc>
<speed>12.660000</speed>
</trkpt>
<trkpt lat="42.454971" lon="18.567677">
<ele>34.9</ele>
<time>2012-05-02T07:30:25Z</time>
<desc>lat.=42.454971, lon.=18.567677, Alt.=29.750748m. Speed=43.596001m/h.</desc>
<speed>12.110000</speed>
</trkpt>
<trkpt lat="42.455585" lon="18.566381">
<ele>22.5</ele>
<time>2012-05-02T07:30:33Z</time>
<desc>lat.=42.455585, lon.=18.566381, Alt.=38.522980m. Speed=46.548000m/h.</desc>
<speed>12.930000</speed>
</trkpt>
<trkpt lat="42.455723" lon="18.565540">
<ele>15.3</ele>
<time>2012-05-02T07:30:38Z</time>
<desc>lat.=42.455723, lon.=18.565540, Alt.=33.302277m. Speed=46.584000m/h.</desc>
<speed>12.940000</speed>
</trkpt>
<trkpt lat="42.455250" lon="18.562216">
<ele>5.5</ele>
<time>2012-05-02T07:30:58Z</time>
<desc>lat.=42.455250, lon.=18.562216, Alt.=19.578384m. Speed=43.344002m/h.</desc>
<speed>12.040000</speed>
</trkpt>
<trkpt lat="42.455235" lon="18.558256">
<ele>4.5</ele>
<time>2012-05-02T07:31:33Z</time>
<desc>lat.=42.455235, lon.=18.558256, Alt.=17.477310m. Speed=24.804001m/h.</desc>
<speed>6.890000</speed>
</trkpt>
<trkpt lat="42.453949" lon="18.558456">
<ele>9.0</ele>
<time>2012-05-02T07:31:53Z</time>
<desc>lat.=42.453949, lon.=18.558456, Alt.=18.278091m. Speed=34.307999m/h.</desc>
<speed>9.530000</speed>
</trkpt>
<trkpt lat="42.453541" lon="18.558294">
<ele>13.3</ele>
<time>2012-05-02T07:31:58Z</time>
<desc>lat.=42.453541, lon.=18.558294, Alt.=21.384048m. Speed=34.956001m/h.</desc>
<speed>9.710000</speed>
</trkpt>
<trkpt lat="42.452904" lon="18.557598">
<ele>14.3</ele>
<time>2012-05-02T07:32:08Z</time>
<desc>lat.=42.452904, lon.=18.557598, Alt.=25.464615m. Speed=32.903999m/h.</desc>
<speed>9.140000</speed>
</trkpt>
<trkpt lat="42.452019" lon="18.555946">
<ele>19.0</ele>
<time>2012-05-02T07:32:23Z</time>
<desc>lat.=42.452019, lon.=18.555946, Alt.=27.647720m. Speed=39.060001m/h.</desc>
<speed>10.850000</speed>
</trkpt>
<trkpt lat="42.451809" lon="18.555382">
<ele>19.7</ele>
<time>2012-05-02T07:32:28Z</time>
<desc>lat.=42.451809, lon.=18.555382, Alt.=29.994888m. Speed=38.195999m/h.</desc>
<speed>10.610000</speed>
</trkpt>
<trkpt lat="42.451569" lon="18.553589">
<ele>24.0</ele>
<time>2012-05-02T07:32:43Z</time>
<desc>lat.=42.451569, lon.=18.553589, Alt.=37.023956m. Speed=30.384001m/h.</desc>
<speed>8.440000</speed>
</trkpt>
<trkpt lat="42.450897" lon="18.552603">
<ele>22.6</ele>
<time>2012-05-02T07:32:58Z</time>
<desc>lat.=42.450897, lon.=18.552603, Alt.=34.313019m. Speed=9.360000m/h.</desc>
<speed>2.600000</speed>
</trkpt>
<trkpt lat="42.450474" lon="18.551142">
<ele>24.4</ele>
<time>2012-05-02T07:33:18Z</time>
<desc>lat.=42.450474, lon.=18.551142, Alt.=37.973175m. Speed=25.775999m/h.</desc>
<speed>7.160000</speed>
</trkpt>
<trkpt lat="42.450550" lon="18.549322">
<ele>26.4</ele>
<time>2012-05-02T07:33:38Z</time>
<desc>lat.=42.450550, lon.=18.549322, Alt.=41.180206m. Speed=27.000000m/h.</desc>
<speed>7.500000</speed>
</trkpt>
<trkpt lat="42.451019" lon="18.547800">
<ele>30.7</ele>
<time>2012-05-02T07:34:13Z</time>
<desc>lat.=42.451019, lon.=18.547800, Alt.=44.385284m. Speed=3.816000m/h.</desc>
<speed>1.060000</speed>
</trkpt>
<trkpt lat="42.450928" lon="18.546833">
<ele>31.1</ele>
<time>2012-05-02T07:34:38Z</time>
<desc>lat.=42.450928, lon.=18.546833, Alt.=46.765167m. Speed=16.056000m/h.</desc>
<speed>4.460000</speed>
</trkpt>
<trkpt lat="42.451134" lon="18.544899">
<ele>34.8</ele>
<time>2012-05-02T07:35:03Z</time>
<desc>lat.=42.451134, lon.=18.544899, Alt.=49.063019m. Speed=23.292000m/h.</desc>
<speed>6.470000</speed>
</trkpt>
<trkpt lat="42.451492" lon="18.543692">
<ele>37.7</ele>
<time>2012-05-02T07:36:03Z</time>
<desc>lat.=42.451492, lon.=18.543692, Alt.=51.019073m. Speed=0.036000m/h.</desc>
<speed>0.010000</speed>
</trkpt>
<trkpt lat="42.451477" lon="18.543962">
<ele>37.9</ele>
<time>2012-05-02T07:38:48Z</time>
<desc>lat.=42.451477, lon.=18.543962, Alt.=52.466339m. Speed=0.000000m/h.</desc>
<speed>0.000000</speed>
</trkpt>
<trkpt lat="42.452099" lon="18.542685">
<ele>50.5</ele>
<time>2012-05-02T07:39:13Z</time>
<desc>lat.=42.452099, lon.=18.542685, Alt.=65.352600m. Speed=19.799999m/h.</desc>
<speed>5.500000</speed>
</trkpt>
<trkpt lat="42.452297" lon="18.541870">
<ele>55.7</ele>
<time>2012-05-02T07:39:28Z</time>
<desc>lat.=42.452297, lon.=18.541870, Alt.=68.542053m. Speed=10.584000m/h.</desc>
<speed>2.940000</speed>
</trkpt>
<trkpt lat="42.452583" lon="18.541309">
<ele>59.1</ele>
<time>2012-05-02T07:50:23Z</time>
<desc>lat.=42.452583, lon.=18.541309, Alt.=75.926819m. Speed=0.900000m/h.</desc>
<speed>0.250000</speed>
</trkpt>
<trkpt lat="42.452648" lon="18.541481">
<ele>60.7</ele>
<time>2012-05-02T07:50:58Z</time>
<desc>lat.=42.452648, lon.=18.541481, Alt.=69.100647m. Speed=0.792000m/h.</desc>
<speed>0.220000</speed>
</trkpt>
<trkpt lat="42.452274" lon="18.541325">
<ele>52.8</ele>
<time>2012-05-02T07:51:09Z</time>
<desc>lat.=42.452274, lon.=18.541325, Alt.=53.370636m. Speed=0.360000m/h.</desc>
<speed>0.100000</speed>
</trkpt>
<trkpt lat="42.452602" lon="18.541445">
<ele>59.5</ele>
<time>2012-05-02T08:00:59Z</time>
<desc>lat.=42.452602, lon.=18.541445, Alt.=70.151428m. Speed=0.000000m/h.</desc>
<speed>0.000000</speed>
</trkpt>
<trkpt lat="42.452759" lon="18.539312">
<ele>67.0</ele>
<time>2012-05-02T08:02:24Z</time>
<desc>lat.=42.452759, lon.=18.539312, Alt.=83.794006m. Speed=9.432000m/h.</desc>
<speed>2.620000</speed>
</trkpt>
<trkpt lat="42.452648" lon="18.538637">
<ele>69.0</ele>
<time>2012-05-02T08:02:49Z</time>
<desc>lat.=42.452648, lon.=18.538637, Alt.=88.872131m. Speed=7.092000m/h.</desc>
<speed>1.970000</speed>
</trkpt>
<trkpt lat="42.453232" lon="18.536758">
<ele>80.9</ele>
<time>2012-05-02T08:05:09Z</time>
<desc>lat.=42.453232, lon.=18.536758, Alt.=90.780334m. Speed=17.532000m/h.</desc>
<speed>4.870000</speed>
</trkpt>
<trkpt lat="42.453178" lon="18.534025">
<ele>74.4</ele>
<time>2012-05-02T08:05:49Z</time>
<desc>lat.=42.453178, lon.=18.534025, Alt.=82.262756m. Speed=6.084000m/h.</desc>
<speed>1.690000</speed>
</trkpt>
<trkpt lat="42.452839" lon="18.534069">
<ele>73.0</ele>
<time>2012-05-02T08:07:09Z</time>
<desc>lat.=42.452839, lon.=18.534069, Alt.=82.329163m. Speed=2.376000m/h.</desc>
<speed>0.660000</speed>
</trkpt>
<trkpt lat="42.453007" lon="18.534243">
<ele>71.3</ele>
<time>2012-05-02T08:07:59Z</time>
<desc>lat.=42.453007, lon.=18.534243, Alt.=82.313538m. Speed=0.684000m/h.</desc>
<speed>0.190000</speed>
</trkpt>
<trkpt lat="42.452827" lon="18.534252">
<ele>70.2</ele>
<time>2012-05-02T08:08:29Z</time>
<desc>lat.=42.452827, lon.=18.534252, Alt.=83.024475m. Speed=2.160000m/h.</desc>
<speed>0.600000</speed>
</trkpt>
<trkpt lat="42.453011" lon="18.534239">
<ele>71.4</ele>
<time>2012-05-02T08:09:09Z</time>
<desc>lat.=42.453011, lon.=18.534239, Alt.=83.147522m. Speed=1.656000m/h.</desc>
<speed>0.460000</speed>
</trkpt>
<trkpt lat="42.452816" lon="18.533932">
<ele>73.2</ele>
<time>2012-05-02T08:21:54Z</time>
<desc>lat.=42.452816, lon.=18.533932, Alt.=79.536194m. Speed=0.144000m/h.</desc>
<speed>0.040000</speed>
</trkpt>
<trkpt lat="42.452984" lon="18.534081">
<ele>73.6</ele>
<time>2012-05-02T08:48:39Z</time>
<desc>lat.=42.452984, lon.=18.534081, Alt.=75.567444m. Speed=0.036000m/h.</desc>
<speed>0.010000</speed>
</trkpt>
<trkpt lat="42.452888" lon="18.534430">
<ele>67.2</ele>
<time>2012-05-02T08:51:04Z</time>
<desc>lat.=42.452888, lon.=18.534430, Alt.=77.670959m. Speed=3.996000m/h.</desc>
<speed>1.110000</speed>
</trkpt>
<trkpt lat="42.453152" lon="18.534647">
<ele>71.4</ele>
<time>2012-05-02T08:51:19Z</time>
<desc>lat.=42.453152, lon.=18.534647, Alt.=78.729553m. Speed=11.016000m/h.</desc>
<speed>3.060000</speed>
</trkpt>
<trkpt lat="42.453213" lon="18.534927">
<ele>74.2</ele>
<time>2012-05-02T08:51:39Z</time>
<desc>lat.=42.453213, lon.=18.534927, Alt.=78.420959m. Speed=1.728000m/h.</desc>
<speed>0.480000</speed>
</trkpt>
<trkpt lat="42.453152" lon="18.534512">
<ele>70.9</ele>
<time>2012-05-02T08:51:49Z</time>
<desc>lat.=42.453152, lon.=18.534512, Alt.=76.335022m. Speed=16.344000m/h.</desc>
<speed>4.540000</speed>
</trkpt>
<trkpt lat="42.452927" lon="18.534437">
<ele>67.1</ele>
<time>2012-05-02T08:51:54Z</time>
<desc>lat.=42.452927, lon.=18.534437, Alt.=75.229553m. Speed=18.108000m/h.</desc>
<speed>5.030000</speed>
</trkpt>
<trkpt lat="42.452702" lon="18.534643">
<ele>65.8</ele>
<time>2012-05-02T08:51:59Z</time>
<desc>lat.=42.452702, lon.=18.534643, Alt.=71.448303m. Speed=15.768000m/h.</desc>
<speed>4.380000</speed>
</trkpt>
<trkpt lat="42.452702" lon="18.535049">
<ele>62.3</ele>
<time>2012-05-02T08:52:19Z</time>
<desc>lat.=42.452702, lon.=18.535049, Alt.=67.739319m. Speed=1.404000m/h.</desc>
<speed>0.390000</speed>
</trkpt>
<trkpt lat="42.452675" lon="18.534746">
<ele>64.6</ele>
<time>2012-05-02T08:52:29Z</time>
<desc>lat.=42.452675, lon.=18.534746, Alt.=67.807678m. Speed=10.980000m/h.</desc>
<speed>3.050000</speed>
</trkpt>
<trkpt lat="42.452915" lon="18.534470">
<ele>66.8</ele>
<time>2012-05-02T08:52:49Z</time>
<desc>lat.=42.452915, lon.=18.534470, Alt.=74.723694m. Speed=2.952000m/h.</desc>
<speed>0.820000</speed>
</trkpt>
<trkpt lat="42.452995" lon="18.534008">
<ele>74.2</ele>
<time>2012-05-02T08:53:49Z</time>
<desc>lat.=42.452995, lon.=18.534008, Alt.=78.870178m. Speed=4.392000m/h.</desc>
<speed>1.220000</speed>
</trkpt>
<trkpt lat="42.452644" lon="18.534662">
<ele>65.5</ele>
<time>2012-05-02T08:55:39Z</time>
<desc>lat.=42.452644, lon.=18.534662, Alt.=73.795959m. Speed=18.972000m/h.</desc>
<speed>5.270000</speed>
</trkpt>
<trkpt lat="42.452633" lon="18.535461">
<ele>58.7</ele>
<time>2012-05-02T08:55:49Z</time>
<desc>lat.=42.452633, lon.=18.535461, Alt.=69.612366m. Speed=27.792000m/h.</desc>
<speed>7.720000</speed>
</trkpt>
<trkpt lat="42.452206" lon="18.536472">
<ele>53.9</ele>
<time>2012-05-02T08:56:09Z</time>
<desc>lat.=42.452206, lon.=18.536472, Alt.=54.972198m. Speed=9.864000m/h.</desc>
<speed>2.740000</speed>
</trkpt>
<trkpt lat="42.452034" lon="18.536537">
<ele>52.1</ele>
<time>2012-05-02T08:56:19Z</time>
<desc>lat.=42.452034, lon.=18.536537, Alt.=47.600128m. Speed=3.708000m/h.</desc>
<speed>1.030000</speed>
</trkpt>
<trkpt lat="42.451828" lon="18.536146">
<ele>49.6</ele>
<time>2012-05-02T08:56:39Z</time>
<desc>lat.=42.451828, lon.=18.536146, Alt.=45.905792m. Speed=7.164000m/h.</desc>
<speed>1.990000</speed>
</trkpt>
<trkpt lat="42.452019" lon="18.535522">
<ele>49.6</ele>
<time>2012-05-02T08:56:59Z</time>
<desc>lat.=42.452019, lon.=18.535522, Alt.=44.349152m. Speed=10.188000m/h.</desc>
<speed>2.830000</speed>
</trkpt>
<trkpt lat="42.451965" lon="18.534761">
<ele>43.5</ele>
<time>2012-05-02T08:57:24Z</time>
<desc>lat.=42.451965, lon.=18.534761, Alt.=44.572784m. Speed=3.312000m/h.</desc>
<speed>0.920000</speed>
</trkpt>
<trkpt lat="42.451881" lon="18.535097">
<ele>42.7</ele>
<time>2012-05-02T08:57:34Z</time>
<desc>lat.=42.451881, lon.=18.535097, Alt.=46.517120m. Speed=20.340000m/h.</desc>
<speed>5.650000</speed>
</trkpt>
<trkpt lat="42.451477" lon="18.535564">
<ele>37.7</ele>
<time>2012-05-02T08:57:49Z</time>
<desc>lat.=42.451477, lon.=18.535564, Alt.=47.452667m. Speed=5.436000m/h.</desc>
<speed>1.510000</speed>
</trkpt>
<trkpt lat="42.451347" lon="18.536432">
<ele>44.0</ele>
<time>2012-05-02T08:58:39Z</time>
<desc>lat.=42.451347, lon.=18.536432, Alt.=44.048370m. Speed=10.692000m/h.</desc>
<speed>2.970000</speed>
</trkpt>
<trkpt lat="42.450268" lon="18.536320">
<ele>30.7</ele>
<time>2012-05-02T08:59:09Z</time>
<desc>lat.=42.450268, lon.=18.536320, Alt.=29.973892m. Speed=14.544000m/h.</desc>
<speed>4.040000</speed>
</trkpt>
<trkpt lat="42.450020" lon="18.537373">
<ele>22.4</ele>
<time>2012-05-02T08:59:24Z</time>
<desc>lat.=42.450020, lon.=18.537373, Alt.=21.540298m. Speed=16.416000m/h.</desc>
<speed>4.560000</speed>
</trkpt>
<trkpt lat="42.450211" lon="18.537943">
<ele>19.3</ele>
<time>2012-05-02T08:59:34Z</time>
<desc>lat.=42.450211, lon.=18.537943, Alt.=12.061653m. Speed=17.388000m/h.</desc>
<speed>4.830000</speed>
</trkpt>
<trkpt lat="42.450562" lon="18.538244">
<ele>24.0</ele>
<time>2012-05-02T09:01:59Z</time>
<desc>lat.=42.450562, lon.=18.538244, Alt.=14.163460m. Speed=3.780000m/h.</desc>
<speed>1.050000</speed>
</trkpt>
<trkpt lat="42.450893" lon="18.539209">
<ele>31.2</ele>
<time>2012-05-02T09:02:24Z</time>
<desc>lat.=42.450893, lon.=18.539209, Alt.=20.580826m. Speed=15.696000m/h.</desc>
<speed>4.360000</speed>
</trkpt>
<trkpt lat="42.451485" lon="18.541044">
<ele>30.1</ele>
<time>2012-05-02T09:02:59Z</time>
<desc>lat.=42.451485, lon.=18.541044, Alt.=25.906998m. Speed=16.920000m/h.</desc>
<speed>4.700000</speed>
</trkpt>
<trkpt lat="42.451611" lon="18.542244">
<ele>33.6</ele>
<time>2012-05-02T09:03:29Z</time>
<desc>lat.=42.451611, lon.=18.542244, Alt.=35.301300m. Speed=7.524000m/h.</desc>
<speed>2.090000</speed>
</trkpt>
<trkpt lat="42.451473" lon="18.543489">
<ele>36.3</ele>
<time>2012-05-02T09:04:04Z</time>
<desc>lat.=42.451473, lon.=18.543489, Alt.=43.364777m. Speed=14.796000m/h.</desc>
<speed>4.110000</speed>
</trkpt>
<trkpt lat="42.451054" lon="18.544861">
<ele>34.2</ele>
<time>2012-05-02T09:04:34Z</time>
<desc>lat.=42.451054, lon.=18.544861, Alt.=44.960480m. Speed=16.344000m/h.</desc>
<speed>4.540000</speed>
</trkpt>
<trkpt lat="42.450863" lon="18.546595">
<ele>30.5</ele>
<time>2012-05-02T09:04:59Z</time>
<desc>lat.=42.450863, lon.=18.546595, Alt.=44.911652m. Speed=20.412001m/h.</desc>
<speed>5.670000</speed>
</trkpt>
<trkpt lat="42.450996" lon="18.547552">
<ele>30.9</ele>
<time>2012-05-02T09:05:14Z</time>
<desc>lat.=42.450996, lon.=18.547552, Alt.=43.747589m. Speed=17.459999m/h.</desc>
<speed>4.850000</speed>
</trkpt>
<trkpt lat="42.450500" lon="18.549686">
<ele>25.3</ele>
<time>2012-05-02T09:05:44Z</time>
<desc>lat.=42.450500, lon.=18.549686, Alt.=44.361847m. Speed=20.988001m/h.</desc>
<speed>5.830000</speed>
</trkpt>
<trkpt lat="42.450439" lon="18.551025">
<ele>24.0</ele>
<time>2012-05-02T09:05:59Z</time>
<desc>lat.=42.450439, lon.=18.551025, Alt.=42.478058m. Speed=29.016001m/h.</desc>
<speed>8.060000</speed>
</trkpt>
<trkpt lat="42.450966" lon="18.552876">
<ele>23.6</ele>
<time>2012-05-02T09:06:19Z</time>
<desc>lat.=42.450966, lon.=18.552876, Alt.=39.795441m. Speed=24.191999m/h.</desc>
<speed>6.720000</speed>
</trkpt>
<trkpt lat="42.451488" lon="18.553505">
<ele>24.5</ele>
<time>2012-05-02T09:06:34Z</time>
<desc>lat.=42.451488, lon.=18.553505, Alt.=39.003448m. Speed=17.459999m/h.</desc>
<speed>4.850000</speed>
</trkpt>
<trkpt lat="42.451992" lon="18.556135">
<ele>18.3</ele>
<time>2012-05-02T09:07:04Z</time>
<desc>lat.=42.451992, lon.=18.556135, Alt.=27.835709m. Speed=34.812000m/h.</desc>
<speed>9.670000</speed>
</trkpt>
<trkpt lat="42.452843" lon="18.557728">
<ele>12.9</ele>
<time>2012-05-02T09:07:24Z</time>
<desc>lat.=42.452843, lon.=18.557728, Alt.=22.636490m. Speed=29.124001m/h.</desc>
<speed>8.090000</speed>
</trkpt>
<trkpt lat="42.453465" lon="18.558390">
<ele>10.1</ele>
<time>2012-05-02T09:07:34Z</time>
<desc>lat.=42.453465, lon.=18.558390, Alt.=17.031509m. Speed=35.820000m/h.</desc>
<speed>9.950000</speed>
</trkpt>
<trkpt lat="42.453907" lon="18.558592">
<ele>7.0</ele>
<time>2012-05-02T09:07:39Z</time>
<desc>lat.=42.453907, lon.=18.558592, Alt.=13.684944m. Speed=37.872002m/h.</desc>
<speed>10.520000</speed>
</trkpt>
<trkpt lat="42.454945" lon="18.558578">
<ele>4.7</ele>
<time>2012-05-02T09:07:54Z</time>
<desc>lat.=42.454945, lon.=18.558578, Alt.=12.078499m. Speed=22.176001m/h.</desc>
<speed>6.160000</speed>
</trkpt>
<trkpt lat="42.455246" lon="18.559025">
<ele>6.5</ele>
<time>2012-05-02T09:08:04Z</time>
<desc>lat.=42.455246, lon.=18.559025, Alt.=17.291763m. Speed=21.708000m/h.</desc>
<speed>6.030000</speed>
</trkpt>
<trkpt lat="42.455189" lon="18.562172">
<ele>4.9</ele>
<time>2012-05-02T09:08:49Z</time>
<desc>lat.=42.455189, lon.=18.562172, Alt.=-3.410128m. Speed=20.520000m/h.</desc>
<speed>5.700000</speed>
</trkpt>
<trkpt lat="42.455730" lon="18.564976">
<ele>16.0</ele>
<time>2012-05-02T09:09:39Z</time>
<desc>lat.=42.455730, lon.=18.564976, Alt.=13.790901m. Speed=11.628000m/h.</desc>
<speed>3.230000</speed>
</trkpt>
<trkpt lat="42.455467" lon="18.567497">
<ele>35.4</ele>
<time>2012-05-02T09:10:19Z</time>
<desc>lat.=42.455467, lon.=18.567497, Alt.=17.003677m. Speed=28.980000m/h.</desc>
<speed>8.050000</speed>
</trkpt>
<trkpt lat="42.454372" lon="18.568270">
<ele>17.4</ele>
<time>2012-05-02T09:10:35Z</time>
<desc>lat.=42.454372, lon.=18.568270, Alt.=14.485237m. Speed=30.888000m/h.</desc>
<speed>8.580000</speed>
</trkpt>
<trkpt lat="42.452351" lon="18.570410">
<ele>17.8</ele>
<time>2012-05-02T09:11:05Z</time>
<desc>lat.=42.452351, lon.=18.570410, Alt.=8.034065m. Speed=32.472000m/h.</desc>
<speed>9.020000</speed>
</trkpt>
<trkpt lat="42.451275" lon="18.572519">
<ele>5.2</ele>
<time>2012-05-02T09:11:30Z</time>
<desc>lat.=42.451275, lon.=18.572519, Alt.=8.686165m. Speed=28.980000m/h.</desc>
<speed>8.050000</speed>
</trkpt>
<trkpt lat="42.450699" lon="18.573149">
<ele>2.1</ele>
<time>2012-05-02T09:11:40Z</time>
<desc>lat.=42.450699, lon.=18.573149, Alt.=6.603580m. Speed=30.743999m/h.</desc>
<speed>8.540000</speed>
</trkpt>
<trkpt lat="42.449390" lon="18.573858">
<ele>3.1</ele>
<time>2012-05-02T09:12:00Z</time>
<desc>lat.=42.449390, lon.=18.573858, Alt.=5.478458m. Speed=28.188000m/h.</desc>
<speed>7.830000</speed>
</trkpt>
<trkpt lat="42.445885" lon="18.577360">
<ele>5.0</ele>
<time>2012-05-02T09:13:05Z</time>
<desc>lat.=42.445885, lon.=18.577360, Alt.=-1.844682m. Speed=17.424000m/h.</desc>
<speed>4.840000</speed>
</trkpt>
<trkpt lat="42.444836" lon="18.578062">
<ele>9.6</ele>
<time>2012-05-02T09:13:30Z</time>
<desc>lat.=42.444836, lon.=18.578062, Alt.=1.976579m. Speed=18.792000m/h.</desc>
<speed>5.220000</speed>
</trkpt>
<trkpt lat="42.444191" lon="18.579008">
<ele>13.3</ele>
<time>2012-05-02T09:13:45Z</time>
<desc>lat.=42.444191, lon.=18.579008, Alt.=1.323472m. Speed=24.624001m/h.</desc>
<speed>6.840000</speed>
</trkpt>
<trkpt lat="42.443859" lon="18.579874">
<ele>11.2</ele>
<time>2012-05-02T09:14:20Z</time>
<desc>lat.=42.443859, lon.=18.579874, Alt.=-2.360445m. Speed=0.180000m/h.</desc>
<speed>0.050000</speed>
</trkpt>
<trkpt lat="42.443745" lon="18.579853">
<ele>6.1</ele>
<time>2012-05-02T09:17:40Z</time>
<desc>lat.=42.443745, lon.=18.579853, Alt.=10.556526m. Speed=0.036000m/h.</desc>
<speed>0.010000</speed>
</trkpt>
<trkpt lat="42.443268" lon="18.581707">
<ele>3.5</ele>
<time>2012-05-02T09:25:15Z</time>
<desc>lat.=42.443268, lon.=18.581707, Alt.=1.346269m. Speed=29.771999m/h.</desc>
<speed>8.270000</speed>
</trkpt>
<trkpt lat="42.442154" lon="18.582941">
<ele>2.9</ele>
<time>2012-05-02T09:25:50Z</time>
<desc>lat.=42.442154, lon.=18.582941, Alt.=0.222647m. Speed=11.376000m/h.</desc>
<speed>3.160000</speed>
</trkpt>
<trkpt lat="42.440910" lon="18.583828">
<ele>5.0</ele>
<time>2012-05-02T09:26:20Z</time>
<desc>lat.=42.440910, lon.=18.583828, Alt.=1.880479m. Speed=22.788000m/h.</desc>
<speed>6.330000</speed>
</trkpt>
<trkpt lat="42.438713" lon="18.587292">
<ele>1.5</ele>
<time>2012-05-02T09:27:20Z</time>
<desc>lat.=42.438713, lon.=18.587292, Alt.=-1.681840m. Speed=16.775999m/h.</desc>
<speed>4.660000</speed>
</trkpt>
<trkpt lat="42.438034" lon="18.588789">
<ele>5.2</ele>
<time>2012-05-02T09:27:55Z</time>
<desc>lat.=42.438034, lon.=18.588789, Alt.=-0.326847m. Speed=13.608000m/h.</desc>
<speed>3.780000</speed>
</trkpt>
<trkpt lat="42.437378" lon="18.590874">
<ele>1.8</ele>
<time>2012-05-02T09:28:30Z</time>
<desc>lat.=42.437378, lon.=18.590874, Alt.=-1.607438m. Speed=20.988001m/h.</desc>
<speed>5.830000</speed>
</trkpt>
<trkpt lat="42.437397" lon="18.591225">
<ele>1.4</ele>
<time>2012-05-02T09:28:35Z</time>
<desc>lat.=42.437397, lon.=18.591225, Alt.=-1.500871m. Speed=22.464001m/h.</desc>
<speed>6.240000</speed>
</trkpt>
<trkpt lat="42.438057" lon="18.591837">
<ele>6.3</ele>
<time>2012-05-02T09:28:55Z</time>
<desc>lat.=42.438057, lon.=18.591837, Alt.=2.435396m. Speed=13.212000m/h.</desc>
<speed>3.670000</speed>
</trkpt>
<trkpt lat="42.438282" lon="18.592352">
<ele>11.8</ele>
<time>2012-05-02T09:29:10Z</time>
<desc>lat.=42.438282, lon.=18.592352, Alt.=1.571733m. Speed=12.420000m/h.</desc>
<speed>3.450000</speed>
</trkpt>
<trkpt lat="42.438023" lon="18.594336">
<ele>19.5</ele>
<time>2012-05-02T09:30:00Z</time>
<desc>lat.=42.438023, lon.=18.594336, Alt.=16.490494m. Speed=17.459999m/h.</desc>
<speed>4.850000</speed>
</trkpt>
<trkpt lat="42.435612" lon="18.602633">
<ele>6.0</ele>
<time>2012-05-02T09:31:55Z</time>
<desc>lat.=42.435612, lon.=18.602633, Alt.=14.766487m. Speed=21.348000m/h.</desc>
<speed>5.930000</speed>
</trkpt>
<trkpt lat="42.435184" lon="18.602949">
<ele>6.2</ele>
<time>2012-05-02T09:32:05Z</time>
<desc>lat.=42.435184, lon.=18.602949, Alt.=12.980354m. Speed=23.796000m/h.</desc>
<speed>6.610000</speed>
</trkpt>
<trkpt lat="42.435188" lon="18.604174">
<ele>2.8</ele>
<time>2012-05-02T09:32:20Z</time>
<desc>lat.=42.435188, lon.=18.604174, Alt.=9.477180m. Speed=21.420000m/h.</desc>
<speed>5.950000</speed>
</trkpt>
<trkpt lat="42.434879" lon="18.605156">
<ele>1.1</ele>
<time>2012-05-02T09:32:35Z</time>
<desc>lat.=42.434879, lon.=18.605156, Alt.=7.543034m. Speed=21.528000m/h.</desc>
<speed>5.980000</speed>
</trkpt>
<trkpt lat="42.434872" lon="18.605515">
<ele>0.1</ele>
<time>2012-05-02T09:32:40Z</time>
<desc>lat.=42.434872, lon.=18.605515, Alt.=6.233585m. Speed=18.468000m/h.</desc>
<speed>5.130000</speed>
</trkpt>
<trkpt lat="42.435200" lon="18.606277">
<ele>2.0</ele>
<time>2012-05-02T09:32:55Z</time>
<desc>lat.=42.435200, lon.=18.606277, Alt.=3.922884m. Speed=20.664000m/h.</desc>
<speed>5.740000</speed>
</trkpt>
<trkpt lat="42.435005" lon="18.607203">
<ele>2.2</ele>
<time>2012-05-02T09:33:10Z</time>
<desc>lat.=42.435005, lon.=18.607203, Alt.=1.607774m. Speed=17.568001m/h.</desc>
<speed>4.880000</speed>
</trkpt>
<trkpt lat="42.435234" lon="18.609699">
<ele>0.6</ele>
<time>2012-05-02T09:33:45Z</time>
<desc>lat.=42.435234, lon.=18.609699, Alt.=1.604234m. Speed=20.664000m/h.</desc>
<speed>5.740000</speed>
</trkpt>
<trkpt lat="42.436344" lon="18.610971">
<ele>0.8</ele>
<time>2012-05-02T09:34:15Z</time>
<desc>lat.=42.436344, lon.=18.610971, Alt.=8.485725m. Speed=5.040000m/h.</desc>
<speed>1.400000</speed>
</trkpt>
<trkpt lat="42.437191" lon="18.613926">
<ele>0.0</ele>
<time>2012-05-02T09:35:10Z</time>
<desc>lat.=42.437191, lon.=18.613926, Alt.=9.189095m. Speed=22.284000m/h.</desc>
<speed>6.190000</speed>
</trkpt>
<trkpt lat="42.438179" lon="18.614460">
<ele>0.5</ele>
<time>2012-05-02T09:35:30Z</time>
<desc>lat.=42.438179, lon.=18.614460, Alt.=5.531681m. Speed=19.691999m/h.</desc>
<speed>5.470000</speed>
</trkpt>
<trkpt lat="42.438438" lon="18.614998">
<ele>1.2</ele>
<time>2012-05-02T09:35:40Z</time>
<desc>lat.=42.438438, lon.=18.614998, Alt.=7.226017m. Speed=21.708000m/h.</desc>
<speed>6.030000</speed>
</trkpt>
<trkpt lat="42.438240" lon="18.616104">
<ele>0.3</ele>
<time>2012-05-02T09:35:55Z</time>
<desc>lat.=42.438240, lon.=18.616104, Alt.=6.113712m. Speed=23.436001m/h.</desc>
<speed>6.510000</speed>
</trkpt>
<trkpt lat="42.438694" lon="18.618792">
<ele>1.5</ele>
<time>2012-05-02T09:36:30Z</time>
<desc>lat.=42.438694, lon.=18.618792, Alt.=1.490312m. Speed=23.976000m/h.</desc>
<speed>6.660000</speed>
</trkpt>
<trkpt lat="42.438652" lon="18.619888">
<ele>0.7</ele>
<time>2012-05-02T09:36:45Z</time>
<desc>lat.=42.438652, lon.=18.619888, Alt.=-3.120394m. Speed=22.896000m/h.</desc>
<speed>6.360000</speed>
</trkpt>
<trkpt lat="42.439152" lon="18.620802">
<ele>1.0</ele>
<time>2012-05-02T09:37:00Z</time>
<desc>lat.=42.439152, lon.=18.620802, Alt.=1.124040m. Speed=21.563999m/h.</desc>
<speed>5.990000</speed>
</trkpt>
<trkpt lat="42.439655" lon="18.623001">
<ele>2.2</ele>
<time>2012-05-02T09:37:30Z</time>
<desc>lat.=42.439655, lon.=18.623001, Alt.=2.115267m. Speed=19.115999m/h.</desc>
<speed>5.310000</speed>
</trkpt>
<trkpt lat="42.439499" lon="18.624596">
<ele>0.6</ele>
<time>2012-05-02T09:37:50Z</time>
<desc>lat.=42.439499, lon.=18.624596, Alt.=2.141878m. Speed=20.304001m/h.</desc>
<speed>5.640000</speed>
</trkpt>
<trkpt lat="42.439960" lon="18.625690">
<ele>0.1</ele>
<time>2012-05-02T09:38:05Z</time>
<desc>lat.=42.439960, lon.=18.625690, Alt.=9.373665m. Speed=23.544001m/h.</desc>
<speed>6.540000</speed>
</trkpt>
<trkpt lat="42.440304" lon="18.627489">
<ele>0.7</ele>
<time>2012-05-02T09:38:30Z</time>
<desc>lat.=42.440304, lon.=18.627489, Alt.=17.397720m. Speed=23.076000m/h.</desc>
<speed>6.410000</speed>
</trkpt>
<trkpt lat="42.441158" lon="18.630363">
<ele>1.8</ele>
<time>2012-05-02T09:39:10Z</time>
<desc>lat.=42.441158, lon.=18.630363, Alt.=8.688850m. Speed=21.132000m/h.</desc>
<speed>5.870000</speed>
</trkpt>
<trkpt lat="42.441090" lon="18.631451">
<ele>1.0</ele>
<time>2012-05-02T09:39:25Z</time>
<desc>lat.=42.441090, lon.=18.631451, Alt.=6.414005m. Speed=19.764000m/h.</desc>
<speed>5.490000</speed>
</trkpt>
<trkpt lat="42.442879" lon="18.634073">
<ele>0.4</ele>
<time>2012-05-02T09:40:15Z</time>
<desc>lat.=42.442879, lon.=18.634073, Alt.=2.312410m. Speed=18.612000m/h.</desc>
<speed>5.170000</speed>
</trkpt>
<trkpt lat="42.442963" lon="18.635166">
<ele>0.6</ele>
<time>2012-05-02T09:40:30Z</time>
<desc>lat.=42.442963, lon.=18.635166, Alt.=2.317720m. Speed=21.312000m/h.</desc>
<speed>5.920000</speed>
</trkpt>
<trkpt lat="42.444077" lon="18.639074">
<ele>0.7</ele>
<time>2012-05-02T09:41:25Z</time>
<desc>lat.=42.444077, lon.=18.639074, Alt.=6.952213m. Speed=18.035999m/h.</desc>
<speed>5.010000</speed>
</trkpt>
<trkpt lat="42.447605" lon="18.644796">
<ele>1.0</ele>
<time>2012-05-02T09:43:00Z</time>
<desc>lat.=42.447605, lon.=18.644796, Alt.=-0.027554m. Speed=26.747999m/h.</desc>
<speed>7.430000</speed>
</trkpt>
<trkpt lat="42.448391" lon="18.646872">
<ele>0.2</ele>
<time>2012-05-02T09:44:10Z</time>
<desc>lat.=42.448391, lon.=18.646872, Alt.=3.944063m. Speed=0.036000m/h.</desc>
<speed>0.010000</speed>
</trkpt>
<trkpt lat="42.448959" lon="18.647509">
<ele>0.2</ele>
<time>2012-05-02T09:46:55Z</time>
<desc>lat.=42.448959, lon.=18.647509, Alt.=3.690096m. Speed=18.396000m/h.</desc>
<speed>5.110000</speed>
</trkpt>
<trkpt lat="42.449383" lon="18.648371">
<ele>0.6</ele>
<time>2012-05-02T09:47:10Z</time>
<desc>lat.=42.449383, lon.=18.648371, Alt.=3.385897m. Speed=22.032000m/h.</desc>
<speed>6.120000</speed>
</trkpt>
<trkpt lat="42.450367" lon="18.651472">
<ele>1.6</ele>
<time>2012-05-02T09:47:55Z</time>
<desc>lat.=42.450367, lon.=18.651472, Alt.=9.384895m. Speed=22.823999m/h.</desc>
<speed>6.340000</speed>
</trkpt>
<trkpt lat="42.450840" lon="18.651609">
<ele>5.7</ele>
<time>2012-05-02T09:48:05Z</time>
<desc>lat.=42.450840, lon.=18.651609, Alt.=13.125374m. Speed=21.816000m/h.</desc>
<speed>6.060000</speed>
</trkpt>
<trkpt lat="42.451530" lon="18.651503">
<ele>5.0</ele>
<time>2012-05-02T09:48:20Z</time>
<desc>lat.=42.451530, lon.=18.651503, Alt.=16.864517m. Speed=18.108000m/h.</desc>
<speed>5.030000</speed>
</trkpt>
<trkpt lat="42.452381" lon="18.652534">
<ele>3.8</ele>
<time>2012-05-02T09:48:40Z</time>
<desc>lat.=42.452381, lon.=18.652534, Alt.=14.930550m. Speed=22.464001m/h.</desc>
<speed>6.240000</speed>
</trkpt>
<trkpt lat="42.453335" lon="18.653320">
<ele>8.1</ele>
<time>2012-05-02T09:49:00Z</time>
<desc>lat.=42.453335, lon.=18.653320, Alt.=15.083626m. Speed=21.851999m/h.</desc>
<speed>6.070000</speed>
</trkpt>
<trkpt lat="42.453621" lon="18.653940">
<ele>9.4</ele>
<time>2012-05-02T09:49:10Z</time>
<desc>lat.=42.453621, lon.=18.653940, Alt.=15.857796m. Speed=20.556000m/h.</desc>
<speed>5.710000</speed>
</trkpt>
<trkpt lat="42.453762" lon="18.654480">
<ele>10.0</ele>
<time>2012-05-02T09:49:20Z</time>
<desc>lat.=42.453762, lon.=18.654480, Alt.=16.208755m. Speed=13.176000m/h.</desc>
<speed>3.660000</speed>
</trkpt>
<trkpt lat="42.453491" lon="18.654915">
<ele>7.3</ele>
<time>2012-05-02T09:49:30Z</time>
<desc>lat.=42.453491, lon.=18.654915, Alt.=15.690315m. Speed=22.392000m/h.</desc>
<speed>6.220000</speed>
</trkpt>
<trkpt lat="42.453793" lon="18.655981">
<ele>7.6</ele>
<time>2012-05-02T09:49:45Z</time>
<desc>lat.=42.453793, lon.=18.655981, Alt.=11.143684m. Speed=17.280001m/h.</desc>
<speed>4.800000</speed>
</trkpt>
<trkpt lat="42.453026" lon="18.656765">
<ele>3.6</ele>
<time>2012-05-02T09:50:00Z</time>
<desc>lat.=42.453026, lon.=18.656765, Alt.=9.010384m. Speed=26.424000m/h.</desc>
<speed>7.340000</speed>
</trkpt>
<trkpt lat="42.452667" lon="18.657440">
<ele>3.5</ele>
<time>2012-05-02T09:50:10Z</time>
<desc>lat.=42.452667, lon.=18.657440, Alt.=10.567757m. Speed=33.299999m/h.</desc>
<speed>9.250000</speed>
</trkpt>
<trkpt lat="42.452553" lon="18.658100">
<ele>0.3</ele>
<time>2012-05-02T09:50:20Z</time>
<desc>lat.=42.452553, lon.=18.658100, Alt.=14.576302m. Speed=20.520000m/h.</desc>
<speed>5.700000</speed>
</trkpt>
<trkpt lat="42.454296" lon="18.659998">
<ele>0.2</ele>
<time>2012-05-02T09:51:00Z</time>
<desc>lat.=42.454296, lon.=18.659998, Alt.=8.049690m. Speed=16.775999m/h.</desc>
<speed>4.660000</speed>
</trkpt>
<trkpt lat="42.456112" lon="18.662497">
<ele>0.9</ele>
<time>2012-05-02T09:51:50Z</time>
<desc>lat.=42.456112, lon.=18.662497, Alt.=1.334550m. Speed=24.191999m/h.</desc>
<speed>6.720000</speed>
</trkpt>
<trkpt lat="42.456604" lon="18.663992">
<ele>0.7</ele>
<time>2012-05-02T09:52:10Z</time>
<desc>lat.=42.456604, lon.=18.663992, Alt.=0.852242m. Speed=25.164000m/h.</desc>
<speed>6.990000</speed>
</trkpt>
<trkpt lat="42.457302" lon="18.667944">
<ele>0.4</ele>
<time>2012-05-02T09:53:00Z</time>
<desc>lat.=42.457302, lon.=18.667944, Alt.=0.564721m. Speed=25.236000m/h.</desc>
<speed>7.010000</speed>
</trkpt>
<trkpt lat="42.458355" lon="18.669800">
<ele>0.4</ele>
<time>2012-05-02T09:53:25Z</time>
<desc>lat.=42.458355, lon.=18.669800, Alt.=-0.564431m. Speed=24.768000m/h.</desc>
<speed>6.880000</speed>
</trkpt>
<trkpt lat="42.458797" lon="18.670244">
<ele>1.4</ele>
<time>2012-05-02T09:53:35Z</time>
<desc>lat.=42.458797, lon.=18.670244, Alt.=1.921525m. Speed=21.636000m/h.</desc>
<speed>6.010000</speed>
</trkpt>
<trkpt lat="42.459377" lon="18.671640">
<ele>3.4</ele>
<time>2012-05-02T09:53:55Z</time>
<desc>lat.=42.459377, lon.=18.671640, Alt.=1.761277m. Speed=28.188000m/h.</desc>
<speed>7.830000</speed>
</trkpt>
<trkpt lat="42.459549" lon="18.674685">
<ele>5.9</ele>
<time>2012-05-02T09:54:30Z</time>
<desc>lat.=42.459549, lon.=18.674685, Alt.=-0.208311m. Speed=26.856001m/h.</desc>
<speed>7.460000</speed>
</trkpt>
<trkpt lat="42.459797" lon="18.675425">
<ele>0.9</ele>
<time>2012-05-02T09:54:40Z</time>
<desc>lat.=42.459797, lon.=18.675425, Alt.=-0.367077m. Speed=27.288000m/h.</desc>
<speed>7.580000</speed>
</trkpt>
<trkpt lat="42.460117" lon="18.675550">
<ele>2.2</ele>
<time>2012-05-02T09:54:45Z</time>
<desc>lat.=42.460117, lon.=18.675550, Alt.=-1.070786m. Speed=27.756001m/h.</desc>
<speed>7.710000</speed>
</trkpt>
<trkpt lat="42.460705" lon="18.675226">
<ele>1.3</ele>
<time>2012-05-02T09:54:55Z</time>
<desc>lat.=42.460705, lon.=18.675226, Alt.=1.246995m. Speed=27.756001m/h.</desc>
<speed>7.710000</speed>
</trkpt>
<trkpt lat="42.461330" lon="18.673880">
<ele>2.6</ele>
<time>2012-05-02T09:56:55Z</time>
<desc>lat.=42.461330, lon.=18.673880, Alt.=6.148380m. Speed=24.983999m/h.</desc>
<speed>6.940000</speed>
</trkpt>
<trkpt lat="42.462406" lon="18.673019">
<ele>0.3</ele>
<time>2012-05-02T09:57:15Z</time>
<desc>lat.=42.462406, lon.=18.673019, Alt.=7.281437m. Speed=25.488001m/h.</desc>
<speed>7.080000</speed>
</trkpt>
<trkpt lat="42.463043" lon="18.673086">
<ele>0.6</ele>
<time>2012-05-02T09:57:25Z</time>
<desc>lat.=42.463043, lon.=18.673086, Alt.=8.869514m. Speed=20.952000m/h.</desc>
<speed>5.820000</speed>
</trkpt>
<trkpt lat="42.463829" lon="18.673500">
<ele>2.7</ele>
<time>2012-05-02T09:57:45Z</time>
<desc>lat.=42.463829, lon.=18.673500, Alt.=9.948616m. Speed=22.643999m/h.</desc>
<speed>6.290000</speed>
</trkpt>
<trkpt lat="42.465065" lon="18.673460">
<ele>0.9</ele>
<time>2012-05-02T09:58:05Z</time>
<desc>lat.=42.465065, lon.=18.673460, Alt.=6.581120m. Speed=25.920000m/h.</desc>
<speed>7.200000</speed>
</trkpt>
<trkpt lat="42.466297" lon="18.673676">
<ele>1.6</ele>
<time>2012-05-02T09:58:25Z</time>
<desc>lat.=42.466297, lon.=18.673676, Alt.=6.600773m. Speed=21.348000m/h.</desc>
<speed>5.930000</speed>
</trkpt>
<trkpt lat="42.467506" lon="18.675491">
<ele>1.1</ele>
<time>2012-05-02T10:05:40Z</time>
<desc>lat.=42.467506, lon.=18.675491, Alt.=5.217228m. Speed=22.860001m/h.</desc>
<speed>6.350000</speed>
</trkpt>
<trkpt lat="42.468403" lon="18.675611">
<ele>0.5</ele>
<time>2012-05-02T10:05:55Z</time>
<desc>lat.=42.468403, lon.=18.675611, Alt.=-2.096895m. Speed=26.747999m/h.</desc>
<speed>7.430000</speed>
</trkpt>
<trkpt lat="42.468693" lon="18.675821">
<ele>0.0</ele>
<time>2012-05-02T10:06:00Z</time>
<desc>lat.=42.468693, lon.=18.675821, Alt.=-1.465592m. Speed=24.444000m/h.</desc>
<speed>6.790000</speed>
</trkpt>
<trkpt lat="42.469345" lon="18.677036">
<ele>0.3</ele>
<time>2012-05-02T10:06:20Z</time>
<desc>lat.=42.469345, lon.=18.677036, Alt.=-0.917565m. Speed=24.768000m/h.</desc>
<speed>6.880000</speed>
</trkpt>
<trkpt lat="42.470509" lon="18.677933">
<ele>2.5</ele>
<time>2012-05-02T10:06:40Z</time>
<desc>lat.=42.470509, lon.=18.677933, Alt.=1.046739m. Speed=23.184000m/h.</desc>
<speed>6.440000</speed>
</trkpt>
<trkpt lat="42.471237" lon="18.680344">
<ele>0.0</ele>
<time>2012-05-02T10:07:10Z</time>
<desc>lat.=42.471237, lon.=18.680344, Alt.=-6.629948m. Speed=29.016001m/h.</desc>
<speed>8.060000</speed>
</trkpt>
<trkpt lat="42.471550" lon="18.680580">
<ele>0.8</ele>
<time>2012-05-02T10:07:15Z</time>
<desc>lat.=42.471550, lon.=18.680580, Alt.=-5.249332m. Speed=30.528000m/h.</desc>
<speed>8.480000</speed>
</trkpt>
<trkpt lat="42.472778" lon="18.680567">
<ele>1.2</ele>
<time>2012-05-02T10:07:30Z</time>
<desc>lat.=42.472778, lon.=18.680567, Alt.=-3.492586m. Speed=32.076000m/h.</desc>
<speed>8.910000</speed>
</trkpt>
<trkpt lat="42.473499" lon="18.680895">
<ele>0.0</ele>
<time>2012-05-02T10:07:40Z</time>
<desc>lat.=42.473499, lon.=18.680895, Alt.=-2.004671m. Speed=27.900000m/h.</desc>
<speed>7.750000</speed>
</trkpt>
<trkpt lat="42.476101" lon="18.683846">
<ele>3.3</ele>
<time>2012-05-02T10:08:35Z</time>
<desc>lat.=42.476101, lon.=18.683846, Alt.=8.170052m. Speed=18.900000m/h.</desc>
<speed>5.250000</speed>
</trkpt>
<trkpt lat="42.476864" lon="18.683886">
<ele>7.0</ele>
<time>2012-05-02T10:08:50Z</time>
<desc>lat.=42.476864, lon.=18.683886, Alt.=8.965462m. Speed=20.195999m/h.</desc>
<speed>5.610000</speed>
</trkpt>
<trkpt lat="42.477127" lon="18.684080">
<ele>4.1</ele>
<time>2012-05-02T10:08:55Z</time>
<desc>lat.=42.477127, lon.=18.684080, Alt.=9.537239m. Speed=25.128000m/h.</desc>
<speed>6.980000</speed>
</trkpt>
<trkpt lat="42.478630" lon="18.686420">
<ele>4.4</ele>
<time>2012-05-02T10:09:30Z</time>
<desc>lat.=42.478630, lon.=18.686420, Alt.=6.430729m. Speed=27.323999m/h.</desc>
<speed>7.590000</speed>
</trkpt>
<trkpt lat="42.478947" lon="18.686432">
<ele>6.4</ele>
<time>2012-05-02T10:09:35Z</time>
<desc>lat.=42.478947, lon.=18.686432, Alt.=6.257023m. Speed=26.063999m/h.</desc>
<speed>7.240000</speed>
</trkpt>
<trkpt lat="42.479675" lon="18.685335">
<ele>6.4</ele>
<time>2012-05-02T10:09:50Z</time>
<desc>lat.=42.479675, lon.=18.685335, Alt.=5.650822m. Speed=31.535999m/h.</desc>
<speed>8.760000</speed>
</trkpt>
<trkpt lat="42.480701" lon="18.683077">
<ele>5.2</ele>
<time>2012-05-02T10:10:20Z</time>
<desc>lat.=42.480701, lon.=18.683077, Alt.=0.990410m. Speed=24.660000m/h.</desc>
<speed>6.850000</speed>
</trkpt>
<trkpt lat="42.482838" lon="18.677696">
<ele>8.8</ele>
<time>2012-05-02T10:11:30Z</time>
<desc>lat.=42.482838, lon.=18.677696, Alt.=-12.223274m. Speed=26.856001m/h.</desc>
<speed>7.460000</speed>
</trkpt>
<trkpt lat="42.483280" lon="18.676186">
<ele>11.8</ele>
<time>2012-05-02T10:11:50Z</time>
<desc>lat.=42.483280, lon.=18.676186, Alt.=-17.194595m. Speed=24.336000m/h.</desc>
<speed>6.760000</speed>
</trkpt>
<trkpt lat="42.484287" lon="18.674170">
<ele>5.2</ele>
<time>2012-05-02T10:12:15Z</time>
<desc>lat.=42.484287, lon.=18.674170, Alt.=-18.257095m. Speed=30.384001m/h.</desc>
<speed>8.440000</speed>
</trkpt>
<trkpt lat="42.484528" lon="18.673231">
<ele>6.0</ele>
<time>2012-05-02T10:12:25Z</time>
<desc>lat.=42.484528, lon.=18.673231, Alt.=-19.344009m. Speed=29.016001m/h.</desc>
<speed>8.060000</speed>
</trkpt>
<trkpt lat="42.484703" lon="18.670954">
<ele>12.5</ele>
<time>2012-05-02T10:12:50Z</time>
<desc>lat.=42.484703, lon.=18.670954, Alt.=-17.765396m. Speed=24.516001m/h.</desc>
<speed>6.810000</speed>
</trkpt>
<trkpt lat="42.485413" lon="18.669102">
<ele>5.7</ele>
<time>2012-05-02T10:13:15Z</time>
<desc>lat.=42.485413, lon.=18.669102, Alt.=-10.147346m. Speed=27.431999m/h.</desc>
<speed>7.620000</speed>
</trkpt>
<trkpt lat="42.486298" lon="18.667336">
<ele>5.4</ele>
<time>2012-05-02T10:13:40Z</time>
<desc>lat.=42.486298, lon.=18.667336, Alt.=-10.403450m. Speed=23.940001m/h.</desc>
<speed>6.650000</speed>
</trkpt>
<trkpt lat="42.486332" lon="18.665171">
<ele>7.3</ele>
<time>2012-05-02T10:14:05Z</time>
<desc>lat.=42.486332, lon.=18.665171, Alt.=-8.671028m. Speed=27.000000m/h.</desc>
<speed>7.500000</speed>
</trkpt>
<trkpt lat="42.486732" lon="18.663921">
<ele>5.4</ele>
<time>2012-05-02T10:14:20Z</time>
<desc>lat.=42.486732, lon.=18.663921, Alt.=-7.609074m. Speed=24.732000m/h.</desc>
<speed>6.870000</speed>
</trkpt>
<trkpt lat="42.487186" lon="18.661505">
<ele>8.9</ele>
<time>2012-05-02T10:14:50Z</time>
<desc>lat.=42.487186, lon.=18.661505, Alt.=-13.568001m. Speed=25.524000m/h.</desc>
<speed>7.090000</speed>
</trkpt>
<trkpt lat="42.486805" lon="18.659601">
<ele>21.9</ele>
<time>2012-05-02T10:15:15Z</time>
<desc>lat.=42.486805, lon.=18.659601, Alt.=-10.815315m. Speed=19.332001m/h.</desc>
<speed>5.370000</speed>
</trkpt>
<trkpt lat="42.487103" lon="18.657936">
<ele>12.6</ele>
<time>2012-05-02T10:15:35Z</time>
<desc>lat.=42.487103, lon.=18.657936, Alt.=-5.911808m. Speed=25.128000m/h.</desc>
<speed>6.980000</speed>
</trkpt>
<trkpt lat="42.486935" lon="18.656776">
<ele>22.2</ele>
<time>2012-05-02T10:15:50Z</time>
<desc>lat.=42.486935, lon.=18.656776, Alt.=-0.769204m. Speed=26.604000m/h.</desc>
<speed>7.390000</speed>
</trkpt>
<trkpt lat="42.487179" lon="18.653711">
<ele>8.6</ele>
<time>2012-05-02T10:16:25Z</time>
<desc>lat.=42.487179, lon.=18.653711, Alt.=9.128792m. Speed=22.823999m/h.</desc>
<speed>6.340000</speed>
</trkpt>
<trkpt lat="42.487068" lon="18.652086">
<ele>6.1</ele>
<time>2012-05-02T10:16:45Z</time>
<desc>lat.=42.487068, lon.=18.652086, Alt.=12.826057m. Speed=27.072001m/h.</desc>
<speed>7.520000</speed>
</trkpt>
<trkpt lat="42.487183" lon="18.651737">
<ele>3.3</ele>
<time>2012-05-02T10:16:50Z</time>
<desc>lat.=42.487183, lon.=18.651737, Alt.=11.475960m. Speed=17.136000m/h.</desc>
<speed>4.760000</speed>
</trkpt>
<trkpt lat="42.488575" lon="18.650351">
<ele>2.8</ele>
<time>2012-05-02T10:17:15Z</time>
<desc>lat.=42.488575, lon.=18.650351, Alt.=10.734261m. Speed=21.600000m/h.</desc>
<speed>6.000000</speed>
</trkpt>
<trkpt lat="42.489300" lon="18.649097">
<ele>2.5</ele>
<time>2012-05-02T10:17:35Z</time>
<desc>lat.=42.489300, lon.=18.649097, Alt.=6.594425m. Speed=18.864000m/h.</desc>
<speed>5.240000</speed>
</trkpt>
<trkpt lat="42.489540" lon="18.648987">
<ele>2.0</ele>
<time>2012-05-02T10:17:40Z</time>
<desc>lat.=42.489540, lon.=18.648987, Alt.=5.557194m. Speed=21.455999m/h.</desc>
<speed>5.960000</speed>
</trkpt>
<trkpt lat="42.489815" lon="18.649061">
<ele>1.3</ele>
<time>2012-05-02T10:17:45Z</time>
<desc>lat.=42.489815, lon.=18.649061, Alt.=4.954899m. Speed=22.896000m/h.</desc>
<speed>6.360000</speed>
</trkpt>
<trkpt lat="42.490417" lon="18.649994">
<ele>0.3</ele>
<time>2012-05-02T10:18:05Z</time>
<desc>lat.=42.490417, lon.=18.649994, Alt.=-4.426823m. Speed=16.775999m/h.</desc>
<speed>4.660000</speed>
</trkpt>
<trkpt lat="42.491035" lon="18.650490">
<ele>0.2</ele>
<time>2012-05-02T10:18:45Z</time>
<desc>lat.=42.491035, lon.=18.650490, Alt.=1.020036m. Speed=0.144000m/h.</desc>
<speed>0.040000</speed>
</trkpt>
<trkpt lat="42.491676" lon="18.650309">
<ele>1.4</ele>
<time>2012-05-02T10:37:20Z</time>
<desc>lat.=42.491676, lon.=18.650309, Alt.=4.988590m. Speed=20.087999m/h.</desc>
<speed>5.580000</speed>
</trkpt>
<trkpt lat="42.493332" lon="18.651814">
<ele>0.6</ele>
<time>2012-05-02T10:37:55Z</time>
<desc>lat.=42.493332, lon.=18.651814, Alt.=12.439827m. Speed=23.112000m/h.</desc>
<speed>6.420000</speed>
</trkpt>
<trkpt lat="42.494480" lon="18.651966">
<ele>0.0</ele>
<time>2012-05-02T10:38:15Z</time>
<desc>lat.=42.494480, lon.=18.651966, Alt.=7.917912m. Speed=25.452000m/h.</desc>
<speed>7.070000</speed>
</trkpt>
<trkpt lat="42.494865" lon="18.652689">
<ele>0.7</ele>
<time>2012-05-02T10:38:25Z</time>
<desc>lat.=42.494865, lon.=18.652689, Alt.=9.044319m. Speed=27.972000m/h.</desc>
<speed>7.770000</speed>
</trkpt>
<trkpt lat="42.495403" lon="18.654667">
<ele>0.0</ele>
<time>2012-05-02T10:38:50Z</time>
<desc>lat.=42.495403, lon.=18.654667, Alt.=5.312077m. Speed=23.292000m/h.</desc>
<speed>6.470000</speed>
</trkpt>
<trkpt lat="42.496258" lon="18.655361">
<ele>0.1</ele>
<time>2012-05-02T10:39:05Z</time>
<desc>lat.=42.496258, lon.=18.655361, Alt.=3.177095m. Speed=28.764000m/h.</desc>
<speed>7.990000</speed>
</trkpt>
<trkpt lat="42.496632" lon="18.656992">
<ele>1.1</ele>
<time>2012-05-02T10:39:25Z</time>
<desc>lat.=42.496632, lon.=18.656992, Alt.=1.482041m. Speed=24.264000m/h.</desc>
<speed>6.740000</speed>
</trkpt>
<trkpt lat="42.497025" lon="18.657990">
<ele>2.1</ele>
<time>2012-05-02T10:39:40Z</time>
<desc>lat.=42.497025, lon.=18.657990, Alt.=4.929508m. Speed=19.152000m/h.</desc>
<speed>5.320000</speed>
</trkpt>
<trkpt lat="42.497959" lon="18.658672">
<ele>2.5</ele>
<time>2012-05-02T10:40:00Z</time>
<desc>lat.=42.497959, lon.=18.658672, Alt.=10.348030m. Speed=25.452000m/h.</desc>
<speed>7.070000</speed>
</trkpt>
<trkpt lat="42.499111" lon="18.660372">
<ele>0.1</ele>
<time>2012-05-02T10:40:25Z</time>
<desc>lat.=42.499111, lon.=18.660372, Alt.=11.449837m. Speed=25.920000m/h.</desc>
<speed>7.200000</speed>
</trkpt>
<trkpt lat="42.500607" lon="18.661516">
<ele>1.4</ele>
<time>2012-05-02T10:40:55Z</time>
<desc>lat.=42.500607, lon.=18.661516, Alt.=14.756721m. Speed=25.091999m/h.</desc>
<speed>6.970000</speed>
</trkpt>
<trkpt lat="42.500988" lon="18.663288">
<ele>1.3</ele>
<time>2012-05-02T10:41:20Z</time>
<desc>lat.=42.500988, lon.=18.663288, Alt.=12.549202m. Speed=23.580000m/h.</desc>
<speed>6.550000</speed>
</trkpt>
<trkpt lat="42.502621" lon="18.665167">
<ele>0.0</ele>
<time>2012-05-02T10:41:50Z</time>
<desc>lat.=42.502621, lon.=18.665167, Alt.=11.562141m. Speed=28.224001m/h.</desc>
<speed>7.840000</speed>
</trkpt>
<trkpt lat="42.503490" lon="18.667051">
<ele>0.1</ele>
<time>2012-05-02T10:42:15Z</time>
<desc>lat.=42.503490, lon.=18.667051, Alt.=10.532356m. Speed=25.488001m/h.</desc>
<speed>7.080000</speed>
</trkpt>
<trkpt lat="42.504559" lon="18.667789">
<ele>1.6</ele>
<time>2012-05-02T10:42:35Z</time>
<desc>lat.=42.504559, lon.=18.667789, Alt.=8.873177m. Speed=24.264000m/h.</desc>
<speed>6.740000</speed>
</trkpt>
<trkpt lat="42.504707" lon="18.668140">
<ele>2.3</ele>
<time>2012-05-02T10:42:40Z</time>
<desc>lat.=42.504707, lon.=18.668140, Alt.=9.525276m. Speed=25.704000m/h.</desc>
<speed>7.140000</speed>
</trkpt>
<trkpt lat="42.504551" lon="18.669453">
<ele>1.4</ele>
<time>2012-05-02T10:42:55Z</time>
<desc>lat.=42.504551, lon.=18.669453, Alt.=9.051643m. Speed=25.164000m/h.</desc>
<speed>6.990000</speed>
</trkpt>
<trkpt lat="42.504662" lon="18.670736">
<ele>0.8</ele>
<time>2012-05-02T10:43:10Z</time>
<desc>lat.=42.504662, lon.=18.670736, Alt.=5.614689m. Speed=25.740000m/h.</desc>
<speed>7.150000</speed>
</trkpt>
<trkpt lat="42.505348" lon="18.672590">
<ele>2.4</ele>
<time>2012-05-02T10:43:35Z</time>
<desc>lat.=42.505348, lon.=18.672590, Alt.=4.336613m. Speed=24.228001m/h.</desc>
<speed>6.730000</speed>
</trkpt>
<trkpt lat="42.504757" lon="18.674620">
<ele>0.0</ele>
<time>2012-05-02T10:44:00Z</time>
<desc>lat.=42.504757, lon.=18.674620, Alt.=-0.049769m. Speed=26.063999m/h.</desc>
<speed>7.240000</speed>
</trkpt>
<trkpt lat="42.504887" lon="18.675446">
<ele>0.6</ele>
<time>2012-05-02T10:44:10Z</time>
<desc>lat.=42.504887, lon.=18.675446, Alt.=-1.246079m. Speed=27.252001m/h.</desc>
<speed>7.570000</speed>
</trkpt>
<trkpt lat="42.505211" lon="18.676176">
<ele>0.0</ele>
<time>2012-05-02T10:44:20Z</time>
<desc>lat.=42.505211, lon.=18.676176, Alt.=-2.122591m. Speed=25.091999m/h.</desc>
<speed>6.970000</speed>
</trkpt>
<trkpt lat="42.505939" lon="18.676844">
<ele>1.5</ele>
<time>2012-05-02T10:44:35Z</time>
<desc>lat.=42.505939, lon.=18.676844, Alt.=2.699251m. Speed=21.600000m/h.</desc>
<speed>6.000000</speed>
</trkpt>
<trkpt lat="42.506912" lon="18.676891">
<ele>0.2</ele>
<time>2012-05-02T10:44:55Z</time>
<desc>lat.=42.506912, lon.=18.676891, Alt.=8.607063m. Speed=21.888000m/h.</desc>
<speed>6.080000</speed>
</trkpt>
<trkpt lat="42.507847" lon="18.677235">
<ele>1.0</ele>
<time>2012-05-02T10:45:15Z</time>
<desc>lat.=42.507847, lon.=18.677235, Alt.=9.846809m. Speed=19.007999m/h.</desc>
<speed>5.280000</speed>
</trkpt>
<trkpt lat="42.509106" lon="18.678614">
<ele>6.3</ele>
<time>2012-05-02T10:45:50Z</time>
<desc>lat.=42.509106, lon.=18.678614, Alt.=9.565071m. Speed=21.024000m/h.</desc>
<speed>5.840000</speed>
</trkpt>
<trkpt lat="42.510654" lon="18.678719">
<ele>17.5</ele>
<time>2012-05-02T10:46:15Z</time>
<desc>lat.=42.510654, lon.=18.678719, Alt.=15.779182m. Speed=25.524000m/h.</desc>
<speed>7.090000</speed>
</trkpt>
<trkpt lat="42.511139" lon="18.679224">
<ele>13.0</ele>
<time>2012-05-02T10:46:25Z</time>
<desc>lat.=42.511139, lon.=18.679224, Alt.=20.016861m. Speed=20.556000m/h.</desc>
<speed>5.710000</speed>
</trkpt>
<trkpt lat="42.511642" lon="18.680742">
<ele>14.1</ele>
<time>2012-05-02T10:46:55Z</time>
<desc>lat.=42.511642, lon.=18.680742, Alt.=24.282974m. Speed=12.456000m/h.</desc>
<speed>3.460000</speed>
</trkpt>
<trkpt lat="42.512096" lon="18.681402">
<ele>12.1</ele>
<time>2012-05-02T10:47:15Z</time>
<desc>lat.=42.512096, lon.=18.681402, Alt.=24.758560m. Speed=13.752000m/h.</desc>
<speed>3.820000</speed>
</trkpt>
<trkpt lat="42.512562" lon="18.681496">
<ele>22.7</ele>
<time>2012-05-02T10:47:30Z</time>
<desc>lat.=42.512562, lon.=18.681496, Alt.=28.051041m. Speed=14.652000m/h.</desc>
<speed>4.070000</speed>
</trkpt>
<trkpt lat="42.513107" lon="18.681311">
<ele>24.8</ele>
<time>2012-05-02T10:47:45Z</time>
<desc>lat.=42.513107, lon.=18.681311, Alt.=30.471939m. Speed=16.056000m/h.</desc>
<speed>4.460000</speed>
</trkpt>
<trkpt lat="42.513744" lon="18.681648">
<ele>28.1</ele>
<time>2012-05-02T10:48:25Z</time>
<desc>lat.=42.513744, lon.=18.681648, Alt.=34.978058m. Speed=0.432000m/h.</desc>
<speed>0.120000</speed>
</trkpt>
<trkpt lat="42.514294" lon="18.682606">
<ele>19.7</ele>
<time>2012-05-02T10:55:35Z</time>
<desc>lat.=42.514294, lon.=18.682606, Alt.=31.958755m. Speed=28.511999m/h.</desc>
<speed>7.920000</speed>
</trkpt>
<trkpt lat="42.515118" lon="18.682831">
<ele>18.7</ele>
<time>2012-05-02T10:55:45Z</time>
<desc>lat.=42.515118, lon.=18.682831, Alt.=28.586197m. Speed=42.551998m/h.</desc>
<speed>11.819999</speed>
</trkpt>
<trkpt lat="42.515511" lon="18.683348">
<ele>13.2</ele>
<time>2012-05-02T10:55:50Z</time>
<desc>lat.=42.515511, lon.=18.683348, Alt.=26.283463m. Speed=48.312000m/h.</desc>
<speed>13.420000</speed>
</trkpt>
<trkpt lat="42.516079" lon="18.684858">
<ele>7.5</ele>
<time>2012-05-02T10:56:00Z</time>
<desc>lat.=42.516079, lon.=18.684858, Alt.=19.933853m. Speed=49.248001m/h.</desc>
<speed>13.680000</speed>
</trkpt>
<trkpt lat="42.516098" lon="18.685658">
<ele>0.8</ele>
<time>2012-05-02T10:56:05Z</time>
<desc>lat.=42.516098, lon.=18.685658, Alt.=14.546761m. Speed=44.891998m/h.</desc>
<speed>12.470000</speed>
</trkpt>
<trkpt lat="42.516357" lon="18.686310">
<ele>0.0</ele>
<time>2012-05-02T10:56:10Z</time>
<desc>lat.=42.516357, lon.=18.686310, Alt.=10.824837m. Speed=44.028000m/h.</desc>
<speed>12.230000</speed>
</trkpt>
<trkpt lat="42.517097" lon="18.687233">
<ele>0.4</ele>
<time>2012-05-02T10:56:20Z</time>
<desc>lat.=42.517097, lon.=18.687233, Alt.=6.816349m. Speed=37.007999m/h.</desc>
<speed>10.280000</speed>
</trkpt>
<trkpt lat="42.517284" lon="18.688288">
<ele>1.8</ele>
<time>2012-05-02T10:56:30Z</time>
<desc>lat.=42.517284, lon.=18.688288, Alt.=2.703768m. Speed=31.176001m/h.</desc>
<speed>8.660000</speed>
</trkpt>
<trkpt lat="42.517246" lon="18.689754">
<ele>1.9</ele>
<time>2012-05-02T10:56:45Z</time>
<desc>lat.=42.517246, lon.=18.689754, Alt.=-1.573655m. Speed=25.704000m/h.</desc>
<speed>7.140000</speed>
</trkpt>
<trkpt lat="42.516930" lon="18.691286">
<ele>3.6</ele>
<time>2012-05-02T10:57:05Z</time>
<desc>lat.=42.516930, lon.=18.691286, Alt.=2.122774m. Speed=26.459999m/h.</desc>
<speed>7.350000</speed>
</trkpt>
<trkpt lat="42.516109" lon="18.692894">
<ele>4.5</ele>
<time>2012-05-02T10:57:30Z</time>
<desc>lat.=42.516109, lon.=18.692894, Alt.=6.016911m. Speed=24.804001m/h.</desc>
<speed>6.890000</speed>
</trkpt>
<trkpt lat="42.515373" lon="18.693722">
<ele>2.5</ele>
<time>2012-05-02T10:57:45Z</time>
<desc>lat.=42.515373, lon.=18.693722, Alt.=7.016178m. Speed=24.336000m/h.</desc>
<speed>6.760000</speed>
</trkpt>
<trkpt lat="42.513878" lon="18.694799">
<ele>1.6</ele>
<time>2012-05-02T10:58:25Z</time>
<desc>lat.=42.513878, lon.=18.694799, Alt.=4.021061m. Speed=0.036000m/h.</desc>
<speed>0.010000</speed>
</trkpt>
<trkpt lat="42.514416" lon="18.694862">
<ele>3.6</ele>
<time>2012-05-02T10:59:15Z</time>
<desc>lat.=42.514416, lon.=18.694862, Alt.=-2.327181m. Speed=11.088000m/h.</desc>
<speed>3.080000</speed>
</trkpt>
<trkpt lat="42.514687" lon="18.696182">
<ele>13.9</ele>
<time>2012-05-02T11:00:40Z</time>
<desc>lat.=42.514687, lon.=18.696182, Alt.=20.291275m. Speed=1.152000m/h.</desc>
<speed>0.320000</speed>
</trkpt>
<trkpt lat="42.515057" lon="18.696472">
<ele>17.0</ele>
<time>2012-05-02T11:02:05Z</time>
<desc>lat.=42.515057, lon.=18.696472, Alt.=27.925552m. Speed=1.908000m/h.</desc>
<speed>0.530000</speed>
</trkpt>
<trkpt lat="42.514847" lon="18.696184">
<ele>15.3</ele>
<time>2012-05-02T11:02:40Z</time>
<desc>lat.=42.514847, lon.=18.696184, Alt.=24.248795m. Speed=1.332000m/h.</desc>
<speed>0.370000</speed>
</trkpt>
<trkpt lat="42.514690" lon="18.696409">
<ele>14.9</ele>
<time>2012-05-02T11:03:55Z</time>
<desc>lat.=42.514690, lon.=18.696409, Alt.=17.925552m. Speed=1.332000m/h.</desc>
<speed>0.370000</speed>
</trkpt>
<trkpt lat="42.514915" lon="18.696381">
<ele>16.1</ele>
<time>2012-05-02T11:05:25Z</time>
<desc>lat.=42.514915, lon.=18.696381, Alt.=15.674690m. Speed=0.756000m/h.</desc>
<speed>0.210000</speed>
</trkpt>
<trkpt lat="42.514736" lon="18.696373">
<ele>15.0</ele>
<time>2012-05-02T11:06:40Z</time>
<desc>lat.=42.514736, lon.=18.696373, Alt.=14.969368m. Speed=0.252000m/h.</desc>
<speed>0.070000</speed>
</trkpt>
<trkpt lat="42.514843" lon="18.696398">
<ele>15.7</ele>
<time>2012-05-02T11:07:00Z</time>
<desc>lat.=42.514843, lon.=18.696398, Alt.=15.035774m. Speed=1.764000m/h.</desc>
<speed>0.490000</speed>
</trkpt>
<trkpt lat="42.514763" lon="18.696627">
<ele>16.5</ele>
<time>2012-05-02T11:07:35Z</time>
<desc>lat.=42.514763, lon.=18.696627, Alt.=15.342415m. Speed=3.816000m/h.</desc>
<speed>1.060000</speed>
</trkpt>
<trkpt lat="42.514317" lon="18.696955">
<ele>18.3</ele>
<time>2012-05-02T11:07:55Z</time>
<desc>lat.=42.514317, lon.=18.696955, Alt.=21.439713m. Speed=4.608000m/h.</desc>
<speed>1.280000</speed>
</trkpt>
<trkpt lat="42.514061" lon="18.696920">
<ele>17.1</ele>
<time>2012-05-02T11:08:15Z</time>
<desc>lat.=42.514061, lon.=18.696920, Alt.=21.406998m. Speed=6.840000m/h.</desc>
<speed>1.900000</speed>
</trkpt>
<trkpt lat="42.514328" lon="18.697073">
<ele>20.7</ele>
<time>2012-05-02T11:08:55Z</time>
<desc>lat.=42.514328, lon.=18.697073, Alt.=19.490494m. Speed=4.104000m/h.</desc>
<speed>1.140000</speed>
</trkpt>
<trkpt lat="42.514816" lon="18.696726">
<ele>17.5</ele>
<time>2012-05-02T11:09:25Z</time>
<desc>lat.=42.514816, lon.=18.696726, Alt.=16.113052m. Speed=0.396000m/h.</desc>
<speed>0.110000</speed>
</trkpt>
<trkpt lat="42.514893" lon="18.696024">
<ele>14.3</ele>
<time>2012-05-02T11:10:05Z</time>
<desc>lat.=42.514893, lon.=18.696024, Alt.=22.892349m. Speed=9.072000m/h.</desc>
<speed>2.520000</speed>
</trkpt>
<trkpt lat="42.514736" lon="18.695717">
<ele>10.6</ele>
<time>2012-05-02T11:10:30Z</time>
<desc>lat.=42.514736, lon.=18.695717, Alt.=35.939972m. Speed=2.088000m/h.</desc>
<speed>0.580000</speed>
</trkpt>
<trkpt lat="42.514252" lon="18.695610">
<ele>6.6</ele>
<time>2012-05-02T11:11:05Z</time>
<desc>lat.=42.514252, lon.=18.695610, Alt.=40.976105m. Speed=3.600000m/h.</desc>
<speed>1.000000</speed>
</trkpt>
<trkpt lat="42.513760" lon="18.695992">
<ele>8.9</ele>
<time>2012-05-02T11:11:45Z</time>
<desc>lat.=42.513760, lon.=18.695992, Alt.=32.610870m. Speed=5.364000m/h.</desc>
<speed>1.490000</speed>
</trkpt>
<trkpt lat="42.513638" lon="18.695805">
<ele>9.5</ele>
<time>2012-05-02T11:12:15Z</time>
<desc>lat.=42.513638, lon.=18.695805, Alt.=19.682877m. Speed=0.468000m/h.</desc>
<speed>0.130000</speed>
</trkpt>
<trkpt lat="42.513390" lon="18.695917">
<ele>8.6</ele>
<time>2012-05-02T11:13:55Z</time>
<desc>lat.=42.513390, lon.=18.695917, Alt.=12.389290m. Speed=0.216000m/h.</desc>
<speed>0.060000</speed>
</trkpt>
<trkpt lat="42.513348" lon="18.695414">
<ele>6.6</ele>
<time>2012-05-02T11:18:10Z</time>
<desc>lat.=42.513348, lon.=18.695414, Alt.=8.772102m. Speed=9.792000m/h.</desc>
<speed>2.720000</speed>
</trkpt>
<trkpt lat="42.512981" lon="18.695396">
<ele>2.5</ele>
<time>2012-05-02T11:18:20Z</time>
<desc>lat.=42.512981, lon.=18.695396, Alt.=7.907780m. Speed=10.440000m/h.</desc>
<speed>2.900000</speed>
</trkpt>
<trkpt lat="42.509914" lon="18.696491">
<ele>3.8</ele>
<time>2012-05-02T11:19:25Z</time>
<desc>lat.=42.509914, lon.=18.696491, Alt.=22.559830m. Speed=22.427999m/h.</desc>
<speed>6.230000</speed>
</trkpt>
<trkpt lat="42.509155" lon="18.696545">
<ele>3.2</ele>
<time>2012-05-02T11:19:40Z</time>
<desc>lat.=42.509155, lon.=18.696545, Alt.=25.187271m. Speed=30.204000m/h.</desc>
<speed>8.390000</speed>
</trkpt>
<trkpt lat="42.507240" lon="18.695345">
<ele>9.6</ele>
<time>2012-05-02T11:20:15Z</time>
<desc>lat.=42.507240, lon.=18.695345, Alt.=18.637955m. Speed=24.624001m/h.</desc>
<speed>6.840000</speed>
</trkpt>
<trkpt lat="42.506191" lon="18.693800">
<ele>8.2</ele>
<time>2012-05-02T11:20:50Z</time>
<desc>lat.=42.506191, lon.=18.693800, Alt.=11.814095m. Speed=13.608000m/h.</desc>
<speed>3.780000</speed>
</trkpt>
<trkpt lat="42.505806" lon="18.693552">
<ele>8.6</ele>
<time>2012-05-02T11:21:00Z</time>
<desc>lat.=42.505806, lon.=18.693552, Alt.=10.880989m. Speed=19.296000m/h.</desc>
<speed>5.360000</speed>
</trkpt>
<trkpt lat="42.505306" lon="18.693638">
<ele>6.4</ele>
<time>2012-05-02T11:21:10Z</time>
<desc>lat.=42.505306, lon.=18.693638, Alt.=7.628971m. Speed=19.728001m/h.</desc>
<speed>5.480000</speed>
</trkpt>
<trkpt lat="42.503780" lon="18.694498">
<ele>11.9</ele>
<time>2012-05-02T11:21:35Z</time>
<desc>lat.=42.503780, lon.=18.694498, Alt.=-3.622103m. Speed=31.427999m/h.</desc>
<speed>8.730000</speed>
</trkpt>
<trkpt lat="42.503403" lon="18.694382">
<ele>17.1</ele>
<time>2012-05-02T11:21:40Z</time>
<desc>lat.=42.503403, lon.=18.694382, Alt.=-5.007999m. Speed=31.500000m/h.</desc>
<speed>8.750000</speed>
</trkpt>
<trkpt lat="42.502747" lon="18.693806">
<ele>14.3</ele>
<time>2012-05-02T11:21:50Z</time>
<desc>lat.=42.502747, lon.=18.693806, Alt.=-5.612736m. Speed=30.348000m/h.</desc>
<speed>8.430000</speed>
</trkpt>
<trkpt lat="42.502487" lon="18.692545">
<ele>8.7</ele>
<time>2012-05-02T11:22:05Z</time>
<desc>lat.=42.502487, lon.=18.692545, Alt.=-3.432894m. Speed=26.351999m/h.</desc>
<speed>7.320000</speed>
</trkpt>
<trkpt lat="42.502056" lon="18.692093">
<ele>7.6</ele>
<time>2012-05-02T11:22:15Z</time>
<desc>lat.=42.502056, lon.=18.692093, Alt.=-3.187288m. Speed=21.780001m/h.</desc>
<speed>6.050000</speed>
</trkpt>
<trkpt lat="42.501495" lon="18.692114">
<ele>8.3</ele>
<time>2012-05-02T11:22:25Z</time>
<desc>lat.=42.501495, lon.=18.692114, Alt.=-3.200289m. Speed=24.299999m/h.</desc>
<speed>6.750000</speed>
</trkpt>
<trkpt lat="42.500614" lon="18.692633">
<ele>13.3</ele>
<time>2012-05-02T11:22:40Z</time>
<desc>lat.=42.500614, lon.=18.692633, Alt.=-4.809757m. Speed=28.548000m/h.</desc>
<speed>7.930000</speed>
</trkpt>
<trkpt lat="42.500271" lon="18.692616">
<ele>9.5</ele>
<time>2012-05-02T11:22:45Z</time>
<desc>lat.=42.500271, lon.=18.692616, Alt.=-4.047916m. Speed=26.280001m/h.</desc>
<speed>7.300000</speed>
</trkpt>
<trkpt lat="42.497921" lon="18.692003">
<ele>19.5</ele>
<time>2012-05-02T11:23:25Z</time>
<desc>lat.=42.497921, lon.=18.692003, Alt.=3.424593m. Speed=20.520000m/h.</desc>
<speed>5.700000</speed>
</trkpt>
<trkpt lat="42.496403" lon="18.691105">
<ele>19.2</ele>
<time>2012-05-02T11:23:55Z</time>
<desc>lat.=42.496403, lon.=18.691105, Alt.=7.240299m. Speed=25.667999m/h.</desc>
<speed>7.130000</speed>
</trkpt>
<trkpt lat="42.495594" lon="18.691006">
<ele>14.6</ele>
<time>2012-05-02T11:24:10Z</time>
<desc>lat.=42.495594, lon.=18.691006, Alt.=11.047493m. Speed=20.879999m/h.</desc>
<speed>5.800000</speed>
</trkpt>
<trkpt lat="42.494522" lon="18.691507">
<ele>23.3</ele>
<time>2012-05-02T11:24:30Z</time>
<desc>lat.=42.494522, lon.=18.691507, Alt.=12.832649m. Speed=20.916000m/h.</desc>
<speed>5.810000</speed>
</trkpt>
<trkpt lat="42.492336" lon="18.691500">
<ele>16.6</ele>
<time>2012-05-02T11:25:05Z</time>
<desc>lat.=42.492336, lon.=18.691500, Alt.=14.240120m. Speed=28.440001m/h.</desc>
<speed>7.900000</speed>
</trkpt>
<trkpt lat="42.490692" lon="18.692301">
<ele>8.6</ele>
<time>2012-05-02T11:25:55Z</time>
<desc>lat.=42.490692, lon.=18.692301, Alt.=9.805794m. Speed=5.112000m/h.</desc>
<speed>1.420000</speed>
</trkpt>
<trkpt lat="42.489662" lon="18.693401">
<ele>6.9</ele>
<time>2012-05-02T11:27:40Z</time>
<desc>lat.=42.489662, lon.=18.693401, Alt.=8.808968m. Speed=2.052000m/h.</desc>
<speed>0.570000</speed>
</trkpt>
<trkpt lat="42.489361" lon="18.693996">
<ele>7.9</ele>
<time>2012-05-02T11:30:20Z</time>
<desc>lat.=42.489361, lon.=18.693996, Alt.=9.117317m. Speed=13.608000m/h.</desc>
<speed>3.780000</speed>
</trkpt>
<trkpt lat="42.488098" lon="18.695034">
<ele>0.9</ele>
<time>2012-05-02T11:30:50Z</time>
<desc>lat.=42.488098, lon.=18.695034, Alt.=11.744026m. Speed=14.904000m/h.</desc>
<speed>4.140000</speed>
</trkpt>
<trkpt lat="42.487816" lon="18.695545">
<ele>0.4</ele>
<time>2012-05-02T11:31:25Z</time>
<desc>lat.=42.487816, lon.=18.695545, Alt.=7.237370m. Speed=11.664000m/h.</desc>
<speed>3.240000</speed>
</trkpt>
<trkpt lat="42.487587" lon="18.696749">
<ele>3.2</ele>
<time>2012-05-02T11:31:50Z</time>
<desc>lat.=42.487587, lon.=18.696749, Alt.=-0.691063m. Speed=16.344000m/h.</desc>
<speed>4.540000</speed>
</trkpt>
<trkpt lat="42.486286" lon="18.697756">
<ele>1.9</ele>
<time>2012-05-02T11:32:30Z</time>
<desc>lat.=42.486286, lon.=18.697756, Alt.=2.038363m. Speed=17.208000m/h.</desc>
<speed>4.780000</speed>
</trkpt>
<trkpt lat="42.485455" lon="18.699272">
<ele>0.4</ele>
<time>2012-05-02T11:33:10Z</time>
<desc>lat.=42.485455, lon.=18.699272, Alt.=11.846321m. Speed=17.856001m/h.</desc>
<speed>4.960000</speed>
</trkpt>
<trkpt lat="42.485001" lon="18.700575">
<ele>1.7</ele>
<time>2012-05-02T11:34:30Z</time>
<desc>lat.=42.485001, lon.=18.700575, Alt.=8.483284m. Speed=15.912000m/h.</desc>
<speed>4.420000</speed>
</trkpt>
<trkpt lat="42.485199" lon="18.703039">
<ele>5.7</ele>
<time>2012-05-02T11:35:15Z</time>
<desc>lat.=42.485199, lon.=18.703039, Alt.=0.813607m. Speed=12.276000m/h.</desc>
<speed>3.410000</speed>
</trkpt>
<trkpt lat="42.484360" lon="18.704035">
<ele>1.3</ele>
<time>2012-05-02T11:35:40Z</time>
<desc>lat.=42.484360, lon.=18.704035, Alt.=3.813143m. Speed=16.775999m/h.</desc>
<speed>4.660000</speed>
</trkpt>
<trkpt lat="42.484154" lon="18.705076">
<ele>3.9</ele>
<time>2012-05-02T11:36:00Z</time>
<desc>lat.=42.484154, lon.=18.705076, Alt.=6.206486m. Speed=14.328000m/h.</desc>
<speed>3.980000</speed>
</trkpt>
<trkpt lat="42.484360" lon="18.706379">
<ele>2.0</ele>
<time>2012-05-02T11:36:20Z</time>
<desc>lat.=42.484360, lon.=18.706379, Alt.=6.312321m. Speed=18.719999m/h.</desc>
<speed>5.200000</speed>
</trkpt>
<trkpt lat="42.483982" lon="18.708477">
<ele>2.1</ele>
<time>2012-05-02T11:42:15Z</time>
<desc>lat.=42.483982, lon.=18.708477, Alt.=4.986759m. Speed=25.379999m/h.</desc>
<speed>7.050000</speed>
</trkpt>
<trkpt lat="42.483707" lon="18.715912">
<ele>3.9</ele>
<time>2012-05-02T11:43:40Z</time>
<desc>lat.=42.483707, lon.=18.715912, Alt.=10.696663m. Speed=28.584000m/h.</desc>
<speed>7.940000</speed>
</trkpt>
<trkpt lat="42.484230" lon="18.721226">
<ele>3.7</ele>
<time>2012-05-02T11:44:35Z</time>
<desc>lat.=42.484230, lon.=18.721226, Alt.=11.842415m. Speed=25.524000m/h.</desc>
<speed>7.090000</speed>
</trkpt>
<trkpt lat="42.484142" lon="18.725351">
<ele>3.3</ele>
<time>2012-05-02T11:45:25Z</time>
<desc>lat.=42.484142, lon.=18.725351, Alt.=13.228401m. Speed=25.056000m/h.</desc>
<speed>6.960000</speed>
</trkpt>
<trkpt lat="42.484581" lon="18.728987">
<ele>4.6</ele>
<time>2012-05-02T11:46:10Z</time>
<desc>lat.=42.484581, lon.=18.728987, Alt.=14.537727m. Speed=21.455999m/h.</desc>
<speed>5.960000</speed>
</trkpt>
<trkpt lat="42.484474" lon="18.730154">
<ele>9.3</ele>
<time>2012-05-02T11:46:25Z</time>
<desc>lat.=42.484474, lon.=18.730154, Alt.=18.212173m. Speed=24.660000m/h.</desc>
<speed>6.850000</speed>
</trkpt>
<trkpt lat="42.483765" lon="18.731403">
<ele>7.0</ele>
<time>2012-05-02T11:46:45Z</time>
<desc>lat.=42.483765, lon.=18.731403, Alt.=24.704361m. Speed=21.312000m/h.</desc>
<speed>5.920000</speed>
</trkpt>
<trkpt lat="42.483437" lon="18.732891">
<ele>3.4</ele>
<time>2012-05-02T11:47:05Z</time>
<desc>lat.=42.483437, lon.=18.732891, Alt.=26.029556m. Speed=21.636000m/h.</desc>
<speed>6.010000</speed>
</trkpt>
<trkpt lat="42.483601" lon="18.734015">
<ele>3.4</ele>
<time>2012-05-02T11:47:20Z</time>
<desc>lat.=42.483601, lon.=18.734015, Alt.=26.796158m. Speed=22.788000m/h.</desc>
<speed>6.330000</speed>
</trkpt>
<trkpt lat="42.484230" lon="18.735348">
<ele>6.4</ele>
<time>2012-05-02T11:47:40Z</time>
<desc>lat.=42.484230, lon.=18.735348, Alt.=21.486588m. Speed=21.959999m/h.</desc>
<speed>6.100000</speed>
</trkpt>
<trkpt lat="42.484333" lon="18.738518">
<ele>0.9</ele>
<time>2012-05-02T11:48:20Z</time>
<desc>lat.=42.484333, lon.=18.738518, Alt.=22.059830m. Speed=24.444000m/h.</desc>
<speed>6.790000</speed>
</trkpt>
<trkpt lat="42.484631" lon="18.739237">
<ele>3.1</ele>
<time>2012-05-02T11:48:30Z</time>
<desc>lat.=42.484631, lon.=18.739237, Alt.=22.719986m. Speed=24.228001m/h.</desc>
<speed>6.730000</speed>
</trkpt>
<trkpt lat="42.485268" lon="18.740101">
<ele>3.6</ele>
<time>2012-05-02T11:48:45Z</time>
<desc>lat.=42.485268, lon.=18.740101, Alt.=21.797623m. Speed=23.688000m/h.</desc>
<speed>6.580000</speed>
</trkpt>
<trkpt lat="42.485634" lon="18.741535">
<ele>4.0</ele>
<time>2012-05-02T11:49:05Z</time>
<desc>lat.=42.485634, lon.=18.741535, Alt.=20.153091m. Speed=26.172001m/h.</desc>
<speed>7.270000</speed>
</trkpt>
<trkpt lat="42.485706" lon="18.743103">
<ele>2.3</ele>
<time>2012-05-02T11:49:25Z</time>
<desc>lat.=42.485706, lon.=18.743103, Alt.=21.838638m. Speed=21.780001m/h.</desc>
<speed>6.050000</speed>
</trkpt>
<trkpt lat="42.486351" lon="18.744020">
<ele>3.4</ele>
<time>2012-05-02T11:49:40Z</time>
<desc>lat.=42.486351, lon.=18.744020, Alt.=20.254166m. Speed=22.572001m/h.</desc>
<speed>6.270000</speed>
</trkpt>
<trkpt lat="42.487209" lon="18.747438">
<ele>2.7</ele>
<time>2012-05-02T11:50:20Z</time>
<desc>lat.=42.487209, lon.=18.747438, Alt.=19.173599m. Speed=26.351999m/h.</desc>
<speed>7.320000</speed>
</trkpt>
<trkpt lat="42.487686" lon="18.748522">
<ele>2.1</ele>
<time>2012-05-02T11:50:35Z</time>
<desc>lat.=42.487686, lon.=18.748522, Alt.=18.544205m. Speed=25.920000m/h.</desc>
<speed>7.200000</speed>
</trkpt>
<trkpt lat="42.487972" lon="18.749771">
<ele>3.2</ele>
<time>2012-05-02T11:50:50Z</time>
<desc>lat.=42.487972, lon.=18.749771, Alt.=13.524788m. Speed=25.920000m/h.</desc>
<speed>7.200000</speed>
</trkpt>
<trkpt lat="42.489594" lon="18.752804">
<ele>1.9</ele>
<time>2012-05-02T11:51:30Z</time>
<desc>lat.=42.489594, lon.=18.752804, Alt.=9.430305m. Speed=28.188000m/h.</desc>
<speed>7.830000</speed>
</trkpt>
<trkpt lat="42.490280" lon="18.753746">
<ele>3.7</ele>
<time>2012-05-02T11:51:45Z</time>
<desc>lat.=42.490280, lon.=18.753746, Alt.=12.165901m. Speed=25.632000m/h.</desc>
<speed>7.120000</speed>
</trkpt>
<trkpt lat="42.490318" lon="18.754177">
<ele>5.1</ele>
<time>2012-05-02T11:51:50Z</time>
<desc>lat.=42.490318, lon.=18.754177, Alt.=12.170052m. Speed=24.120001m/h.</desc>
<speed>6.700000</speed>
</trkpt>
<trkpt lat="42.489918" lon="18.755444">
<ele>3.8</ele>
<time>2012-05-02T11:52:10Z</time>
<desc>lat.=42.489918, lon.=18.755444, Alt.=13.255257m. Speed=18.936001m/h.</desc>
<speed>5.260000</speed>
</trkpt>
<trkpt lat="42.490566" lon="18.757698">
<ele>9.3</ele>
<time>2012-05-02T11:52:40Z</time>
<desc>lat.=42.490566, lon.=18.757698, Alt.=17.316177m. Speed=24.912001m/h.</desc>
<speed>6.920000</speed>
</trkpt>
<trkpt lat="42.490570" lon="18.758524">
<ele>15.1</ele>
<time>2012-05-02T11:52:50Z</time>
<desc>lat.=42.490570, lon.=18.758524, Alt.=19.063736m. Speed=19.944000m/h.</desc>
<speed>5.540000</speed>
</trkpt>
<trkpt lat="42.490280" lon="18.759512">
<ele>14.8</ele>
<time>2012-05-02T11:53:50Z</time>
<desc>lat.=42.490280, lon.=18.759512, Alt.=28.065201m. Speed=0.072000m/h.</desc>
<speed>0.020000</speed>
</trkpt>
<trkpt lat="42.490177" lon="18.759453">
<ele>12.7</ele>
<time>2012-05-02T11:54:50Z</time>
<desc>lat.=42.490177, lon.=18.759453, Alt.=35.481964m. Speed=0.252000m/h.</desc>
<speed>0.070000</speed>
</trkpt>
<trkpt lat="42.490383" lon="18.759491">
<ele>17.0</ele>
<time>2012-05-02T11:55:55Z</time>
<desc>lat.=42.490383, lon.=18.759491, Alt.=43.502472m. Speed=0.216000m/h.</desc>
<speed>0.060000</speed>
</trkpt>
<trkpt lat="42.490250" lon="18.759470">
<ele>14.2</ele>
<time>2012-05-02T11:56:55Z</time>
<desc>lat.=42.490250, lon.=18.759470, Alt.=44.651886m. Speed=1.188000m/h.</desc>
<speed>0.330000</speed>
</trkpt>
<trkpt lat="42.490341" lon="18.759613">
<ele>16.2</ele>
<time>2012-05-02T11:57:35Z</time>
<desc>lat.=42.490341, lon.=18.759613, Alt.=44.663605m. Speed=0.936000m/h.</desc>
<speed>0.260000</speed>
</trkpt>
<trkpt lat="42.490314" lon="18.759384">
<ele>15.2</ele>
<time>2012-05-02T11:58:10Z</time>
<desc>lat.=42.490314, lon.=18.759384, Alt.=44.611847m. Speed=2.052000m/h.</desc>
<speed>0.570000</speed>
</trkpt>
<trkpt lat="42.490501" lon="18.759396">
<ele>18.2</ele>
<time>2012-05-02T12:06:15Z</time>
<desc>lat.=42.490501, lon.=18.759396, Alt.=44.026886m. Speed=0.216000m/h.</desc>
<speed>0.060000</speed>
</trkpt>
<trkpt lat="42.490242" lon="18.759617">
<ele>14.0</ele>
<time>2012-05-02T12:07:15Z</time>
<desc>lat.=42.490242, lon.=18.759617, Alt.=43.523956m. Speed=15.120000m/h.</desc>
<speed>4.200000</speed>
</trkpt>
<trkpt lat="42.490116" lon="18.760393">
<ele>9.7</ele>
<time>2012-05-02T12:07:25Z</time>
<desc>lat.=42.490116, lon.=18.760393, Alt.=39.208527m. Speed=24.695999m/h.</desc>
<speed>6.860000</speed>
</trkpt>
<trkpt lat="42.490353" lon="18.762264">
<ele>4.8</ele>
<time>2012-05-02T12:07:45Z</time>
<desc>lat.=42.490353, lon.=18.762264, Alt.=35.764191m. Speed=31.968000m/h.</desc>
<speed>8.880000</speed>
</trkpt>
<trkpt lat="42.490284" lon="18.762812">
<ele>4.7</ele>
<time>2012-05-02T12:07:50Z</time>
<desc>lat.=42.490284, lon.=18.762812, Alt.=33.911652m. Speed=33.804001m/h.</desc>
<speed>9.390000</speed>
</trkpt>
<trkpt lat="42.489799" lon="18.763803">
<ele>3.3</ele>
<time>2012-05-02T12:08:00Z</time>
<desc>lat.=42.489799, lon.=18.763803, Alt.=30.891373m. Speed=35.424000m/h.</desc>
<speed>9.840000</speed>
</trkpt>
<trkpt lat="42.489056" lon="18.764252">
<ele>5.8</ele>
<time>2012-05-02T12:08:10Z</time>
<desc>lat.=42.489056, lon.=18.764252, Alt.=27.032486m. Speed=33.155998m/h.</desc>
<speed>9.210000</speed>
</trkpt>
<trkpt lat="42.488480" lon="18.764986">
<ele>3.1</ele>
<time>2012-05-02T12:08:20Z</time>
<desc>lat.=42.488480, lon.=18.764986, Alt.=24.279556m. Speed=27.576000m/h.</desc>
<speed>7.660000</speed>
</trkpt>
<trkpt lat="42.488197" lon="18.765226">
<ele>5.1</ele>
<time>2012-05-02T12:08:25Z</time>
<desc>lat.=42.488197, lon.=18.765226, Alt.=22.507095m. Speed=26.424000m/h.</desc>
<speed>7.340000</speed>
</trkpt>
<trkpt lat="42.487473" lon="18.765131">
<ele>6.0</ele>
<time>2012-05-02T12:08:40Z</time>
<desc>lat.=42.487473, lon.=18.765131, Alt.=17.981216m. Speed=15.588000m/h.</desc>
<speed>4.330000</speed>
</trkpt>
<trkpt lat="42.486813" lon="18.765404">
<ele>8.4</ele>
<time>2012-05-02T12:08:55Z</time>
<desc>lat.=42.486813, lon.=18.765404, Alt.=17.506119m. Speed=17.100000m/h.</desc>
<speed>4.750000</speed>
</trkpt>
<trkpt lat="42.486488" lon="18.765793">
<ele>8.1</ele>
<time>2012-05-02T12:09:05Z</time>
<desc>lat.=42.486488, lon.=18.765793, Alt.=17.370377m. Speed=18.792000m/h.</desc>
<speed>5.220000</speed>
</trkpt>
<trkpt lat="42.486332" lon="18.766655">
<ele>9.9</ele>
<time>2012-05-02T12:09:20Z</time>
<desc>lat.=42.486332, lon.=18.766655, Alt.=18.578384m. Speed=10.116000m/h.</desc>
<speed>2.810000</speed>
</trkpt>
<trkpt lat="42.486080" lon="18.766790">
<ele>12.8</ele>
<time>2012-05-02T12:09:25Z</time>
<desc>lat.=42.486080, lon.=18.766790, Alt.=18.385513m. Speed=20.988001m/h.</desc>
<speed>5.830000</speed>
</trkpt>
<trkpt lat="42.484959" lon="18.766373">
<ele>16.9</ele>
<time>2012-05-02T12:09:45Z</time>
<desc>lat.=42.484959, lon.=18.766373, Alt.=20.565201m. Speed=21.851999m/h.</desc>
<speed>6.070000</speed>
</trkpt>
<trkpt lat="42.483902" lon="18.765402">
<ele>13.2</ele>
<time>2012-05-02T12:10:05Z</time>
<desc>lat.=42.483902, lon.=18.765402, Alt.=25.733658m. Speed=25.236000m/h.</desc>
<speed>7.010000</speed>
</trkpt>
<trkpt lat="42.482395" lon="18.765074">
<ele>13.5</ele>
<time>2012-05-02T12:10:25Z</time>
<desc>lat.=42.482395, lon.=18.765074, Alt.=27.967056m. Speed=27.972000m/h.</desc>
<speed>7.770000</speed>
</trkpt>
<trkpt lat="42.481514" lon="18.764347">
<ele>13.5</ele>
<time>2012-05-02T12:10:40Z</time>
<desc>lat.=42.481514, lon.=18.764347, Alt.=32.459503m. Speed=22.788000m/h.</desc>
<speed>6.330000</speed>
</trkpt>
<trkpt lat="42.479786" lon="18.764383">
<ele>16.1</ele>
<time>2012-05-02T12:11:05Z</time>
<desc>lat.=42.479786, lon.=18.764383, Alt.=30.072525m. Speed=26.604000m/h.</desc>
<speed>7.390000</speed>
</trkpt>
<trkpt lat="42.479023" lon="18.763723">
<ele>9.3</ele>
<time>2012-05-02T12:11:20Z</time>
<desc>lat.=42.479023, lon.=18.763723, Alt.=32.822784m. Speed=24.264000m/h.</desc>
<speed>6.740000</speed>
</trkpt>
<trkpt lat="42.477947" lon="18.763248">
<ele>3.6</ele>
<time>2012-05-02T12:11:35Z</time>
<desc>lat.=42.477947, lon.=18.763248, Alt.=33.644073m. Speed=33.335999m/h.</desc>
<speed>9.260000</speed>
</trkpt>
<trkpt lat="42.477142" lon="18.763458">
<ele>2.5</ele>
<time>2012-05-02T12:11:45Z</time>
<desc>lat.=42.477142, lon.=18.763458, Alt.=26.460709m. Speed=29.160000m/h.</desc>
<speed>8.100000</speed>
</trkpt>
<trkpt lat="42.476124" lon="18.764681">
<ele>6.5</ele>
<time>2012-05-02T12:12:00Z</time>
<desc>lat.=42.476124, lon.=18.764681, Alt.=20.678970m. Speed=30.240000m/h.</desc>
<speed>8.400000</speed>
</trkpt>
<trkpt lat="42.475769" lon="18.764791">
<ele>12.0</ele>
<time>2012-05-02T12:12:05Z</time>
<desc>lat.=42.475769, lon.=18.764791, Alt.=18.722916m. Speed=31.212000m/h.</desc>
<speed>8.670000</speed>
</trkpt>
<trkpt lat="42.474876" lon="18.764751">
<ele>7.6</ele>
<time>2012-05-02T12:12:15Z</time>
<desc>lat.=42.474876, lon.=18.764751, Alt.=14.458382m. Speed=33.768002m/h.</desc>
<speed>9.380000</speed>
</trkpt>
<trkpt lat="42.474129" lon="18.764477">
<ele>6.3</ele>
<time>2012-05-02T12:12:25Z</time>
<desc>lat.=42.474129, lon.=18.764477, Alt.=11.840706m. Speed=26.712000m/h.</desc>
<speed>7.420000</speed>
</trkpt>
<trkpt lat="42.473114" lon="18.764610">
<ele>12.3</ele>
<time>2012-05-02T12:12:40Z</time>
<desc>lat.=42.473114, lon.=18.764610, Alt.=12.953255m. Speed=21.888000m/h.</desc>
<speed>6.080000</speed>
</trkpt>
<trkpt lat="42.472088" lon="18.763905">
<ele>12.1</ele>
<time>2012-05-02T12:13:05Z</time>
<desc>lat.=42.472088, lon.=18.763905, Alt.=20.946548m. Speed=20.700001m/h.</desc>
<speed>5.750000</speed>
</trkpt>
<trkpt lat="42.470917" lon="18.764475">
<ele>12.2</ele>
<time>2012-05-02T12:14:30Z</time>
<desc>lat.=42.470917, lon.=18.764475, Alt.=18.532486m. Speed=6.012000m/h.</desc>
<speed>1.670000</speed>
</trkpt>
<trkpt lat="42.470158" lon="18.764496">
<ele>7.3</ele>
<time>2012-05-02T12:14:50Z</time>
<desc>lat.=42.470158, lon.=18.764496, Alt.=10.543587m. Speed=26.712000m/h.</desc>
<speed>7.420000</speed>
</trkpt>
<trkpt lat="42.469322" lon="18.763742">
<ele>3.2</ele>
<time>2012-05-02T12:15:05Z</time>
<desc>lat.=42.469322, lon.=18.763742, Alt.=5.965275m. Speed=24.299999m/h.</desc>
<speed>6.750000</speed>
</trkpt>
<trkpt lat="42.467514" lon="18.762951">
<ele>5.1</ele>
<time>2012-05-02T12:15:45Z</time>
<desc>lat.=42.467514, lon.=18.762951, Alt.=1.657670m. Speed=20.340000m/h.</desc>
<speed>5.650000</speed>
</trkpt>
<trkpt lat="42.464161" lon="18.763981">
<ele>5.3</ele>
<time>2012-05-02T12:16:50Z</time>
<desc>lat.=42.464161, lon.=18.763981, Alt.=-1.552384m. Speed=16.416000m/h.</desc>
<speed>4.560000</speed>
</trkpt>
<trkpt lat="42.463017" lon="18.763916">
<ele>4.2</ele>
<time>2012-05-02T12:17:10Z</time>
<desc>lat.=42.463017, lon.=18.763916, Alt.=0.790673m. Speed=23.219999m/h.</desc>
<speed>6.450000</speed>
</trkpt>
<trkpt lat="42.461712" lon="18.764227">
<ele>5.8</ele>
<time>2012-05-02T12:17:35Z</time>
<desc>lat.=42.461712, lon.=18.764227, Alt.=-0.824715m. Speed=22.896000m/h.</desc>
<speed>6.360000</speed>
</trkpt>
<trkpt lat="42.460373" lon="18.764145">
<ele>1.9</ele>
<time>2012-05-02T12:18:00Z</time>
<desc>lat.=42.460373, lon.=18.764145, Alt.=-1.944444m. Speed=21.096001m/h.</desc>
<speed>5.860000</speed>
</trkpt>
<trkpt lat="42.459793" lon="18.764797">
<ele>6.1</ele>
<time>2012-05-02T12:18:15Z</time>
<desc>lat.=42.459793, lon.=18.764797, Alt.=-0.242643m. Speed=20.916000m/h.</desc>
<speed>5.810000</speed>
</trkpt>
<trkpt lat="42.459366" lon="18.764765">
<ele>5.0</ele>
<time>2012-05-02T12:18:25Z</time>
<desc>lat.=42.459366, lon.=18.764765, Alt.=1.159532m. Speed=12.744000m/h.</desc>
<speed>3.540000</speed>
</trkpt>
<trkpt lat="42.458767" lon="18.765127">
<ele>2.6</ele>
<time>2012-05-02T12:18:40Z</time>
<desc>lat.=42.458767, lon.=18.765127, Alt.=3.401766m. Speed=21.672001m/h.</desc>
<speed>6.020000</speed>
</trkpt>
<trkpt lat="42.457535" lon="18.764938">
<ele>-0.9</ele>
<time>2012-05-02T12:19:05Z</time>
<desc>lat.=42.457535, lon.=18.764938, Alt.=2.845613m. Speed=17.243999m/h.</desc>
<speed>4.790000</speed>
</trkpt>
<trkpt lat="42.456253" lon="18.765945">
<ele>5.6</ele>
<time>2012-05-02T12:19:35Z</time>
<desc>lat.=42.456253, lon.=18.765945, Alt.=-2.315157m. Speed=17.639999m/h.</desc>
<speed>4.900000</speed>
</trkpt>
<trkpt lat="42.455196" lon="18.765938">
<ele>4.5</ele>
<time>2012-05-02T12:19:55Z</time>
<desc>lat.=42.455196, lon.=18.765938, Alt.=-2.767000m. Speed=18.719999m/h.</desc>
<speed>5.200000</speed>
</trkpt>
<trkpt lat="42.454174" lon="18.765471">
<ele>6.4</ele>
<time>2012-05-02T12:20:20Z</time>
<desc>lat.=42.454174, lon.=18.765471, Alt.=3.413790m. Speed=6.156000m/h.</desc>
<speed>1.710000</speed>
</trkpt>
<trkpt lat="42.453663" lon="18.765028">
<ele>3.3</ele>
<time>2012-05-02T12:22:15Z</time>
<desc>lat.=42.453663, lon.=18.765028, Alt.=1.142594m. Speed=3.060000m/h.</desc>
<speed>0.850000</speed>
</trkpt>
<trkpt lat="42.453415" lon="18.765127">
<ele>5.3</ele>
<time>2012-05-02T12:23:00Z</time>
<desc>lat.=42.453415, lon.=18.765127, Alt.=-3.919344m. Speed=0.144000m/h.</desc>
<speed>0.040000</speed>
</trkpt>
<trkpt lat="42.452988" lon="18.764936">
<ele>2.6</ele>
<time>2012-05-02T12:24:00Z</time>
<desc>lat.=42.452988, lon.=18.764936, Alt.=-0.794518m. Speed=7.164000m/h.</desc>
<speed>1.990000</speed>
</trkpt>
<trkpt lat="42.450912" lon="18.765265">
<ele>4.2</ele>
<time>2012-05-02T12:24:55Z</time>
<desc>lat.=42.450912, lon.=18.765265, Alt.=-3.585909m. Speed=12.780000m/h.</desc>
<speed>3.550000</speed>
</trkpt>
<trkpt lat="42.450279" lon="18.764872">
<ele>6.2</ele>
<time>2012-05-02T12:25:15Z</time>
<desc>lat.=42.450279, lon.=18.764872, Alt.=-2.594332m. Speed=18.468000m/h.</desc>
<speed>5.130000</speed>
</trkpt>
<trkpt lat="42.449478" lon="18.765051">
<ele>3.1</ele>
<time>2012-05-02T12:25:30Z</time>
<desc>lat.=42.449478, lon.=18.765051, Alt.=-5.195011m. Speed=22.535999m/h.</desc>
<speed>6.260000</speed>
</trkpt>
<trkpt lat="42.448959" lon="18.765633">
<ele>7.0</ele>
<time>2012-05-02T12:26:00Z</time>
<desc>lat.=42.448959, lon.=18.765633, Alt.=-5.066593m. Speed=2.844000m/h.</desc>
<speed>0.790000</speed>
</trkpt>
<trkpt lat="42.448578" lon="18.765743">
<ele>7.6</ele>
<time>2012-05-02T12:26:30Z</time>
<desc>lat.=42.448578, lon.=18.765743, Alt.=-2.376680m. Speed=5.508000m/h.</desc>
<speed>1.530000</speed>
</trkpt>
<trkpt lat="42.447536" lon="18.765345">
<ele>2.5</ele>
<time>2012-05-02T12:28:05Z</time>
<desc>lat.=42.447536, lon.=18.765345, Alt.=-0.301708m. Speed=9.468000m/h.</desc>
<speed>2.630000</speed>
</trkpt>
<trkpt lat="42.446640" lon="18.765451">
<ele>6.5</ele>
<time>2012-05-02T12:28:25Z</time>
<desc>lat.=42.446640, lon.=18.765451, Alt.=-1.318955m. Speed=17.964001m/h.</desc>
<speed>4.990000</speed>
</trkpt>
<trkpt lat="42.444984" lon="18.764591">
<ele>6.3</ele>
<time>2012-05-02T12:29:00Z</time>
<desc>lat.=42.444984, lon.=18.764591, Alt.=-3.151949m. Speed=20.879999m/h.</desc>
<speed>5.800000</speed>
</trkpt>
<trkpt lat="42.443768" lon="18.763716">
<ele>2.6</ele>
<time>2012-05-02T12:29:25Z</time>
<desc>lat.=42.443768, lon.=18.763716, Alt.=-0.170946m. Speed=18.000000m/h.</desc>
<speed>5.000000</speed>
</trkpt>
<trkpt lat="42.443222" lon="18.763615">
<ele>3.4</ele>
<time>2012-05-02T12:29:35Z</time>
<desc>lat.=42.443222, lon.=18.763615, Alt.=1.168839m. Speed=18.864000m/h.</desc>
<speed>5.240000</speed>
</trkpt>
<trkpt lat="42.442287" lon="18.762188">
<ele>2.6</ele>
<time>2012-05-02T12:30:00Z</time>
<desc>lat.=42.442287, lon.=18.762188, Alt.=3.165743m. Speed=22.104000m/h.</desc>
<speed>6.140000</speed>
</trkpt>
<trkpt lat="42.441784" lon="18.761890">
<ele>2.6</ele>
<time>2012-05-02T12:30:10Z</time>
<desc>lat.=42.441784, lon.=18.761890, Alt.=2.574862m. Speed=19.296000m/h.</desc>
<speed>5.360000</speed>
</trkpt>
<trkpt lat="42.440132" lon="18.762453">
<ele>4.0</ele>
<time>2012-05-02T12:31:05Z</time>
<desc>lat.=42.440132, lon.=18.762453, Alt.=2.123446m. Speed=15.192000m/h.</desc>
<speed>4.220000</speed>
</trkpt>
<trkpt lat="42.439651" lon="18.763021">
<ele>5.3</ele>
<time>2012-05-02T12:31:20Z</time>
<desc>lat.=42.439651, lon.=18.763021, Alt.=-0.174906m. Speed=16.667999m/h.</desc>
<speed>4.630000</speed>
</trkpt>
<trkpt lat="42.438984" lon="18.763332">
<ele>3.7</ele>
<time>2012-05-02T12:31:35Z</time>
<desc>lat.=42.438984, lon.=18.763332, Alt.=0.306401m. Speed=17.351999m/h.</desc>
<speed>4.820000</speed>
</trkpt>
<trkpt lat="42.437737" lon="18.764362">
<ele>3.1</ele>
<time>2012-05-02T12:32:05Z</time>
<desc>lat.=42.437737, lon.=18.764362, Alt.=2.728975m. Speed=20.700001m/h.</desc>
<speed>5.750000</speed>
</trkpt>
<trkpt lat="42.436081" lon="18.764616">
<ele>3.8</ele>
<time>2012-05-02T12:32:45Z</time>
<desc>lat.=42.436081, lon.=18.764616, Alt.=6.108341m. Speed=16.379999m/h.</desc>
<speed>4.550000</speed>
</trkpt>
<trkpt lat="42.435368" lon="18.766024">
<ele>2.7</ele>
<time>2012-05-02T12:33:10Z</time>
<desc>lat.=42.435368, lon.=18.766024, Alt.=9.388313m. Speed=25.020000m/h.</desc>
<speed>6.950000</speed>
</trkpt>
<trkpt lat="42.434227" lon="18.766956">
<ele>4.3</ele>
<time>2012-05-02T12:33:35Z</time>
<desc>lat.=42.434227, lon.=18.766956, Alt.=3.545198m. Speed=21.132000m/h.</desc>
<speed>5.870000</speed>
</trkpt>
<trkpt lat="42.433197" lon="18.767372">
<ele>3.3</ele>
<time>2012-05-02T12:33:55Z</time>
<desc>lat.=42.433197, lon.=18.767372, Alt.=2.642550m. Speed=20.087999m/h.</desc>
<speed>5.580000</speed>
</trkpt>
<trkpt lat="42.432049" lon="18.767334">
<ele>3.2</ele>
<time>2012-05-02T12:34:20Z</time>
<desc>lat.=42.432049, lon.=18.767334, Alt.=5.057072m. Speed=6.696000m/h.</desc>
<speed>1.860000</speed>
</trkpt>
<trkpt lat="42.430981" lon="18.767658">
<ele>3.8</ele>
<time>2012-05-02T12:34:45Z</time>
<desc>lat.=42.430981, lon.=18.767658, Alt.=1.997910m. Speed=21.384001m/h.</desc>
<speed>5.940000</speed>
</trkpt>
<trkpt lat="42.430473" lon="18.767561">
<ele>3.1</ele>
<time>2012-05-02T12:34:55Z</time>
<desc>lat.=42.430473, lon.=18.767561, Alt.=4.910954m. Speed=19.980000m/h.</desc>
<speed>5.550000</speed>
</trkpt>
<trkpt lat="42.429630" lon="18.768099">
<ele>3.9</ele>
<time>2012-05-02T12:35:10Z</time>
<desc>lat.=42.429630, lon.=18.768099, Alt.=3.337069m. Speed=25.740000m/h.</desc>
<speed>7.150000</speed>
</trkpt>
<trkpt lat="42.428764" lon="18.769051">
<ele>3.5</ele>
<time>2012-05-02T12:35:30Z</time>
<desc>lat.=42.428764, lon.=18.769051, Alt.=5.284000m. Speed=15.480000m/h.</desc>
<speed>4.300000</speed>
</trkpt>
<trkpt lat="42.427628" lon="18.768873">
<ele>5.4</ele>
<time>2012-05-02T12:36:35Z</time>
<desc>lat.=42.427628, lon.=18.768873, Alt.=10.784065m. Speed=11.016000m/h.</desc>
<speed>3.060000</speed>
</trkpt>
<trkpt lat="42.426277" lon="18.768372">
<ele>2.3</ele>
<time>2012-05-02T12:37:05Z</time>
<desc>lat.=42.426277, lon.=18.768372, Alt.=24.209732m. Speed=17.747999m/h.</desc>
<speed>4.930000</speed>
</trkpt>
<trkpt lat="42.425224" lon="18.768353">
<ele>1.1</ele>
<time>2012-05-02T12:37:30Z</time>
<desc>lat.=42.425224, lon.=18.768353, Alt.=14.276985m. Speed=15.624000m/h.</desc>
<speed>4.340000</speed>
</trkpt>
<trkpt lat="42.424541" lon="18.769382">
<ele>1.8</ele>
<time>2012-05-02T12:38:00Z</time>
<desc>lat.=42.424541, lon.=18.769382, Alt.=9.741096m. Speed=1.476000m/h.</desc>
<speed>0.410000</speed>
</trkpt>
<trkpt lat="42.424370" lon="18.769274">
<ele>0.4</ele>
<time>2012-05-02T12:46:35Z</time>
<desc>lat.=42.424370, lon.=18.769274, Alt.=10.448860m. Speed=8.964000m/h.</desc>
<speed>2.490000</speed>
</trkpt>
<trkpt lat="42.423222" lon="18.770988">
<ele>6.5</ele>
<time>2012-05-02T12:47:35Z</time>
<desc>lat.=42.423222, lon.=18.770988, Alt.=10.368294m. Speed=11.916000m/h.</desc>
<speed>3.310000</speed>
</trkpt>
<trkpt lat="42.422905" lon="18.771204">
<ele>11.3</ele>
<time>2012-05-02T12:48:50Z</time>
<desc>lat.=42.422905, lon.=18.771204, Alt.=9.301155m. Speed=0.396000m/h.</desc>
<speed>0.110000</speed>
</trkpt>
<trkpt lat="42.424454" lon="18.769369">
<ele>1.1</ele>
<time>2012-05-02T12:50:15Z</time>
<desc>lat.=42.424454, lon.=18.769369, Alt.=16.787857m. Speed=1.908000m/h.</desc>
<speed>0.530000</speed>
</trkpt>
<trkpt lat="42.424789" lon="18.769766">
<ele>5.2</ele>
<time>2012-05-02T12:50:45Z</time>
<desc>lat.=42.424789, lon.=18.769766, Alt.=23.667740m. Speed=3.924000m/h.</desc>
<speed>1.090000</speed>
</trkpt>
<trkpt lat="42.424641" lon="18.769876">
<ele>7.6</ele>
<time>2012-05-02T12:50:55Z</time>
<desc>lat.=42.424641, lon.=18.769876, Alt.=25.600357m. Speed=3.096000m/h.</desc>
<speed>0.860000</speed>
</trkpt>
<trkpt lat="42.424694" lon="18.770172">
<ele>8.8</ele>
<time>2012-05-02T12:51:10Z</time>
<desc>lat.=42.424694, lon.=18.770172, Alt.=28.483170m. Speed=5.868000m/h.</desc>
<speed>1.630000</speed>
</trkpt>
<trkpt lat="42.424469" lon="18.770554">
<ele>6.4</ele>
<time>2012-05-02T12:51:25Z</time>
<desc>lat.=42.424469, lon.=18.770554, Alt.=31.433853m. Speed=8.892000m/h.</desc>
<speed>2.470000</speed>
</trkpt>
<trkpt lat="42.424068" lon="18.770615">
<ele>7.4</ele>
<time>2012-05-02T12:52:25Z</time>
<desc>lat.=42.424068, lon.=18.770615, Alt.=38.207550m. Speed=2.016000m/h.</desc>
<speed>0.560000</speed>
</trkpt>
<trkpt lat="42.424454" lon="18.770962">
<ele>5.0</ele>
<time>2012-05-02T12:52:45Z</time>
<desc>lat.=42.424454, lon.=18.770962, Alt.=39.962433m. Speed=9.180000m/h.</desc>
<speed>2.550000</speed>
</trkpt>
<trkpt lat="42.424126" lon="18.770937">
<ele>7.8</ele>
<time>2012-05-02T12:53:05Z</time>
<desc>lat.=42.424126, lon.=18.770937, Alt.=41.480988m. Speed=6.732000m/h.</desc>
<speed>1.870000</speed>
</trkpt>
<trkpt lat="42.424225" lon="18.770985">
<ele>6.8</ele>
<time>2012-05-02T12:53:20Z</time>
<desc>lat.=42.424225, lon.=18.770985, Alt.=32.581573m. Speed=2.448000m/h.</desc>
<speed>0.680000</speed>
</trkpt>
<trkpt lat="42.424103" lon="18.771200">
<ele>11.4</ele>
<time>2012-05-02T12:54:35Z</time>
<desc>lat.=42.424103, lon.=18.771200, Alt.=24.378677m. Speed=1.908000m/h.</desc>
<speed>0.530000</speed>
</trkpt>
<trkpt lat="42.424274" lon="18.771358">
<ele>12.0</ele>
<time>2012-05-02T13:00:25Z</time>
<desc>lat.=42.424274, lon.=18.771358, Alt.=20.612076m. Speed=3.024000m/h.</desc>
<speed>0.840000</speed>
</trkpt>
<trkpt lat="42.424210" lon="18.771832">
<ele>22.2</ele>
<time>2012-05-02T13:00:50Z</time>
<desc>lat.=42.424210, lon.=18.771832, Alt.=21.031021m. Speed=2.916000m/h.</desc>
<speed>0.810000</speed>
</trkpt>
<trkpt lat="42.424488" lon="18.771727">
<ele>17.9</ele>
<time>2012-05-02T13:01:30Z</time>
<desc>lat.=42.424488, lon.=18.771727, Alt.=22.692154m. Speed=1.800000m/h.</desc>
<speed>0.500000</speed>
</trkpt>
<trkpt lat="42.425217" lon="18.772194">
<ele>19.4</ele>
<time>2012-05-02T13:07:25Z</time>
<desc>lat.=42.425217, lon.=18.772194, Alt.=29.736588m. Speed=6.768000m/h.</desc>
<speed>1.880000</speed>
</trkpt>
<trkpt lat="42.424362" lon="18.773193">
<ele>89.8</ele>
<time>2012-05-02T13:10:34Z</time>
<desc>lat.=42.424362, lon.=18.773193, Alt.=37.962433m. Speed=2.916000m/h.</desc>
<speed>0.810000</speed>
</trkpt>
<trkpt lat="42.425213" lon="18.771971">
<ele>12.9</ele>
<time>2012-05-02T13:12:49Z</time>
<desc>lat.=42.425213, lon.=18.771971, Alt.=40.016144m. Speed=3.096000m/h.</desc>
<speed>0.860000</speed>
</trkpt>
<trkpt lat="42.425755" lon="18.771887">
<ele>10.7</ele>
<time>2012-05-02T13:13:34Z</time>
<desc>lat.=42.425755, lon.=18.771887, Alt.=42.378448m. Speed=0.468000m/h.</desc>
<speed>0.130000</speed>
</trkpt>
<trkpt lat="42.426098" lon="18.772097">
<ele>9.5</ele>
<time>2012-05-02T13:14:19Z</time>
<desc>lat.=42.426098, lon.=18.772097, Alt.=37.764191m. Speed=0.900000m/h.</desc>
<speed>0.250000</speed>
</trkpt>
<trkpt lat="42.426121" lon="18.771837">
<ele>8.7</ele>
<time>2012-05-02T13:14:34Z</time>
<desc>lat.=42.426121, lon.=18.771837, Alt.=29.874771m. Speed=2.520000m/h.</desc>
<speed>0.700000</speed>
</trkpt>
<trkpt lat="42.425808" lon="18.771919">
<ele>11.3</ele>
<time>2012-05-02T13:15:04Z</time>
<desc>lat.=42.425808, lon.=18.771919, Alt.=24.566666m. Speed=3.456000m/h.</desc>
<speed>0.960000</speed>
</trkpt>
<trkpt lat="42.426044" lon="18.771805">
<ele>10.3</ele>
<time>2012-05-02T13:15:34Z</time>
<desc>lat.=42.426044, lon.=18.771805, Alt.=23.759048m. Speed=2.088000m/h.</desc>
<speed>0.580000</speed>
</trkpt>
<trkpt lat="42.425686" lon="18.771639">
<ele>8.9</ele>
<time>2012-05-02T13:16:14Z</time>
<desc>lat.=42.425686, lon.=18.771639, Alt.=23.790298m. Speed=2.772000m/h.</desc>
<speed>0.770000</speed>
</trkpt>
<trkpt lat="42.425659" lon="18.771223">
<ele>9.6</ele>
<time>2012-05-02T13:16:34Z</time>
<desc>lat.=42.425659, lon.=18.771223, Alt.=25.138931m. Speed=0.396000m/h.</desc>
<speed>0.110000</speed>
</trkpt>
<trkpt lat="42.425350" lon="18.770979">
<ele>7.8</ele>
<time>2012-05-02T13:17:29Z</time>
<desc>lat.=42.425350, lon.=18.770979, Alt.=24.977310m. Speed=3.564000m/h.</desc>
<speed>0.990000</speed>
</trkpt>
<trkpt lat="42.425018" lon="18.771276">
<ele>8.3</ele>
<time>2012-05-02T13:18:09Z</time>
<desc>lat.=42.425018, lon.=18.771276, Alt.=27.343521m. Speed=1.080000m/h.</desc>
<speed>0.300000</speed>
</trkpt>
<trkpt lat="42.424770" lon="18.771246">
<ele>8.4</ele>
<time>2012-05-02T13:18:29Z</time>
<desc>lat.=42.424770, lon.=18.771246, Alt.=27.802017m. Speed=3.708000m/h.</desc>
<speed>1.030000</speed>
</trkpt>
<trkpt lat="42.424767" lon="18.771097">
<ele>8.1</ele>
<time>2012-05-02T13:18:39Z</time>
<desc>lat.=42.424767, lon.=18.771097, Alt.=28.533463m. Speed=8.280000m/h.</desc>
<speed>2.300000</speed>
</trkpt>
<trkpt lat="42.423923" lon="18.771278">
<ele>13.7</ele>
<time>2012-05-02T13:19:54Z</time>
<desc>lat.=42.423923, lon.=18.771278, Alt.=26.857681m. Speed=3.420000m/h.</desc>
<speed>0.950000</speed>
</trkpt>
<trkpt lat="42.423637" lon="18.771658">
<ele>23.9</ele>
<time>2012-05-02T13:21:09Z</time>
<desc>lat.=42.423637, lon.=18.771658, Alt.=27.445084m. Speed=4.788000m/h.</desc>
<speed>1.330000</speed>
</trkpt>
<trkpt lat="42.423328" lon="18.771555">
<ele>21.9</ele>
<time>2012-05-02T13:21:14Z</time>
<desc>lat.=42.423328, lon.=18.771555, Alt.=27.417252m. Speed=8.280000m/h.</desc>
<speed>2.300000</speed>
</trkpt>
<trkpt lat="42.422482" lon="18.771734">
<ele>19.8</ele>
<time>2012-05-02T13:21:54Z</time>
<desc>lat.=42.422482, lon.=18.771734, Alt.=26.891373m. Speed=6.192000m/h.</desc>
<speed>1.720000</speed>
</trkpt>
<trkpt lat="42.422798" lon="18.771841">
<ele>24.7</ele>
<time>2012-05-02T13:22:24Z</time>
<desc>lat.=42.422798, lon.=18.771841, Alt.=26.724380m. Speed=2.628000m/h.</desc>
<speed>0.730000</speed>
</trkpt>
<trkpt lat="42.422337" lon="18.771410">
<ele>9.9</ele>
<time>2012-05-02T13:22:49Z</time>
<desc>lat.=42.422337, lon.=18.771410, Alt.=26.714127m. Speed=11.196000m/h.</desc>
<speed>3.110000</speed>
</trkpt>
<trkpt lat="42.422779" lon="18.771788">
<ele>23.1</ele>
<time>2012-05-02T13:23:34Z</time>
<desc>lat.=42.422779, lon.=18.771788, Alt.=26.518326m. Speed=0.864000m/h.</desc>
<speed>0.240000</speed>
</trkpt>
<trkpt lat="42.422337" lon="18.771589">
<ele>15.3</ele>
<time>2012-05-02T13:24:04Z</time>
<desc>lat.=42.422337, lon.=18.771589, Alt.=25.706314m. Speed=1.440000m/h.</desc>
<speed>0.400000</speed>
</trkpt>
<trkpt lat="42.422466" lon="18.771545">
<ele>14.3</ele>
<time>2012-05-02T13:24:29Z</time>
<desc>lat.=42.422466, lon.=18.771545, Alt.=25.354752m. Speed=1.116000m/h.</desc>
<speed>0.310000</speed>
</trkpt>
<trkpt lat="42.422459" lon="18.772568">
<ele>73.0</ele>
<time>2012-05-02T13:26:14Z</time>
<desc>lat.=42.422459, lon.=18.772568, Alt.=-82.381897m. Speed=7.452000m/h.</desc>
<speed>2.070000</speed>
</trkpt>
<trkpt lat="42.422230" lon="18.771978">
<ele>30.6</ele>
<time>2012-05-02T13:26:39Z</time>
<desc>lat.=42.422230, lon.=18.771978, Alt.=-37.302277m. Speed=0.216000m/h.</desc>
<speed>0.060000</speed>
</trkpt>
<trkpt lat="42.422337" lon="18.771645">
<ele>17.0</ele>
<time>2012-05-02T13:28:29Z</time>
<desc>lat.=42.422337, lon.=18.771645, Alt.=-46.226105m. Speed=14.904000m/h.</desc>
<speed>4.140000</speed>
</trkpt>
<trkpt lat="42.421791" lon="18.770052">
<ele>3.3</ele>
<time>2012-05-02T13:29:09Z</time>
<desc>lat.=42.421791, lon.=18.770052, Alt.=-43.563995m. Speed=15.948000m/h.</desc>
<speed>4.430000</speed>
</trkpt>
<trkpt lat="42.421471" lon="18.765345">
<ele>4.3</ele>
<time>2012-05-02T13:30:44Z</time>
<desc>lat.=42.421471, lon.=18.765345, Alt.=-9.940315m. Speed=19.548000m/h.</desc>
<speed>5.430000</speed>
</trkpt>
<trkpt lat="42.421612" lon="18.763523">
<ele>3.2</ele>
<time>2012-05-02T13:31:09Z</time>
<desc>lat.=42.421612, lon.=18.763523, Alt.=5.419132m. Speed=22.320000m/h.</desc>
<speed>6.200000</speed>
</trkpt>
<trkpt lat="42.422153" lon="18.762051">
<ele>4.5</ele>
<time>2012-05-02T13:31:34Z</time>
<desc>lat.=42.422153, lon.=18.762051, Alt.=18.876236m. Speed=20.160000m/h.</desc>
<speed>5.600000</speed>
</trkpt>
<trkpt lat="42.422962" lon="18.761696">
<ele>3.6</ele>
<time>2012-05-02T13:31:54Z</time>
<desc>lat.=42.422962, lon.=18.761696, Alt.=27.096939m. Speed=19.332001m/h.</desc>
<speed>5.370000</speed>
</trkpt>
<trkpt lat="42.424061" lon="18.760517">
<ele>1.6</ele>
<time>2012-05-02T13:32:19Z</time>
<desc>lat.=42.424061, lon.=18.760517, Alt.=32.438019m. Speed=21.384001m/h.</desc>
<speed>5.940000</speed>
</trkpt>
<trkpt lat="42.424969" lon="18.760178">
<ele>2.2</ele>
<time>2012-05-02T13:32:34Z</time>
<desc>lat.=42.424969, lon.=18.760178, Alt.=34.123566m. Speed=23.868000m/h.</desc>
<speed>6.630000</speed>
</trkpt>
<trkpt lat="42.425430" lon="18.759525">
<ele>1.1</ele>
<time>2012-05-02T13:32:44Z</time>
<desc>lat.=42.425430, lon.=18.759525, Alt.=34.455597m. Speed=24.120001m/h.</desc>
<speed>6.700000</speed>
</trkpt>
<trkpt lat="42.425934" lon="18.759155">
<ele>2.6</ele>
<time>2012-05-02T13:32:54Z</time>
<desc>lat.=42.425934, lon.=18.759155, Alt.=34.797394m. Speed=21.420000m/h.</desc>
<speed>5.950000</speed>
</trkpt>
<trkpt lat="42.427097" lon="18.758865">
<ele>1.1</ele>
<time>2012-05-02T13:34:04Z</time>
<desc>lat.=42.427097, lon.=18.758865, Alt.=33.881378m. Speed=3.672000m/h.</desc>
<speed>1.020000</speed>
</trkpt>
<trkpt lat="42.427727" lon="18.758905">
<ele>0.1</ele>
<time>2012-05-02T13:34:19Z</time>
<desc>lat.=42.427727, lon.=18.758905, Alt.=30.569107m. Speed=20.879999m/h.</desc>
<speed>5.800000</speed>
</trkpt>
<trkpt lat="42.428795" lon="18.758402">
<ele>0.0</ele>
<time>2012-05-02T13:34:39Z</time>
<desc>lat.=42.428795, lon.=18.758402, Alt.=17.709732m. Speed=21.816000m/h.</desc>
<speed>6.060000</speed>
</trkpt>
<trkpt lat="42.430393" lon="18.758356">
<ele>0.0</ele>
<time>2012-05-02T13:35:09Z</time>
<desc>lat.=42.430393, lon.=18.758356, Alt.=15.376595m. Speed=21.204000m/h.</desc>
<speed>5.890000</speed>
</trkpt>
<trkpt lat="42.431091" lon="18.757969">
<ele>2.7</ele>
<time>2012-05-02T13:35:24Z</time>
<desc>lat.=42.431091, lon.=18.757969, Alt.=18.913834m. Speed=20.483999m/h.</desc>
<speed>5.690000</speed>
</trkpt>
<trkpt lat="42.432110" lon="18.757782">
<ele>0.9</ele>
<time>2012-05-02T13:35:44Z</time>
<desc>lat.=42.432110, lon.=18.757782, Alt.=24.420181m. Speed=19.188000m/h.</desc>
<speed>5.330000</speed>
</trkpt>
<trkpt lat="42.433403" lon="18.758066">
<ele>0.8</ele>
<time>2012-05-02T13:36:09Z</time>
<desc>lat.=42.433403, lon.=18.758066, Alt.=23.812759m. Speed=24.084000m/h.</desc>
<speed>6.690000</speed>
</trkpt>
<trkpt lat="42.434643" lon="18.757023">
<ele>1.6</ele>
<time>2012-05-02T13:36:34Z</time>
<desc>lat.=42.434643, lon.=18.757023, Alt.=24.212173m. Speed=23.688000m/h.</desc>
<speed>6.580000</speed>
</trkpt>
<trkpt lat="42.435223" lon="18.756973">
<ele>0.2</ele>
<time>2012-05-02T13:36:44Z</time>
<desc>lat.=42.435223, lon.=18.756973, Alt.=24.868423m. Speed=23.832001m/h.</desc>
<speed>6.620000</speed>
</trkpt>
<trkpt lat="42.436893" lon="18.755991">
<ele>1.1</ele>
<time>2012-05-02T13:37:19Z</time>
<desc>lat.=42.436893, lon.=18.755991, Alt.=22.876236m. Speed=22.716000m/h.</desc>
<speed>6.310000</speed>
</trkpt>
<trkpt lat="42.437496" lon="18.755198">
<ele>2.3</ele>
<time>2012-05-02T13:37:34Z</time>
<desc>lat.=42.437496, lon.=18.755198, Alt.=22.089127m. Speed=25.920000m/h.</desc>
<speed>7.200000</speed>
</trkpt>
<trkpt lat="42.438786" lon="18.754507">
<ele>0.0</ele>
<time>2012-05-02T13:38:29Z</time>
<desc>lat.=42.438786, lon.=18.754507, Alt.=20.697525m. Speed=17.172001m/h.</desc>
<speed>4.770000</speed>
</trkpt>
<trkpt lat="42.439491" lon="18.753510">
<ele>3.2</ele>
<time>2012-05-02T13:38:49Z</time>
<desc>lat.=42.439491, lon.=18.753510, Alt.=19.731705m. Speed=20.304001m/h.</desc>
<speed>5.640000</speed>
</trkpt>
<trkpt lat="42.441326" lon="18.754578">
<ele>0.5</ele>
<time>2012-05-02T13:39:24Z</time>
<desc>lat.=42.441326, lon.=18.754578, Alt.=19.276627m. Speed=20.087999m/h.</desc>
<speed>5.580000</speed>
</trkpt>
<trkpt lat="42.442345" lon="18.754681">
<ele>3.7</ele>
<time>2012-05-02T13:39:44Z</time>
<desc>lat.=42.442345, lon.=18.754681, Alt.=22.749771m. Speed=20.736000m/h.</desc>
<speed>5.760000</speed>
</trkpt>
<trkpt lat="42.443020" lon="18.754084">
<ele>7.4</ele>
<time>2012-05-02T13:39:59Z</time>
<desc>lat.=42.443020, lon.=18.754084, Alt.=24.109634m. Speed=22.931999m/h.</desc>
<speed>6.370000</speed>
</trkpt>
<trkpt lat="42.443825" lon="18.752632">
<ele>1.4</ele>
<time>2012-05-02T13:40:24Z</time>
<desc>lat.=42.443825, lon.=18.752632, Alt.=24.940201m. Speed=21.132000m/h.</desc>
<speed>5.870000</speed>
</trkpt>
<trkpt lat="42.444263" lon="18.752293">
<ele>1.3</ele>
<time>2012-05-02T13:40:34Z</time>
<desc>lat.=42.444263, lon.=18.752293, Alt.=25.476334m. Speed=24.624001m/h.</desc>
<speed>6.840000</speed>
</trkpt>
<trkpt lat="42.444614" lon="18.752310">
<ele>0.5</ele>
<time>2012-05-02T13:40:39Z</time>
<desc>lat.=42.444614, lon.=18.752310, Alt.=26.092545m. Speed=24.011999m/h.</desc>
<speed>6.670000</speed>
</trkpt>
<trkpt lat="42.445496" lon="18.752789">
<ele>0.1</ele>
<time>2012-05-02T13:40:54Z</time>
<desc>lat.=42.445496, lon.=18.752789, Alt.=26.175064m. Speed=25.271999m/h.</desc>
<speed>7.020000</speed>
</trkpt>
<trkpt lat="42.446217" lon="18.753864">
<ele>0.0</ele>
<time>2012-05-02T13:41:14Z</time>
<desc>lat.=42.446217, lon.=18.753864, Alt.=25.984634m. Speed=24.660000m/h.</desc>
<speed>6.850000</speed>
</trkpt>
<trkpt lat="42.446918" lon="18.754520">
<ele>0.2</ele>
<time>2012-05-02T13:41:29Z</time>
<desc>lat.=42.446918, lon.=18.754520, Alt.=21.999283m. Speed=24.983999m/h.</desc>
<speed>6.940000</speed>
</trkpt>
<trkpt lat="42.447521" lon="18.754530">
<ele>0.0</ele>
<time>2012-05-02T13:41:39Z</time>
<desc>lat.=42.447521, lon.=18.754530, Alt.=19.406998m. Speed=23.004000m/h.</desc>
<speed>6.390000</speed>
</trkpt>
<trkpt lat="42.448875" lon="18.754091">
<ele>2.3</ele>
<time>2012-05-02T13:42:04Z</time>
<desc>lat.=42.448875, lon.=18.754091, Alt.=12.030403m. Speed=20.268000m/h.</desc>
<speed>5.630000</speed>
</trkpt>
<trkpt lat="42.449398" lon="18.753122">
<ele>4.3</ele>
<time>2012-05-02T13:42:19Z</time>
<desc>lat.=42.449398, lon.=18.753122, Alt.=9.876839m. Speed=22.247999m/h.</desc>
<speed>6.180000</speed>
</trkpt>
<trkpt lat="42.449791" lon="18.751602">
<ele>3.1</ele>
<time>2012-05-02T13:42:39Z</time>
<desc>lat.=42.449791, lon.=18.751602, Alt.=11.390022m. Speed=23.615999m/h.</desc>
<speed>6.560000</speed>
</trkpt>
<trkpt lat="42.450813" lon="18.750244">
<ele>0.9</ele>
<time>2012-05-02T13:43:04Z</time>
<desc>lat.=42.450813, lon.=18.750244, Alt.=16.394791m. Speed=23.219999m/h.</desc>
<speed>6.450000</speed>
</trkpt>
<trkpt lat="42.451542" lon="18.749893">
<ele>4.3</ele>
<time>2012-05-02T13:43:19Z</time>
<desc>lat.=42.451542, lon.=18.749893, Alt.=19.492935m. Speed=20.879999m/h.</desc>
<speed>5.800000</speed>
</trkpt>
<trkpt lat="42.452106" lon="18.749861">
<ele>0.0</ele>
<time>2012-05-02T13:43:29Z</time>
<desc>lat.=42.452106, lon.=18.749861, Alt.=25.056412m. Speed=17.820000m/h.</desc>
<speed>4.950000</speed>
</trkpt>
<trkpt lat="42.453049" lon="18.748850">
<ele>2.3</ele>
<time>2012-05-02T13:43:49Z</time>
<desc>lat.=42.453049, lon.=18.748850, Alt.=34.917511m. Speed=20.160000m/h.</desc>
<speed>5.600000</speed>
</trkpt>
<trkpt lat="42.453911" lon="18.748549">
<ele>0.6</ele>
<time>2012-05-02T13:44:04Z</time>
<desc>lat.=42.453911, lon.=18.748549, Alt.=44.244659m. Speed=24.660000m/h.</desc>
<speed>6.850000</speed>
</trkpt>
<trkpt lat="42.454399" lon="18.748085">
<ele>1.8</ele>
<time>2012-05-02T13:44:14Z</time>
<desc>lat.=42.454399, lon.=18.748085, Alt.=51.205597m. Speed=22.716000m/h.</desc>
<speed>6.310000</speed>
</trkpt>
<trkpt lat="42.455116" lon="18.747911">
<ele>0.0</ele>
<time>2012-05-02T13:44:59Z</time>
<desc>lat.=42.455116, lon.=18.747911, Alt.=56.614777m. Speed=0.612000m/h.</desc>
<speed>0.170000</speed>
</trkpt>
<trkpt lat="42.455025" lon="18.747869">
<ele>0.2</ele>
<time>2012-05-02T13:45:09Z</time>
<desc>lat.=42.455025, lon.=18.747869, Alt.=56.361847m. Speed=2.592000m/h.</desc>
<speed>0.720000</speed>
</trkpt>
<trkpt lat="42.455257" lon="18.747972">
<ele>0.0</ele>
<time>2012-05-02T13:51:49Z</time>
<desc>lat.=42.455257, lon.=18.747972, Alt.=48.250519m. Speed=0.288000m/h.</desc>
<speed>0.080000</speed>
</trkpt>
<trkpt lat="42.455132" lon="18.748188">
<ele>0.0</ele>
<time>2012-05-02T13:53:44Z</time>
<desc>lat.=42.455132, lon.=18.748188, Alt.=47.367706m. Speed=0.072000m/h.</desc>
<speed>0.020000</speed>
</trkpt>
<trkpt lat="42.455540" lon="18.747734">
<ele>0.2</ele>
<time>2012-05-02T14:07:04Z</time>
<desc>lat.=42.455540, lon.=18.747734, Alt.=37.970245m. Speed=6.192000m/h.</desc>
<speed>1.720000</speed>
</trkpt>
<trkpt lat="42.455914" lon="18.747229">
<ele>1.9</ele>
<time>2012-05-02T14:08:14Z</time>
<desc>lat.=42.455914, lon.=18.747229, Alt.=22.521744m. Speed=26.712000m/h.</desc>
<speed>7.420000</speed>
</trkpt>
<trkpt lat="42.456493" lon="18.745092">
<ele>1.3</ele>
<time>2012-05-02T14:08:39Z</time>
<desc>lat.=42.456493, lon.=18.745092, Alt.=10.666878m. Speed=27.648001m/h.</desc>
<speed>7.680000</speed>
</trkpt>
<trkpt lat="42.457741" lon="18.742569">
<ele>1.3</ele>
<time>2012-05-02T14:09:14Z</time>
<desc>lat.=42.457741, lon.=18.742569, Alt.=6.979435m. Speed=25.271999m/h.</desc>
<speed>7.020000</speed>
</trkpt>
<trkpt lat="42.459003" lon="18.741564">
<ele>1.6</ele>
<time>2012-05-02T14:09:39Z</time>
<desc>lat.=42.459003, lon.=18.741564, Alt.=7.423038m. Speed=23.472000m/h.</desc>
<speed>6.520000</speed>
</trkpt>
<trkpt lat="42.459499" lon="18.740486">
<ele>4.6</ele>
<time>2012-05-02T14:09:54Z</time>
<desc>lat.=42.459499, lon.=18.740486, Alt.=9.030159m. Speed=24.191999m/h.</desc>
<speed>6.720000</speed>
</trkpt>
<trkpt lat="42.460121" lon="18.739693">
<ele>1.8</ele>
<time>2012-05-02T14:10:09Z</time>
<desc>lat.=42.460121, lon.=18.739693, Alt.=8.405647m. Speed=23.436001m/h.</desc>
<speed>6.510000</speed>
</trkpt>
<trkpt lat="42.461239" lon="18.737705">
<ele>2.4</ele>
<time>2012-05-02T14:10:39Z</time>
<desc>lat.=42.461239, lon.=18.737705, Alt.=4.509830m. Speed=24.408001m/h.</desc>
<speed>6.780000</speed>
</trkpt>
<trkpt lat="42.463127" lon="18.736662">
<ele>1.0</ele>
<time>2012-05-02T14:11:14Z</time>
<desc>lat.=42.463127, lon.=18.736662, Alt.=3.448214m. Speed=28.908001m/h.</desc>
<speed>8.030000</speed>
</trkpt>
<trkpt lat="42.463707" lon="18.735638">
<ele>1.9</ele>
<time>2012-05-02T14:11:29Z</time>
<desc>lat.=42.463707, lon.=18.735638, Alt.=3.536226m. Speed=24.011999m/h.</desc>
<speed>6.670000</speed>
</trkpt>
<trkpt lat="42.464558" lon="18.734583">
<ele>2.6</ele>
<time>2012-05-02T14:11:49Z</time>
<desc>lat.=42.464558, lon.=18.734583, Alt.=4.241398m. Speed=22.608000m/h.</desc>
<speed>6.280000</speed>
</trkpt>
<trkpt lat="42.465263" lon="18.733433">
<ele>7.6</ele>
<time>2012-05-02T14:12:14Z</time>
<desc>lat.=42.465263, lon.=18.733433, Alt.=10.576302m. Speed=18.180000m/h.</desc>
<speed>5.050000</speed>
</trkpt>
<trkpt lat="42.465363" lon="18.731863">
<ele>2.3</ele>
<time>2012-05-02T14:12:34Z</time>
<desc>lat.=42.465363, lon.=18.731863, Alt.=7.812931m. Speed=25.091999m/h.</desc>
<speed>6.970000</speed>
</trkpt>
<trkpt lat="42.466042" lon="18.730423">
<ele>1.6</ele>
<time>2012-05-02T14:12:54Z</time>
<desc>lat.=42.466042, lon.=18.730423, Alt.=10.792854m. Speed=25.379999m/h.</desc>
<speed>7.050000</speed>
</trkpt>
<trkpt lat="42.466660" lon="18.728449">
<ele>3.8</ele>
<time>2012-05-02T14:13:19Z</time>
<desc>lat.=42.466660, lon.=18.728449, Alt.=13.543343m. Speed=25.164000m/h.</desc>
<speed>6.990000</speed>
</trkpt>
<trkpt lat="42.467175" lon="18.727379">
<ele>1.0</ele>
<time>2012-05-02T14:13:34Z</time>
<desc>lat.=42.467175, lon.=18.727379, Alt.=13.339241m. Speed=25.200001m/h.</desc>
<speed>7.000000</speed>
</trkpt>
<trkpt lat="42.468487" lon="18.725426">
<ele>7.3</ele>
<time>2012-05-02T14:14:09Z</time>
<desc>lat.=42.468487, lon.=18.725426, Alt.=6.787052m. Speed=18.864000m/h.</desc>
<speed>5.240000</speed>
</trkpt>
<trkpt lat="42.468876" lon="18.723799">
<ele>8.8</ele>
<time>2012-05-02T14:14:29Z</time>
<desc>lat.=42.468876, lon.=18.723799, Alt.=4.512760m. Speed=28.332001m/h.</desc>
<speed>7.870000</speed>
</trkpt>
<trkpt lat="42.469032" lon="18.722294">
<ele>8.6</ele>
<time>2012-05-02T14:14:44Z</time>
<desc>lat.=42.469032, lon.=18.722294, Alt.=-0.102685m. Speed=31.139999m/h.</desc>
<speed>8.650000</speed>
</trkpt>
<trkpt lat="42.470158" lon="18.719744">
<ele>4.0</ele>
<time>2012-05-02T14:15:14Z</time>
<desc>lat.=42.470158, lon.=18.719744, Alt.=-1.370347m. Speed=28.980000m/h.</desc>
<speed>8.050000</speed>
</trkpt>
<trkpt lat="42.470161" lon="18.718718">
<ele>4.7</ele>
<time>2012-05-02T14:15:24Z</time>
<desc>lat.=42.470161, lon.=18.718718, Alt.=-0.834877m. Speed=29.808001m/h.</desc>
<speed>8.280000</speed>
</trkpt>
<trkpt lat="42.469933" lon="18.717670">
<ele>8.9</ele>
<time>2012-05-02T14:15:34Z</time>
<desc>lat.=42.469933, lon.=18.717670, Alt.=0.675515m. Speed=31.212000m/h.</desc>
<speed>8.670000</speed>
</trkpt>
<trkpt lat="42.470333" lon="18.716200">
<ele>2.9</ele>
<time>2012-05-02T14:15:49Z</time>
<desc>lat.=42.470333, lon.=18.716200, Alt.=1.220963m. Speed=31.931999m/h.</desc>
<speed>8.870000</speed>
</trkpt>
<trkpt lat="42.470879" lon="18.715487">
<ele>4.9</ele>
<time>2012-05-02T14:15:59Z</time>
<desc>lat.=42.470879, lon.=18.715487, Alt.=2.094698m. Speed=32.796001m/h.</desc>
<speed>9.110000</speed>
</trkpt>
<trkpt lat="42.472256" lon="18.714550">
<ele>2.8</ele>
<time>2012-05-02T14:16:19Z</time>
<desc>lat.=42.472256, lon.=18.714550, Alt.=-3.941195m. Speed=25.164000m/h.</desc>
<speed>6.990000</speed>
</trkpt>
<trkpt lat="42.472485" lon="18.713028">
<ele>3.0</ele>
<time>2012-05-02T14:16:39Z</time>
<desc>lat.=42.472485, lon.=18.713028, Alt.=-7.153996m. Speed=18.504000m/h.</desc>
<speed>5.140000</speed>
</trkpt>
<trkpt lat="42.472282" lon="18.711672">
<ele>7.4</ele>
<time>2012-05-02T14:16:59Z</time>
<desc>lat.=42.472282, lon.=18.711672, Alt.=-2.414034m. Speed=16.271999m/h.</desc>
<speed>4.520000</speed>
</trkpt>
<trkpt lat="42.472729" lon="18.709335">
<ele>2.9</ele>
<time>2012-05-02T14:17:29Z</time>
<desc>lat.=42.472729, lon.=18.709335, Alt.=-1.536271m. Speed=26.856001m/h.</desc>
<speed>7.460000</speed>
</trkpt>
<trkpt lat="42.472115" lon="18.707912">
<ele>4.8</ele>
<time>2012-05-02T14:17:49Z</time>
<desc>lat.=42.472115, lon.=18.707912, Alt.=0.629006m. Speed=23.400000m/h.</desc>
<speed>6.500000</speed>
</trkpt>
<trkpt lat="42.471676" lon="18.706362">
<ele>7.2</ele>
<time>2012-05-02T14:18:09Z</time>
<desc>lat.=42.471676, lon.=18.706362, Alt.=2.224764m. Speed=26.747999m/h.</desc>
<speed>7.430000</speed>
</trkpt>
<trkpt lat="42.472111" lon="18.704893">
<ele>6.9</ele>
<time>2012-05-02T14:18:29Z</time>
<desc>lat.=42.472111, lon.=18.704893, Alt.=1.060472m. Speed=19.908001m/h.</desc>
<speed>5.530000</speed>
</trkpt>
<trkpt lat="42.473034" lon="18.704226">
<ele>2.1</ele>
<time>2012-05-02T14:18:49Z</time>
<desc>lat.=42.473034, lon.=18.704226, Alt.=3.308626m. Speed=22.427999m/h.</desc>
<speed>6.230000</speed>
</trkpt>
<trkpt lat="42.473751" lon="18.701954">
<ele>4.2</ele>
<time>2012-05-02T14:19:24Z</time>
<desc>lat.=42.473751, lon.=18.701954, Alt.=-0.906975m. Speed=21.132000m/h.</desc>
<speed>5.870000</speed>
</trkpt>
<trkpt lat="42.474323" lon="18.701561">
<ele>1.3</ele>
<time>2012-05-02T14:19:34Z</time>
<desc>lat.=42.474323, lon.=18.701561, Alt.=-0.160772m. Speed=23.004000m/h.</desc>
<speed>6.390000</speed>
</trkpt>
<trkpt lat="42.474689" lon="18.701002">
<ele>0.4</ele>
<time>2012-05-02T14:19:44Z</time>
<desc>lat.=42.474689, lon.=18.701002, Alt.=-0.357022m. Speed=21.528000m/h.</desc>
<speed>5.980000</speed>
</trkpt>
<trkpt lat="42.474716" lon="18.700151">
<ele>3.8</ele>
<time>2012-05-02T14:19:54Z</time>
<desc>lat.=42.474716, lon.=18.700151, Alt.=-0.968422m. Speed=26.280001m/h.</desc>
<speed>7.300000</speed>
</trkpt>
<trkpt lat="42.475094" lon="18.698984">
<ele>5.5</ele>
<time>2012-05-02T14:20:09Z</time>
<desc>lat.=42.475094, lon.=18.698984, Alt.=-1.294297m. Speed=21.996000m/h.</desc>
<speed>6.110000</speed>
</trkpt>
<trkpt lat="42.475651" lon="18.698214">
<ele>3.1</ele>
<time>2012-05-02T14:20:24Z</time>
<desc>lat.=42.475651, lon.=18.698214, Alt.=-2.846712m. Speed=22.068001m/h.</desc>
<speed>6.130000</speed>
</trkpt>
<trkpt lat="42.475662" lon="18.696554">
<ele>21.8</ele>
<time>2012-05-02T14:20:49Z</time>
<desc>lat.=42.475662, lon.=18.696554, Alt.=0.625908m. Speed=19.188000m/h.</desc>
<speed>5.330000</speed>
</trkpt>
<trkpt lat="42.476852" lon="18.692602">
<ele>21.4</ele>
<time>2012-05-02T14:21:54Z</time>
<desc>lat.=42.476852, lon.=18.692602, Alt.=4.774479m. Speed=18.180000m/h.</desc>
<speed>5.050000</speed>
</trkpt>
<trkpt lat="42.477142" lon="18.691107">
<ele>22.0</ele>
<time>2012-05-02T14:22:19Z</time>
<desc>lat.=42.477142, lon.=18.691107, Alt.=6.054996m. Speed=17.712000m/h.</desc>
<speed>4.920000</speed>
</trkpt>
<trkpt lat="42.477180" lon="18.690536">
<ele>21.7</ele>
<time>2012-05-02T14:22:29Z</time>
<desc>lat.=42.477180, lon.=18.690536, Alt.=7.405704m. Speed=16.667999m/h.</desc>
<speed>4.630000</speed>
</trkpt>
<trkpt lat="42.476997" lon="18.690042">
<ele>25.5</ele>
<time>2012-05-02T14:22:39Z</time>
<desc>lat.=42.476997, lon.=18.690042, Alt.=8.648323m. Speed=17.280001m/h.</desc>
<speed>4.800000</speed>
</trkpt>
<trkpt lat="42.474899" lon="18.688505">
<ele>18.5</ele>
<time>2012-05-02T14:23:19Z</time>
<desc>lat.=42.474899, lon.=18.688505, Alt.=7.641788m. Speed=25.596001m/h.</desc>
<speed>7.110000</speed>
</trkpt>
<trkpt lat="42.474594" lon="18.687790">
<ele>18.0</ele>
<time>2012-05-02T14:23:29Z</time>
<desc>lat.=42.474594, lon.=18.687790, Alt.=6.880924m. Speed=23.940001m/h.</desc>
<speed>6.650000</speed>
</trkpt>
<trkpt lat="42.473263" lon="18.686543">
<ele>15.3</ele>
<time>2012-05-02T14:23:54Z</time>
<desc>lat.=42.473263, lon.=18.686543, Alt.=0.227949m. Speed=25.344000m/h.</desc>
<speed>7.040000</speed>
</trkpt>
<trkpt lat="42.472958" lon="18.686424">
<ele>13.7</ele>
<time>2012-05-02T14:23:59Z</time>
<desc>lat.=42.472958, lon.=18.686424, Alt.=-1.019059m. Speed=27.288000m/h.</desc>
<speed>7.580000</speed>
</trkpt>
<trkpt lat="42.470871" lon="18.686979">
<ele>11.4</ele>
<time>2012-05-02T14:24:34Z</time>
<desc>lat.=42.470871, lon.=18.686979, Alt.=-7.388981m. Speed=23.004000m/h.</desc>
<speed>6.390000</speed>
</trkpt>
<trkpt lat="42.469994" lon="18.686642">
<ele>8.3</ele>
<time>2012-05-02T14:24:49Z</time>
<desc>lat.=42.469994, lon.=18.686642, Alt.=-6.814518m. Speed=21.816000m/h.</desc>
<speed>6.060000</speed>
</trkpt>
<trkpt lat="42.469269" lon="18.685980">
<ele>5.8</ele>
<time>2012-05-02T14:25:04Z</time>
<desc>lat.=42.469269, lon.=18.685980, Alt.=-2.694857m. Speed=21.996000m/h.</desc>
<speed>6.110000</speed>
</trkpt>
<trkpt lat="42.467884" lon="18.685482">
<ele>4.0</ele>
<time>2012-05-02T14:25:29Z</time>
<desc>lat.=42.467884, lon.=18.685482, Alt.=-1.061112m. Speed=18.288000m/h.</desc>
<speed>5.080000</speed>
</trkpt>
<trkpt lat="42.467022" lon="18.686443">
<ele>6.4</ele>
<time>2012-05-02T14:25:49Z</time>
<desc>lat.=42.467022, lon.=18.686443, Alt.=1.422868m. Speed=25.704000m/h.</desc>
<speed>7.140000</speed>
</trkpt>
<trkpt lat="42.465752" lon="18.686436">
<ele>4.3</ele>
<time>2012-05-02T14:26:14Z</time>
<desc>lat.=42.465752, lon.=18.686436, Alt.=3.961763m. Speed=18.827999m/h.</desc>
<speed>5.230000</speed>
</trkpt>
<trkpt lat="42.465561" lon="18.686237">
<ele>3.7</ele>
<time>2012-05-02T14:26:19Z</time>
<desc>lat.=42.465561, lon.=18.686237, Alt.=4.295841m. Speed=16.488001m/h.</desc>
<speed>4.580000</speed>
</trkpt>
<trkpt lat="42.465515" lon="18.685593">
<ele>2.7</ele>
<time>2012-05-02T14:27:59Z</time>
<desc>lat.=42.465515, lon.=18.685593, Alt.=1.371476m. Speed=0.000000m/h.</desc>
<speed>0.000000</speed>
</trkpt>
<trkpt lat="42.466122" lon="18.685478">
<ele>0.6</ele>
<time>2012-05-02T14:35:39Z</time>
<desc>lat.=42.466122, lon.=18.685478, Alt.=-0.560524m. Speed=8.424000m/h.</desc>
<speed>2.340000</speed>
</trkpt>
<trkpt lat="42.466782" lon="18.684866">
<ele>0.0</ele>
<time>2012-05-02T14:36:09Z</time>
<desc>lat.=42.466782, lon.=18.684866, Alt.=6.898869m. Speed=12.276000m/h.</desc>
<speed>3.410000</speed>
</trkpt>
<trkpt lat="42.467480" lon="18.683241">
<ele>0.0</ele>
<time>2012-05-02T14:36:54Z</time>
<desc>lat.=42.467480, lon.=18.683241, Alt.=-1.278459m. Speed=12.420000m/h.</desc>
<speed>3.450000</speed>
</trkpt>
<trkpt lat="42.467567" lon="18.681097">
<ele>0.0</ele>
<time>2012-05-02T14:37:44Z</time>
<desc>lat.=42.467567, lon.=18.681097, Alt.=0.002841m. Speed=13.032000m/h.</desc>
<speed>3.620000</speed>
</trkpt>
<trkpt lat="42.467468" lon="18.679794">
<ele>0.0</ele>
<time>2012-05-02T14:38:14Z</time>
<desc>lat.=42.467468, lon.=18.679794, Alt.=-4.936466m. Speed=13.104000m/h.</desc>
<speed>3.640000</speed>
</trkpt>
<trkpt lat="42.467098" lon="18.677519">
<ele>0.0</ele>
<time>2012-05-02T14:39:09Z</time>
<desc>lat.=42.467098, lon.=18.677519, Alt.=-14.396370m. Speed=13.032000m/h.</desc>
<speed>3.620000</speed>
</trkpt>
<trkpt lat="42.466568" lon="18.675526">
<ele>0.0</ele>
<time>2012-05-02T14:39:59Z</time>
<desc>lat.=42.466568, lon.=18.675526, Alt.=-5.935368m. Speed=10.440000m/h.</desc>
<speed>2.900000</speed>
</trkpt>
<trkpt lat="42.466534" lon="18.674686">
<ele>0.5</ele>
<time>2012-05-02T14:40:59Z</time>
<desc>lat.=42.466534, lon.=18.674686, Alt.=-7.663151m. Speed=0.504000m/h.</desc>
<speed>0.140000</speed>
</trkpt>
<trkpt lat="42.466732" lon="18.674379">
<ele>0.2</ele>
<time>2012-05-02T14:42:29Z</time>
<desc>lat.=42.466732, lon.=18.674379, Alt.=-4.825504m. Speed=4.968000m/h.</desc>
<speed>1.380000</speed>
</trkpt>
<trkpt lat="42.466362" lon="18.673502">
<ele>1.4</ele>
<time>2012-05-02T14:42:49Z</time>
<desc>lat.=42.466362, lon.=18.673502, Alt.=-4.271915m. Speed=16.344000m/h.</desc>
<speed>4.540000</speed>
</trkpt>
<trkpt lat="42.465984" lon="18.673321">
<ele>1.9</ele>
<time>2012-05-02T14:42:59Z</time>
<desc>lat.=42.465984, lon.=18.673321, Alt.=-3.009432m. Speed=13.788000m/h.</desc>
<speed>3.830000</speed>
</trkpt>
<trkpt lat="42.463799" lon="18.673479">
<ele>3.1</ele>
<time>2012-05-02T14:49:44Z</time>
<desc>lat.=42.463799, lon.=18.673479, Alt.=-0.492520m. Speed=17.172001m/h.</desc>
<speed>4.770000</speed>
</trkpt>
<trkpt lat="42.463051" lon="18.672960">
<ele>1.8</ele>
<time>2012-05-02T14:50:04Z</time>
<desc>lat.=42.463051, lon.=18.672960, Alt.=4.795963m. Speed=24.084000m/h.</desc>
<speed>6.690000</speed>
</trkpt>
<trkpt lat="42.462543" lon="18.672876">
<ele>1.5</ele>
<time>2012-05-02T14:50:14Z</time>
<desc>lat.=42.462543, lon.=18.672876, Alt.=2.022738m. Speed=19.656000m/h.</desc>
<speed>5.460000</speed>
</trkpt>
<trkpt lat="42.461994" lon="18.673063">
<ele>0.6</ele>
<time>2012-05-02T14:50:24Z</time>
<desc>lat.=42.461994, lon.=18.673063, Alt.=0.625710m. Speed=23.327999m/h.</desc>
<speed>6.480000</speed>
</trkpt>
<trkpt lat="42.461288" lon="18.673742">
<ele>3.6</ele>
<time>2012-05-02T14:50:39Z</time>
<desc>lat.=42.461288, lon.=18.673742, Alt.=0.546120m. Speed=19.836000m/h.</desc>
<speed>5.510000</speed>
</trkpt>
<trkpt lat="42.460823" lon="18.674856">
<ele>4.6</ele>
<time>2012-05-02T14:50:59Z</time>
<desc>lat.=42.460823, lon.=18.674856, Alt.=-0.096320m. Speed=18.431999m/h.</desc>
<speed>5.120000</speed>
</trkpt>
<trkpt lat="42.460442" lon="18.675377">
<ele>2.2</ele>
<time>2012-05-02T14:51:09Z</time>
<desc>lat.=42.460442, lon.=18.675377, Alt.=-1.964890m. Speed=20.988001m/h.</desc>
<speed>5.830000</speed>
</trkpt>
<trkpt lat="42.459934" lon="18.675547">
<ele>1.2</ele>
<time>2012-05-02T14:51:19Z</time>
<desc>lat.=42.459934, lon.=18.675547, Alt.=-3.561251m. Speed=23.184000m/h.</desc>
<speed>6.440000</speed>
</trkpt>
<trkpt lat="42.459526" lon="18.675154">
<ele>0.0</ele>
<time>2012-05-02T14:51:29Z</time>
<desc>lat.=42.459526, lon.=18.675154, Alt.=-4.252995m. Speed=17.964001m/h.</desc>
<speed>4.990000</speed>
</trkpt>
<trkpt lat="42.459404" lon="18.674074">
<ele>3.1</ele>
<time>2012-05-02T14:51:44Z</time>
<desc>lat.=42.459404, lon.=18.674074, Alt.=-5.999821m. Speed=20.808001m/h.</desc>
<speed>5.780000</speed>
</trkpt>
<trkpt lat="42.459503" lon="18.672678">
<ele>4.2</ele>
<time>2012-05-02T14:52:04Z</time>
<desc>lat.=42.459503, lon.=18.672678, Alt.=-7.973942m. Speed=18.468000m/h.</desc>
<speed>5.130000</speed>
</trkpt>
<trkpt lat="42.459164" lon="18.670689">
<ele>9.0</ele>
<time>2012-05-02T14:52:34Z</time>
<desc>lat.=42.459164, lon.=18.670689, Alt.=-10.868294m. Speed=20.448000m/h.</desc>
<speed>5.680000</speed>
</trkpt>
<trkpt lat="42.458527" lon="18.669613">
<ele>4.2</ele>
<time>2012-05-02T14:52:54Z</time>
<desc>lat.=42.458527, lon.=18.669613, Alt.=-8.643684m. Speed=10.440000m/h.</desc>
<speed>2.900000</speed>
</trkpt>
<trkpt lat="42.458149" lon="18.669514">
<ele>0.2</ele>
<time>2012-05-02T14:53:09Z</time>
<desc>lat.=42.458149, lon.=18.669514, Alt.=-3.108187m. Speed=11.556000m/h.</desc>
<speed>3.210000</speed>
</trkpt>
<trkpt lat="42.457344" lon="18.668173">
<ele>0.0</ele>
<time>2012-05-02T14:55:14Z</time>
<desc>lat.=42.457344, lon.=18.668173, Alt.=1.349595m. Speed=15.660000m/h.</desc>
<speed>4.350000</speed>
</trkpt>
<trkpt lat="42.456696" lon="18.664654">
<ele>0.6</ele>
<time>2012-05-02T14:56:09Z</time>
<desc>lat.=42.456696, lon.=18.664654, Alt.=13.323860m. Speed=19.368000m/h.</desc>
<speed>5.380000</speed>
</trkpt>
<trkpt lat="42.456066" lon="18.662491">
<ele>0.6</ele>
<time>2012-05-02T14:57:19Z</time>
<desc>lat.=42.456066, lon.=18.662491, Alt.=6.418888m. Speed=20.087999m/h.</desc>
<speed>5.580000</speed>
</trkpt>
<trkpt lat="42.454575" lon="18.660378">
<ele>0.0</ele>
<time>2012-05-02T14:58:04Z</time>
<desc>lat.=42.454575, lon.=18.660378, Alt.=14.036995m. Speed=20.304001m/h.</desc>
<speed>5.640000</speed>
</trkpt>
<trkpt lat="42.452499" lon="18.658184">
<ele>0.2</ele>
<time>2012-05-02T14:58:59Z</time>
<desc>lat.=42.452499, lon.=18.658184, Alt.=17.066666m. Speed=9.216000m/h.</desc>
<speed>2.560000</speed>
</trkpt>
<trkpt lat="42.452091" lon="18.657999">
<ele>0.5</ele>
<time>2012-05-02T14:59:14Z</time>
<desc>lat.=42.452091, lon.=18.657999, Alt.=8.633430m. Speed=18.180000m/h.</desc>
<speed>5.050000</speed>
</trkpt>
<trkpt lat="42.451393" lon="18.656952">
<ele>0.3</ele>
<time>2012-05-02T14:59:54Z</time>
<desc>lat.=42.451393, lon.=18.656952, Alt.=-0.051125m. Speed=2.484000m/h.</desc>
<speed>0.690000</speed>
</trkpt>
<trkpt lat="42.451454" lon="18.656719">
<ele>1.1</ele>
<time>2012-05-02T15:00:04Z</time>
<desc>lat.=42.451454, lon.=18.656719, Alt.=-1.657304m. Speed=11.016000m/h.</desc>
<speed>3.060000</speed>
</trkpt>
<trkpt lat="42.451771" lon="18.656605">
<ele>2.4</ele>
<time>2012-05-02T15:00:14Z</time>
<desc>lat.=42.451771, lon.=18.656605, Alt.=-1.425401m. Speed=16.848000m/h.</desc>
<speed>4.680000</speed>
</trkpt>
<trkpt lat="42.452698" lon="18.655439">
<ele>5.8</ele>
<time>2012-05-02T15:00:44Z</time>
<desc>lat.=42.452698, lon.=18.655439, Alt.=6.279362m. Speed=13.788000m/h.</desc>
<speed>3.830000</speed>
</trkpt>
<trkpt lat="42.453682" lon="18.654642">
<ele>8.6</ele>
<time>2012-05-02T15:01:14Z</time>
<desc>lat.=42.453682, lon.=18.654642, Alt.=13.964241m. Speed=12.456000m/h.</desc>
<speed>3.460000</speed>
</trkpt>
<trkpt lat="42.453732" lon="18.654203">
<ele>11.0</ele>
<time>2012-05-02T15:01:29Z</time>
<desc>lat.=42.453732, lon.=18.654203, Alt.=19.025650m. Speed=10.584000m/h.</desc>
<speed>2.940000</speed>
</trkpt>
<trkpt lat="42.453545" lon="18.653616">
<ele>9.0</ele>
<time>2012-05-02T15:01:39Z</time>
<desc>lat.=42.453545, lon.=18.653616, Alt.=18.405045m. Speed=21.780001m/h.</desc>
<speed>6.050000</speed>
</trkpt>
<trkpt lat="42.453156" lon="18.653086">
<ele>6.3</ele>
<time>2012-05-02T15:01:49Z</time>
<desc>lat.=42.453156, lon.=18.653086, Alt.=14.087776m. Speed=21.816000m/h.</desc>
<speed>6.060000</speed>
</trkpt>
<trkpt lat="42.452385" lon="18.652538">
<ele>3.8</ele>
<time>2012-05-02T15:02:04Z</time>
<desc>lat.=42.452385, lon.=18.652538, Alt.=13.234505m. Speed=24.264000m/h.</desc>
<speed>6.740000</speed>
</trkpt>
<trkpt lat="42.451485" lon="18.651363">
<ele>5.1</ele>
<time>2012-05-02T15:02:29Z</time>
<desc>lat.=42.451485, lon.=18.651363, Alt.=11.492317m. Speed=7.272000m/h.</desc>
<speed>2.020000</speed>
</trkpt>
<trkpt lat="42.450470" lon="18.651419">
<ele>2.5</ele>
<time>2012-05-02T15:03:04Z</time>
<desc>lat.=42.450470, lon.=18.651419, Alt.=8.093880m. Speed=16.452000m/h.</desc>
<speed>4.570000</speed>
</trkpt>
<trkpt lat="42.449776" lon="18.649288">
<ele>0.4</ele>
<time>2012-05-02T15:03:39Z</time>
<desc>lat.=42.449776, lon.=18.649288, Alt.=4.811710m. Speed=20.916000m/h.</desc>
<speed>5.810000</speed>
</trkpt>
<trkpt lat="42.449135" lon="18.647839">
<ele>0.4</ele>
<time>2012-05-02T15:04:04Z</time>
<desc>lat.=42.449135, lon.=18.647839, Alt.=10.823128m. Speed=21.528000m/h.</desc>
<speed>5.980000</speed>
</trkpt>
<trkpt lat="42.448280" lon="18.646702">
<ele>0.3</ele>
<time>2012-05-02T15:04:29Z</time>
<desc>lat.=42.448280, lon.=18.646702, Alt.=6.526554m. Speed=17.892000m/h.</desc>
<speed>4.970000</speed>
</trkpt>
<trkpt lat="42.447762" lon="18.645123">
<ele>0.2</ele>
<time>2012-05-02T15:04:54Z</time>
<desc>lat.=42.447762, lon.=18.645123, Alt.=1.557817m. Speed=20.556000m/h.</desc>
<speed>5.710000</speed>
</trkpt>
<trkpt lat="42.444092" lon="18.639231">
<ele>0.7</ele>
<time>2012-05-02T15:06:39Z</time>
<desc>lat.=42.444092, lon.=18.639231, Alt.=-1.900285m. Speed=18.827999m/h.</desc>
<speed>5.230000</speed>
</trkpt>
<trkpt lat="42.443359" lon="18.636889">
<ele>1.1</ele>
<time>2012-05-02T15:07:19Z</time>
<desc>lat.=42.443359, lon.=18.636889, Alt.=2.011934m. Speed=16.379999m/h.</desc>
<speed>4.550000</speed>
</trkpt>
<trkpt lat="42.442787" lon="18.633900">
<ele>0.0</ele>
<time>2012-05-02T15:38:19Z</time>
<desc>lat.=42.442787, lon.=18.633900, Alt.=4.463322m. Speed=14.508000m/h.</desc>
<speed>4.030000</speed>
</trkpt>
<trkpt lat="42.441925" lon="18.632727">
<ele>0.0</ele>
<time>2012-05-02T15:38:44Z</time>
<desc>lat.=42.441925, lon.=18.632727, Alt.=6.301823m. Speed=21.204000m/h.</desc>
<speed>5.890000</speed>
</trkpt>
<trkpt lat="42.441669" lon="18.632072">
<ele>0.1</ele>
<time>2012-05-02T15:38:54Z</time>
<desc>lat.=42.441669, lon.=18.632072, Alt.=4.044376m. Speed=21.167999m/h.</desc>
<speed>5.880000</speed>
</trkpt>
<trkpt lat="42.441097" lon="18.631586">
<ele>1.0</ele>
<time>2012-05-02T15:39:09Z</time>
<desc>lat.=42.441097, lon.=18.631586, Alt.=9.942024m. Speed=19.691999m/h.</desc>
<speed>5.470000</speed>
</trkpt>
<trkpt lat="42.441124" lon="18.630268">
<ele>1.8</ele>
<time>2012-05-02T15:39:29Z</time>
<desc>lat.=42.441124, lon.=18.630268, Alt.=8.878304m. Speed=18.756001m/h.</desc>
<speed>5.210000</speed>
</trkpt>
<trkpt lat="42.440277" lon="18.627422">
<ele>0.8</ele>
<time>2012-05-02T15:40:14Z</time>
<desc>lat.=42.440277, lon.=18.627422, Alt.=16.961197m. Speed=21.024000m/h.</desc>
<speed>5.840000</speed>
</trkpt>
<trkpt lat="42.440109" lon="18.626070">
<ele>-0.1</ele>
<time>2012-05-02T15:40:34Z</time>
<desc>lat.=42.440109, lon.=18.626070, Alt.=5.652164m. Speed=17.208000m/h.</desc>
<speed>4.780000</speed>
</trkpt>
<trkpt lat="42.439480" lon="18.624636">
<ele>0.3</ele>
<time>2012-05-02T15:40:59Z</time>
<desc>lat.=42.439480, lon.=18.624636, Alt.=11.399300m. Speed=19.260000m/h.</desc>
<speed>5.350000</speed>
</trkpt>
<trkpt lat="42.439632" lon="18.623100">
<ele>2.0</ele>
<time>2012-05-02T15:41:19Z</time>
<desc>lat.=42.439632, lon.=18.623100, Alt.=8.267952m. Speed=25.775999m/h.</desc>
<speed>7.160000</speed>
</trkpt>
<trkpt lat="42.439243" lon="18.621132">
<ele>1.0</ele>
<time>2012-05-02T15:41:44Z</time>
<desc>lat.=42.439243, lon.=18.621132, Alt.=7.991642m. Speed=25.056000m/h.</desc>
<speed>6.960000</speed>
</trkpt>
<trkpt lat="42.438587" lon="18.619860">
<ele>0.5</ele>
<time>2012-05-02T15:42:04Z</time>
<desc>lat.=42.438587, lon.=18.619860, Alt.=10.639778m. Speed=21.924000m/h.</desc>
<speed>6.090000</speed>
</trkpt>
<trkpt lat="42.438515" lon="18.617212">
<ele>3.8</ele>
<time>2012-05-02T15:42:44Z</time>
<desc>lat.=42.438515, lon.=18.617212, Alt.=9.043343m. Speed=14.616000m/h.</desc>
<speed>4.060000</speed>
</trkpt>
<trkpt lat="42.438255" lon="18.616224">
<ele>0.5</ele>
<time>2012-05-02T15:42:59Z</time>
<desc>lat.=42.438255, lon.=18.616224, Alt.=9.158821m. Speed=20.520000m/h.</desc>
<speed>5.700000</speed>
</trkpt>
<trkpt lat="42.438335" lon="18.614708">
<ele>1.0</ele>
<time>2012-05-02T15:43:19Z</time>
<desc>lat.=42.438335, lon.=18.614708, Alt.=7.679264m. Speed=21.275999m/h.</desc>
<speed>5.910000</speed>
</trkpt>
<trkpt lat="42.437145" lon="18.613728">
<ele>0.7</ele>
<time>2012-05-02T15:43:44Z</time>
<desc>lat.=42.437145, lon.=18.613728, Alt.=4.762150m. Speed=22.572001m/h.</desc>
<speed>6.270000</speed>
</trkpt>
<trkpt lat="42.436237" lon="18.610611">
<ele>2.9</ele>
<time>2012-05-02T15:44:29Z</time>
<desc>lat.=42.436237, lon.=18.610611, Alt.=-1.240891m. Speed=21.455999m/h.</desc>
<speed>5.960000</speed>
</trkpt>
<trkpt lat="42.435284" lon="18.609713">
<ele>0.8</ele>
<time>2012-05-02T15:44:49Z</time>
<desc>lat.=42.435284, lon.=18.609713, Alt.=2.162508m. Speed=26.459999m/h.</desc>
<speed>7.350000</speed>
</trkpt>
<trkpt lat="42.435028" lon="18.607349">
<ele>2.3</ele>
<time>2012-05-02T15:45:24Z</time>
<desc>lat.=42.435028, lon.=18.607349, Alt.=8.960335m. Speed=13.824000m/h.</desc>
<speed>3.840000</speed>
</trkpt>
<trkpt lat="42.435165" lon="18.606251">
<ele>1.5</ele>
<time>2012-05-02T15:45:39Z</time>
<desc>lat.=42.435165, lon.=18.606251, Alt.=7.941593m. Speed=24.084000m/h.</desc>
<speed>6.690000</speed>
</trkpt>
<trkpt lat="42.434837" lon="18.605209">
<ele>0.8</ele>
<time>2012-05-02T15:45:54Z</time>
<desc>lat.=42.434837, lon.=18.605209, Alt.=9.570930m. Speed=17.459999m/h.</desc>
<speed>4.850000</speed>
</trkpt>
<trkpt lat="42.435135" lon="18.604259">
<ele>2.6</ele>
<time>2012-05-02T15:46:09Z</time>
<desc>lat.=42.435135, lon.=18.604259, Alt.=14.079720m. Speed=23.327999m/h.</desc>
<speed>6.480000</speed>
</trkpt>
<trkpt lat="42.435177" lon="18.602859">
<ele>6.0</ele>
<time>2012-05-02T15:46:24Z</time>
<desc>lat.=42.435177, lon.=18.602859, Alt.=10.141243m. Speed=21.492001m/h.</desc>
<speed>5.970000</speed>
</trkpt>
<trkpt lat="42.435593" lon="18.602762">
<ele>5.9</ele>
<time>2012-05-02T15:46:34Z</time>
<desc>lat.=42.435593, lon.=18.602762, Alt.=13.127815m. Speed=13.248000m/h.</desc>
<speed>3.680000</speed>
</trkpt>
<trkpt lat="42.437996" lon="18.594280">
<ele>18.4</ele>
<time>2012-05-02T15:48:44Z</time>
<desc>lat.=42.437996, lon.=18.594280, Alt.=49.906769m. Speed=24.011999m/h.</desc>
<speed>6.670000</speed>
</trkpt>
<trkpt lat="42.438244" lon="18.592804">
<ele>12.8</ele>
<time>2012-05-02T15:48:59Z</time>
<desc>lat.=42.438244, lon.=18.592804, Alt.=33.873566m. Speed=30.167999m/h.</desc>
<speed>8.380000</speed>
</trkpt>
<trkpt lat="42.438217" lon="18.592163">
<ele>10.2</ele>
<time>2012-05-02T15:49:04Z</time>
<desc>lat.=42.438217, lon.=18.592163, Alt.=29.271744m. Speed=37.548000m/h.</desc>
<speed>10.430000</speed>
</trkpt>
<trkpt lat="42.437309" lon="18.590986">
<ele>1.3</ele>
<time>2012-05-02T15:49:19Z</time>
<desc>lat.=42.437309, lon.=18.590986, Alt.=15.459846m. Speed=27.540001m/h.</desc>
<speed>7.650000</speed>
</trkpt>
<trkpt lat="42.437881" lon="18.589190">
<ele>4.6</ele>
<time>2012-05-02T15:49:39Z</time>
<desc>lat.=42.437881, lon.=18.589190, Alt.=15.091438m. Speed=26.424000m/h.</desc>
<speed>7.340000</speed>
</trkpt>
<trkpt lat="42.438751" lon="18.587212">
<ele>1.5</ele>
<time>2012-05-02T15:50:04Z</time>
<desc>lat.=42.438751, lon.=18.587212, Alt.=11.847542m. Speed=24.624001m/h.</desc>
<speed>6.840000</speed>
</trkpt>
<trkpt lat="42.440899" lon="18.583830">
<ele>4.8</ele>
<time>2012-05-02T15:50:54Z</time>
<desc>lat.=42.440899, lon.=18.583830, Alt.=17.415787m. Speed=22.139999m/h.</desc>
<speed>6.150000</speed>
</trkpt>
<trkpt lat="42.441978" lon="18.583132">
<ele>3.3</ele>
<time>2012-05-02T15:51:14Z</time>
<desc>lat.=42.441978, lon.=18.583132, Alt.=16.141861m. Speed=22.176001m/h.</desc>
<speed>6.160000</speed>
</trkpt>
<trkpt lat="42.443245" lon="18.581665">
<ele>2.8</ele>
<time>2012-05-02T15:51:44Z</time>
<desc>lat.=42.443245, lon.=18.581665, Alt.=9.363167m. Speed=25.704000m/h.</desc>
<speed>7.140000</speed>
</trkpt>
<trkpt lat="42.443699" lon="18.580021">
<ele>5.5</ele>
<time>2012-05-02T15:52:29Z</time>
<desc>lat.=42.443699, lon.=18.580021, Alt.=25.138443m. Speed=0.972000m/h.</desc>
<speed>0.270000</speed>
</trkpt>
<trkpt lat="42.444836" lon="18.578098">
<ele>10.1</ele>
<time>2012-05-02T15:55:39Z</time>
<desc>lat.=42.444836, lon.=18.578098, Alt.=24.567642m. Speed=26.820000m/h.</desc>
<speed>7.450000</speed>
</trkpt>
<trkpt lat="42.447262" lon="18.576206">
<ele>3.4</ele>
<time>2012-05-02T15:56:14Z</time>
<desc>lat.=42.447262, lon.=18.576206, Alt.=13.284798m. Speed=29.124001m/h.</desc>
<speed>8.090000</speed>
</trkpt>
<trkpt lat="42.449242" lon="18.574041">
<ele>3.8</ele>
<time>2012-05-02T15:56:54Z</time>
<desc>lat.=42.449242, lon.=18.574041, Alt.=15.703743m. Speed=24.336000m/h.</desc>
<speed>6.760000</speed>
</trkpt>
<trkpt lat="42.450386" lon="18.573412">
<ele>3.1</ele>
<time>2012-05-02T15:57:14Z</time>
<desc>lat.=42.450386, lon.=18.573412, Alt.=12.875862m. Speed=21.240000m/h.</desc>
<speed>5.900000</speed>
</trkpt>
<trkpt lat="42.451115" lon="18.572729">
<ele>3.3</ele>
<time>2012-05-02T15:57:29Z</time>
<desc>lat.=42.451115, lon.=18.572729, Alt.=8.703743m. Speed=21.384001m/h.</desc>
<speed>5.940000</speed>
</trkpt>
<trkpt lat="42.451687" lon="18.571947">
<ele>10.2</ele>
<time>2012-05-02T15:57:44Z</time>
<desc>lat.=42.451687, lon.=18.571947, Alt.=9.274544m. Speed=17.351999m/h.</desc>
<speed>4.820000</speed>
</trkpt>
<trkpt lat="42.451912" lon="18.571205">
<ele>11.7</ele>
<time>2012-05-02T15:58:44Z</time>
<desc>lat.=42.451912, lon.=18.571205, Alt.=16.154068m. Speed=10.368000m/h.</desc>
<speed>2.880000</speed>
</trkpt>
<trkpt lat="42.452507" lon="18.570320">
<ele>17.5</ele>
<time>2012-05-02T15:58:59Z</time>
<desc>lat.=42.452507, lon.=18.570320, Alt.=18.469009m. Speed=27.576000m/h.</desc>
<speed>7.660000</speed>
</trkpt>
<trkpt lat="42.454655" lon="18.568134">
<ele>23.9</ele>
<time>2012-05-02T15:59:59Z</time>
<desc>lat.=42.454655, lon.=18.568134, Alt.=33.321808m. Speed=18.000000m/h.</desc>
<speed>5.000000</speed>
</trkpt>
<trkpt lat="42.455692" lon="18.566133">
<ele>17.3</ele>
<time>2012-05-02T16:00:38Z</time>
<desc>lat.=42.455692, lon.=18.566133, Alt.=11.115852m. Speed=18.756001m/h.</desc>
<speed>5.210000</speed>
</trkpt>
<trkpt lat="42.455776" lon="18.564684">
<ele>17.4</ele>
<time>2012-05-02T16:00:58Z</time>
<desc>lat.=42.455776, lon.=18.564684, Alt.=11.721565m. Speed=25.775999m/h.</desc>
<speed>7.160000</speed>
</trkpt>
<trkpt lat="42.455235" lon="18.561943">
<ele>4.6</ele>
<time>2012-05-02T16:01:23Z</time>
<desc>lat.=42.455235, lon.=18.561943, Alt.=6.408024m. Speed=32.723999m/h.</desc>
<speed>9.090000</speed>
</trkpt>
<trkpt lat="42.455261" lon="18.558357">
<ele>4.9</ele>
<time>2012-05-02T16:02:03Z</time>
<desc>lat.=42.455261, lon.=18.558357, Alt.=9.294075m. Speed=21.563999m/h.</desc>
<speed>5.990000</speed>
</trkpt>
<trkpt lat="42.455040" lon="18.558212">
<ele>4.4</ele>
<time>2012-05-02T16:02:08Z</time>
<desc>lat.=42.455040, lon.=18.558212, Alt.=13.349251m. Speed=22.212000m/h.</desc>
<speed>6.170000</speed>
</trkpt>
<trkpt lat="42.454460" lon="18.558569">
<ele>6.3</ele>
<time>2012-05-02T16:02:18Z</time>
<desc>lat.=42.454460, lon.=18.558569, Alt.=19.768326m. Speed=31.032000m/h.</desc>
<speed>8.620000</speed>
</trkpt>
<trkpt lat="42.453735" lon="18.558491">
<ele>10.2</ele>
<time>2012-05-02T16:02:28Z</time>
<desc>lat.=42.453735, lon.=18.558491, Alt.=25.057388m. Speed=25.452000m/h.</desc>
<speed>7.070000</speed>
</trkpt>
<trkpt lat="42.452801" lon="18.557732">
<ele>12.5</ele>
<time>2012-05-02T16:02:58Z</time>
<desc>lat.=42.452801, lon.=18.557732, Alt.=41.639191m. Speed=12.204000m/h.</desc>
<speed>3.390000</speed>
</trkpt>
<trkpt lat="42.451851" lon="18.555868">
<ele>17.2</ele>
<time>2012-05-02T16:03:38Z</time>
<desc>lat.=42.451851, lon.=18.555868, Alt.=48.359894m. Speed=14.796000m/h.</desc>
<speed>4.110000</speed>
</trkpt>
<trkpt lat="42.451500" lon="18.553638">
<ele>21.6</ele>
<time>2012-05-02T16:04:23Z</time>
<desc>lat.=42.451500, lon.=18.553638, Alt.=46.122589m. Speed=12.888000m/h.</desc>
<speed>3.580000</speed>
</trkpt>
<trkpt lat="42.450867" lon="18.552704">
<ele>21.5</ele>
<time>2012-05-02T16:04:43Z</time>
<desc>lat.=42.450867, lon.=18.552704, Alt.=43.268097m. Speed=28.908001m/h.</desc>
<speed>8.030000</speed>
</trkpt>
<trkpt lat="42.450493" lon="18.551311">
<ele>24.6</ele>
<time>2012-05-02T16:05:03Z</time>
<desc>lat.=42.450493, lon.=18.551311, Alt.=40.022003m. Speed=15.696000m/h.</desc>
<speed>4.360000</speed>
</trkpt>
<trkpt lat="42.450512" lon="18.549557">
<ele>25.7</ele>
<time>2012-05-02T16:05:33Z</time>
<desc>lat.=42.450512, lon.=18.549557, Alt.=33.812042m. Speed=16.452000m/h.</desc>
<speed>4.570000</speed>
</trkpt>
<trkpt lat="42.450848" lon="18.548079">
<ele>30.8</ele>
<time>2012-05-02T16:06:03Z</time>
<desc>lat.=42.450848, lon.=18.548079, Alt.=62.187042m. Speed=19.980000m/h.</desc>
<speed>5.550000</speed>
</trkpt>
<trkpt lat="42.450916" lon="18.546520">
<ele>31.7</ele>
<time>2012-05-02T16:06:38Z</time>
<desc>lat.=42.450916, lon.=18.546520, Alt.=56.760284m. Speed=3.168000m/h.</desc>
<speed>0.880000</speed>
</trkpt>
<trkpt lat="42.450943" lon="18.547174">
<ele>30.8</ele>
<time>2012-05-02T16:06:53Z</time>
<desc>lat.=42.450943, lon.=18.547174, Alt.=53.933136m. Speed=19.260000m/h.</desc>
<speed>5.350000</speed>
</trkpt>
<trkpt lat="42.451237" lon="18.547331">
<ele>34.7</ele>
<time>2012-05-02T16:13:13Z</time>
<desc>lat.=42.451237, lon.=18.547331, Alt.=46.903839m. Speed=2.736000m/h.</desc>
<speed>0.760000</speed>
</trkpt>
<trkpt lat="42.451046" lon="18.546375">
<ele>33.7</ele>
<time>2012-05-02T16:13:38Z</time>
<desc>lat.=42.451046, lon.=18.546375, Alt.=40.293488m. Speed=12.564000m/h.</desc>
<speed>3.490000</speed>
</trkpt>
<trkpt lat="42.451141" lon="18.545164">
<ele>34.1</ele>
<time>2012-05-02T16:13:58Z</time>
<desc>lat.=42.451141, lon.=18.545164, Alt.=35.872589m. Speed=20.268000m/h.</desc>
<speed>5.630000</speed>
</trkpt>
<trkpt lat="42.451672" lon="18.543076">
<ele>38.0</ele>
<time>2012-05-02T16:14:43Z</time>
<desc>lat.=42.451672, lon.=18.543076, Alt.=45.357941m. Speed=15.696000m/h.</desc>
<speed>4.360000</speed>
</trkpt>
<trkpt lat="42.451416" lon="18.540970">
<ele>30.0</ele>
<time>2012-05-02T16:16:18Z</time>
<desc>lat.=42.451416, lon.=18.540970, Alt.=37.987823m. Speed=27.108000m/h.</desc>
<speed>7.530000</speed>
</trkpt>
<trkpt lat="42.450783" lon="18.539602">
<ele>24.5</ele>
<time>2012-05-02T16:16:48Z</time>
<desc>lat.=42.450783, lon.=18.539602, Alt.=40.011261m. Speed=5.436000m/h.</desc>
<speed>1.510000</speed>
</trkpt>
<trkpt lat="42.451363" lon="18.540638">
<ele>30.3</ele>
<time>2012-05-02T16:17:13Z</time>
<desc>lat.=42.451363, lon.=18.540638, Alt.=34.600128m. Speed=17.351999m/h.</desc>
<speed>4.820000</speed>
</trkpt>
<trkpt lat="42.451553" lon="18.541914">
<ele>30.5</ele>
<time>2012-05-02T16:17:28Z</time>
<desc>lat.=42.451553, lon.=18.541914, Alt.=35.129425m. Speed=18.288000m/h.</desc>
<speed>5.080000</speed>
</trkpt>
<trkpt lat="42.451511" lon="18.542767">
<ele>33.7</ele>
<time>2012-05-02T16:17:43Z</time>
<desc>lat.=42.451511, lon.=18.542767, Alt.=45.591339m. Speed=19.476000m/h.</desc>
<speed>5.410000</speed>
</trkpt>
<trkpt lat="42.451641" lon="18.543032">
<ele>37.2</ele>
<time>2012-05-02T16:17:48Z</time>
<desc>lat.=42.451641, lon.=18.543032, Alt.=49.647980m. Speed=17.316000m/h.</desc>
<speed>4.810000</speed>
</trkpt>
<trkpt lat="42.451073" lon="18.544931">
<ele>34.1</ele>
<time>2012-05-02T16:19:08Z</time>
<desc>lat.=42.451073, lon.=18.544931, Alt.=48.319855m. Speed=4.104000m/h.</desc>
<speed>1.140000</speed>
</trkpt>
<trkpt lat="42.451572" lon="18.542995">
<ele>35.7</ele>
<time>2012-05-02T16:20:03Z</time>
<desc>lat.=42.451572, lon.=18.542995, Alt.=53.947784m. Speed=8.460000m/h.</desc>
<speed>2.350000</speed>
</trkpt>
<trkpt lat="42.451530" lon="18.541485">
<ele>29.6</ele>
<time>2012-05-02T16:21:33Z</time>
<desc>lat.=42.451530, lon.=18.541485, Alt.=39.543488m. Speed=28.115999m/h.</desc>
<speed>7.810000</speed>
</trkpt>
<trkpt lat="42.451324" lon="18.540569">
<ele>30.3</ele>
<time>2012-05-02T16:21:43Z</time>
<desc>lat.=42.451324, lon.=18.540569, Alt.=35.908722m. Speed=20.340000m/h.</desc>
<speed>5.650000</speed>
</trkpt>
<trkpt lat="42.450806" lon="18.539644">
<ele>24.5</ele>
<time>2012-05-02T16:22:03Z</time>
<desc>lat.=42.450806, lon.=18.539644, Alt.=33.177277m. Speed=12.996000m/h.</desc>
<speed>3.610000</speed>
</trkpt>
<trkpt lat="42.450695" lon="18.538488">
<ele>26.1</ele>
<time>2012-05-02T16:22:23Z</time>
<desc>lat.=42.450695, lon.=18.538488, Alt.=14.326790m. Speed=2.520000m/h.</desc>
<speed>0.700000</speed>
</trkpt>
<trkpt lat="42.450268" lon="18.538025">
<ele>19.1</ele>
<time>2012-05-02T16:22:33Z</time>
<desc>lat.=42.450268, lon.=18.538025, Alt.=26.512955m. Speed=20.771999m/h.</desc>
<speed>5.770000</speed>
</trkpt>
<trkpt lat="42.450001" lon="18.537228">
<ele>23.4</ele>
<time>2012-05-02T16:22:48Z</time>
<desc>lat.=42.450001, lon.=18.537228, Alt.=29.281998m. Speed=10.008000m/h.</desc>
<speed>2.780000</speed>
</trkpt>
<trkpt lat="42.450363" lon="18.536394">
<ele>35.3</ele>
<time>2012-05-02T16:23:28Z</time>
<desc>lat.=42.450363, lon.=18.536394, Alt.=28.790298m. Speed=13.500000m/h.</desc>
<speed>3.750000</speed>
</trkpt>
<trkpt lat="42.451027" lon="18.536709">
<ele>50.3</ele>
<time>2012-05-02T16:23:48Z</time>
<desc>lat.=42.451027, lon.=18.536709, Alt.=45.048370m. Speed=13.428000m/h.</desc>
<speed>3.730000</speed>
</trkpt>
<trkpt lat="42.451221" lon="18.536554">
<ele>45.7</ele>
<time>2012-05-02T16:23:53Z</time>
<desc>lat.=42.451221, lon.=18.536554, Alt.=48.575714m. Speed=20.160000m/h.</desc>
<speed>5.600000</speed>
</trkpt>
<trkpt lat="42.451378" lon="18.535812">
<ele>36.7</ele>
<time>2012-05-02T16:24:08Z</time>
<desc>lat.=42.451378, lon.=18.535812, Alt.=62.582550m. Speed=9.036000m/h.</desc>
<speed>2.510000</speed>
</trkpt>
<trkpt lat="42.451790" lon="18.535175">
<ele>41.4</ele>
<time>2012-05-02T16:24:28Z</time>
<desc>lat.=42.451790, lon.=18.535175, Alt.=59.023956m. Speed=13.968000m/h.</desc>
<speed>3.880000</speed>
</trkpt>
<trkpt lat="42.451885" lon="18.534132">
<ele>39.8</ele>
<time>2012-05-02T16:24:48Z</time>
<desc>lat.=42.451885, lon.=18.534132, Alt.=59.948761m. Speed=12.924000m/h.</desc>
<speed>3.590000</speed>
</trkpt>
<trkpt lat="42.452892" lon="18.532417">
<ele>47.6</ele>
<time>2012-05-02T16:25:38Z</time>
<desc>lat.=42.452892, lon.=18.532417, Alt.=50.019073m. Speed=3.276000m/h.</desc>
<speed>0.910000</speed>
</trkpt>
<trkpt lat="42.451939" lon="18.533857">
<ele>42.0</ele>
<time>2012-05-02T16:26:08Z</time>
<desc>lat.=42.451939, lon.=18.533857, Alt.=52.507355m. Speed=19.764000m/h.</desc>
<speed>5.490000</speed>
</trkpt>
<trkpt lat="42.451782" lon="18.534565">
<ele>37.6</ele>
<time>2012-05-02T16:26:18Z</time>
<desc>lat.=42.451782, lon.=18.534565, Alt.=48.356964m. Speed=11.376000m/h.</desc>
<speed>3.160000</speed>
</trkpt>
<trkpt lat="42.451904" lon="18.535080">
<ele>43.1</ele>
<time>2012-05-02T16:26:33Z</time>
<desc>lat.=42.451904, lon.=18.535080, Alt.=44.829620m. Speed=15.156000m/h.</desc>
<speed>4.210000</speed>
</trkpt>
<trkpt lat="42.451744" lon="18.536516">
<ele>49.4</ele>
<time>2012-05-02T16:26:58Z</time>
<desc>lat.=42.451744, lon.=18.536516, Alt.=52.147003m. Speed=1.980000m/h.</desc>
<speed>0.550000</speed>
</trkpt>
<trkpt lat="42.451920" lon="18.536581">
<ele>51.2</ele>
<time>2012-05-02T16:27:13Z</time>
<desc>lat.=42.451920, lon.=18.536581, Alt.=56.061066m. Speed=5.760000m/h.</desc>
<speed>1.600000</speed>
</trkpt>
<trkpt lat="42.452564" lon="18.535595">
<ele>56.8</ele>
<time>2012-05-02T16:27:38Z</time>
<desc>lat.=42.452564, lon.=18.535595, Alt.=59.956573m. Speed=1.728000m/h.</desc>
<speed>0.480000</speed>
</trkpt>
<trkpt lat="42.452633" lon="18.534798">
<ele>63.5</ele>
<time>2012-05-02T16:27:58Z</time>
<desc>lat.=42.452633, lon.=18.534798, Alt.=70.352600m. Speed=10.152000m/h.</desc>
<speed>2.820000</speed>
</trkpt>
<trkpt lat="42.453014" lon="18.534126">
<ele>73.1</ele>
<time>2012-05-02T16:29:18Z</time>
<desc>lat.=42.453014, lon.=18.534126, Alt.=80.430725m. Speed=8.712000m/h.</desc>
<speed>2.420000</speed>
</trkpt>
<trkpt lat="42.453129" lon="18.536531">
<ele>76.3</ele>
<time>2012-05-02T16:29:58Z</time>
<desc>lat.=42.453129, lon.=18.536531, Alt.=77.924866m. Speed=20.340000m/h.</desc>
<speed>5.650000</speed>
</trkpt>
<trkpt lat="42.452946" lon="18.537836">
<ele>79.0</ele>
<time>2012-05-02T16:30:18Z</time>
<desc>lat.=42.452946, lon.=18.537836, Alt.=83.331116m. Speed=18.216000m/h.</desc>
<speed>5.060000</speed>
</trkpt>
<trkpt lat="42.453114" lon="18.538704">
<ele>80.3</ele>
<time>2012-05-02T16:30:48Z</time>
<desc>lat.=42.453114, lon.=18.538704, Alt.=82.120178m. Speed=8.784000m/h.</desc>
<speed>2.440000</speed>
</trkpt>
<trkpt lat="42.453148" lon="18.538311">
<ele>82.5</ele>
<time>2012-05-02T16:30:58Z</time>
<desc>lat.=42.453148, lon.=18.538311, Alt.=82.458069m. Speed=8.064000m/h.</desc>
<speed>2.240000</speed>
</trkpt>
<trkpt lat="42.453331" lon="18.538088">
<ele>86.9</ele>
<time>2012-05-02T16:31:18Z</time>
<desc>lat.=42.453331, lon.=18.538088, Alt.=82.127991m. Speed=1.152000m/h.</desc>
<speed>0.320000</speed>
</trkpt>
<trkpt lat="42.453186" lon="18.538633">
<ele>82.2</ele>
<time>2012-05-02T16:31:33Z</time>
<desc>lat.=42.453186, lon.=18.538633, Alt.=82.116272m. Speed=11.160000m/h.</desc>
<speed>3.100000</speed>
</trkpt>
<trkpt lat="42.453503" lon="18.540401">
<ele>85.5</ele>
<time>2012-05-02T16:32:18Z</time>
<desc>lat.=42.453503, lon.=18.540401, Alt.=73.719788m. Speed=13.968000m/h.</desc>
<speed>3.880000</speed>
</trkpt>
<trkpt lat="42.454166" lon="18.541199">
<ele>79.1</ele>
<time>2012-05-02T16:32:38Z</time>
<desc>lat.=42.454166, lon.=18.541199, Alt.=67.717834m. Speed=16.524000m/h.</desc>
<speed>4.590000</speed>
</trkpt>
<trkpt lat="42.454609" lon="18.541201">
<ele>73.1</ele>
<time>2012-05-02T16:32:53Z</time>
<desc>lat.=42.454609, lon.=18.541201, Alt.=60.854034m. Speed=7.956000m/h.</desc>
<speed>2.210000</speed>
</trkpt>
<trkpt lat="42.454952" lon="18.540895">
<ele>74.5</ele>
<time>2012-05-02T16:33:13Z</time>
<desc>lat.=42.454952, lon.=18.540895, Alt.=52.940948m. Speed=8.892000m/h.</desc>
<speed>2.470000</speed>
</trkpt>
<trkpt lat="42.453899" lon="18.540976">
<ele>81.8</ele>
<time>2012-05-02T16:35:43Z</time>
<desc>lat.=42.453899, lon.=18.540976, Alt.=49.446808m. Speed=7.344000m/h.</desc>
<speed>2.040000</speed>
</trkpt>
<trkpt lat="42.454140" lon="18.542015">
<ele>80.0</ele>
<time>2012-05-02T16:35:58Z</time>
<desc>lat.=42.454140, lon.=18.542015, Alt.=52.092316m. Speed=30.996000m/h.</desc>
<speed>8.610000</speed>
</trkpt>
<trkpt lat="42.453754" lon="18.544203">
<ele>72.0</ele>
<time>2012-05-02T16:36:18Z</time>
<desc>lat.=42.453754, lon.=18.544203, Alt.=44.651886m. Speed=31.427999m/h.</desc>
<speed>8.730000</speed>
</trkpt>
<trkpt lat="42.454166" lon="18.546072">
<ele>62.2</ele>
<time>2012-05-02T16:36:48Z</time>
<desc>lat.=42.454166, lon.=18.546072, Alt.=43.092316m. Speed=0.072000m/h.</desc>
<speed>0.020000</speed>
</trkpt>
<trkpt lat="42.454849" lon="18.547792">
<ele>54.4</ele>
<time>2012-05-02T16:37:38Z</time>
<desc>lat.=42.454849, lon.=18.547792, Alt.=37.917511m. Speed=38.520000m/h.</desc>
<speed>10.700000</speed>
</trkpt>
<trkpt lat="42.455025" lon="18.549673">
<ele>44.0</ele>
<time>2012-05-02T16:37:53Z</time>
<desc>lat.=42.455025, lon.=18.549673, Alt.=30.356216m. Speed=32.616001m/h.</desc>
<speed>9.060000</speed>
</trkpt>
<trkpt lat="42.455589" lon="18.551334">
<ele>36.5</ele>
<time>2012-05-02T16:38:08Z</time>
<desc>lat.=42.455589, lon.=18.551334, Alt.=20.806900m. Speed=37.259998m/h.</desc>
<speed>10.350000</speed>
</trkpt>
<trkpt lat="42.455563" lon="18.552029">
<ele>29.0</ele>
<time>2012-05-02T16:38:13Z</time>
<desc>lat.=42.455563, lon.=18.552029, Alt.=17.943130m. Speed=42.299999m/h.</desc>
<speed>11.750000</speed>
</trkpt>
<trkpt lat="42.454899" lon="18.553907">
<ele>25.9</ele>
<time>2012-05-02T16:38:28Z</time>
<desc>lat.=42.454899, lon.=18.553907, Alt.=5.958805m. Speed=38.700001m/h.</desc>
<speed>10.750000</speed>
</trkpt>
<trkpt lat="42.454506" lon="18.556080">
<ele>19.0</ele>
<time>2012-05-02T16:38:48Z</time>
<desc>lat.=42.454506, lon.=18.556080, Alt.=-14.727180m. Speed=19.691999m/h.</desc>
<speed>5.470000</speed>
</trkpt>
<trkpt lat="42.454964" lon="18.557983">
<ele>4.5</ele>
<time>2012-05-02T16:39:13Z</time>
<desc>lat.=42.454964, lon.=18.557983, Alt.=-4.137638m. Speed=22.680000m/h.</desc>
<speed>6.300000</speed>
</trkpt>
<trkpt lat="42.454910" lon="18.558352">
<ele>4.7</ele>
<time>2012-05-02T16:39:18Z</time>
<desc>lat.=42.454910, lon.=18.558352, Alt.=-2.998384m. Speed=24.480000m/h.</desc>
<speed>6.800000</speed>
</trkpt>
<trkpt lat="42.454609" lon="18.558521">
<ele>4.7</ele>
<time>2012-05-02T16:39:23Z</time>
<desc>lat.=42.454609, lon.=18.558521, Alt.=-3.736910m. Speed=27.540001m/h.</desc>
<speed>7.650000</speed>
</trkpt>
<trkpt lat="42.453995" lon="18.558544">
<ele>7.4</ele>
<time>2012-05-02T16:39:33Z</time>
<desc>lat.=42.453995, lon.=18.558544, Alt.=-3.772921m. Speed=20.268000m/h.</desc>
<speed>5.630000</speed>
</trkpt>
<trkpt lat="42.453270" lon="18.558071">
<ele>15.5</ele>
<time>2012-05-02T16:39:48Z</time>
<desc>lat.=42.453270, lon.=18.558071, Alt.=-1.220078m. Speed=18.216000m/h.</desc>
<speed>5.060000</speed>
</trkpt>
<trkpt lat="42.451916" lon="18.555763">
<ele>18.8</ele>
<time>2012-05-02T16:40:33Z</time>
<desc>lat.=42.451916, lon.=18.555763, Alt.=12.355354m. Speed=21.275999m/h.</desc>
<speed>5.910000</speed>
</trkpt>
<trkpt lat="42.451801" lon="18.555292">
<ele>20.0</ele>
<time>2012-05-02T16:40:43Z</time>
<desc>lat.=42.451801, lon.=18.555292, Alt.=14.099007m. Speed=2.988000m/h.</desc>
<speed>0.830000</speed>
</trkpt>
<trkpt lat="42.451828" lon="18.554379">
<ele>24.0</ele>
<time>2012-05-02T16:41:13Z</time>
<desc>lat.=42.451828, lon.=18.554379, Alt.=19.119400m. Speed=15.624000m/h.</desc>
<speed>4.340000</speed>
</trkpt>
<trkpt lat="42.451500" lon="18.552029">
<ele>42.0</ele>
<time>2012-05-02T16:42:28Z</time>
<desc>lat.=42.451500, lon.=18.552029, Alt.=47.476105m. Speed=10.692000m/h.</desc>
<speed>2.970000</speed>
</trkpt>
<trkpt lat="42.451740" lon="18.549519">
<ele>57.1</ele>
<time>2012-05-02T16:43:28Z</time>
<desc>lat.=42.451740, lon.=18.549519, Alt.=53.975128m. Speed=0.108000m/h.</desc>
<speed>0.030000</speed>
</trkpt>
<trkpt lat="42.451347" lon="18.549139">
<ele>45.6</ele>
<time>2012-05-02T16:43:58Z</time>
<desc>lat.=42.451347, lon.=18.549139, Alt.=50.212433m. Speed=0.036000m/h.</desc>
<speed>0.010000</speed>
</trkpt>
<trkpt lat="42.451542" lon="18.548733">
<ele>46.7</ele>
<time>2012-05-02T16:44:13Z</time>
<desc>lat.=42.451542, lon.=18.548733, Alt.=50.696808m. Speed=3.744000m/h.</desc>
<speed>1.040000</speed>
</trkpt>
<trkpt lat="42.451298" lon="18.549192">
<ele>45.1</ele>
<time>2012-05-02T16:44:28Z</time>
<desc>lat.=42.451298, lon.=18.549192, Alt.=51.843292m. Speed=12.528000m/h.</desc>
<speed>3.480000</speed>
</trkpt>
<trkpt lat="42.451721" lon="18.549494">
<ele>56.9</ele>
<time>2012-05-02T16:44:58Z</time>
<desc>lat.=42.451721, lon.=18.549494, Alt.=58.002472m. Speed=9.432000m/h.</desc>
<speed>2.620000</speed>
</trkpt>
<trkpt lat="42.451817" lon="18.549383">
<ele>58.3</ele>
<time>2012-05-02T16:45:03Z</time>
<desc>lat.=42.451817, lon.=18.549383, Alt.=59.410675m. Speed=15.120000m/h.</desc>
<speed>4.200000</speed>
</trkpt>
<trkpt lat="42.452175" lon="18.547764">
<ele>58.2</ele>
<time>2012-05-02T16:45:43Z</time>
<desc>lat.=42.452175, lon.=18.547764, Alt.=68.575256m. Speed=5.472000m/h.</desc>
<speed>1.520000</speed>
</trkpt>
<trkpt lat="42.451923" lon="18.548349">
<ele>53.6</ele>
<time>2012-05-02T16:46:03Z</time>
<desc>lat.=42.451923, lon.=18.548349, Alt.=65.356506m. Speed=15.876000m/h.</desc>
<speed>4.410000</speed>
</trkpt>
<trkpt lat="42.451965" lon="18.547911">
<ele>52.0</ele>
<time>2012-05-02T16:46:08Z</time>
<desc>lat.=42.451965, lon.=18.547911, Alt.=60.500519m. Speed=28.548000m/h.</desc>
<speed>7.930000</speed>
</trkpt>
<trkpt lat="42.451633" lon="18.546608">
<ele>44.5</ele>
<time>2012-05-02T16:46:28Z</time>
<desc>lat.=42.451633, lon.=18.546608, Alt.=52.929230m. Speed=14.580000m/h.</desc>
<speed>4.050000</speed>
</trkpt>
<trkpt lat="42.451111" lon="18.546383">
<ele>34.4</ele>
<time>2012-05-02T16:46:48Z</time>
<desc>lat.=42.451111, lon.=18.546383, Alt.=45.657745m. Speed=0.864000m/h.</desc>
<speed>0.240000</speed>
</trkpt>
<trkpt lat="42.450970" lon="18.546684">
<ele>32.3</ele>
<time>2012-05-02T16:46:58Z</time>
<desc>lat.=42.450970, lon.=18.546684, Alt.=44.576691m. Speed=7.380000m/h.</desc>
<speed>2.050000</speed>
</trkpt>
<trkpt lat="42.450909" lon="18.546532">
<ele>31.5</ele>
<time>2012-05-02T16:47:08Z</time>
<desc>lat.=42.450909, lon.=18.546532, Alt.=42.332550m. Speed=6.156000m/h.</desc>
<speed>1.710000</speed>
</trkpt>
<trkpt lat="42.451256" lon="18.544476">
<ele>35.9</ele>
<time>2012-05-02T16:47:58Z</time>
<desc>lat.=42.451256, lon.=18.544476, Alt.=45.209503m. Speed=7.308000m/h.</desc>
<speed>2.030000</speed>
</trkpt>
<trkpt lat="42.452156" lon="18.542707">
<ele>52.5</ele>
<time>2012-05-02T16:49:03Z</time>
<desc>lat.=42.452156, lon.=18.542707, Alt.=53.574738m. Speed=7.956000m/h.</desc>
<speed>2.210000</speed>
</trkpt>
<trkpt lat="42.452320" lon="18.541939">
<ele>56.5</ele>
<time>2012-05-02T16:49:23Z</time>
<desc>lat.=42.452320, lon.=18.541939, Alt.=59.125519m. Speed=15.120000m/h.</desc>
<speed>4.200000</speed>
</trkpt>
<trkpt lat="42.452644" lon="18.541506">
<ele>60.4</ele>
<time>2012-05-02T16:50:53Z</time>
<desc>lat.=42.452644, lon.=18.541506, Alt.=74.393616m. Speed=0.576000m/h.</desc>
<speed>0.160000</speed>
</trkpt>
</trkseg>
</trk>
</gpx>